<?xml version="1.0" encoding="UTF-8" standalone="no" ?>
<gpx xmlns="http://www.topografix.com/GPX/1/1" xmlns:xsi="http://www.w3.org/2001/XMLSchema-instance" xsi:schemaLocation="http://www.topografix.com/GPX/1/1 http://www.topografix.com/GPX/1/1/gpx.xsd" version="1.1" creator="VisuGPX - https://www.visugpx.com">
  <metadata>
    <name>LGT : Pabu - La vallée du Trieux</name>
    <desc><![CDATA[Une randonnée d'environ 9 km au départ du bourg de Pabu qui vous emmènera dans la belle vallée du Trieux et ses anciens moulins puis vous ramènera via le nouveau chemin de Munehore à votre point de départ.]]></desc>
  </metadata>
  <trk>
    <name><![CDATA[LGT : Pabu - La vallée du Trieux_1]]></name>
    <trkseg>
      <trkpt lat="48.58629" lon="-3.13694">
        <ele>304</ele>
        <time>2016-04-03T07:20:24.1Z</time>
      </trkpt>
      <trkpt lat="48.5863" lon="-3.13694">
        <ele>304</ele>
        <time>2016-04-03T07:20:26.1Z</time>
      </trkpt>
      <trkpt lat="48.58631" lon="-3.13692">
        <ele>303</ele>
        <time>2016-04-03T07:20:29.1Z</time>
      </trkpt>
      <trkpt lat="48.58631" lon="-3.13691">
        <ele>304</ele>
        <time>2016-04-03T07:20:32.1Z</time>
      </trkpt>
      <trkpt lat="48.5863" lon="-3.1369">
        <ele>303</ele>
        <time>2016-04-03T07:20:35.1Z</time>
      </trkpt>
      <trkpt lat="48.5863" lon="-3.1369">
        <ele>303</ele>
        <time>2016-04-03T07:20:37.1Z</time>
      </trkpt>
      <trkpt lat="48.58631" lon="-3.13691">
        <ele>303</ele>
        <time>2016-04-03T07:20:40.1Z</time>
      </trkpt>
      <trkpt lat="48.58632" lon="-3.13694">
        <ele>304</ele>
        <time>2016-04-03T07:20:43.1Z</time>
      </trkpt>
      <trkpt lat="48.58633" lon="-3.13696">
        <ele>304</ele>
        <time>2016-04-03T07:20:45.1Z</time>
      </trkpt>
      <trkpt lat="48.58633" lon="-3.13697">
        <ele>304</ele>
        <time>2016-04-03T07:20:48.1Z</time>
      </trkpt>
      <trkpt lat="48.58632" lon="-3.13698">
        <ele>304</ele>
        <time>2016-04-03T07:20:51.1Z</time>
      </trkpt>
      <trkpt lat="48.58633" lon="-3.13698">
        <ele>304</ele>
        <time>2016-04-03T07:20:53.1Z</time>
      </trkpt>
      <trkpt lat="48.58632" lon="-3.13698">
        <ele>304</ele>
        <time>2016-04-03T07:20:56.1Z</time>
      </trkpt>
      <trkpt lat="48.58633" lon="-3.13697">
        <ele>304</ele>
        <time>2016-04-03T07:20:59.1Z</time>
      </trkpt>
      <trkpt lat="48.58633" lon="-3.13696">
        <ele>304</ele>
        <time>2016-04-03T07:21:02.1Z</time>
      </trkpt>
      <trkpt lat="48.58633" lon="-3.13696">
        <ele>304</ele>
        <time>2016-04-03T07:21:04.1Z</time>
      </trkpt>
      <trkpt lat="48.58634" lon="-3.137">
        <ele>304</ele>
        <time>2016-04-03T07:21:07.1Z</time>
      </trkpt>
      <trkpt lat="48.58635" lon="-3.13704">
        <ele>303</ele>
        <time>2016-04-03T07:21:09.1Z</time>
      </trkpt>
      <trkpt lat="48.58636" lon="-3.13709">
        <ele>303</ele>
        <time>2016-04-03T07:21:12.1Z</time>
      </trkpt>
      <trkpt lat="48.58638" lon="-3.13714">
        <ele>303</ele>
        <time>2016-04-03T07:21:15.1Z</time>
      </trkpt>
      <trkpt lat="48.58638" lon="-3.13717">
        <ele>303</ele>
        <time>2016-04-03T07:21:17.1Z</time>
      </trkpt>
      <trkpt lat="48.58639" lon="-3.13721">
        <ele>303</ele>
        <time>2016-04-03T07:21:20.1Z</time>
      </trkpt>
      <trkpt lat="48.58639" lon="-3.13726">
        <ele>303</ele>
        <time>2016-04-03T07:21:22.1Z</time>
      </trkpt>
      <trkpt lat="48.5864" lon="-3.13732">
        <ele>303</ele>
        <time>2016-04-03T07:21:25.1Z</time>
      </trkpt>
      <trkpt lat="48.5864" lon="-3.13737">
        <ele>303</ele>
        <time>2016-04-03T07:21:28.1Z</time>
      </trkpt>
      <trkpt lat="48.58641" lon="-3.1374">
        <ele>303</ele>
        <time>2016-04-03T07:21:30.1Z</time>
      </trkpt>
      <trkpt lat="48.58641" lon="-3.13746">
        <ele>303</ele>
        <time>2016-04-03T07:21:33.1Z</time>
      </trkpt>
      <trkpt lat="48.58641" lon="-3.13751">
        <ele>303</ele>
        <time>2016-04-03T07:21:36.1Z</time>
      </trkpt>
      <trkpt lat="48.58642" lon="-3.13756">
        <ele>304</ele>
        <time>2016-04-03T07:21:39.1Z</time>
      </trkpt>
      <trkpt lat="48.58643" lon="-3.13761">
        <ele>304</ele>
        <time>2016-04-03T07:21:42.1Z</time>
      </trkpt>
      <trkpt lat="48.58644" lon="-3.13766">
        <ele>304</ele>
        <time>2016-04-03T07:21:45.1Z</time>
      </trkpt>
      <trkpt lat="48.58645" lon="-3.1377">
        <ele>304</ele>
        <time>2016-04-03T07:21:47.1Z</time>
      </trkpt>
      <trkpt lat="48.58646" lon="-3.13775">
        <ele>304</ele>
        <time>2016-04-03T07:21:50.1Z</time>
      </trkpt>
      <trkpt lat="48.58645" lon="-3.13779">
        <ele>304</ele>
        <time>2016-04-03T07:21:52.1Z</time>
      </trkpt>
      <trkpt lat="48.58645" lon="-3.13784">
        <ele>304</ele>
        <time>2016-04-03T07:21:55.1Z</time>
      </trkpt>
      <trkpt lat="48.58644" lon="-3.13789">
        <ele>304</ele>
        <time>2016-04-03T07:21:58.1Z</time>
      </trkpt>
      <trkpt lat="48.58645" lon="-3.13791">
        <ele>304</ele>
        <time>2016-04-03T07:22:00.1Z</time>
      </trkpt>
      <trkpt lat="48.58644" lon="-3.13795">
        <ele>304</ele>
        <time>2016-04-03T07:22:03.1Z</time>
      </trkpt>
      <trkpt lat="48.58645" lon="-3.13799">
        <ele>304</ele>
        <time>2016-04-03T07:22:05.1Z</time>
      </trkpt>
      <trkpt lat="48.58645" lon="-3.13805">
        <ele>304</ele>
        <time>2016-04-03T07:22:08.1Z</time>
      </trkpt>
      <trkpt lat="48.58645" lon="-3.1381">
        <ele>304</ele>
        <time>2016-04-03T07:22:10.1Z</time>
      </trkpt>
      <trkpt lat="48.58645" lon="-3.13814">
        <ele>304</ele>
        <time>2016-04-03T07:22:13.1Z</time>
      </trkpt>
      <trkpt lat="48.58646" lon="-3.1382">
        <ele>304</ele>
        <time>2016-04-03T07:22:16.1Z</time>
      </trkpt>
      <trkpt lat="48.58645" lon="-3.13825">
        <ele>304</ele>
        <time>2016-04-03T07:22:19.1Z</time>
      </trkpt>
      <trkpt lat="48.58645" lon="-3.13831">
        <ele>304</ele>
        <time>2016-04-03T07:22:22.1Z</time>
      </trkpt>
      <trkpt lat="48.58645" lon="-3.13835">
        <ele>304</ele>
        <time>2016-04-03T07:22:24.1Z</time>
      </trkpt>
      <trkpt lat="48.58645" lon="-3.1384">
        <ele>304</ele>
        <time>2016-04-03T07:22:26.1Z</time>
      </trkpt>
      <trkpt lat="48.58645" lon="-3.13844">
        <ele>304</ele>
        <time>2016-04-03T07:22:29.1Z</time>
      </trkpt>
      <trkpt lat="48.58645" lon="-3.1385">
        <ele>304</ele>
        <time>2016-04-03T07:22:31.1Z</time>
      </trkpt>
      <trkpt lat="48.58645" lon="-3.13854">
        <ele>305</ele>
        <time>2016-04-03T07:22:34.1Z</time>
      </trkpt>
      <trkpt lat="48.58645" lon="-3.13858">
        <ele>305</ele>
        <time>2016-04-03T07:22:36.1Z</time>
      </trkpt>
      <trkpt lat="48.58645" lon="-3.13864">
        <ele>305</ele>
        <time>2016-04-03T07:22:39.1Z</time>
      </trkpt>
      <trkpt lat="48.58645" lon="-3.1387">
        <ele>305</ele>
        <time>2016-04-03T07:22:41.1Z</time>
      </trkpt>
      <trkpt lat="48.58645" lon="-3.13874">
        <ele>305</ele>
        <time>2016-04-03T07:22:44.1Z</time>
      </trkpt>
      <trkpt lat="48.58645" lon="-3.13877">
        <ele>305</ele>
        <time>2016-04-03T07:22:46.1Z</time>
      </trkpt>
      <trkpt lat="48.58645" lon="-3.13883">
        <ele>305</ele>
        <time>2016-04-03T07:22:49.1Z</time>
      </trkpt>
      <trkpt lat="48.58645" lon="-3.13887">
        <ele>305</ele>
        <time>2016-04-03T07:22:51.1Z</time>
      </trkpt>
      <trkpt lat="48.58645" lon="-3.13893">
        <ele>305</ele>
        <time>2016-04-03T07:22:54.1Z</time>
      </trkpt>
      <trkpt lat="48.58645" lon="-3.13898">
        <ele>305</ele>
        <time>2016-04-03T07:22:57.1Z</time>
      </trkpt>
      <trkpt lat="48.58645" lon="-3.13905">
        <ele>305</ele>
        <time>2016-04-03T07:23:00.1Z</time>
      </trkpt>
      <trkpt lat="48.58645" lon="-3.13911">
        <ele>305</ele>
        <time>2016-04-03T07:23:03.1Z</time>
      </trkpt>
      <trkpt lat="48.58645" lon="-3.13915">
        <ele>305</ele>
        <time>2016-04-03T07:23:06.1Z</time>
      </trkpt>
      <trkpt lat="48.58646" lon="-3.1392">
        <ele>305</ele>
        <time>2016-04-03T07:23:09.1Z</time>
      </trkpt>
      <trkpt lat="48.58646" lon="-3.13924">
        <ele>305</ele>
        <time>2016-04-03T07:23:11.1Z</time>
      </trkpt>
      <trkpt lat="48.58646" lon="-3.13928">
        <ele>306</ele>
        <time>2016-04-03T07:23:14.1Z</time>
      </trkpt>
      <trkpt lat="48.58646" lon="-3.13933">
        <ele>306</ele>
        <time>2016-04-03T07:23:17.1Z</time>
      </trkpt>
      <trkpt lat="48.58646" lon="-3.13938">
        <ele>307</ele>
        <time>2016-04-03T07:23:19.1Z</time>
      </trkpt>
      <trkpt lat="48.58645" lon="-3.13942">
        <ele>307</ele>
        <time>2016-04-03T07:23:22.1Z</time>
      </trkpt>
      <trkpt lat="48.58645" lon="-3.13947">
        <ele>307</ele>
        <time>2016-04-03T07:23:24.1Z</time>
      </trkpt>
      <trkpt lat="48.58645" lon="-3.1395">
        <ele>307</ele>
        <time>2016-04-03T07:23:27.1Z</time>
      </trkpt>
      <trkpt lat="48.58645" lon="-3.13957">
        <ele>307</ele>
        <time>2016-04-03T07:23:30.1Z</time>
      </trkpt>
      <trkpt lat="48.58645" lon="-3.13963">
        <ele>307</ele>
        <time>2016-04-03T07:23:33.1Z</time>
      </trkpt>
      <trkpt lat="48.58645" lon="-3.13966">
        <ele>307</ele>
        <time>2016-04-03T07:23:35.1Z</time>
      </trkpt>
      <trkpt lat="48.58645" lon="-3.13971">
        <ele>307</ele>
        <time>2016-04-03T07:23:38.1Z</time>
      </trkpt>
      <trkpt lat="48.58645" lon="-3.13975">
        <ele>307</ele>
        <time>2016-04-03T07:23:40.1Z</time>
      </trkpt>
      <trkpt lat="48.58644" lon="-3.1398">
        <ele>307</ele>
        <time>2016-04-03T07:23:42.1Z</time>
      </trkpt>
      <trkpt lat="48.58643" lon="-3.13986">
        <ele>308</ele>
        <time>2016-04-03T07:23:46.1Z</time>
      </trkpt>
      <trkpt lat="48.58643" lon="-3.13991">
        <ele>308</ele>
        <time>2016-04-03T07:23:48.1Z</time>
      </trkpt>
      <trkpt lat="48.58643" lon="-3.13997">
        <ele>308</ele>
        <time>2016-04-03T07:23:52.1Z</time>
      </trkpt>
      <trkpt lat="48.58643" lon="-3.14">
        <ele>308</ele>
        <time>2016-04-03T07:23:54.1Z</time>
      </trkpt>
      <trkpt lat="48.58644" lon="-3.14004">
        <ele>308</ele>
        <time>2016-04-03T07:23:56.1Z</time>
      </trkpt>
      <trkpt lat="48.58645" lon="-3.14007">
        <ele>308</ele>
        <time>2016-04-03T07:23:59.1Z</time>
      </trkpt>
      <trkpt lat="48.58648" lon="-3.14011">
        <ele>308</ele>
        <time>2016-04-03T07:24:01.1Z</time>
      </trkpt>
      <trkpt lat="48.58649" lon="-3.14016">
        <ele>308</ele>
        <time>2016-04-03T07:24:05.1Z</time>
      </trkpt>
      <trkpt lat="48.58652" lon="-3.1402">
        <ele>308</ele>
        <time>2016-04-03T07:24:07.1Z</time>
      </trkpt>
      <trkpt lat="48.58654" lon="-3.14024">
        <ele>307</ele>
        <time>2016-04-03T07:24:10.1Z</time>
      </trkpt>
      <trkpt lat="48.58656" lon="-3.14027">
        <ele>307</ele>
        <time>2016-04-03T07:24:13.1Z</time>
      </trkpt>
      <trkpt lat="48.58659" lon="-3.14031">
        <ele>307</ele>
        <time>2016-04-03T07:24:16.1Z</time>
      </trkpt>
      <trkpt lat="48.5866" lon="-3.14035">
        <ele>306</ele>
        <time>2016-04-03T07:24:19.1Z</time>
      </trkpt>
      <trkpt lat="48.58659" lon="-3.14039">
        <ele>306</ele>
        <time>2016-04-03T07:24:21.1Z</time>
      </trkpt>
      <trkpt lat="48.58656" lon="-3.14041">
        <ele>306</ele>
        <time>2016-04-03T07:24:24.1Z</time>
      </trkpt>
      <trkpt lat="48.58654" lon="-3.14042">
        <ele>306</ele>
        <time>2016-04-03T07:24:27.1Z</time>
      </trkpt>
      <trkpt lat="48.58652" lon="-3.14042">
        <ele>306</ele>
        <time>2016-04-03T07:24:29.1Z</time>
      </trkpt>
      <trkpt lat="48.5865" lon="-3.1404">
        <ele>307</ele>
        <time>2016-04-03T07:24:31.1Z</time>
      </trkpt>
      <trkpt lat="48.58649" lon="-3.14039">
        <ele>307</ele>
        <time>2016-04-03T07:24:34.1Z</time>
      </trkpt>
      <trkpt lat="48.58649" lon="-3.14039">
        <ele>307</ele>
        <time>2016-04-03T07:24:36.1Z</time>
      </trkpt>
      <trkpt lat="48.58649" lon="-3.14037">
        <ele>307</ele>
        <time>2016-04-03T07:24:39.1Z</time>
      </trkpt>
      <trkpt lat="48.58648" lon="-3.14036">
        <ele>307</ele>
        <time>2016-04-03T07:24:41.1Z</time>
      </trkpt>
      <trkpt lat="48.58648" lon="-3.14034">
        <ele>307</ele>
        <time>2016-04-03T07:24:43.1Z</time>
      </trkpt>
      <trkpt lat="48.58648" lon="-3.14034">
        <ele>307</ele>
        <time>2016-04-03T07:24:46.1Z</time>
      </trkpt>
      <trkpt lat="48.58647" lon="-3.14033">
        <ele>307</ele>
        <time>2016-04-03T07:24:48.1Z</time>
      </trkpt>
      <trkpt lat="48.58647" lon="-3.14032">
        <ele>307</ele>
        <time>2016-04-03T07:24:52.1Z</time>
      </trkpt>
      <trkpt lat="48.58646" lon="-3.14032">
        <ele>307</ele>
        <time>2016-04-03T07:24:54.1Z</time>
      </trkpt>
      <trkpt lat="48.58646" lon="-3.14031">
        <ele>307</ele>
        <time>2016-04-03T07:24:57.1Z</time>
      </trkpt>
      <trkpt lat="48.58646" lon="-3.14031">
        <ele>307</ele>
        <time>2016-04-03T07:25:00.1Z</time>
      </trkpt>
      <trkpt lat="48.58646" lon="-3.14031">
        <ele>308</ele>
        <time>2016-04-03T07:25:02.1Z</time>
      </trkpt>
      <trkpt lat="48.58646" lon="-3.14032">
        <ele>308</ele>
        <time>2016-04-03T07:25:05.1Z</time>
      </trkpt>
      <trkpt lat="48.58646" lon="-3.14033">
        <ele>308</ele>
        <time>2016-04-03T07:25:07.1Z</time>
      </trkpt>
      <trkpt lat="48.58646" lon="-3.14033">
        <ele>308</ele>
        <time>2016-04-03T07:25:10.1Z</time>
      </trkpt>
      <trkpt lat="48.58644" lon="-3.14034">
        <ele>308</ele>
        <time>2016-04-03T07:25:12.1Z</time>
      </trkpt>
      <trkpt lat="48.58643" lon="-3.14034">
        <ele>308</ele>
        <time>2016-04-03T07:25:15.1Z</time>
      </trkpt>
      <trkpt lat="48.58641" lon="-3.14034">
        <ele>308</ele>
        <time>2016-04-03T07:25:18.1Z</time>
      </trkpt>
      <trkpt lat="48.5864" lon="-3.14036">
        <ele>308</ele>
        <time>2016-04-03T07:25:20.1Z</time>
      </trkpt>
      <trkpt lat="48.58637" lon="-3.14037">
        <ele>308</ele>
        <time>2016-04-03T07:25:23.1Z</time>
      </trkpt>
      <trkpt lat="48.58634" lon="-3.14038">
        <ele>308</ele>
        <time>2016-04-03T07:25:25.1Z</time>
      </trkpt>
      <trkpt lat="48.58632" lon="-3.14039">
        <ele>308</ele>
        <time>2016-04-03T07:25:27.1Z</time>
      </trkpt>
      <trkpt lat="48.5863" lon="-3.14041">
        <ele>308</ele>
        <time>2016-04-03T07:25:30.1Z</time>
      </trkpt>
      <trkpt lat="48.58627" lon="-3.14042">
        <ele>308</ele>
        <time>2016-04-03T07:25:33.1Z</time>
      </trkpt>
      <trkpt lat="48.58625" lon="-3.14043">
        <ele>308</ele>
        <time>2016-04-03T07:25:36.1Z</time>
      </trkpt>
      <trkpt lat="48.58621" lon="-3.14043">
        <ele>309</ele>
        <time>2016-04-03T07:25:38.1Z</time>
      </trkpt>
      <trkpt lat="48.58619" lon="-3.14045">
        <ele>309</ele>
        <time>2016-04-03T07:25:41.1Z</time>
      </trkpt>
      <trkpt lat="48.58616" lon="-3.14046">
        <ele>310</ele>
        <time>2016-04-03T07:25:43.1Z</time>
      </trkpt>
      <trkpt lat="48.58614" lon="-3.14047">
        <ele>310</ele>
        <time>2016-04-03T07:25:45.1Z</time>
      </trkpt>
      <trkpt lat="48.58612" lon="-3.14048">
        <ele>310</ele>
        <time>2016-04-03T07:25:49.1Z</time>
      </trkpt>
      <trkpt lat="48.5861" lon="-3.14049">
        <ele>310</ele>
        <time>2016-04-03T07:25:51.1Z</time>
      </trkpt>
      <trkpt lat="48.58608" lon="-3.1405">
        <ele>310</ele>
        <time>2016-04-03T07:25:54.1Z</time>
      </trkpt>
      <trkpt lat="48.58606" lon="-3.14051">
        <ele>310</ele>
        <time>2016-04-03T07:25:56.1Z</time>
      </trkpt>
      <trkpt lat="48.58603" lon="-3.14052">
        <ele>310</ele>
        <time>2016-04-03T07:25:59.1Z</time>
      </trkpt>
      <trkpt lat="48.586" lon="-3.14053">
        <ele>310</ele>
        <time>2016-04-03T07:26:02.1Z</time>
      </trkpt>
      <trkpt lat="48.58597" lon="-3.14054">
        <ele>310</ele>
        <time>2016-04-03T07:26:05.1Z</time>
      </trkpt>
      <trkpt lat="48.58595" lon="-3.14057">
        <ele>310</ele>
        <time>2016-04-03T07:26:08.1Z</time>
      </trkpt>
      <trkpt lat="48.58592" lon="-3.14059">
        <ele>310</ele>
        <time>2016-04-03T07:26:11.1Z</time>
      </trkpt>
      <trkpt lat="48.58591" lon="-3.1406">
        <ele>310</ele>
        <time>2016-04-03T07:26:13.1Z</time>
      </trkpt>
      <trkpt lat="48.58589" lon="-3.14061">
        <ele>311</ele>
        <time>2016-04-03T07:26:16.1Z</time>
      </trkpt>
      <trkpt lat="48.58587" lon="-3.14062">
        <ele>311</ele>
        <time>2016-04-03T07:26:18.1Z</time>
      </trkpt>
      <trkpt lat="48.58585" lon="-3.14063">
        <ele>311</ele>
        <time>2016-04-03T07:26:21.1Z</time>
      </trkpt>
      <trkpt lat="48.58583" lon="-3.14064">
        <ele>312</ele>
        <time>2016-04-03T07:26:23.1Z</time>
      </trkpt>
      <trkpt lat="48.5858" lon="-3.14064">
        <ele>312</ele>
        <time>2016-04-03T07:26:26.1Z</time>
      </trkpt>
      <trkpt lat="48.58576" lon="-3.14065">
        <ele>312</ele>
        <time>2016-04-03T07:26:29.1Z</time>
      </trkpt>
      <trkpt lat="48.58574" lon="-3.14066">
        <ele>312</ele>
        <time>2016-04-03T07:26:32.1Z</time>
      </trkpt>
      <trkpt lat="48.58571" lon="-3.14067">
        <ele>313</ele>
        <time>2016-04-03T07:26:34.1Z</time>
      </trkpt>
      <trkpt lat="48.58568" lon="-3.14068">
        <ele>312</ele>
        <time>2016-04-03T07:26:36.1Z</time>
      </trkpt>
      <trkpt lat="48.58565" lon="-3.14069">
        <ele>313</ele>
        <time>2016-04-03T07:26:39.1Z</time>
      </trkpt>
      <trkpt lat="48.58563" lon="-3.1407">
        <ele>313</ele>
        <time>2016-04-03T07:26:41.1Z</time>
      </trkpt>
      <trkpt lat="48.58561" lon="-3.14071">
        <ele>313</ele>
        <time>2016-04-03T07:26:44.1Z</time>
      </trkpt>
      <trkpt lat="48.58557" lon="-3.14072">
        <ele>313</ele>
        <time>2016-04-03T07:26:46.1Z</time>
      </trkpt>
      <trkpt lat="48.58555" lon="-3.14073">
        <ele>313</ele>
        <time>2016-04-03T07:26:48.1Z</time>
      </trkpt>
      <trkpt lat="48.58553" lon="-3.14074">
        <ele>313</ele>
        <time>2016-04-03T07:26:50.1Z</time>
      </trkpt>
      <trkpt lat="48.5855" lon="-3.14074">
        <ele>313</ele>
        <time>2016-04-03T07:26:53.1Z</time>
      </trkpt>
      <trkpt lat="48.58546" lon="-3.14074">
        <ele>313</ele>
        <time>2016-04-03T07:26:56.1Z</time>
      </trkpt>
      <trkpt lat="48.58544" lon="-3.14075">
        <ele>313</ele>
        <time>2016-04-03T07:26:58.1Z</time>
      </trkpt>
      <trkpt lat="48.58541" lon="-3.14076">
        <ele>314</ele>
        <time>2016-04-03T07:27:01.1Z</time>
      </trkpt>
      <trkpt lat="48.58538" lon="-3.14076">
        <ele>314</ele>
        <time>2016-04-03T07:27:04.1Z</time>
      </trkpt>
      <trkpt lat="48.58535" lon="-3.14076">
        <ele>314</ele>
        <time>2016-04-03T07:27:06.1Z</time>
      </trkpt>
      <trkpt lat="48.58533" lon="-3.14076">
        <ele>314</ele>
        <time>2016-04-03T07:27:09.1Z</time>
      </trkpt>
      <trkpt lat="48.5853" lon="-3.14077">
        <ele>314</ele>
        <time>2016-04-03T07:27:11.1Z</time>
      </trkpt>
      <trkpt lat="48.58527" lon="-3.14078">
        <ele>314</ele>
        <time>2016-04-03T07:27:15.1Z</time>
      </trkpt>
      <trkpt lat="48.58523" lon="-3.14079">
        <ele>314</ele>
        <time>2016-04-03T07:27:17.1Z</time>
      </trkpt>
      <trkpt lat="48.58521" lon="-3.1408">
        <ele>314</ele>
        <time>2016-04-03T07:27:19.1Z</time>
      </trkpt>
      <trkpt lat="48.58517" lon="-3.14081">
        <ele>314</ele>
        <time>2016-04-03T07:27:22.1Z</time>
      </trkpt>
      <trkpt lat="48.58514" lon="-3.14081">
        <ele>314</ele>
        <time>2016-04-03T07:27:24.1Z</time>
      </trkpt>
      <trkpt lat="48.58512" lon="-3.14082">
        <ele>313</ele>
        <time>2016-04-03T07:27:26.1Z</time>
      </trkpt>
      <trkpt lat="48.58509" lon="-3.14083">
        <ele>314</ele>
        <time>2016-04-03T07:27:29.1Z</time>
      </trkpt>
      <trkpt lat="48.58506" lon="-3.14083">
        <ele>314</ele>
        <time>2016-04-03T07:27:31.1Z</time>
      </trkpt>
      <trkpt lat="48.58502" lon="-3.14082">
        <ele>315</ele>
        <time>2016-04-03T07:27:34.1Z</time>
      </trkpt>
      <trkpt lat="48.58498" lon="-3.14082">
        <ele>315</ele>
        <time>2016-04-03T07:27:37.1Z</time>
      </trkpt>
      <trkpt lat="48.58494" lon="-3.14082">
        <ele>315</ele>
        <time>2016-04-03T07:27:40.1Z</time>
      </trkpt>
      <trkpt lat="48.5849" lon="-3.14084">
        <ele>314</ele>
        <time>2016-04-03T07:27:43.1Z</time>
      </trkpt>
      <trkpt lat="48.58488" lon="-3.14085">
        <ele>315</ele>
        <time>2016-04-03T07:27:45.1Z</time>
      </trkpt>
      <trkpt lat="48.58485" lon="-3.14085">
        <ele>315</ele>
        <time>2016-04-03T07:27:47.1Z</time>
      </trkpt>
      <trkpt lat="48.58482" lon="-3.14087">
        <ele>315</ele>
        <time>2016-04-03T07:27:50.1Z</time>
      </trkpt>
      <trkpt lat="48.58477" lon="-3.14088">
        <ele>315</ele>
        <time>2016-04-03T07:27:53.1Z</time>
      </trkpt>
      <trkpt lat="48.58474" lon="-3.1409">
        <ele>314</ele>
        <time>2016-04-03T07:27:56.1Z</time>
      </trkpt>
      <trkpt lat="48.58472" lon="-3.14092">
        <ele>314</ele>
        <time>2016-04-03T07:27:58.1Z</time>
      </trkpt>
      <trkpt lat="48.58468" lon="-3.14094">
        <ele>315</ele>
        <time>2016-04-03T07:28:01.1Z</time>
      </trkpt>
      <trkpt lat="48.58466" lon="-3.14095">
        <ele>315</ele>
        <time>2016-04-03T07:28:03.1Z</time>
      </trkpt>
      <trkpt lat="48.58463" lon="-3.14099">
        <ele>315</ele>
        <time>2016-04-03T07:28:06.1Z</time>
      </trkpt>
      <trkpt lat="48.58461" lon="-3.14103">
        <ele>315</ele>
        <time>2016-04-03T07:28:09.1Z</time>
      </trkpt>
      <trkpt lat="48.58459" lon="-3.14105">
        <ele>314</ele>
        <time>2016-04-03T07:28:11.1Z</time>
      </trkpt>
      <trkpt lat="48.58457" lon="-3.14108">
        <ele>314</ele>
        <time>2016-04-03T07:28:13.1Z</time>
      </trkpt>
      <trkpt lat="48.58454" lon="-3.14112">
        <ele>315</ele>
        <time>2016-04-03T07:28:16.1Z</time>
      </trkpt>
      <trkpt lat="48.58452" lon="-3.14116">
        <ele>315</ele>
        <time>2016-04-03T07:28:19.1Z</time>
      </trkpt>
      <trkpt lat="48.58449" lon="-3.14119">
        <ele>315</ele>
        <time>2016-04-03T07:28:22.1Z</time>
      </trkpt>
      <trkpt lat="48.58446" lon="-3.14121">
        <ele>315</ele>
        <time>2016-04-03T07:28:25.1Z</time>
      </trkpt>
      <trkpt lat="48.58443" lon="-3.14122">
        <ele>315</ele>
        <time>2016-04-03T07:28:28.1Z</time>
      </trkpt>
      <trkpt lat="48.5844" lon="-3.14125">
        <ele>314</ele>
        <time>2016-04-03T07:28:30.1Z</time>
      </trkpt>
      <trkpt lat="48.58437" lon="-3.14128">
        <ele>314</ele>
        <time>2016-04-03T07:28:33.1Z</time>
      </trkpt>
      <trkpt lat="48.58433" lon="-3.14129">
        <ele>314</ele>
        <time>2016-04-03T07:28:37.1Z</time>
      </trkpt>
      <trkpt lat="48.58429" lon="-3.1413">
        <ele>315</ele>
        <time>2016-04-03T07:28:39.1Z</time>
      </trkpt>
      <trkpt lat="48.58427" lon="-3.1413">
        <ele>315</ele>
        <time>2016-04-03T07:28:41.1Z</time>
      </trkpt>
      <trkpt lat="48.58423" lon="-3.14131">
        <ele>315</ele>
        <time>2016-04-03T07:28:44.1Z</time>
      </trkpt>
      <trkpt lat="48.58421" lon="-3.14132">
        <ele>315</ele>
        <time>2016-04-03T07:28:46.1Z</time>
      </trkpt>
      <trkpt lat="48.58417" lon="-3.14134">
        <ele>315</ele>
        <time>2016-04-03T07:28:49.1Z</time>
      </trkpt>
      <trkpt lat="48.58415" lon="-3.14136">
        <ele>315</ele>
        <time>2016-04-03T07:28:51.1Z</time>
      </trkpt>
      <trkpt lat="48.58411" lon="-3.14138">
        <ele>315</ele>
        <time>2016-04-03T07:28:54.1Z</time>
      </trkpt>
      <trkpt lat="48.5841" lon="-3.14139">
        <ele>315</ele>
        <time>2016-04-03T07:28:56.1Z</time>
      </trkpt>
      <trkpt lat="48.58407" lon="-3.14141">
        <ele>315</ele>
        <time>2016-04-03T07:28:59.1Z</time>
      </trkpt>
      <trkpt lat="48.58405" lon="-3.14142">
        <ele>315</ele>
        <time>2016-04-03T07:29:02.1Z</time>
      </trkpt>
      <trkpt lat="48.58402" lon="-3.14144">
        <ele>315</ele>
        <time>2016-04-03T07:29:04.1Z</time>
      </trkpt>
      <trkpt lat="48.584" lon="-3.14145">
        <ele>315</ele>
        <time>2016-04-03T07:29:06.1Z</time>
      </trkpt>
      <trkpt lat="48.58397" lon="-3.14147">
        <ele>315</ele>
        <time>2016-04-03T07:29:09.1Z</time>
      </trkpt>
      <trkpt lat="48.58395" lon="-3.14148">
        <ele>315</ele>
        <time>2016-04-03T07:29:11.1Z</time>
      </trkpt>
      <trkpt lat="48.58392" lon="-3.14149">
        <ele>315</ele>
        <time>2016-04-03T07:29:15.1Z</time>
      </trkpt>
      <trkpt lat="48.58389" lon="-3.1415">
        <ele>315</ele>
        <time>2016-04-03T07:29:17.1Z</time>
      </trkpt>
      <trkpt lat="48.58385" lon="-3.14152">
        <ele>315</ele>
        <time>2016-04-03T07:29:20.1Z</time>
      </trkpt>
      <trkpt lat="48.58383" lon="-3.14153">
        <ele>315</ele>
        <time>2016-04-03T07:29:22.1Z</time>
      </trkpt>
      <trkpt lat="48.5838" lon="-3.14154">
        <ele>315</ele>
        <time>2016-04-03T07:29:25.1Z</time>
      </trkpt>
      <trkpt lat="48.58379" lon="-3.14155">
        <ele>315</ele>
        <time>2016-04-03T07:29:27.1Z</time>
      </trkpt>
      <trkpt lat="48.58376" lon="-3.14157">
        <ele>315</ele>
        <time>2016-04-03T07:29:30.1Z</time>
      </trkpt>
      <trkpt lat="48.58373" lon="-3.14158">
        <ele>315</ele>
        <time>2016-04-03T07:29:33.1Z</time>
      </trkpt>
      <trkpt lat="48.5837" lon="-3.14159">
        <ele>315</ele>
        <time>2016-04-03T07:29:36.1Z</time>
      </trkpt>
      <trkpt lat="48.58366" lon="-3.1416">
        <ele>315</ele>
        <time>2016-04-03T07:29:39.1Z</time>
      </trkpt>
      <trkpt lat="48.58364" lon="-3.14161">
        <ele>315</ele>
        <time>2016-04-03T07:29:41.1Z</time>
      </trkpt>
      <trkpt lat="48.58361" lon="-3.14162">
        <ele>315</ele>
        <time>2016-04-03T07:29:44.1Z</time>
      </trkpt>
      <trkpt lat="48.58357" lon="-3.14164">
        <ele>316</ele>
        <time>2016-04-03T07:29:47.1Z</time>
      </trkpt>
      <trkpt lat="48.58354" lon="-3.14165">
        <ele>316</ele>
        <time>2016-04-03T07:29:50.1Z</time>
      </trkpt>
      <trkpt lat="48.5835" lon="-3.14166">
        <ele>315</ele>
        <time>2016-04-03T07:29:53.1Z</time>
      </trkpt>
      <trkpt lat="48.58347" lon="-3.14167">
        <ele>315</ele>
        <time>2016-04-03T07:29:56.1Z</time>
      </trkpt>
      <trkpt lat="48.58345" lon="-3.14168">
        <ele>315</ele>
        <time>2016-04-03T07:29:58.1Z</time>
      </trkpt>
      <trkpt lat="48.58342" lon="-3.14168">
        <ele>316</ele>
        <time>2016-04-03T07:30:01.1Z</time>
      </trkpt>
      <trkpt lat="48.58339" lon="-3.14169">
        <ele>315</ele>
        <time>2016-04-03T07:30:03.1Z</time>
      </trkpt>
      <trkpt lat="48.58336" lon="-3.1417">
        <ele>316</ele>
        <time>2016-04-03T07:30:05.1Z</time>
      </trkpt>
      <trkpt lat="48.58333" lon="-3.14171">
        <ele>316</ele>
        <time>2016-04-03T07:30:08.1Z</time>
      </trkpt>
      <trkpt lat="48.5833" lon="-3.14172">
        <ele>316</ele>
        <time>2016-04-03T07:30:11.1Z</time>
      </trkpt>
      <trkpt lat="48.58326" lon="-3.14173">
        <ele>316</ele>
        <time>2016-04-03T07:30:14.1Z</time>
      </trkpt>
      <trkpt lat="48.58323" lon="-3.14174">
        <ele>316</ele>
        <time>2016-04-03T07:30:17.1Z</time>
      </trkpt>
      <trkpt lat="48.58321" lon="-3.14174">
        <ele>316</ele>
        <time>2016-04-03T07:30:19.1Z</time>
      </trkpt>
      <trkpt lat="48.58317" lon="-3.14174">
        <ele>316</ele>
        <time>2016-04-03T07:30:22.1Z</time>
      </trkpt>
      <trkpt lat="48.58315" lon="-3.14173">
        <ele>316</ele>
        <time>2016-04-03T07:30:24.1Z</time>
      </trkpt>
      <trkpt lat="48.58312" lon="-3.14173">
        <ele>316</ele>
        <time>2016-04-03T07:30:26.1Z</time>
      </trkpt>
      <trkpt lat="48.58309" lon="-3.14173">
        <ele>316</ele>
        <time>2016-04-03T07:30:29.1Z</time>
      </trkpt>
      <trkpt lat="48.58307" lon="-3.14172">
        <ele>316</ele>
        <time>2016-04-03T07:30:31.1Z</time>
      </trkpt>
      <trkpt lat="48.58306" lon="-3.14173">
        <ele>316</ele>
        <time>2016-04-03T07:30:33.1Z</time>
      </trkpt>
      <trkpt lat="48.58305" lon="-3.14173">
        <ele>316</ele>
        <time>2016-04-03T07:30:35.1Z</time>
      </trkpt>
      <trkpt lat="48.58303" lon="-3.14173">
        <ele>316</ele>
        <time>2016-04-03T07:30:38.1Z</time>
      </trkpt>
      <trkpt lat="48.58303" lon="-3.14173">
        <ele>316</ele>
        <time>2016-04-03T07:30:41.1Z</time>
      </trkpt>
      <trkpt lat="48.58301" lon="-3.14173">
        <ele>316</ele>
        <time>2016-04-03T07:30:43.1Z</time>
      </trkpt>
      <trkpt lat="48.583" lon="-3.14173">
        <ele>317</ele>
        <time>2016-04-03T07:30:45.1Z</time>
      </trkpt>
      <trkpt lat="48.58296" lon="-3.14174">
        <ele>317</ele>
        <time>2016-04-03T07:30:48.1Z</time>
      </trkpt>
      <trkpt lat="48.58294" lon="-3.14174">
        <ele>317</ele>
        <time>2016-04-03T07:30:50.1Z</time>
      </trkpt>
      <trkpt lat="48.5829" lon="-3.14174">
        <ele>317</ele>
        <time>2016-04-03T07:30:53.1Z</time>
      </trkpt>
      <trkpt lat="48.58287" lon="-3.14174">
        <ele>317</ele>
        <time>2016-04-03T07:30:56.1Z</time>
      </trkpt>
      <trkpt lat="48.58285" lon="-3.14173">
        <ele>317</ele>
        <time>2016-04-03T07:30:58.1Z</time>
      </trkpt>
      <trkpt lat="48.58282" lon="-3.14174">
        <ele>317</ele>
        <time>2016-04-03T07:31:01.1Z</time>
      </trkpt>
      <trkpt lat="48.5828" lon="-3.14176">
        <ele>317</ele>
        <time>2016-04-03T07:31:03.1Z</time>
      </trkpt>
      <trkpt lat="48.58278" lon="-3.14177">
        <ele>317</ele>
        <time>2016-04-03T07:31:06.1Z</time>
      </trkpt>
      <trkpt lat="48.58276" lon="-3.1418">
        <ele>317</ele>
        <time>2016-04-03T07:31:08.1Z</time>
      </trkpt>
      <trkpt lat="48.58274" lon="-3.14182">
        <ele>317</ele>
        <time>2016-04-03T07:31:10.1Z</time>
      </trkpt>
      <trkpt lat="48.58273" lon="-3.14185">
        <ele>317</ele>
        <time>2016-04-03T07:31:12.1Z</time>
      </trkpt>
      <trkpt lat="48.58271" lon="-3.14188">
        <ele>317</ele>
        <time>2016-04-03T07:31:14.1Z</time>
      </trkpt>
      <trkpt lat="48.5827" lon="-3.14192">
        <ele>317</ele>
        <time>2016-04-03T07:31:17.1Z</time>
      </trkpt>
      <trkpt lat="48.58268" lon="-3.14195">
        <ele>317</ele>
        <time>2016-04-03T07:31:19.1Z</time>
      </trkpt>
      <trkpt lat="48.58267" lon="-3.14201">
        <ele>317</ele>
        <time>2016-04-03T07:31:22.1Z</time>
      </trkpt>
      <trkpt lat="48.58266" lon="-3.14205">
        <ele>317</ele>
        <time>2016-04-03T07:31:24.1Z</time>
      </trkpt>
      <trkpt lat="48.58265" lon="-3.14208">
        <ele>317</ele>
        <time>2016-04-03T07:31:26.1Z</time>
      </trkpt>
      <trkpt lat="48.58264" lon="-3.14212">
        <ele>317</ele>
        <time>2016-04-03T07:31:29.1Z</time>
      </trkpt>
      <trkpt lat="48.58264" lon="-3.14216">
        <ele>317</ele>
        <time>2016-04-03T07:31:31.1Z</time>
      </trkpt>
      <trkpt lat="48.58263" lon="-3.14222">
        <ele>317</ele>
        <time>2016-04-03T07:31:35.1Z</time>
      </trkpt>
      <trkpt lat="48.58263" lon="-3.14228">
        <ele>317</ele>
        <time>2016-04-03T07:31:37.1Z</time>
      </trkpt>
      <trkpt lat="48.58263" lon="-3.14231">
        <ele>317</ele>
        <time>2016-04-03T07:31:39.1Z</time>
      </trkpt>
      <trkpt lat="48.58264" lon="-3.14237">
        <ele>317</ele>
        <time>2016-04-03T07:31:42.1Z</time>
      </trkpt>
      <trkpt lat="48.58264" lon="-3.14243">
        <ele>317</ele>
        <time>2016-04-03T07:31:45.1Z</time>
      </trkpt>
      <trkpt lat="48.58264" lon="-3.14247">
        <ele>317</ele>
        <time>2016-04-03T07:31:47.1Z</time>
      </trkpt>
      <trkpt lat="48.58265" lon="-3.1425">
        <ele>316</ele>
        <time>2016-04-03T07:31:49.1Z</time>
      </trkpt>
      <trkpt lat="48.58265" lon="-3.14255">
        <ele>316</ele>
        <time>2016-04-03T07:31:52.1Z</time>
      </trkpt>
      <trkpt lat="48.58265" lon="-3.14259">
        <ele>316</ele>
        <time>2016-04-03T07:31:54.1Z</time>
      </trkpt>
      <trkpt lat="48.58266" lon="-3.14264">
        <ele>316</ele>
        <time>2016-04-03T07:31:57.1Z</time>
      </trkpt>
      <trkpt lat="48.58266" lon="-3.14268">
        <ele>317</ele>
        <time>2016-04-03T07:32:00.1Z</time>
      </trkpt>
      <trkpt lat="48.58266" lon="-3.14272">
        <ele>316</ele>
        <time>2016-04-03T07:32:02.1Z</time>
      </trkpt>
      <trkpt lat="48.58267" lon="-3.14275">
        <ele>317</ele>
        <time>2016-04-03T07:32:04.1Z</time>
      </trkpt>
      <trkpt lat="48.58268" lon="-3.1428">
        <ele>317</ele>
        <time>2016-04-03T07:32:07.1Z</time>
      </trkpt>
      <trkpt lat="48.58269" lon="-3.14283">
        <ele>316</ele>
        <time>2016-04-03T07:32:10.1Z</time>
      </trkpt>
      <trkpt lat="48.5827" lon="-3.14289">
        <ele>316</ele>
        <time>2016-04-03T07:32:12.1Z</time>
      </trkpt>
      <trkpt lat="48.58271" lon="-3.14294">
        <ele>316</ele>
        <time>2016-04-03T07:32:15.1Z</time>
      </trkpt>
      <trkpt lat="48.58272" lon="-3.14297">
        <ele>316</ele>
        <time>2016-04-03T07:32:17.1Z</time>
      </trkpt>
      <trkpt lat="48.58274" lon="-3.14301">
        <ele>316</ele>
        <time>2016-04-03T07:32:20.1Z</time>
      </trkpt>
      <trkpt lat="48.58276" lon="-3.14305">
        <ele>316</ele>
        <time>2016-04-03T07:32:22.1Z</time>
      </trkpt>
      <trkpt lat="48.58278" lon="-3.14309">
        <ele>316</ele>
        <time>2016-04-03T07:32:25.1Z</time>
      </trkpt>
      <trkpt lat="48.58281" lon="-3.14313">
        <ele>316</ele>
        <time>2016-04-03T07:32:28.1Z</time>
      </trkpt>
      <trkpt lat="48.58284" lon="-3.14316">
        <ele>316</ele>
        <time>2016-04-03T07:32:31.1Z</time>
      </trkpt>
      <trkpt lat="48.58287" lon="-3.14319">
        <ele>315</ele>
        <time>2016-04-03T07:32:34.1Z</time>
      </trkpt>
      <trkpt lat="48.58289" lon="-3.1432">
        <ele>316</ele>
        <time>2016-04-03T07:32:36.1Z</time>
      </trkpt>
      <trkpt lat="48.58292" lon="-3.14322">
        <ele>316</ele>
        <time>2016-04-03T07:32:39.1Z</time>
      </trkpt>
      <trkpt lat="48.58295" lon="-3.14323">
        <ele>316</ele>
        <time>2016-04-03T07:32:41.1Z</time>
      </trkpt>
      <trkpt lat="48.58298" lon="-3.14325">
        <ele>316</ele>
        <time>2016-04-03T07:32:44.1Z</time>
      </trkpt>
      <trkpt lat="48.58301" lon="-3.14327">
        <ele>315</ele>
        <time>2016-04-03T07:32:46.1Z</time>
      </trkpt>
      <trkpt lat="48.58303" lon="-3.14328">
        <ele>315</ele>
        <time>2016-04-03T07:32:48.1Z</time>
      </trkpt>
      <trkpt lat="48.58305" lon="-3.1433">
        <ele>315</ele>
        <time>2016-04-03T07:32:50.1Z</time>
      </trkpt>
      <trkpt lat="48.58308" lon="-3.14333">
        <ele>315</ele>
        <time>2016-04-03T07:32:53.1Z</time>
      </trkpt>
      <trkpt lat="48.58311" lon="-3.14336">
        <ele>315</ele>
        <time>2016-04-03T07:32:56.1Z</time>
      </trkpt>
      <trkpt lat="48.58313" lon="-3.14339">
        <ele>315</ele>
        <time>2016-04-03T07:32:59.1Z</time>
      </trkpt>
      <trkpt lat="48.58316" lon="-3.14341">
        <ele>315</ele>
        <time>2016-04-03T07:33:02.1Z</time>
      </trkpt>
      <trkpt lat="48.58318" lon="-3.14343">
        <ele>315</ele>
        <time>2016-04-03T07:33:04.1Z</time>
      </trkpt>
      <trkpt lat="48.58321" lon="-3.14346">
        <ele>315</ele>
        <time>2016-04-03T07:33:07.1Z</time>
      </trkpt>
      <trkpt lat="48.58324" lon="-3.14348">
        <ele>315</ele>
        <time>2016-04-03T07:33:09.1Z</time>
      </trkpt>
      <trkpt lat="48.58326" lon="-3.1435">
        <ele>315</ele>
        <time>2016-04-03T07:33:12.1Z</time>
      </trkpt>
      <trkpt lat="48.58329" lon="-3.14352">
        <ele>315</ele>
        <time>2016-04-03T07:33:14.1Z</time>
      </trkpt>
      <trkpt lat="48.5833" lon="-3.14354">
        <ele>315</ele>
        <time>2016-04-03T07:33:16.1Z</time>
      </trkpt>
      <trkpt lat="48.58333" lon="-3.14356">
        <ele>315</ele>
        <time>2016-04-03T07:33:19.1Z</time>
      </trkpt>
      <trkpt lat="48.58335" lon="-3.14359">
        <ele>314</ele>
        <time>2016-04-03T07:33:22.1Z</time>
      </trkpt>
      <trkpt lat="48.58337" lon="-3.14362">
        <ele>314</ele>
        <time>2016-04-03T07:33:24.1Z</time>
      </trkpt>
      <trkpt lat="48.5834" lon="-3.14365">
        <ele>315</ele>
        <time>2016-04-03T07:33:27.1Z</time>
      </trkpt>
      <trkpt lat="48.58342" lon="-3.14366">
        <ele>315</ele>
        <time>2016-04-03T07:33:29.1Z</time>
      </trkpt>
      <trkpt lat="48.58345" lon="-3.14369">
        <ele>314</ele>
        <time>2016-04-03T07:33:32.1Z</time>
      </trkpt>
      <trkpt lat="48.58347" lon="-3.1437">
        <ele>314</ele>
        <time>2016-04-03T07:33:34.1Z</time>
      </trkpt>
      <trkpt lat="48.58349" lon="-3.14372">
        <ele>314</ele>
        <time>2016-04-03T07:33:36.1Z</time>
      </trkpt>
      <trkpt lat="48.58352" lon="-3.14374">
        <ele>314</ele>
        <time>2016-04-03T07:33:39.1Z</time>
      </trkpt>
      <trkpt lat="48.58353" lon="-3.14376">
        <ele>314</ele>
        <time>2016-04-03T07:33:41.1Z</time>
      </trkpt>
      <trkpt lat="48.58356" lon="-3.14379">
        <ele>314</ele>
        <time>2016-04-03T07:33:44.1Z</time>
      </trkpt>
      <trkpt lat="48.58359" lon="-3.14382">
        <ele>314</ele>
        <time>2016-04-03T07:33:47.1Z</time>
      </trkpt>
      <trkpt lat="48.58361" lon="-3.14384">
        <ele>314</ele>
        <time>2016-04-03T07:33:49.1Z</time>
      </trkpt>
      <trkpt lat="48.58364" lon="-3.14387">
        <ele>313</ele>
        <time>2016-04-03T07:33:52.1Z</time>
      </trkpt>
      <trkpt lat="48.58366" lon="-3.14389">
        <ele>313</ele>
        <time>2016-04-03T07:33:54.1Z</time>
      </trkpt>
      <trkpt lat="48.58368" lon="-3.14392">
        <ele>313</ele>
        <time>2016-04-03T07:33:57.1Z</time>
      </trkpt>
      <trkpt lat="48.5837" lon="-3.14393">
        <ele>313</ele>
        <time>2016-04-03T07:33:59.1Z</time>
      </trkpt>
      <trkpt lat="48.58373" lon="-3.14397">
        <ele>313</ele>
        <time>2016-04-03T07:34:02.1Z</time>
      </trkpt>
      <trkpt lat="48.58374" lon="-3.14399">
        <ele>313</ele>
        <time>2016-04-03T07:34:04.1Z</time>
      </trkpt>
      <trkpt lat="48.58378" lon="-3.14401">
        <ele>313</ele>
        <time>2016-04-03T07:34:07.1Z</time>
      </trkpt>
      <trkpt lat="48.58381" lon="-3.14404">
        <ele>313</ele>
        <time>2016-04-03T07:34:10.1Z</time>
      </trkpt>
      <trkpt lat="48.58382" lon="-3.14406">
        <ele>313</ele>
        <time>2016-04-03T07:34:12.1Z</time>
      </trkpt>
      <trkpt lat="48.58385" lon="-3.14409">
        <ele>313</ele>
        <time>2016-04-03T07:34:15.1Z</time>
      </trkpt>
      <trkpt lat="48.58388" lon="-3.14411">
        <ele>313</ele>
        <time>2016-04-03T07:34:18.1Z</time>
      </trkpt>
      <trkpt lat="48.5839" lon="-3.14413">
        <ele>313</ele>
        <time>2016-04-03T07:34:20.1Z</time>
      </trkpt>
      <trkpt lat="48.58393" lon="-3.14415">
        <ele>313</ele>
        <time>2016-04-03T07:34:23.1Z</time>
      </trkpt>
      <trkpt lat="48.58395" lon="-3.14417">
        <ele>313</ele>
        <time>2016-04-03T07:34:25.1Z</time>
      </trkpt>
      <trkpt lat="48.58398" lon="-3.1442">
        <ele>313</ele>
        <time>2016-04-03T07:34:28.1Z</time>
      </trkpt>
      <trkpt lat="48.584" lon="-3.14424">
        <ele>313</ele>
        <time>2016-04-03T07:34:31.1Z</time>
      </trkpt>
      <trkpt lat="48.58403" lon="-3.14427">
        <ele>312</ele>
        <time>2016-04-03T07:34:34.1Z</time>
      </trkpt>
      <trkpt lat="48.58406" lon="-3.14429">
        <ele>312</ele>
        <time>2016-04-03T07:34:37.1Z</time>
      </trkpt>
      <trkpt lat="48.5841" lon="-3.1443">
        <ele>312</ele>
        <time>2016-04-03T07:34:40.1Z</time>
      </trkpt>
      <trkpt lat="48.58412" lon="-3.14432">
        <ele>312</ele>
        <time>2016-04-03T07:34:43.1Z</time>
      </trkpt>
      <trkpt lat="48.58415" lon="-3.14435">
        <ele>312</ele>
        <time>2016-04-03T07:34:46.1Z</time>
      </trkpt>
      <trkpt lat="48.58418" lon="-3.14438">
        <ele>312</ele>
        <time>2016-04-03T07:34:49.1Z</time>
      </trkpt>
      <trkpt lat="48.5842" lon="-3.14441">
        <ele>312</ele>
        <time>2016-04-03T07:34:52.1Z</time>
      </trkpt>
      <trkpt lat="48.58422" lon="-3.14442">
        <ele>312</ele>
        <time>2016-04-03T07:34:54.1Z</time>
      </trkpt>
      <trkpt lat="48.58424" lon="-3.14444">
        <ele>312</ele>
        <time>2016-04-03T07:34:56.1Z</time>
      </trkpt>
      <trkpt lat="48.58426" lon="-3.14446">
        <ele>312</ele>
        <time>2016-04-03T07:34:59.1Z</time>
      </trkpt>
      <trkpt lat="48.58428" lon="-3.14447">
        <ele>312</ele>
        <time>2016-04-03T07:35:01.1Z</time>
      </trkpt>
      <trkpt lat="48.5843" lon="-3.14448">
        <ele>312</ele>
        <time>2016-04-03T07:35:03.1Z</time>
      </trkpt>
      <trkpt lat="48.58432" lon="-3.14451">
        <ele>312</ele>
        <time>2016-04-03T07:35:06.1Z</time>
      </trkpt>
      <trkpt lat="48.58435" lon="-3.14454">
        <ele>312</ele>
        <time>2016-04-03T07:35:09.1Z</time>
      </trkpt>
      <trkpt lat="48.58436" lon="-3.14458">
        <ele>311</ele>
        <time>2016-04-03T07:35:12.1Z</time>
      </trkpt>
      <trkpt lat="48.58438" lon="-3.1446">
        <ele>311</ele>
        <time>2016-04-03T07:35:14.1Z</time>
      </trkpt>
      <trkpt lat="48.58441" lon="-3.14462">
        <ele>311</ele>
        <time>2016-04-03T07:35:17.1Z</time>
      </trkpt>
      <trkpt lat="48.58443" lon="-3.14466">
        <ele>312</ele>
        <time>2016-04-03T07:35:20.1Z</time>
      </trkpt>
      <trkpt lat="48.58445" lon="-3.14469">
        <ele>312</ele>
        <time>2016-04-03T07:35:22.1Z</time>
      </trkpt>
      <trkpt lat="48.58447" lon="-3.14472">
        <ele>312</ele>
        <time>2016-04-03T07:35:25.1Z</time>
      </trkpt>
      <trkpt lat="48.5845" lon="-3.14475">
        <ele>312</ele>
        <time>2016-04-03T07:35:28.1Z</time>
      </trkpt>
      <trkpt lat="48.58453" lon="-3.14476">
        <ele>311</ele>
        <time>2016-04-03T07:35:30.1Z</time>
      </trkpt>
      <trkpt lat="48.58455" lon="-3.14479">
        <ele>311</ele>
        <time>2016-04-03T07:35:33.1Z</time>
      </trkpt>
      <trkpt lat="48.58457" lon="-3.14481">
        <ele>311</ele>
        <time>2016-04-03T07:35:35.1Z</time>
      </trkpt>
      <trkpt lat="48.58459" lon="-3.14483">
        <ele>311</ele>
        <time>2016-04-03T07:35:37.1Z</time>
      </trkpt>
      <trkpt lat="48.58462" lon="-3.14486">
        <ele>311</ele>
        <time>2016-04-03T07:35:40.1Z</time>
      </trkpt>
      <trkpt lat="48.58465" lon="-3.1449">
        <ele>311</ele>
        <time>2016-04-03T07:35:43.1Z</time>
      </trkpt>
      <trkpt lat="48.58467" lon="-3.14491">
        <ele>311</ele>
        <time>2016-04-03T07:35:45.1Z</time>
      </trkpt>
      <trkpt lat="48.5847" lon="-3.14493">
        <ele>311</ele>
        <time>2016-04-03T07:35:48.1Z</time>
      </trkpt>
      <trkpt lat="48.58472" lon="-3.14495">
        <ele>311</ele>
        <time>2016-04-03T07:35:50.1Z</time>
      </trkpt>
      <trkpt lat="48.58475" lon="-3.14498">
        <ele>311</ele>
        <time>2016-04-03T07:35:53.1Z</time>
      </trkpt>
      <trkpt lat="48.58477" lon="-3.14499">
        <ele>311</ele>
        <time>2016-04-03T07:35:55.1Z</time>
      </trkpt>
      <trkpt lat="48.5848" lon="-3.14502">
        <ele>311</ele>
        <time>2016-04-03T07:35:58.1Z</time>
      </trkpt>
      <trkpt lat="48.58483" lon="-3.14504">
        <ele>311</ele>
        <time>2016-04-03T07:36:01.1Z</time>
      </trkpt>
      <trkpt lat="48.58485" lon="-3.14505">
        <ele>310</ele>
        <time>2016-04-03T07:36:03.1Z</time>
      </trkpt>
      <trkpt lat="48.58488" lon="-3.14507">
        <ele>311</ele>
        <time>2016-04-03T07:36:06.1Z</time>
      </trkpt>
      <trkpt lat="48.58491" lon="-3.14508">
        <ele>311</ele>
        <time>2016-04-03T07:36:09.1Z</time>
      </trkpt>
      <trkpt lat="48.58494" lon="-3.1451">
        <ele>311</ele>
        <time>2016-04-03T07:36:12.1Z</time>
      </trkpt>
      <trkpt lat="48.58498" lon="-3.14512">
        <ele>311</ele>
        <time>2016-04-03T07:36:15.1Z</time>
      </trkpt>
      <trkpt lat="48.58499" lon="-3.14514">
        <ele>311</ele>
        <time>2016-04-03T07:36:17.1Z</time>
      </trkpt>
      <trkpt lat="48.58502" lon="-3.14515">
        <ele>311</ele>
        <time>2016-04-03T07:36:19.1Z</time>
      </trkpt>
      <trkpt lat="48.58504" lon="-3.14518">
        <ele>311</ele>
        <time>2016-04-03T07:36:22.1Z</time>
      </trkpt>
      <trkpt lat="48.58506" lon="-3.1452">
        <ele>311</ele>
        <time>2016-04-03T07:36:24.1Z</time>
      </trkpt>
      <trkpt lat="48.58508" lon="-3.14521">
        <ele>311</ele>
        <time>2016-04-03T07:36:26.1Z</time>
      </trkpt>
      <trkpt lat="48.58511" lon="-3.14523">
        <ele>311</ele>
        <time>2016-04-03T07:36:29.1Z</time>
      </trkpt>
      <trkpt lat="48.58513" lon="-3.14525">
        <ele>311</ele>
        <time>2016-04-03T07:36:31.1Z</time>
      </trkpt>
      <trkpt lat="48.58515" lon="-3.14529">
        <ele>311</ele>
        <time>2016-04-03T07:36:34.1Z</time>
      </trkpt>
      <trkpt lat="48.58517" lon="-3.14533">
        <ele>311</ele>
        <time>2016-04-03T07:36:37.1Z</time>
      </trkpt>
      <trkpt lat="48.58519" lon="-3.14538">
        <ele>311</ele>
        <time>2016-04-03T07:36:40.1Z</time>
      </trkpt>
      <trkpt lat="48.58522" lon="-3.14543">
        <ele>311</ele>
        <time>2016-04-03T07:36:43.1Z</time>
      </trkpt>
      <trkpt lat="48.58523" lon="-3.14545">
        <ele>311</ele>
        <time>2016-04-03T07:36:45.1Z</time>
      </trkpt>
      <trkpt lat="48.58525" lon="-3.14549">
        <ele>311</ele>
        <time>2016-04-03T07:36:48.1Z</time>
      </trkpt>
      <trkpt lat="48.58527" lon="-3.14552">
        <ele>310</ele>
        <time>2016-04-03T07:36:51.1Z</time>
      </trkpt>
      <trkpt lat="48.58529" lon="-3.14554">
        <ele>310</ele>
        <time>2016-04-03T07:36:53.1Z</time>
      </trkpt>
      <trkpt lat="48.58531" lon="-3.14558">
        <ele>310</ele>
        <time>2016-04-03T07:36:56.1Z</time>
      </trkpt>
      <trkpt lat="48.58532" lon="-3.14562">
        <ele>310</ele>
        <time>2016-04-03T07:36:59.1Z</time>
      </trkpt>
      <trkpt lat="48.58533" lon="-3.14565">
        <ele>310</ele>
        <time>2016-04-03T07:37:01.1Z</time>
      </trkpt>
      <trkpt lat="48.58535" lon="-3.14569">
        <ele>310</ele>
        <time>2016-04-03T07:37:04.1Z</time>
      </trkpt>
      <trkpt lat="48.58537" lon="-3.14572">
        <ele>310</ele>
        <time>2016-04-03T07:37:07.1Z</time>
      </trkpt>
      <trkpt lat="48.58538" lon="-3.14576">
        <ele>310</ele>
        <time>2016-04-03T07:37:10.1Z</time>
      </trkpt>
      <trkpt lat="48.58539" lon="-3.1458">
        <ele>310</ele>
        <time>2016-04-03T07:37:12.1Z</time>
      </trkpt>
      <trkpt lat="48.58542" lon="-3.14582">
        <ele>310</ele>
        <time>2016-04-03T07:37:15.1Z</time>
      </trkpt>
      <trkpt lat="48.58544" lon="-3.14585">
        <ele>310</ele>
        <time>2016-04-03T07:37:17.1Z</time>
      </trkpt>
      <trkpt lat="48.58547" lon="-3.14588">
        <ele>310</ele>
        <time>2016-04-03T07:37:20.1Z</time>
      </trkpt>
      <trkpt lat="48.58549" lon="-3.14593">
        <ele>309</ele>
        <time>2016-04-03T07:37:23.1Z</time>
      </trkpt>
      <trkpt lat="48.58551" lon="-3.14596">
        <ele>309</ele>
        <time>2016-04-03T07:37:25.1Z</time>
      </trkpt>
      <trkpt lat="48.58553" lon="-3.14599">
        <ele>309</ele>
        <time>2016-04-03T07:37:28.1Z</time>
      </trkpt>
      <trkpt lat="48.58554" lon="-3.14601">
        <ele>309</ele>
        <time>2016-04-03T07:37:30.1Z</time>
      </trkpt>
      <trkpt lat="48.58555" lon="-3.14605">
        <ele>309</ele>
        <time>2016-04-03T07:37:33.1Z</time>
      </trkpt>
      <trkpt lat="48.58555" lon="-3.14608">
        <ele>309</ele>
        <time>2016-04-03T07:37:36.1Z</time>
      </trkpt>
      <trkpt lat="48.58556" lon="-3.14611">
        <ele>309</ele>
        <time>2016-04-03T07:37:38.1Z</time>
      </trkpt>
      <trkpt lat="48.58556" lon="-3.14615">
        <ele>309</ele>
        <time>2016-04-03T07:37:41.1Z</time>
      </trkpt>
      <trkpt lat="48.58557" lon="-3.14616">
        <ele>309</ele>
        <time>2016-04-03T07:37:43.1Z</time>
      </trkpt>
      <trkpt lat="48.5856" lon="-3.14618">
        <ele>308</ele>
        <time>2016-04-03T07:37:46.1Z</time>
      </trkpt>
      <trkpt lat="48.58563" lon="-3.1462">
        <ele>308</ele>
        <time>2016-04-03T07:37:49.1Z</time>
      </trkpt>
      <trkpt lat="48.58565" lon="-3.14622">
        <ele>308</ele>
        <time>2016-04-03T07:37:51.1Z</time>
      </trkpt>
      <trkpt lat="48.58567" lon="-3.14624">
        <ele>308</ele>
        <time>2016-04-03T07:37:54.1Z</time>
      </trkpt>
      <trkpt lat="48.58569" lon="-3.14626">
        <ele>308</ele>
        <time>2016-04-03T07:37:56.1Z</time>
      </trkpt>
      <trkpt lat="48.58572" lon="-3.14628">
        <ele>308</ele>
        <time>2016-04-03T07:37:59.1Z</time>
      </trkpt>
      <trkpt lat="48.58576" lon="-3.14629">
        <ele>308</ele>
        <time>2016-04-03T07:38:02.1Z</time>
      </trkpt>
      <trkpt lat="48.58579" lon="-3.1463">
        <ele>308</ele>
        <time>2016-04-03T07:38:05.1Z</time>
      </trkpt>
      <trkpt lat="48.58582" lon="-3.14632">
        <ele>307</ele>
        <time>2016-04-03T07:38:08.1Z</time>
      </trkpt>
      <trkpt lat="48.58584" lon="-3.14635">
        <ele>307</ele>
        <time>2016-04-03T07:38:10.1Z</time>
      </trkpt>
      <trkpt lat="48.58586" lon="-3.14637">
        <ele>307</ele>
        <time>2016-04-03T07:38:12.1Z</time>
      </trkpt>
      <trkpt lat="48.58589" lon="-3.1464">
        <ele>307</ele>
        <time>2016-04-03T07:38:15.1Z</time>
      </trkpt>
      <trkpt lat="48.58592" lon="-3.14642">
        <ele>307</ele>
        <time>2016-04-03T07:38:18.1Z</time>
      </trkpt>
      <trkpt lat="48.58592" lon="-3.14643">
        <ele>307</ele>
        <time>2016-04-03T07:38:20.1Z</time>
      </trkpt>
      <trkpt lat="48.58593" lon="-3.14644">
        <ele>307</ele>
        <time>2016-04-03T07:38:23.1Z</time>
      </trkpt>
      <trkpt lat="48.58594" lon="-3.14645">
        <ele>307</ele>
        <time>2016-04-03T07:38:25.1Z</time>
      </trkpt>
      <trkpt lat="48.58596" lon="-3.14648">
        <ele>307</ele>
        <time>2016-04-03T07:38:28.1Z</time>
      </trkpt>
      <trkpt lat="48.58597" lon="-3.1465">
        <ele>307</ele>
        <time>2016-04-03T07:38:30.1Z</time>
      </trkpt>
      <trkpt lat="48.58597" lon="-3.14652">
        <ele>306</ele>
        <time>2016-04-03T07:38:33.1Z</time>
      </trkpt>
      <trkpt lat="48.58597" lon="-3.14653">
        <ele>306</ele>
        <time>2016-04-03T07:38:35.1Z</time>
      </trkpt>
      <trkpt lat="48.58597" lon="-3.14654">
        <ele>307</ele>
        <time>2016-04-03T07:38:37.1Z</time>
      </trkpt>
      <trkpt lat="48.586" lon="-3.14657">
        <ele>306</ele>
        <time>2016-04-03T07:38:40.1Z</time>
      </trkpt>
      <trkpt lat="48.58602" lon="-3.14662">
        <ele>306</ele>
        <time>2016-04-03T07:38:43.1Z</time>
      </trkpt>
      <trkpt lat="48.58603" lon="-3.14665">
        <ele>306</ele>
        <time>2016-04-03T07:38:45.1Z</time>
      </trkpt>
      <trkpt lat="48.58604" lon="-3.1467">
        <ele>306</ele>
        <time>2016-04-03T07:38:48.1Z</time>
      </trkpt>
      <trkpt lat="48.58605" lon="-3.14674">
        <ele>306</ele>
        <time>2016-04-03T07:38:51.1Z</time>
      </trkpt>
      <trkpt lat="48.58606" lon="-3.14678">
        <ele>306</ele>
        <time>2016-04-03T07:38:54.1Z</time>
      </trkpt>
      <trkpt lat="48.58607" lon="-3.14679">
        <ele>306</ele>
        <time>2016-04-03T07:38:56.1Z</time>
      </trkpt>
      <trkpt lat="48.58607" lon="-3.14681">
        <ele>305</ele>
        <time>2016-04-03T07:38:59.1Z</time>
      </trkpt>
      <trkpt lat="48.58607" lon="-3.14681">
        <ele>305</ele>
        <time>2016-04-03T07:39:01.1Z</time>
      </trkpt>
      <trkpt lat="48.58608" lon="-3.14683">
        <ele>305</ele>
        <time>2016-04-03T07:39:03.1Z</time>
      </trkpt>
      <trkpt lat="48.58608" lon="-3.14687">
        <ele>305</ele>
        <time>2016-04-03T07:39:06.1Z</time>
      </trkpt>
      <trkpt lat="48.58608" lon="-3.14689">
        <ele>305</ele>
        <time>2016-04-03T07:39:08.1Z</time>
      </trkpt>
      <trkpt lat="48.58609" lon="-3.14689">
        <ele>305</ele>
        <time>2016-04-03T07:39:15.1Z</time>
      </trkpt>
      <trkpt lat="48.58609" lon="-3.14689">
        <ele>305</ele>
        <time>2016-04-03T07:39:17.1Z</time>
      </trkpt>
      <trkpt lat="48.58607" lon="-3.1469">
        <ele>305</ele>
        <time>2016-04-03T07:39:20.1Z</time>
      </trkpt>
      <trkpt lat="48.58606" lon="-3.14692">
        <ele>305</ele>
        <time>2016-04-03T07:39:22.1Z</time>
      </trkpt>
      <trkpt lat="48.58604" lon="-3.14695">
        <ele>305</ele>
        <time>2016-04-03T07:39:25.1Z</time>
      </trkpt>
      <trkpt lat="48.58604" lon="-3.14699">
        <ele>305</ele>
        <time>2016-04-03T07:39:28.1Z</time>
      </trkpt>
      <trkpt lat="48.58602" lon="-3.14703">
        <ele>304</ele>
        <time>2016-04-03T07:39:31.1Z</time>
      </trkpt>
      <trkpt lat="48.58601" lon="-3.14706">
        <ele>303</ele>
        <time>2016-04-03T07:39:34.1Z</time>
      </trkpt>
      <trkpt lat="48.58599" lon="-3.14708">
        <ele>303</ele>
        <time>2016-04-03T07:39:36.1Z</time>
      </trkpt>
      <trkpt lat="48.58599" lon="-3.1471">
        <ele>303</ele>
        <time>2016-04-03T07:39:38.1Z</time>
      </trkpt>
      <trkpt lat="48.58597" lon="-3.14713">
        <ele>303</ele>
        <time>2016-04-03T07:39:41.1Z</time>
      </trkpt>
      <trkpt lat="48.58596" lon="-3.14716">
        <ele>303</ele>
        <time>2016-04-03T07:39:44.1Z</time>
      </trkpt>
      <trkpt lat="48.58596" lon="-3.14716">
        <ele>303</ele>
        <time>2016-04-03T07:39:47.1Z</time>
      </trkpt>
      <trkpt lat="48.58597" lon="-3.14718">
        <ele>303</ele>
        <time>2016-04-03T07:39:49.1Z</time>
      </trkpt>
      <trkpt lat="48.58598" lon="-3.14718">
        <ele>303</ele>
        <time>2016-04-03T07:39:51.1Z</time>
      </trkpt>
      <trkpt lat="48.58599" lon="-3.14718">
        <ele>303</ele>
        <time>2016-04-03T07:39:54.1Z</time>
      </trkpt>
      <trkpt lat="48.58598" lon="-3.14718">
        <ele>303</ele>
        <time>2016-04-03T07:39:57.1Z</time>
      </trkpt>
      <trkpt lat="48.58597" lon="-3.1472">
        <ele>303</ele>
        <time>2016-04-03T07:39:59.1Z</time>
      </trkpt>
      <trkpt lat="48.58595" lon="-3.14723">
        <ele>302</ele>
        <time>2016-04-03T07:40:02.1Z</time>
      </trkpt>
      <trkpt lat="48.58594" lon="-3.14725">
        <ele>302</ele>
        <time>2016-04-03T07:40:04.1Z</time>
      </trkpt>
      <trkpt lat="48.58593" lon="-3.14726">
        <ele>302</ele>
        <time>2016-04-03T07:40:07.1Z</time>
      </trkpt>
      <trkpt lat="48.58593" lon="-3.14726">
        <ele>301</ele>
        <time>2016-04-03T07:40:10.1Z</time>
      </trkpt>
      <trkpt lat="48.58593" lon="-3.14731">
        <ele>301</ele>
        <time>2016-04-03T07:40:13.1Z</time>
      </trkpt>
      <trkpt lat="48.58591" lon="-3.14734">
        <ele>301</ele>
        <time>2016-04-03T07:40:15.1Z</time>
      </trkpt>
      <trkpt lat="48.5859" lon="-3.14737">
        <ele>301</ele>
        <time>2016-04-03T07:40:17.1Z</time>
      </trkpt>
      <trkpt lat="48.58587" lon="-3.14742">
        <ele>301</ele>
        <time>2016-04-03T07:40:20.1Z</time>
      </trkpt>
      <trkpt lat="48.58585" lon="-3.14745">
        <ele>300</ele>
        <time>2016-04-03T07:40:23.1Z</time>
      </trkpt>
      <trkpt lat="48.58583" lon="-3.14749">
        <ele>299</ele>
        <time>2016-04-03T07:40:25.1Z</time>
      </trkpt>
      <trkpt lat="48.58582" lon="-3.14753">
        <ele>299</ele>
        <time>2016-04-03T07:40:28.1Z</time>
      </trkpt>
      <trkpt lat="48.5858" lon="-3.14758">
        <ele>298</ele>
        <time>2016-04-03T07:40:31.1Z</time>
      </trkpt>
      <trkpt lat="48.58579" lon="-3.14763">
        <ele>298</ele>
        <time>2016-04-03T07:40:34.1Z</time>
      </trkpt>
      <trkpt lat="48.58577" lon="-3.14769">
        <ele>298</ele>
        <time>2016-04-03T07:40:37.1Z</time>
      </trkpt>
      <trkpt lat="48.58576" lon="-3.14773">
        <ele>298</ele>
        <time>2016-04-03T07:40:39.1Z</time>
      </trkpt>
      <trkpt lat="48.58576" lon="-3.14776">
        <ele>297</ele>
        <time>2016-04-03T07:40:41.1Z</time>
      </trkpt>
      <trkpt lat="48.58575" lon="-3.14782">
        <ele>297</ele>
        <time>2016-04-03T07:40:44.1Z</time>
      </trkpt>
      <trkpt lat="48.58574" lon="-3.14787">
        <ele>297</ele>
        <time>2016-04-03T07:40:47.1Z</time>
      </trkpt>
      <trkpt lat="48.58573" lon="-3.14792">
        <ele>297</ele>
        <time>2016-04-03T07:40:50.1Z</time>
      </trkpt>
      <trkpt lat="48.58572" lon="-3.14795">
        <ele>297</ele>
        <time>2016-04-03T07:40:52.1Z</time>
      </trkpt>
      <trkpt lat="48.58571" lon="-3.148">
        <ele>297</ele>
        <time>2016-04-03T07:40:55.1Z</time>
      </trkpt>
      <trkpt lat="48.58568" lon="-3.14806">
        <ele>296</ele>
        <time>2016-04-03T07:40:58.1Z</time>
      </trkpt>
      <trkpt lat="48.58567" lon="-3.14811">
        <ele>296</ele>
        <time>2016-04-03T07:41:01.1Z</time>
      </trkpt>
      <trkpt lat="48.58567" lon="-3.14814">
        <ele>296</ele>
        <time>2016-04-03T07:41:03.1Z</time>
      </trkpt>
      <trkpt lat="48.58566" lon="-3.14819">
        <ele>296</ele>
        <time>2016-04-03T07:41:06.1Z</time>
      </trkpt>
      <trkpt lat="48.58565" lon="-3.14824">
        <ele>296</ele>
        <time>2016-04-03T07:41:09.1Z</time>
      </trkpt>
      <trkpt lat="48.58564" lon="-3.14827">
        <ele>296</ele>
        <time>2016-04-03T07:41:11.1Z</time>
      </trkpt>
      <trkpt lat="48.58562" lon="-3.14832">
        <ele>296</ele>
        <time>2016-04-03T07:41:14.1Z</time>
      </trkpt>
      <trkpt lat="48.58561" lon="-3.14835">
        <ele>296</ele>
        <time>2016-04-03T07:41:16.1Z</time>
      </trkpt>
      <trkpt lat="48.58559" lon="-3.14839">
        <ele>297</ele>
        <time>2016-04-03T07:41:19.1Z</time>
      </trkpt>
      <trkpt lat="48.58557" lon="-3.14843">
        <ele>297</ele>
        <time>2016-04-03T07:41:22.1Z</time>
      </trkpt>
      <trkpt lat="48.58554" lon="-3.14845">
        <ele>297</ele>
        <time>2016-04-03T07:41:25.1Z</time>
      </trkpt>
      <trkpt lat="48.58551" lon="-3.14848">
        <ele>297</ele>
        <time>2016-04-03T07:41:28.1Z</time>
      </trkpt>
      <trkpt lat="48.58549" lon="-3.14849">
        <ele>297</ele>
        <time>2016-04-03T07:41:30.1Z</time>
      </trkpt>
      <trkpt lat="48.58546" lon="-3.1485">
        <ele>298</ele>
        <time>2016-04-03T07:41:33.1Z</time>
      </trkpt>
      <trkpt lat="48.58544" lon="-3.14851">
        <ele>298</ele>
        <time>2016-04-03T07:41:35.1Z</time>
      </trkpt>
      <trkpt lat="48.58541" lon="-3.14852">
        <ele>298</ele>
        <time>2016-04-03T07:41:38.1Z</time>
      </trkpt>
      <trkpt lat="48.58538" lon="-3.14852">
        <ele>298</ele>
        <time>2016-04-03T07:41:41.1Z</time>
      </trkpt>
      <trkpt lat="48.58536" lon="-3.14852">
        <ele>298</ele>
        <time>2016-04-03T07:41:43.1Z</time>
      </trkpt>
      <trkpt lat="48.58533" lon="-3.14853">
        <ele>298</ele>
        <time>2016-04-03T07:41:46.1Z</time>
      </trkpt>
      <trkpt lat="48.58531" lon="-3.14853">
        <ele>299</ele>
        <time>2016-04-03T07:41:48.1Z</time>
      </trkpt>
      <trkpt lat="48.58528" lon="-3.14854">
        <ele>299</ele>
        <time>2016-04-03T07:41:51.1Z</time>
      </trkpt>
      <trkpt lat="48.58526" lon="-3.14855">
        <ele>299</ele>
        <time>2016-04-03T07:41:53.1Z</time>
      </trkpt>
      <trkpt lat="48.58523" lon="-3.14856">
        <ele>299</ele>
        <time>2016-04-03T07:41:56.1Z</time>
      </trkpt>
      <trkpt lat="48.5852" lon="-3.14858">
        <ele>299</ele>
        <time>2016-04-03T07:41:59.1Z</time>
      </trkpt>
      <trkpt lat="48.58517" lon="-3.14858">
        <ele>299</ele>
        <time>2016-04-03T07:42:02.1Z</time>
      </trkpt>
      <trkpt lat="48.58517" lon="-3.14857">
        <ele>299</ele>
        <time>2016-04-03T07:42:04.1Z</time>
      </trkpt>
      <trkpt lat="48.58516" lon="-3.14857">
        <ele>298</ele>
        <time>2016-04-03T07:42:06.1Z</time>
      </trkpt>
      <trkpt lat="48.58515" lon="-3.14856">
        <ele>299</ele>
        <time>2016-04-03T07:42:08.1Z</time>
      </trkpt>
      <trkpt lat="48.58511" lon="-3.14856">
        <ele>299</ele>
        <time>2016-04-03T07:42:11.1Z</time>
      </trkpt>
      <trkpt lat="48.58508" lon="-3.14855">
        <ele>299</ele>
        <time>2016-04-03T07:42:14.1Z</time>
      </trkpt>
      <trkpt lat="48.58506" lon="-3.14855">
        <ele>299</ele>
        <time>2016-04-03T07:42:16.1Z</time>
      </trkpt>
      <trkpt lat="48.58502" lon="-3.14855">
        <ele>299</ele>
        <time>2016-04-03T07:42:19.1Z</time>
      </trkpt>
      <trkpt lat="48.585" lon="-3.14855">
        <ele>299</ele>
        <time>2016-04-03T07:42:21.1Z</time>
      </trkpt>
      <trkpt lat="48.58497" lon="-3.14856">
        <ele>299</ele>
        <time>2016-04-03T07:42:24.1Z</time>
      </trkpt>
      <trkpt lat="48.58495" lon="-3.14857">
        <ele>299</ele>
        <time>2016-04-03T07:42:27.1Z</time>
      </trkpt>
      <trkpt lat="48.58491" lon="-3.14857">
        <ele>299</ele>
        <time>2016-04-03T07:42:30.1Z</time>
      </trkpt>
      <trkpt lat="48.58488" lon="-3.14857">
        <ele>299</ele>
        <time>2016-04-03T07:42:33.1Z</time>
      </trkpt>
      <trkpt lat="48.58486" lon="-3.14857">
        <ele>300</ele>
        <time>2016-04-03T07:42:35.1Z</time>
      </trkpt>
      <trkpt lat="48.58483" lon="-3.14859">
        <ele>300</ele>
        <time>2016-04-03T07:42:37.1Z</time>
      </trkpt>
      <trkpt lat="48.5848" lon="-3.14859">
        <ele>300</ele>
        <time>2016-04-03T07:42:40.1Z</time>
      </trkpt>
      <trkpt lat="48.58476" lon="-3.14859">
        <ele>300</ele>
        <time>2016-04-03T07:42:43.1Z</time>
      </trkpt>
      <trkpt lat="48.58474" lon="-3.1486">
        <ele>300</ele>
        <time>2016-04-03T07:42:45.1Z</time>
      </trkpt>
      <trkpt lat="48.58473" lon="-3.14861">
        <ele>300</ele>
        <time>2016-04-03T07:42:48.1Z</time>
      </trkpt>
      <trkpt lat="48.58471" lon="-3.14862">
        <ele>300</ele>
        <time>2016-04-03T07:42:50.1Z</time>
      </trkpt>
      <trkpt lat="48.58468" lon="-3.14863">
        <ele>300</ele>
        <time>2016-04-03T07:42:52.1Z</time>
      </trkpt>
      <trkpt lat="48.58464" lon="-3.14866">
        <ele>301</ele>
        <time>2016-04-03T07:42:55.1Z</time>
      </trkpt>
      <trkpt lat="48.58461" lon="-3.14867">
        <ele>300</ele>
        <time>2016-04-03T07:42:58.1Z</time>
      </trkpt>
      <trkpt lat="48.58459" lon="-3.14868">
        <ele>300</ele>
        <time>2016-04-03T07:43:01.1Z</time>
      </trkpt>
      <trkpt lat="48.58455" lon="-3.14869">
        <ele>300</ele>
        <time>2016-04-03T07:43:04.1Z</time>
      </trkpt>
      <trkpt lat="48.58453" lon="-3.14871">
        <ele>301</ele>
        <time>2016-04-03T07:43:06.1Z</time>
      </trkpt>
      <trkpt lat="48.5845" lon="-3.14872">
        <ele>301</ele>
        <time>2016-04-03T07:43:09.1Z</time>
      </trkpt>
      <trkpt lat="48.58447" lon="-3.14874">
        <ele>301</ele>
        <time>2016-04-03T07:43:12.1Z</time>
      </trkpt>
      <trkpt lat="48.58444" lon="-3.14874">
        <ele>301</ele>
        <time>2016-04-03T07:43:15.1Z</time>
      </trkpt>
      <trkpt lat="48.5844" lon="-3.14875">
        <ele>301</ele>
        <time>2016-04-03T07:43:18.1Z</time>
      </trkpt>
      <trkpt lat="48.58437" lon="-3.14876">
        <ele>301</ele>
        <time>2016-04-03T07:43:20.1Z</time>
      </trkpt>
      <trkpt lat="48.58434" lon="-3.14877">
        <ele>301</ele>
        <time>2016-04-03T07:43:23.1Z</time>
      </trkpt>
      <trkpt lat="48.5843" lon="-3.14877">
        <ele>301</ele>
        <time>2016-04-03T07:43:26.1Z</time>
      </trkpt>
      <trkpt lat="48.58427" lon="-3.14878">
        <ele>301</ele>
        <time>2016-04-03T07:43:28.1Z</time>
      </trkpt>
      <trkpt lat="48.58423" lon="-3.14878">
        <ele>301</ele>
        <time>2016-04-03T07:43:31.1Z</time>
      </trkpt>
      <trkpt lat="48.5842" lon="-3.14877">
        <ele>301</ele>
        <time>2016-04-03T07:43:33.1Z</time>
      </trkpt>
      <trkpt lat="48.58418" lon="-3.14878">
        <ele>301</ele>
        <time>2016-04-03T07:43:35.1Z</time>
      </trkpt>
      <trkpt lat="48.58414" lon="-3.14878">
        <ele>301</ele>
        <time>2016-04-03T07:43:38.1Z</time>
      </trkpt>
      <trkpt lat="48.58411" lon="-3.14879">
        <ele>301</ele>
        <time>2016-04-03T07:43:41.1Z</time>
      </trkpt>
      <trkpt lat="48.58409" lon="-3.1488">
        <ele>301</ele>
        <time>2016-04-03T07:43:43.1Z</time>
      </trkpt>
      <trkpt lat="48.58405" lon="-3.1488">
        <ele>301</ele>
        <time>2016-04-03T07:43:46.1Z</time>
      </trkpt>
      <trkpt lat="48.58403" lon="-3.14881">
        <ele>301</ele>
        <time>2016-04-03T07:43:48.1Z</time>
      </trkpt>
      <trkpt lat="48.58401" lon="-3.14881">
        <ele>301</ele>
        <time>2016-04-03T07:43:50.1Z</time>
      </trkpt>
      <trkpt lat="48.58398" lon="-3.14882">
        <ele>301</ele>
        <time>2016-04-03T07:43:53.1Z</time>
      </trkpt>
      <trkpt lat="48.58397" lon="-3.14881">
        <ele>301</ele>
        <time>2016-04-03T07:43:55.1Z</time>
      </trkpt>
      <trkpt lat="48.58393" lon="-3.14881">
        <ele>301</ele>
        <time>2016-04-03T07:43:58.1Z</time>
      </trkpt>
      <trkpt lat="48.58391" lon="-3.14882">
        <ele>301</ele>
        <time>2016-04-03T07:44:00.1Z</time>
      </trkpt>
      <trkpt lat="48.58387" lon="-3.14883">
        <ele>302</ele>
        <time>2016-04-03T07:44:03.1Z</time>
      </trkpt>
      <trkpt lat="48.58384" lon="-3.14884">
        <ele>301</ele>
        <time>2016-04-03T07:44:06.1Z</time>
      </trkpt>
      <trkpt lat="48.5838" lon="-3.14883">
        <ele>301</ele>
        <time>2016-04-03T07:44:09.1Z</time>
      </trkpt>
      <trkpt lat="48.58378" lon="-3.14883">
        <ele>301</ele>
        <time>2016-04-03T07:44:11.1Z</time>
      </trkpt>
      <trkpt lat="48.58374" lon="-3.14884">
        <ele>301</ele>
        <time>2016-04-03T07:44:14.1Z</time>
      </trkpt>
      <trkpt lat="48.58372" lon="-3.14884">
        <ele>301</ele>
        <time>2016-04-03T07:44:16.1Z</time>
      </trkpt>
      <trkpt lat="48.58368" lon="-3.14885">
        <ele>302</ele>
        <time>2016-04-03T07:44:19.1Z</time>
      </trkpt>
      <trkpt lat="48.58366" lon="-3.14885">
        <ele>301</ele>
        <time>2016-04-03T07:44:21.1Z</time>
      </trkpt>
      <trkpt lat="48.58362" lon="-3.14885">
        <ele>302</ele>
        <time>2016-04-03T07:44:24.1Z</time>
      </trkpt>
      <trkpt lat="48.58359" lon="-3.14886">
        <ele>302</ele>
        <time>2016-04-03T07:44:26.1Z</time>
      </trkpt>
      <trkpt lat="48.58355" lon="-3.14886">
        <ele>302</ele>
        <time>2016-04-03T07:44:29.1Z</time>
      </trkpt>
      <trkpt lat="48.58353" lon="-3.14886">
        <ele>302</ele>
        <time>2016-04-03T07:44:31.1Z</time>
      </trkpt>
      <trkpt lat="48.58349" lon="-3.14887">
        <ele>302</ele>
        <time>2016-04-03T07:44:34.1Z</time>
      </trkpt>
      <trkpt lat="48.58345" lon="-3.14887">
        <ele>302</ele>
        <time>2016-04-03T07:44:37.1Z</time>
      </trkpt>
      <trkpt lat="48.58342" lon="-3.14889">
        <ele>302</ele>
        <time>2016-04-03T07:44:40.1Z</time>
      </trkpt>
      <trkpt lat="48.58339" lon="-3.14889">
        <ele>302</ele>
        <time>2016-04-03T07:44:42.1Z</time>
      </trkpt>
      <trkpt lat="48.58337" lon="-3.1489">
        <ele>302</ele>
        <time>2016-04-03T07:44:45.1Z</time>
      </trkpt>
      <trkpt lat="48.58334" lon="-3.1489">
        <ele>302</ele>
        <time>2016-04-03T07:44:48.1Z</time>
      </trkpt>
      <trkpt lat="48.58331" lon="-3.14891">
        <ele>303</ele>
        <time>2016-04-03T07:44:51.1Z</time>
      </trkpt>
      <trkpt lat="48.58329" lon="-3.14891">
        <ele>303</ele>
        <time>2016-04-03T07:44:53.1Z</time>
      </trkpt>
      <trkpt lat="48.58325" lon="-3.14891">
        <ele>303</ele>
        <time>2016-04-03T07:44:56.1Z</time>
      </trkpt>
      <trkpt lat="48.58323" lon="-3.14891">
        <ele>302</ele>
        <time>2016-04-03T07:44:58.1Z</time>
      </trkpt>
      <trkpt lat="48.58319" lon="-3.14892">
        <ele>302</ele>
        <time>2016-04-03T07:45:01.1Z</time>
      </trkpt>
      <trkpt lat="48.58316" lon="-3.14892">
        <ele>303</ele>
        <time>2016-04-03T07:45:04.1Z</time>
      </trkpt>
      <trkpt lat="48.58313" lon="-3.14892">
        <ele>303</ele>
        <time>2016-04-03T07:45:07.1Z</time>
      </trkpt>
      <trkpt lat="48.5831" lon="-3.14892">
        <ele>303</ele>
        <time>2016-04-03T07:45:09.1Z</time>
      </trkpt>
      <trkpt lat="48.58308" lon="-3.14892">
        <ele>303</ele>
        <time>2016-04-03T07:45:11.1Z</time>
      </trkpt>
      <trkpt lat="48.58305" lon="-3.14893">
        <ele>303</ele>
        <time>2016-04-03T07:45:14.1Z</time>
      </trkpt>
      <trkpt lat="48.58302" lon="-3.14893">
        <ele>303</ele>
        <time>2016-04-03T07:45:17.1Z</time>
      </trkpt>
      <trkpt lat="48.58298" lon="-3.14892">
        <ele>304</ele>
        <time>2016-04-03T07:45:20.1Z</time>
      </trkpt>
      <trkpt lat="48.58295" lon="-3.14892">
        <ele>304</ele>
        <time>2016-04-03T07:45:23.1Z</time>
      </trkpt>
      <trkpt lat="48.58294" lon="-3.14892">
        <ele>304</ele>
        <time>2016-04-03T07:45:25.1Z</time>
      </trkpt>
      <trkpt lat="48.5829" lon="-3.14891">
        <ele>304</ele>
        <time>2016-04-03T07:45:28.1Z</time>
      </trkpt>
      <trkpt lat="48.58289" lon="-3.14891">
        <ele>304</ele>
        <time>2016-04-03T07:45:30.1Z</time>
      </trkpt>
      <trkpt lat="48.58286" lon="-3.1489">
        <ele>304</ele>
        <time>2016-04-03T07:45:32.1Z</time>
      </trkpt>
      <trkpt lat="48.58285" lon="-3.14891">
        <ele>304</ele>
        <time>2016-04-03T07:45:34.1Z</time>
      </trkpt>
      <trkpt lat="48.58283" lon="-3.1489">
        <ele>304</ele>
        <time>2016-04-03T07:45:37.1Z</time>
      </trkpt>
      <trkpt lat="48.5828" lon="-3.14889">
        <ele>304</ele>
        <time>2016-04-03T07:45:40.1Z</time>
      </trkpt>
      <trkpt lat="48.58277" lon="-3.14887">
        <ele>305</ele>
        <time>2016-04-03T07:45:43.1Z</time>
      </trkpt>
      <trkpt lat="48.58274" lon="-3.14886">
        <ele>305</ele>
        <time>2016-04-03T07:45:46.1Z</time>
      </trkpt>
      <trkpt lat="48.58272" lon="-3.14885">
        <ele>305</ele>
        <time>2016-04-03T07:45:48.1Z</time>
      </trkpt>
      <trkpt lat="48.58269" lon="-3.14885">
        <ele>305</ele>
        <time>2016-04-03T07:45:51.1Z</time>
      </trkpt>
      <trkpt lat="48.58267" lon="-3.14884">
        <ele>305</ele>
        <time>2016-04-03T07:45:53.1Z</time>
      </trkpt>
      <trkpt lat="48.58265" lon="-3.14884">
        <ele>305</ele>
        <time>2016-04-03T07:45:55.1Z</time>
      </trkpt>
      <trkpt lat="48.58262" lon="-3.14883">
        <ele>306</ele>
        <time>2016-04-03T07:45:57.1Z</time>
      </trkpt>
      <trkpt lat="48.58259" lon="-3.14883">
        <ele>306</ele>
        <time>2016-04-03T07:46:00.1Z</time>
      </trkpt>
      <trkpt lat="48.58257" lon="-3.14883">
        <ele>306</ele>
        <time>2016-04-03T07:46:02.1Z</time>
      </trkpt>
      <trkpt lat="48.58255" lon="-3.14883">
        <ele>306</ele>
        <time>2016-04-03T07:46:04.1Z</time>
      </trkpt>
      <trkpt lat="48.58251" lon="-3.14883">
        <ele>306</ele>
        <time>2016-04-03T07:46:07.1Z</time>
      </trkpt>
      <trkpt lat="48.58247" lon="-3.14883">
        <ele>306</ele>
        <time>2016-04-03T07:46:10.1Z</time>
      </trkpt>
      <trkpt lat="48.58244" lon="-3.14883">
        <ele>307</ele>
        <time>2016-04-03T07:46:13.1Z</time>
      </trkpt>
      <trkpt lat="48.5824" lon="-3.14883">
        <ele>307</ele>
        <time>2016-04-03T07:46:16.1Z</time>
      </trkpt>
      <trkpt lat="48.58237" lon="-3.14883">
        <ele>307</ele>
        <time>2016-04-03T07:46:19.1Z</time>
      </trkpt>
      <trkpt lat="48.58234" lon="-3.14883">
        <ele>307</ele>
        <time>2016-04-03T07:46:21.1Z</time>
      </trkpt>
      <trkpt lat="48.58231" lon="-3.14882">
        <ele>307</ele>
        <time>2016-04-03T07:46:23.1Z</time>
      </trkpt>
      <trkpt lat="48.58228" lon="-3.14881">
        <ele>307</ele>
        <time>2016-04-03T07:46:26.1Z</time>
      </trkpt>
      <trkpt lat="48.58226" lon="-3.14881">
        <ele>308</ele>
        <time>2016-04-03T07:46:28.1Z</time>
      </trkpt>
      <trkpt lat="48.58222" lon="-3.1488">
        <ele>308</ele>
        <time>2016-04-03T07:46:31.1Z</time>
      </trkpt>
      <trkpt lat="48.5822" lon="-3.14879">
        <ele>308</ele>
        <time>2016-04-03T07:46:33.1Z</time>
      </trkpt>
      <trkpt lat="48.58217" lon="-3.14879">
        <ele>309</ele>
        <time>2016-04-03T07:46:36.1Z</time>
      </trkpt>
      <trkpt lat="48.58215" lon="-3.14879">
        <ele>309</ele>
        <time>2016-04-03T07:46:38.1Z</time>
      </trkpt>
      <trkpt lat="48.58211" lon="-3.14878">
        <ele>309</ele>
        <time>2016-04-03T07:46:41.1Z</time>
      </trkpt>
      <trkpt lat="48.58208" lon="-3.14876">
        <ele>309</ele>
        <time>2016-04-03T07:46:44.1Z</time>
      </trkpt>
      <trkpt lat="48.58207" lon="-3.14875">
        <ele>309</ele>
        <time>2016-04-03T07:46:46.1Z</time>
      </trkpt>
      <trkpt lat="48.58204" lon="-3.14875">
        <ele>309</ele>
        <time>2016-04-03T07:46:49.1Z</time>
      </trkpt>
      <trkpt lat="48.58201" lon="-3.14874">
        <ele>309</ele>
        <time>2016-04-03T07:46:52.1Z</time>
      </trkpt>
      <trkpt lat="48.58199" lon="-3.14873">
        <ele>310</ele>
        <time>2016-04-03T07:46:54.1Z</time>
      </trkpt>
      <trkpt lat="48.58197" lon="-3.14872">
        <ele>310</ele>
        <time>2016-04-03T07:46:56.1Z</time>
      </trkpt>
      <trkpt lat="48.58194" lon="-3.14872">
        <ele>310</ele>
        <time>2016-04-03T07:46:59.1Z</time>
      </trkpt>
      <trkpt lat="48.58191" lon="-3.14872">
        <ele>310</ele>
        <time>2016-04-03T07:47:02.1Z</time>
      </trkpt>
      <trkpt lat="48.58187" lon="-3.14871">
        <ele>310</ele>
        <time>2016-04-03T07:47:05.1Z</time>
      </trkpt>
      <trkpt lat="48.58184" lon="-3.1487">
        <ele>310</ele>
        <time>2016-04-03T07:47:08.1Z</time>
      </trkpt>
      <trkpt lat="48.58182" lon="-3.14869">
        <ele>310</ele>
        <time>2016-04-03T07:47:11.1Z</time>
      </trkpt>
      <trkpt lat="48.5818" lon="-3.14868">
        <ele>311</ele>
        <time>2016-04-03T07:47:13.1Z</time>
      </trkpt>
      <trkpt lat="48.58178" lon="-3.14867">
        <ele>311</ele>
        <time>2016-04-03T07:47:15.1Z</time>
      </trkpt>
      <trkpt lat="48.58175" lon="-3.14865">
        <ele>311</ele>
        <time>2016-04-03T07:47:18.1Z</time>
      </trkpt>
      <trkpt lat="48.58173" lon="-3.14864">
        <ele>312</ele>
        <time>2016-04-03T07:47:20.1Z</time>
      </trkpt>
      <trkpt lat="48.58171" lon="-3.14863">
        <ele>312</ele>
        <time>2016-04-03T07:47:22.1Z</time>
      </trkpt>
      <trkpt lat="48.58167" lon="-3.14861">
        <ele>312</ele>
        <time>2016-04-03T07:47:25.1Z</time>
      </trkpt>
      <trkpt lat="48.58164" lon="-3.1486">
        <ele>312</ele>
        <time>2016-04-03T07:47:28.1Z</time>
      </trkpt>
      <trkpt lat="48.58161" lon="-3.14858">
        <ele>312</ele>
        <time>2016-04-03T07:47:31.1Z</time>
      </trkpt>
      <trkpt lat="48.5816" lon="-3.14856">
        <ele>313</ele>
        <time>2016-04-03T07:47:33.1Z</time>
      </trkpt>
      <trkpt lat="48.58156" lon="-3.14854">
        <ele>313</ele>
        <time>2016-04-03T07:47:36.1Z</time>
      </trkpt>
      <trkpt lat="48.58154" lon="-3.14854">
        <ele>313</ele>
        <time>2016-04-03T07:47:38.1Z</time>
      </trkpt>
      <trkpt lat="48.58152" lon="-3.14853">
        <ele>313</ele>
        <time>2016-04-03T07:47:41.1Z</time>
      </trkpt>
      <trkpt lat="48.5815" lon="-3.14851">
        <ele>313</ele>
        <time>2016-04-03T07:47:43.1Z</time>
      </trkpt>
      <trkpt lat="48.58149" lon="-3.14848">
        <ele>313</ele>
        <time>2016-04-03T07:47:46.1Z</time>
      </trkpt>
      <trkpt lat="48.58146" lon="-3.14844">
        <ele>313</ele>
        <time>2016-04-03T07:47:49.1Z</time>
      </trkpt>
      <trkpt lat="48.58144" lon="-3.1484">
        <ele>313</ele>
        <time>2016-04-03T07:47:52.1Z</time>
      </trkpt>
      <trkpt lat="48.58142" lon="-3.14837">
        <ele>313</ele>
        <time>2016-04-03T07:47:55.1Z</time>
      </trkpt>
      <trkpt lat="48.5814" lon="-3.14833">
        <ele>313</ele>
        <time>2016-04-03T07:47:58.1Z</time>
      </trkpt>
      <trkpt lat="48.58139" lon="-3.1483">
        <ele>313</ele>
        <time>2016-04-03T07:48:00.1Z</time>
      </trkpt>
      <trkpt lat="48.58136" lon="-3.14826">
        <ele>313</ele>
        <time>2016-04-03T07:48:03.1Z</time>
      </trkpt>
      <trkpt lat="48.58135" lon="-3.14824">
        <ele>313</ele>
        <time>2016-04-03T07:48:05.1Z</time>
      </trkpt>
      <trkpt lat="48.58132" lon="-3.1482">
        <ele>313</ele>
        <time>2016-04-03T07:48:08.1Z</time>
      </trkpt>
      <trkpt lat="48.58131" lon="-3.14818">
        <ele>312</ele>
        <time>2016-04-03T07:48:10.1Z</time>
      </trkpt>
      <trkpt lat="48.58128" lon="-3.14816">
        <ele>312</ele>
        <time>2016-04-03T07:48:12.1Z</time>
      </trkpt>
      <trkpt lat="48.58126" lon="-3.14815">
        <ele>312</ele>
        <time>2016-04-03T07:48:14.1Z</time>
      </trkpt>
      <trkpt lat="48.58123" lon="-3.14814">
        <ele>312</ele>
        <time>2016-04-03T07:48:17.1Z</time>
      </trkpt>
      <trkpt lat="48.5812" lon="-3.14814">
        <ele>312</ele>
        <time>2016-04-03T07:48:20.1Z</time>
      </trkpt>
      <trkpt lat="48.58117" lon="-3.14814">
        <ele>313</ele>
        <time>2016-04-03T07:48:22.1Z</time>
      </trkpt>
      <trkpt lat="48.58113" lon="-3.14816">
        <ele>313</ele>
        <time>2016-04-03T07:48:25.1Z</time>
      </trkpt>
      <trkpt lat="48.58111" lon="-3.14817">
        <ele>313</ele>
        <time>2016-04-03T07:48:27.1Z</time>
      </trkpt>
      <trkpt lat="48.58107" lon="-3.1482">
        <ele>313</ele>
        <time>2016-04-03T07:48:30.1Z</time>
      </trkpt>
      <trkpt lat="48.58104" lon="-3.14822">
        <ele>313</ele>
        <time>2016-04-03T07:48:33.1Z</time>
      </trkpt>
      <trkpt lat="48.58101" lon="-3.14825">
        <ele>313</ele>
        <time>2016-04-03T07:48:36.1Z</time>
      </trkpt>
      <trkpt lat="48.58098" lon="-3.14826">
        <ele>313</ele>
        <time>2016-04-03T07:48:38.1Z</time>
      </trkpt>
      <trkpt lat="48.58095" lon="-3.14829">
        <ele>313</ele>
        <time>2016-04-03T07:48:41.1Z</time>
      </trkpt>
      <trkpt lat="48.58093" lon="-3.14831">
        <ele>313</ele>
        <time>2016-04-03T07:48:43.1Z</time>
      </trkpt>
      <trkpt lat="48.58091" lon="-3.14832">
        <ele>313</ele>
        <time>2016-04-03T07:48:45.1Z</time>
      </trkpt>
      <trkpt lat="48.58088" lon="-3.14835">
        <ele>313</ele>
        <time>2016-04-03T07:48:48.1Z</time>
      </trkpt>
      <trkpt lat="48.58084" lon="-3.14838">
        <ele>313</ele>
        <time>2016-04-03T07:48:51.1Z</time>
      </trkpt>
      <trkpt lat="48.58082" lon="-3.14839">
        <ele>313</ele>
        <time>2016-04-03T07:48:53.1Z</time>
      </trkpt>
      <trkpt lat="48.58079" lon="-3.14842">
        <ele>313</ele>
        <time>2016-04-03T07:48:56.1Z</time>
      </trkpt>
      <trkpt lat="48.58077" lon="-3.14844">
        <ele>313</ele>
        <time>2016-04-03T07:48:58.1Z</time>
      </trkpt>
      <trkpt lat="48.58074" lon="-3.14847">
        <ele>313</ele>
        <time>2016-04-03T07:49:01.1Z</time>
      </trkpt>
      <trkpt lat="48.58072" lon="-3.14849">
        <ele>313</ele>
        <time>2016-04-03T07:49:03.1Z</time>
      </trkpt>
      <trkpt lat="48.58068" lon="-3.14852">
        <ele>313</ele>
        <time>2016-04-03T07:49:06.1Z</time>
      </trkpt>
      <trkpt lat="48.58065" lon="-3.14855">
        <ele>313</ele>
        <time>2016-04-03T07:49:09.1Z</time>
      </trkpt>
      <trkpt lat="48.58062" lon="-3.14858">
        <ele>312</ele>
        <time>2016-04-03T07:49:12.1Z</time>
      </trkpt>
      <trkpt lat="48.58059" lon="-3.14861">
        <ele>312</ele>
        <time>2016-04-03T07:49:15.1Z</time>
      </trkpt>
      <trkpt lat="48.58057" lon="-3.14861">
        <ele>312</ele>
        <time>2016-04-03T07:49:17.1Z</time>
      </trkpt>
      <trkpt lat="48.58054" lon="-3.14863">
        <ele>312</ele>
        <time>2016-04-03T07:49:20.1Z</time>
      </trkpt>
      <trkpt lat="48.58052" lon="-3.14865">
        <ele>312</ele>
        <time>2016-04-03T07:49:22.1Z</time>
      </trkpt>
      <trkpt lat="48.58048" lon="-3.14868">
        <ele>313</ele>
        <time>2016-04-03T07:49:25.1Z</time>
      </trkpt>
      <trkpt lat="48.58046" lon="-3.1487">
        <ele>313</ele>
        <time>2016-04-03T07:49:27.1Z</time>
      </trkpt>
      <trkpt lat="48.58043" lon="-3.14872">
        <ele>313</ele>
        <time>2016-04-03T07:49:30.1Z</time>
      </trkpt>
      <trkpt lat="48.5804" lon="-3.14874">
        <ele>313</ele>
        <time>2016-04-03T07:49:32.1Z</time>
      </trkpt>
      <trkpt lat="48.58037" lon="-3.14877">
        <ele>312</ele>
        <time>2016-04-03T07:49:35.1Z</time>
      </trkpt>
      <trkpt lat="48.58034" lon="-3.1488">
        <ele>312</ele>
        <time>2016-04-03T07:49:38.1Z</time>
      </trkpt>
      <trkpt lat="48.58031" lon="-3.14882">
        <ele>313</ele>
        <time>2016-04-03T07:49:40.1Z</time>
      </trkpt>
      <trkpt lat="48.58029" lon="-3.14884">
        <ele>313</ele>
        <time>2016-04-03T07:49:43.1Z</time>
      </trkpt>
      <trkpt lat="48.58027" lon="-3.14886">
        <ele>313</ele>
        <time>2016-04-03T07:49:45.1Z</time>
      </trkpt>
      <trkpt lat="48.58024" lon="-3.14889">
        <ele>312</ele>
        <time>2016-04-03T07:49:48.1Z</time>
      </trkpt>
      <trkpt lat="48.58022" lon="-3.1489">
        <ele>312</ele>
        <time>2016-04-03T07:49:50.1Z</time>
      </trkpt>
      <trkpt lat="48.58019" lon="-3.14893">
        <ele>312</ele>
        <time>2016-04-03T07:49:53.1Z</time>
      </trkpt>
      <trkpt lat="48.58017" lon="-3.14895">
        <ele>312</ele>
        <time>2016-04-03T07:49:55.1Z</time>
      </trkpt>
      <trkpt lat="48.58015" lon="-3.14897">
        <ele>313</ele>
        <time>2016-04-03T07:49:58.1Z</time>
      </trkpt>
      <trkpt lat="48.58011" lon="-3.14899">
        <ele>313</ele>
        <time>2016-04-03T07:50:01.1Z</time>
      </trkpt>
      <trkpt lat="48.58009" lon="-3.14901">
        <ele>312</ele>
        <time>2016-04-03T07:50:03.1Z</time>
      </trkpt>
      <trkpt lat="48.58008" lon="-3.14903">
        <ele>312</ele>
        <time>2016-04-03T07:50:05.1Z</time>
      </trkpt>
      <trkpt lat="48.58006" lon="-3.14905">
        <ele>312</ele>
        <time>2016-04-03T07:50:07.1Z</time>
      </trkpt>
      <trkpt lat="48.58002" lon="-3.14908">
        <ele>312</ele>
        <time>2016-04-03T07:50:10.1Z</time>
      </trkpt>
      <trkpt lat="48.57999" lon="-3.1491">
        <ele>312</ele>
        <time>2016-04-03T07:50:13.1Z</time>
      </trkpt>
      <trkpt lat="48.57997" lon="-3.14912">
        <ele>312</ele>
        <time>2016-04-03T07:50:15.1Z</time>
      </trkpt>
      <trkpt lat="48.57995" lon="-3.14913">
        <ele>312</ele>
        <time>2016-04-03T07:50:17.1Z</time>
      </trkpt>
      <trkpt lat="48.57992" lon="-3.14916">
        <ele>312</ele>
        <time>2016-04-03T07:50:20.1Z</time>
      </trkpt>
      <trkpt lat="48.57989" lon="-3.14918">
        <ele>312</ele>
        <time>2016-04-03T07:50:23.1Z</time>
      </trkpt>
      <trkpt lat="48.57986" lon="-3.1492">
        <ele>312</ele>
        <time>2016-04-03T07:50:25.1Z</time>
      </trkpt>
      <trkpt lat="48.57983" lon="-3.14923">
        <ele>312</ele>
        <time>2016-04-03T07:50:28.1Z</time>
      </trkpt>
      <trkpt lat="48.57981" lon="-3.14926">
        <ele>312</ele>
        <time>2016-04-03T07:50:30.1Z</time>
      </trkpt>
      <trkpt lat="48.57979" lon="-3.14928">
        <ele>312</ele>
        <time>2016-04-03T07:50:32.1Z</time>
      </trkpt>
      <trkpt lat="48.57977" lon="-3.1493">
        <ele>312</ele>
        <time>2016-04-03T07:50:34.1Z</time>
      </trkpt>
      <trkpt lat="48.57974" lon="-3.14933">
        <ele>312</ele>
        <time>2016-04-03T07:50:37.1Z</time>
      </trkpt>
      <trkpt lat="48.5797" lon="-3.14936">
        <ele>312</ele>
        <time>2016-04-03T07:50:40.1Z</time>
      </trkpt>
      <trkpt lat="48.57967" lon="-3.14939">
        <ele>312</ele>
        <time>2016-04-03T07:50:43.1Z</time>
      </trkpt>
      <trkpt lat="48.57965" lon="-3.14942">
        <ele>312</ele>
        <time>2016-04-03T07:50:45.1Z</time>
      </trkpt>
      <trkpt lat="48.57963" lon="-3.14943">
        <ele>312</ele>
        <time>2016-04-03T07:50:47.1Z</time>
      </trkpt>
      <trkpt lat="48.57959" lon="-3.14945">
        <ele>311</ele>
        <time>2016-04-03T07:50:50.1Z</time>
      </trkpt>
      <trkpt lat="48.57956" lon="-3.14948">
        <ele>311</ele>
        <time>2016-04-03T07:50:53.1Z</time>
      </trkpt>
      <trkpt lat="48.57953" lon="-3.1495">
        <ele>311</ele>
        <time>2016-04-03T07:50:56.1Z</time>
      </trkpt>
      <trkpt lat="48.57951" lon="-3.14952">
        <ele>311</ele>
        <time>2016-04-03T07:50:58.1Z</time>
      </trkpt>
      <trkpt lat="48.57949" lon="-3.14954">
        <ele>311</ele>
        <time>2016-04-03T07:51:00.1Z</time>
      </trkpt>
      <trkpt lat="48.57946" lon="-3.14957">
        <ele>311</ele>
        <time>2016-04-03T07:51:03.1Z</time>
      </trkpt>
      <trkpt lat="48.57944" lon="-3.14959">
        <ele>311</ele>
        <time>2016-04-03T07:51:05.1Z</time>
      </trkpt>
      <trkpt lat="48.57941" lon="-3.14962">
        <ele>311</ele>
        <time>2016-04-03T07:51:08.1Z</time>
      </trkpt>
      <trkpt lat="48.57938" lon="-3.14964">
        <ele>311</ele>
        <time>2016-04-03T07:51:11.1Z</time>
      </trkpt>
      <trkpt lat="48.57935" lon="-3.14966">
        <ele>310</ele>
        <time>2016-04-03T07:51:13.1Z</time>
      </trkpt>
      <trkpt lat="48.57933" lon="-3.14968">
        <ele>310</ele>
        <time>2016-04-03T07:51:16.1Z</time>
      </trkpt>
      <trkpt lat="48.5793" lon="-3.1497">
        <ele>311</ele>
        <time>2016-04-03T07:51:19.1Z</time>
      </trkpt>
      <trkpt lat="48.57927" lon="-3.14973">
        <ele>311</ele>
        <time>2016-04-03T07:51:22.1Z</time>
      </trkpt>
      <trkpt lat="48.57925" lon="-3.14975">
        <ele>311</ele>
        <time>2016-04-03T07:51:24.1Z</time>
      </trkpt>
      <trkpt lat="48.57922" lon="-3.14977">
        <ele>311</ele>
        <time>2016-04-03T07:51:27.1Z</time>
      </trkpt>
      <trkpt lat="48.57919" lon="-3.1498">
        <ele>311</ele>
        <time>2016-04-03T07:51:30.1Z</time>
      </trkpt>
      <trkpt lat="48.57916" lon="-3.14982">
        <ele>311</ele>
        <time>2016-04-03T07:51:33.1Z</time>
      </trkpt>
      <trkpt lat="48.57913" lon="-3.14984">
        <ele>310</ele>
        <time>2016-04-03T07:51:36.1Z</time>
      </trkpt>
      <trkpt lat="48.57911" lon="-3.14986">
        <ele>310</ele>
        <time>2016-04-03T07:51:38.1Z</time>
      </trkpt>
      <trkpt lat="48.5791" lon="-3.14987">
        <ele>310</ele>
        <time>2016-04-03T07:51:41.1Z</time>
      </trkpt>
      <trkpt lat="48.57909" lon="-3.14989">
        <ele>310</ele>
        <time>2016-04-03T07:51:43.1Z</time>
      </trkpt>
      <trkpt lat="48.57907" lon="-3.14992">
        <ele>310</ele>
        <time>2016-04-03T07:51:46.1Z</time>
      </trkpt>
      <trkpt lat="48.57906" lon="-3.14994">
        <ele>311</ele>
        <time>2016-04-03T07:51:48.1Z</time>
      </trkpt>
      <trkpt lat="48.57904" lon="-3.14996">
        <ele>311</ele>
        <time>2016-04-03T07:51:51.1Z</time>
      </trkpt>
      <trkpt lat="48.57905" lon="-3.14997">
        <ele>310</ele>
        <time>2016-04-03T07:51:54.1Z</time>
      </trkpt>
      <trkpt lat="48.57905" lon="-3.14998">
        <ele>311</ele>
        <time>2016-04-03T07:51:56.1Z</time>
      </trkpt>
      <trkpt lat="48.57905" lon="-3.14998">
        <ele>310</ele>
        <time>2016-04-03T07:51:59.1Z</time>
      </trkpt>
      <trkpt lat="48.57905" lon="-3.14997">
        <ele>310</ele>
        <time>2016-04-03T07:52:02.1Z</time>
      </trkpt>
      <trkpt lat="48.57904" lon="-3.14997">
        <ele>310</ele>
        <time>2016-04-03T07:52:05.1Z</time>
      </trkpt>
      <trkpt lat="48.57904" lon="-3.14997">
        <ele>310</ele>
        <time>2016-04-03T07:52:08.1Z</time>
      </trkpt>
      <trkpt lat="48.57904" lon="-3.14998">
        <ele>310</ele>
        <time>2016-04-03T07:52:10.1Z</time>
      </trkpt>
      <trkpt lat="48.57903" lon="-3.14998">
        <ele>310</ele>
        <time>2016-04-03T07:52:13.1Z</time>
      </trkpt>
      <trkpt lat="48.57903" lon="-3.14997">
        <ele>310</ele>
        <time>2016-04-03T07:52:15.1Z</time>
      </trkpt>
      <trkpt lat="48.57904" lon="-3.14995">
        <ele>310</ele>
        <time>2016-04-03T07:52:18.1Z</time>
      </trkpt>
      <trkpt lat="48.57904" lon="-3.14995">
        <ele>310</ele>
        <time>2016-04-03T07:52:21.1Z</time>
      </trkpt>
      <trkpt lat="48.57903" lon="-3.14995">
        <ele>310</ele>
        <time>2016-04-03T07:52:24.1Z</time>
      </trkpt>
      <trkpt lat="48.57901" lon="-3.14996">
        <ele>310</ele>
        <time>2016-04-03T07:52:27.1Z</time>
      </trkpt>
      <trkpt lat="48.57899" lon="-3.14998">
        <ele>310</ele>
        <time>2016-04-03T07:52:29.1Z</time>
      </trkpt>
      <trkpt lat="48.57897" lon="-3.15">
        <ele>310</ele>
        <time>2016-04-03T07:52:32.1Z</time>
      </trkpt>
      <trkpt lat="48.57896" lon="-3.15">
        <ele>310</ele>
        <time>2016-04-03T07:52:34.1Z</time>
      </trkpt>
      <trkpt lat="48.57894" lon="-3.15002">
        <ele>310</ele>
        <time>2016-04-03T07:52:37.1Z</time>
      </trkpt>
      <trkpt lat="48.57893" lon="-3.15004">
        <ele>310</ele>
        <time>2016-04-03T07:52:39.1Z</time>
      </trkpt>
      <trkpt lat="48.57891" lon="-3.15008">
        <ele>310</ele>
        <time>2016-04-03T07:52:42.1Z</time>
      </trkpt>
      <trkpt lat="48.57892" lon="-3.1501">
        <ele>310</ele>
        <time>2016-04-03T07:52:44.1Z</time>
      </trkpt>
      <trkpt lat="48.57892" lon="-3.15015">
        <ele>310</ele>
        <time>2016-04-03T07:52:47.1Z</time>
      </trkpt>
      <trkpt lat="48.57893" lon="-3.15018">
        <ele>310</ele>
        <time>2016-04-03T07:52:49.1Z</time>
      </trkpt>
      <trkpt lat="48.57894" lon="-3.15022">
        <ele>310</ele>
        <time>2016-04-03T07:52:52.1Z</time>
      </trkpt>
      <trkpt lat="48.57895" lon="-3.15024">
        <ele>310</ele>
        <time>2016-04-03T07:52:54.1Z</time>
      </trkpt>
      <trkpt lat="48.57896" lon="-3.15028">
        <ele>310</ele>
        <time>2016-04-03T07:52:57.1Z</time>
      </trkpt>
      <trkpt lat="48.57898" lon="-3.15032">
        <ele>309</ele>
        <time>2016-04-03T07:53:00.1Z</time>
      </trkpt>
      <trkpt lat="48.57899" lon="-3.15036">
        <ele>309</ele>
        <time>2016-04-03T07:53:03.1Z</time>
      </trkpt>
      <trkpt lat="48.57899" lon="-3.15038">
        <ele>309</ele>
        <time>2016-04-03T07:53:05.1Z</time>
      </trkpt>
      <trkpt lat="48.579" lon="-3.1504">
        <ele>309</ele>
        <time>2016-04-03T07:53:07.1Z</time>
      </trkpt>
      <trkpt lat="48.57901" lon="-3.15044">
        <ele>309</ele>
        <time>2016-04-03T07:53:10.1Z</time>
      </trkpt>
      <trkpt lat="48.57902" lon="-3.15049">
        <ele>310</ele>
        <time>2016-04-03T07:53:13.1Z</time>
      </trkpt>
      <trkpt lat="48.57902" lon="-3.15053">
        <ele>309</ele>
        <time>2016-04-03T07:53:16.1Z</time>
      </trkpt>
      <trkpt lat="48.57903" lon="-3.15057">
        <ele>310</ele>
        <time>2016-04-03T07:53:19.1Z</time>
      </trkpt>
      <trkpt lat="48.57904" lon="-3.15061">
        <ele>310</ele>
        <time>2016-04-03T07:53:22.1Z</time>
      </trkpt>
      <trkpt lat="48.57906" lon="-3.15066">
        <ele>310</ele>
        <time>2016-04-03T07:53:25.1Z</time>
      </trkpt>
      <trkpt lat="48.57907" lon="-3.15071">
        <ele>310</ele>
        <time>2016-04-03T07:53:28.1Z</time>
      </trkpt>
      <trkpt lat="48.57907" lon="-3.15074">
        <ele>310</ele>
        <time>2016-04-03T07:53:30.1Z</time>
      </trkpt>
      <trkpt lat="48.57908" lon="-3.15078">
        <ele>310</ele>
        <time>2016-04-03T07:53:32.1Z</time>
      </trkpt>
      <trkpt lat="48.57908" lon="-3.15082">
        <ele>310</ele>
        <time>2016-04-03T07:53:35.1Z</time>
      </trkpt>
      <trkpt lat="48.57908" lon="-3.15085">
        <ele>309</ele>
        <time>2016-04-03T07:53:37.1Z</time>
      </trkpt>
      <trkpt lat="48.57909" lon="-3.15088">
        <ele>310</ele>
        <time>2016-04-03T07:53:40.1Z</time>
      </trkpt>
      <trkpt lat="48.5791" lon="-3.15092">
        <ele>310</ele>
        <time>2016-04-03T07:53:42.1Z</time>
      </trkpt>
      <trkpt lat="48.57911" lon="-3.15094">
        <ele>310</ele>
        <time>2016-04-03T07:53:44.1Z</time>
      </trkpt>
      <trkpt lat="48.57911" lon="-3.15096">
        <ele>310</ele>
        <time>2016-04-03T07:53:46.1Z</time>
      </trkpt>
      <trkpt lat="48.57912" lon="-3.15101">
        <ele>310</ele>
        <time>2016-04-03T07:53:49.1Z</time>
      </trkpt>
      <trkpt lat="48.57912" lon="-3.15104">
        <ele>309</ele>
        <time>2016-04-03T07:53:51.1Z</time>
      </trkpt>
      <trkpt lat="48.57913" lon="-3.15106">
        <ele>309</ele>
        <time>2016-04-03T07:53:54.1Z</time>
      </trkpt>
      <trkpt lat="48.57913" lon="-3.15107">
        <ele>309</ele>
        <time>2016-04-03T07:53:56.1Z</time>
      </trkpt>
      <trkpt lat="48.57913" lon="-3.15109">
        <ele>309</ele>
        <time>2016-04-03T07:53:59.1Z</time>
      </trkpt>
      <trkpt lat="48.57914" lon="-3.1511">
        <ele>310</ele>
        <time>2016-04-03T07:54:01.1Z</time>
      </trkpt>
      <trkpt lat="48.57914" lon="-3.15112">
        <ele>310</ele>
        <time>2016-04-03T07:54:04.1Z</time>
      </trkpt>
      <trkpt lat="48.57914" lon="-3.15114">
        <ele>310</ele>
        <time>2016-04-03T07:54:07.1Z</time>
      </trkpt>
      <trkpt lat="48.57914" lon="-3.15115">
        <ele>310</ele>
        <time>2016-04-03T07:54:10.1Z</time>
      </trkpt>
      <trkpt lat="48.57914" lon="-3.15116">
        <ele>310</ele>
        <time>2016-04-03T07:54:12.1Z</time>
      </trkpt>
      <trkpt lat="48.57915" lon="-3.15118">
        <ele>310</ele>
        <time>2016-04-03T07:54:15.1Z</time>
      </trkpt>
      <trkpt lat="48.57918" lon="-3.15119">
        <ele>310</ele>
        <time>2016-04-03T07:54:18.1Z</time>
      </trkpt>
      <trkpt lat="48.5792" lon="-3.1512">
        <ele>310</ele>
        <time>2016-04-03T07:54:20.1Z</time>
      </trkpt>
      <trkpt lat="48.57922" lon="-3.15122">
        <ele>310</ele>
        <time>2016-04-03T07:54:23.1Z</time>
      </trkpt>
      <trkpt lat="48.57923" lon="-3.15123">
        <ele>310</ele>
        <time>2016-04-03T07:54:25.1Z</time>
      </trkpt>
      <trkpt lat="48.57924" lon="-3.15126">
        <ele>310</ele>
        <time>2016-04-03T07:54:27.1Z</time>
      </trkpt>
      <trkpt lat="48.57926" lon="-3.15129">
        <ele>310</ele>
        <time>2016-04-03T07:54:30.1Z</time>
      </trkpt>
      <trkpt lat="48.57928" lon="-3.15132">
        <ele>310</ele>
        <time>2016-04-03T07:54:33.1Z</time>
      </trkpt>
      <trkpt lat="48.57929" lon="-3.15134">
        <ele>310</ele>
        <time>2016-04-03T07:54:35.1Z</time>
      </trkpt>
      <trkpt lat="48.57931" lon="-3.15138">
        <ele>310</ele>
        <time>2016-04-03T07:54:38.1Z</time>
      </trkpt>
      <trkpt lat="48.57933" lon="-3.15142">
        <ele>310</ele>
        <time>2016-04-03T07:54:41.1Z</time>
      </trkpt>
      <trkpt lat="48.57934" lon="-3.15146">
        <ele>310</ele>
        <time>2016-04-03T07:54:43.1Z</time>
      </trkpt>
      <trkpt lat="48.57935" lon="-3.1515">
        <ele>310</ele>
        <time>2016-04-03T07:54:45.1Z</time>
      </trkpt>
      <trkpt lat="48.57936" lon="-3.15155">
        <ele>311</ele>
        <time>2016-04-03T07:54:48.1Z</time>
      </trkpt>
      <trkpt lat="48.57938" lon="-3.1516">
        <ele>311</ele>
        <time>2016-04-03T07:54:51.1Z</time>
      </trkpt>
      <trkpt lat="48.57939" lon="-3.15164">
        <ele>311</ele>
        <time>2016-04-03T07:54:54.1Z</time>
      </trkpt>
      <trkpt lat="48.5794" lon="-3.15168">
        <ele>310</ele>
        <time>2016-04-03T07:54:57.1Z</time>
      </trkpt>
      <trkpt lat="48.5794" lon="-3.15171">
        <ele>310</ele>
        <time>2016-04-03T07:54:59.1Z</time>
      </trkpt>
      <trkpt lat="48.5794" lon="-3.15174">
        <ele>310</ele>
        <time>2016-04-03T07:55:01.1Z</time>
      </trkpt>
      <trkpt lat="48.5794" lon="-3.15177">
        <ele>310</ele>
        <time>2016-04-03T07:55:04.1Z</time>
      </trkpt>
      <trkpt lat="48.57941" lon="-3.15179">
        <ele>310</ele>
        <time>2016-04-03T07:55:06.1Z</time>
      </trkpt>
      <trkpt lat="48.57943" lon="-3.15182">
        <ele>310</ele>
        <time>2016-04-03T07:55:09.1Z</time>
      </trkpt>
      <trkpt lat="48.57944" lon="-3.15184">
        <ele>310</ele>
        <time>2016-04-03T07:55:11.1Z</time>
      </trkpt>
      <trkpt lat="48.57945" lon="-3.15187">
        <ele>310</ele>
        <time>2016-04-03T07:55:14.1Z</time>
      </trkpt>
      <trkpt lat="48.57946" lon="-3.15189">
        <ele>310</ele>
        <time>2016-04-03T07:55:16.1Z</time>
      </trkpt>
      <trkpt lat="48.57946" lon="-3.15192">
        <ele>310</ele>
        <time>2016-04-03T07:55:18.1Z</time>
      </trkpt>
      <trkpt lat="48.57946" lon="-3.15195">
        <ele>310</ele>
        <time>2016-04-03T07:55:21.1Z</time>
      </trkpt>
      <trkpt lat="48.57946" lon="-3.15198">
        <ele>310</ele>
        <time>2016-04-03T07:55:24.1Z</time>
      </trkpt>
      <trkpt lat="48.57946" lon="-3.152">
        <ele>310</ele>
        <time>2016-04-03T07:55:27.1Z</time>
      </trkpt>
      <trkpt lat="48.57946" lon="-3.15201">
        <ele>310</ele>
        <time>2016-04-03T07:55:29.1Z</time>
      </trkpt>
      <trkpt lat="48.57945" lon="-3.15204">
        <ele>310</ele>
        <time>2016-04-03T07:55:32.1Z</time>
      </trkpt>
      <trkpt lat="48.57946" lon="-3.15207">
        <ele>310</ele>
        <time>2016-04-03T07:55:35.1Z</time>
      </trkpt>
      <trkpt lat="48.57947" lon="-3.15209">
        <ele>310</ele>
        <time>2016-04-03T07:55:37.1Z</time>
      </trkpt>
      <trkpt lat="48.57948" lon="-3.1521">
        <ele>310</ele>
        <time>2016-04-03T07:55:39.1Z</time>
      </trkpt>
      <trkpt lat="48.57949" lon="-3.15212">
        <ele>310</ele>
        <time>2016-04-03T07:55:42.1Z</time>
      </trkpt>
      <trkpt lat="48.57951" lon="-3.15215">
        <ele>310</ele>
        <time>2016-04-03T07:55:44.1Z</time>
      </trkpt>
      <trkpt lat="48.57953" lon="-3.15217">
        <ele>310</ele>
        <time>2016-04-03T07:55:47.1Z</time>
      </trkpt>
      <trkpt lat="48.57954" lon="-3.1522">
        <ele>310</ele>
        <time>2016-04-03T07:55:50.1Z</time>
      </trkpt>
      <trkpt lat="48.57954" lon="-3.15221">
        <ele>310</ele>
        <time>2016-04-03T07:55:52.1Z</time>
      </trkpt>
      <trkpt lat="48.57955" lon="-3.15223">
        <ele>310</ele>
        <time>2016-04-03T07:55:55.1Z</time>
      </trkpt>
      <trkpt lat="48.57955" lon="-3.15223">
        <ele>310</ele>
        <time>2016-04-03T07:55:57.1Z</time>
      </trkpt>
      <trkpt lat="48.57955" lon="-3.15224">
        <ele>310</ele>
        <time>2016-04-03T07:55:59.1Z</time>
      </trkpt>
      <trkpt lat="48.57956" lon="-3.15226">
        <ele>310</ele>
        <time>2016-04-03T07:56:02.1Z</time>
      </trkpt>
      <trkpt lat="48.57957" lon="-3.15227">
        <ele>310</ele>
        <time>2016-04-03T07:56:04.1Z</time>
      </trkpt>
      <trkpt lat="48.57958" lon="-3.15229">
        <ele>310</ele>
        <time>2016-04-03T07:56:07.1Z</time>
      </trkpt>
      <trkpt lat="48.57959" lon="-3.1523">
        <ele>310</ele>
        <time>2016-04-03T07:56:10.1Z</time>
      </trkpt>
      <trkpt lat="48.57959" lon="-3.15231">
        <ele>310</ele>
        <time>2016-04-03T07:56:13.1Z</time>
      </trkpt>
      <trkpt lat="48.5796" lon="-3.15233">
        <ele>310</ele>
        <time>2016-04-03T07:56:16.1Z</time>
      </trkpt>
      <trkpt lat="48.5796" lon="-3.15234">
        <ele>310</ele>
        <time>2016-04-03T07:56:19.1Z</time>
      </trkpt>
      <trkpt lat="48.57961" lon="-3.15235">
        <ele>310</ele>
        <time>2016-04-03T07:56:21.1Z</time>
      </trkpt>
      <trkpt lat="48.57962" lon="-3.15237">
        <ele>310</ele>
        <time>2016-04-03T07:56:24.1Z</time>
      </trkpt>
      <trkpt lat="48.57964" lon="-3.15238">
        <ele>310</ele>
        <time>2016-04-03T07:56:27.1Z</time>
      </trkpt>
      <trkpt lat="48.57964" lon="-3.1524">
        <ele>310</ele>
        <time>2016-04-03T07:56:29.1Z</time>
      </trkpt>
      <trkpt lat="48.57966" lon="-3.15242">
        <ele>310</ele>
        <time>2016-04-03T07:56:32.1Z</time>
      </trkpt>
      <trkpt lat="48.57967" lon="-3.15244">
        <ele>310</ele>
        <time>2016-04-03T07:56:34.1Z</time>
      </trkpt>
      <trkpt lat="48.57969" lon="-3.15246">
        <ele>311</ele>
        <time>2016-04-03T07:56:36.1Z</time>
      </trkpt>
      <trkpt lat="48.57971" lon="-3.15248">
        <ele>311</ele>
        <time>2016-04-03T07:56:39.1Z</time>
      </trkpt>
      <trkpt lat="48.57972" lon="-3.1525">
        <ele>311</ele>
        <time>2016-04-03T07:56:41.1Z</time>
      </trkpt>
      <trkpt lat="48.57974" lon="-3.15252">
        <ele>311</ele>
        <time>2016-04-03T07:56:44.1Z</time>
      </trkpt>
      <trkpt lat="48.57975" lon="-3.15256">
        <ele>311</ele>
        <time>2016-04-03T07:56:47.1Z</time>
      </trkpt>
      <trkpt lat="48.57976" lon="-3.15258">
        <ele>311</ele>
        <time>2016-04-03T07:56:49.1Z</time>
      </trkpt>
      <trkpt lat="48.57977" lon="-3.1526">
        <ele>311</ele>
        <time>2016-04-03T07:56:52.1Z</time>
      </trkpt>
      <trkpt lat="48.57979" lon="-3.15263">
        <ele>311</ele>
        <time>2016-04-03T07:56:55.1Z</time>
      </trkpt>
      <trkpt lat="48.5798" lon="-3.15265">
        <ele>311</ele>
        <time>2016-04-03T07:56:57.1Z</time>
      </trkpt>
      <trkpt lat="48.57982" lon="-3.15267">
        <ele>311</ele>
        <time>2016-04-03T07:57:00.1Z</time>
      </trkpt>
      <trkpt lat="48.57984" lon="-3.15271">
        <ele>311</ele>
        <time>2016-04-03T07:57:03.1Z</time>
      </trkpt>
      <trkpt lat="48.57985" lon="-3.15274">
        <ele>311</ele>
        <time>2016-04-03T07:57:05.1Z</time>
      </trkpt>
      <trkpt lat="48.57987" lon="-3.15276">
        <ele>311</ele>
        <time>2016-04-03T07:57:08.1Z</time>
      </trkpt>
      <trkpt lat="48.57989" lon="-3.15278">
        <ele>311</ele>
        <time>2016-04-03T07:57:10.1Z</time>
      </trkpt>
      <trkpt lat="48.57991" lon="-3.15281">
        <ele>311</ele>
        <time>2016-04-03T07:57:13.1Z</time>
      </trkpt>
      <trkpt lat="48.57993" lon="-3.15284">
        <ele>310</ele>
        <time>2016-04-03T07:57:16.1Z</time>
      </trkpt>
      <trkpt lat="48.57995" lon="-3.15286">
        <ele>310</ele>
        <time>2016-04-03T07:57:19.1Z</time>
      </trkpt>
      <trkpt lat="48.57997" lon="-3.15289">
        <ele>309</ele>
        <time>2016-04-03T07:57:22.1Z</time>
      </trkpt>
      <trkpt lat="48.57999" lon="-3.15291">
        <ele>309</ele>
        <time>2016-04-03T07:57:24.1Z</time>
      </trkpt>
      <trkpt lat="48.58001" lon="-3.15293">
        <ele>309</ele>
        <time>2016-04-03T07:57:27.1Z</time>
      </trkpt>
      <trkpt lat="48.58003" lon="-3.15295">
        <ele>309</ele>
        <time>2016-04-03T07:57:30.1Z</time>
      </trkpt>
      <trkpt lat="48.58005" lon="-3.15296">
        <ele>309</ele>
        <time>2016-04-03T07:57:32.1Z</time>
      </trkpt>
      <trkpt lat="48.58008" lon="-3.15298">
        <ele>308</ele>
        <time>2016-04-03T07:57:35.1Z</time>
      </trkpt>
      <trkpt lat="48.58011" lon="-3.153">
        <ele>309</ele>
        <time>2016-04-03T07:57:38.1Z</time>
      </trkpt>
      <trkpt lat="48.58014" lon="-3.15301">
        <ele>308</ele>
        <time>2016-04-03T07:57:40.1Z</time>
      </trkpt>
      <trkpt lat="48.58015" lon="-3.15303">
        <ele>308</ele>
        <time>2016-04-03T07:57:42.1Z</time>
      </trkpt>
      <trkpt lat="48.58019" lon="-3.15305">
        <ele>308</ele>
        <time>2016-04-03T07:57:45.1Z</time>
      </trkpt>
      <trkpt lat="48.5802" lon="-3.15306">
        <ele>308</ele>
        <time>2016-04-03T07:57:47.1Z</time>
      </trkpt>
      <trkpt lat="48.58022" lon="-3.15307">
        <ele>308</ele>
        <time>2016-04-03T07:57:49.1Z</time>
      </trkpt>
      <trkpt lat="48.58025" lon="-3.1531">
        <ele>308</ele>
        <time>2016-04-03T07:57:52.1Z</time>
      </trkpt>
      <trkpt lat="48.58028" lon="-3.15311">
        <ele>308</ele>
        <time>2016-04-03T07:57:55.1Z</time>
      </trkpt>
      <trkpt lat="48.58032" lon="-3.15313">
        <ele>307</ele>
        <time>2016-04-03T07:57:58.1Z</time>
      </trkpt>
      <trkpt lat="48.58033" lon="-3.15313">
        <ele>307</ele>
        <time>2016-04-03T07:58:00.1Z</time>
      </trkpt>
      <trkpt lat="48.58035" lon="-3.15315">
        <ele>307</ele>
        <time>2016-04-03T07:58:03.1Z</time>
      </trkpt>
      <trkpt lat="48.58037" lon="-3.15315">
        <ele>307</ele>
        <time>2016-04-03T07:58:05.1Z</time>
      </trkpt>
      <trkpt lat="48.58038" lon="-3.15317">
        <ele>307</ele>
        <time>2016-04-03T07:58:07.1Z</time>
      </trkpt>
      <trkpt lat="48.58037" lon="-3.1532">
        <ele>307</ele>
        <time>2016-04-03T07:58:09.1Z</time>
      </trkpt>
      <trkpt lat="48.58036" lon="-3.15323">
        <ele>307</ele>
        <time>2016-04-03T07:58:12.1Z</time>
      </trkpt>
      <trkpt lat="48.58036" lon="-3.15325">
        <ele>307</ele>
        <time>2016-04-03T07:58:15.1Z</time>
      </trkpt>
      <trkpt lat="48.58035" lon="-3.15328">
        <ele>307</ele>
        <time>2016-04-03T07:58:18.1Z</time>
      </trkpt>
      <trkpt lat="48.58035" lon="-3.15331">
        <ele>307</ele>
        <time>2016-04-03T07:58:20.1Z</time>
      </trkpt>
      <trkpt lat="48.58034" lon="-3.15332">
        <ele>307</ele>
        <time>2016-04-03T07:58:22.1Z</time>
      </trkpt>
      <trkpt lat="48.58033" lon="-3.15334">
        <ele>307</ele>
        <time>2016-04-03T07:58:25.1Z</time>
      </trkpt>
      <trkpt lat="48.58033" lon="-3.15336">
        <ele>307</ele>
        <time>2016-04-03T07:58:28.1Z</time>
      </trkpt>
      <trkpt lat="48.58032" lon="-3.15339">
        <ele>306</ele>
        <time>2016-04-03T07:58:31.1Z</time>
      </trkpt>
      <trkpt lat="48.5803" lon="-3.15343">
        <ele>307</ele>
        <time>2016-04-03T07:58:34.1Z</time>
      </trkpt>
      <trkpt lat="48.58028" lon="-3.15345">
        <ele>307</ele>
        <time>2016-04-03T07:58:37.1Z</time>
      </trkpt>
      <trkpt lat="48.58028" lon="-3.15347">
        <ele>308</ele>
        <time>2016-04-03T07:58:39.1Z</time>
      </trkpt>
      <trkpt lat="48.58026" lon="-3.15351">
        <ele>308</ele>
        <time>2016-04-03T07:58:42.1Z</time>
      </trkpt>
      <trkpt lat="48.58025" lon="-3.15353">
        <ele>307</ele>
        <time>2016-04-03T07:58:44.1Z</time>
      </trkpt>
      <trkpt lat="48.58024" lon="-3.15356">
        <ele>308</ele>
        <time>2016-04-03T07:58:47.1Z</time>
      </trkpt>
      <trkpt lat="48.58022" lon="-3.15358">
        <ele>307</ele>
        <time>2016-04-03T07:58:49.1Z</time>
      </trkpt>
      <trkpt lat="48.5802" lon="-3.15363">
        <ele>307</ele>
        <time>2016-04-03T07:58:52.1Z</time>
      </trkpt>
      <trkpt lat="48.58019" lon="-3.15365">
        <ele>308</ele>
        <time>2016-04-03T07:58:55.1Z</time>
      </trkpt>
      <trkpt lat="48.58017" lon="-3.1537">
        <ele>308</ele>
        <time>2016-04-03T07:58:58.1Z</time>
      </trkpt>
      <trkpt lat="48.58017" lon="-3.15371">
        <ele>308</ele>
        <time>2016-04-03T07:59:00.1Z</time>
      </trkpt>
      <trkpt lat="48.58016" lon="-3.15374">
        <ele>309</ele>
        <time>2016-04-03T07:59:02.1Z</time>
      </trkpt>
      <trkpt lat="48.58015" lon="-3.15376">
        <ele>309</ele>
        <time>2016-04-03T07:59:05.1Z</time>
      </trkpt>
      <trkpt lat="48.58013" lon="-3.15378">
        <ele>309</ele>
        <time>2016-04-03T07:59:07.1Z</time>
      </trkpt>
      <trkpt lat="48.58012" lon="-3.15382">
        <ele>309</ele>
        <time>2016-04-03T07:59:09.1Z</time>
      </trkpt>
      <trkpt lat="48.58012" lon="-3.15385">
        <ele>309</ele>
        <time>2016-04-03T07:59:11.1Z</time>
      </trkpt>
      <trkpt lat="48.58012" lon="-3.15389">
        <ele>309</ele>
        <time>2016-04-03T07:59:14.1Z</time>
      </trkpt>
      <trkpt lat="48.58012" lon="-3.15392">
        <ele>308</ele>
        <time>2016-04-03T07:59:16.1Z</time>
      </trkpt>
      <trkpt lat="48.58011" lon="-3.15395">
        <ele>308</ele>
        <time>2016-04-03T07:59:19.1Z</time>
      </trkpt>
      <trkpt lat="48.58011" lon="-3.15397">
        <ele>308</ele>
        <time>2016-04-03T07:59:21.1Z</time>
      </trkpt>
      <trkpt lat="48.58011" lon="-3.15398">
        <ele>308</ele>
        <time>2016-04-03T07:59:24.1Z</time>
      </trkpt>
      <trkpt lat="48.58011" lon="-3.15399">
        <ele>308</ele>
        <time>2016-04-03T07:59:26.1Z</time>
      </trkpt>
      <trkpt lat="48.58011" lon="-3.154">
        <ele>308</ele>
        <time>2016-04-03T07:59:29.1Z</time>
      </trkpt>
      <trkpt lat="48.5801" lon="-3.15401">
        <ele>308</ele>
        <time>2016-04-03T07:59:31.1Z</time>
      </trkpt>
      <trkpt lat="48.58009" lon="-3.15403">
        <ele>308</ele>
        <time>2016-04-03T07:59:34.1Z</time>
      </trkpt>
      <trkpt lat="48.58008" lon="-3.15404">
        <ele>308</ele>
        <time>2016-04-03T07:59:37.1Z</time>
      </trkpt>
      <trkpt lat="48.58007" lon="-3.15406">
        <ele>308</ele>
        <time>2016-04-03T07:59:40.1Z</time>
      </trkpt>
      <trkpt lat="48.58006" lon="-3.15407">
        <ele>308</ele>
        <time>2016-04-03T07:59:42.1Z</time>
      </trkpt>
      <trkpt lat="48.58004" lon="-3.15408">
        <ele>308</ele>
        <time>2016-04-03T07:59:44.1Z</time>
      </trkpt>
      <trkpt lat="48.58002" lon="-3.15409">
        <ele>308</ele>
        <time>2016-04-03T07:59:46.1Z</time>
      </trkpt>
      <trkpt lat="48.57999" lon="-3.15411">
        <ele>308</ele>
        <time>2016-04-03T07:59:49.1Z</time>
      </trkpt>
      <trkpt lat="48.57996" lon="-3.15412">
        <ele>308</ele>
        <time>2016-04-03T07:59:52.1Z</time>
      </trkpt>
      <trkpt lat="48.57993" lon="-3.15413">
        <ele>308</ele>
        <time>2016-04-03T07:59:55.1Z</time>
      </trkpt>
      <trkpt lat="48.5799" lon="-3.15413">
        <ele>308</ele>
        <time>2016-04-03T07:59:58.1Z</time>
      </trkpt>
      <trkpt lat="48.57988" lon="-3.15414">
        <ele>308</ele>
        <time>2016-04-03T08:00:00.1Z</time>
      </trkpt>
      <trkpt lat="48.57985" lon="-3.15415">
        <ele>308</ele>
        <time>2016-04-03T08:00:03.1Z</time>
      </trkpt>
      <trkpt lat="48.57983" lon="-3.15416">
        <ele>308</ele>
        <time>2016-04-03T08:00:05.1Z</time>
      </trkpt>
      <trkpt lat="48.5798" lon="-3.15417">
        <ele>308</ele>
        <time>2016-04-03T08:00:08.1Z</time>
      </trkpt>
      <trkpt lat="48.57978" lon="-3.15418">
        <ele>308</ele>
        <time>2016-04-03T08:00:10.1Z</time>
      </trkpt>
      <trkpt lat="48.57975" lon="-3.1542">
        <ele>308</ele>
        <time>2016-04-03T08:00:13.1Z</time>
      </trkpt>
      <trkpt lat="48.57973" lon="-3.1542">
        <ele>307</ele>
        <time>2016-04-03T08:00:15.1Z</time>
      </trkpt>
      <trkpt lat="48.5797" lon="-3.15421">
        <ele>307</ele>
        <time>2016-04-03T08:00:18.1Z</time>
      </trkpt>
      <trkpt lat="48.57966" lon="-3.15422">
        <ele>307</ele>
        <time>2016-04-03T08:00:21.1Z</time>
      </trkpt>
      <trkpt lat="48.57963" lon="-3.15423">
        <ele>307</ele>
        <time>2016-04-03T08:00:24.1Z</time>
      </trkpt>
      <trkpt lat="48.57962" lon="-3.15424">
        <ele>307</ele>
        <time>2016-04-03T08:00:26.1Z</time>
      </trkpt>
      <trkpt lat="48.57958" lon="-3.15425">
        <ele>307</ele>
        <time>2016-04-03T08:00:29.1Z</time>
      </trkpt>
      <trkpt lat="48.57956" lon="-3.15426">
        <ele>307</ele>
        <time>2016-04-03T08:00:32.1Z</time>
      </trkpt>
      <trkpt lat="48.57954" lon="-3.15427">
        <ele>307</ele>
        <time>2016-04-03T08:00:34.1Z</time>
      </trkpt>
      <trkpt lat="48.57951" lon="-3.15428">
        <ele>308</ele>
        <time>2016-04-03T08:00:37.1Z</time>
      </trkpt>
      <trkpt lat="48.57949" lon="-3.15429">
        <ele>308</ele>
        <time>2016-04-03T08:00:39.1Z</time>
      </trkpt>
      <trkpt lat="48.57947" lon="-3.1543">
        <ele>307</ele>
        <time>2016-04-03T08:00:41.1Z</time>
      </trkpt>
      <trkpt lat="48.57944" lon="-3.15431">
        <ele>307</ele>
        <time>2016-04-03T08:00:44.1Z</time>
      </trkpt>
      <trkpt lat="48.57941" lon="-3.15432">
        <ele>308</ele>
        <time>2016-04-03T08:00:47.1Z</time>
      </trkpt>
      <trkpt lat="48.57939" lon="-3.15433">
        <ele>308</ele>
        <time>2016-04-03T08:00:49.1Z</time>
      </trkpt>
      <trkpt lat="48.57936" lon="-3.15434">
        <ele>308</ele>
        <time>2016-04-03T08:00:52.1Z</time>
      </trkpt>
      <trkpt lat="48.57934" lon="-3.15435">
        <ele>308</ele>
        <time>2016-04-03T08:00:54.1Z</time>
      </trkpt>
      <trkpt lat="48.5793" lon="-3.15437">
        <ele>307</ele>
        <time>2016-04-03T08:00:57.1Z</time>
      </trkpt>
      <trkpt lat="48.57928" lon="-3.15438">
        <ele>308</ele>
        <time>2016-04-03T08:00:59.1Z</time>
      </trkpt>
      <trkpt lat="48.57925" lon="-3.15439">
        <ele>307</ele>
        <time>2016-04-03T08:01:02.1Z</time>
      </trkpt>
      <trkpt lat="48.57923" lon="-3.1544">
        <ele>307</ele>
        <time>2016-04-03T08:01:04.1Z</time>
      </trkpt>
      <trkpt lat="48.57921" lon="-3.15441">
        <ele>308</ele>
        <time>2016-04-03T08:01:06.1Z</time>
      </trkpt>
      <trkpt lat="48.57919" lon="-3.15441">
        <ele>307</ele>
        <time>2016-04-03T08:01:08.1Z</time>
      </trkpt>
      <trkpt lat="48.57916" lon="-3.15442">
        <ele>307</ele>
        <time>2016-04-03T08:01:11.1Z</time>
      </trkpt>
      <trkpt lat="48.57913" lon="-3.15443">
        <ele>307</ele>
        <time>2016-04-03T08:01:14.1Z</time>
      </trkpt>
      <trkpt lat="48.57911" lon="-3.15444">
        <ele>307</ele>
        <time>2016-04-03T08:01:16.1Z</time>
      </trkpt>
      <trkpt lat="48.57908" lon="-3.15444">
        <ele>307</ele>
        <time>2016-04-03T08:01:18.1Z</time>
      </trkpt>
      <trkpt lat="48.57905" lon="-3.15444">
        <ele>308</ele>
        <time>2016-04-03T08:01:21.1Z</time>
      </trkpt>
      <trkpt lat="48.57903" lon="-3.15445">
        <ele>308</ele>
        <time>2016-04-03T08:01:23.1Z</time>
      </trkpt>
      <trkpt lat="48.579" lon="-3.15445">
        <ele>308</ele>
        <time>2016-04-03T08:01:26.1Z</time>
      </trkpt>
      <trkpt lat="48.57898" lon="-3.15445">
        <ele>308</ele>
        <time>2016-04-03T08:01:28.1Z</time>
      </trkpt>
      <trkpt lat="48.57894" lon="-3.15445">
        <ele>308</ele>
        <time>2016-04-03T08:01:31.1Z</time>
      </trkpt>
      <trkpt lat="48.57891" lon="-3.15445">
        <ele>309</ele>
        <time>2016-04-03T08:01:34.1Z</time>
      </trkpt>
      <trkpt lat="48.57889" lon="-3.15445">
        <ele>308</ele>
        <time>2016-04-03T08:01:36.1Z</time>
      </trkpt>
      <trkpt lat="48.57885" lon="-3.15445">
        <ele>308</ele>
        <time>2016-04-03T08:01:39.1Z</time>
      </trkpt>
      <trkpt lat="48.57882" lon="-3.15446">
        <ele>308</ele>
        <time>2016-04-03T08:01:42.1Z</time>
      </trkpt>
      <trkpt lat="48.5788" lon="-3.15446">
        <ele>308</ele>
        <time>2016-04-03T08:01:44.1Z</time>
      </trkpt>
      <trkpt lat="48.57877" lon="-3.15446">
        <ele>308</ele>
        <time>2016-04-03T08:01:47.1Z</time>
      </trkpt>
      <trkpt lat="48.57875" lon="-3.15446">
        <ele>308</ele>
        <time>2016-04-03T08:01:49.1Z</time>
      </trkpt>
      <trkpt lat="48.57873" lon="-3.15446">
        <ele>309</ele>
        <time>2016-04-03T08:01:52.1Z</time>
      </trkpt>
      <trkpt lat="48.57871" lon="-3.15446">
        <ele>309</ele>
        <time>2016-04-03T08:01:54.1Z</time>
      </trkpt>
      <trkpt lat="48.57868" lon="-3.15445">
        <ele>309</ele>
        <time>2016-04-03T08:01:57.1Z</time>
      </trkpt>
      <trkpt lat="48.57867" lon="-3.15445">
        <ele>309</ele>
        <time>2016-04-03T08:01:59.1Z</time>
      </trkpt>
      <trkpt lat="48.57863" lon="-3.15445">
        <ele>309</ele>
        <time>2016-04-03T08:02:02.1Z</time>
      </trkpt>
      <trkpt lat="48.57859" lon="-3.15444">
        <ele>308</ele>
        <time>2016-04-03T08:02:05.1Z</time>
      </trkpt>
      <trkpt lat="48.57856" lon="-3.15444">
        <ele>309</ele>
        <time>2016-04-03T08:02:08.1Z</time>
      </trkpt>
      <trkpt lat="48.57854" lon="-3.15444">
        <ele>309</ele>
        <time>2016-04-03T08:02:10.1Z</time>
      </trkpt>
      <trkpt lat="48.57851" lon="-3.15443">
        <ele>309</ele>
        <time>2016-04-03T08:02:13.1Z</time>
      </trkpt>
      <trkpt lat="48.57848" lon="-3.15443">
        <ele>309</ele>
        <time>2016-04-03T08:02:16.1Z</time>
      </trkpt>
      <trkpt lat="48.57845" lon="-3.15442">
        <ele>309</ele>
        <time>2016-04-03T08:02:18.1Z</time>
      </trkpt>
      <trkpt lat="48.5784" lon="-3.15435">
        <ele>309</ele>
        <time>2016-04-03T08:02:21.1Z</time>
      </trkpt>
      <trkpt lat="48.57835" lon="-3.1543">
        <ele>310</ele>
        <time>2016-04-03T08:02:24.1Z</time>
      </trkpt>
      <trkpt lat="48.57827" lon="-3.15429">
        <ele>310</ele>
        <time>2016-04-03T08:02:27.1Z</time>
      </trkpt>
      <trkpt lat="48.57822" lon="-3.1543">
        <ele>311</ele>
        <time>2016-04-03T08:02:30.1Z</time>
      </trkpt>
      <trkpt lat="48.5782" lon="-3.15429">
        <ele>311</ele>
        <time>2016-04-03T08:02:32.1Z</time>
      </trkpt>
      <trkpt lat="48.57819" lon="-3.15429">
        <ele>311</ele>
        <time>2016-04-03T08:02:35.1Z</time>
      </trkpt>
      <trkpt lat="48.57819" lon="-3.15429">
        <ele>311</ele>
        <time>2016-04-03T08:02:38.1Z</time>
      </trkpt>
      <trkpt lat="48.57818" lon="-3.1543">
        <ele>311</ele>
        <time>2016-04-03T08:02:40.1Z</time>
      </trkpt>
      <trkpt lat="48.57817" lon="-3.15435">
        <ele>311</ele>
        <time>2016-04-03T08:02:43.1Z</time>
      </trkpt>
      <trkpt lat="48.57815" lon="-3.15438">
        <ele>310</ele>
        <time>2016-04-03T08:02:46.1Z</time>
      </trkpt>
      <trkpt lat="48.57813" lon="-3.15441">
        <ele>310</ele>
        <time>2016-04-03T08:02:48.1Z</time>
      </trkpt>
      <trkpt lat="48.5781" lon="-3.15443">
        <ele>310</ele>
        <time>2016-04-03T08:02:51.1Z</time>
      </trkpt>
      <trkpt lat="48.57808" lon="-3.15444">
        <ele>310</ele>
        <time>2016-04-03T08:02:54.1Z</time>
      </trkpt>
      <trkpt lat="48.57806" lon="-3.15445">
        <ele>310</ele>
        <time>2016-04-03T08:02:56.1Z</time>
      </trkpt>
      <trkpt lat="48.57804" lon="-3.15445">
        <ele>310</ele>
        <time>2016-04-03T08:02:58.1Z</time>
      </trkpt>
      <trkpt lat="48.57802" lon="-3.15446">
        <ele>310</ele>
        <time>2016-04-03T08:03:01.1Z</time>
      </trkpt>
      <trkpt lat="48.57798" lon="-3.15447">
        <ele>310</ele>
        <time>2016-04-03T08:03:04.1Z</time>
      </trkpt>
      <trkpt lat="48.57796" lon="-3.15451">
        <ele>310</ele>
        <time>2016-04-03T08:03:07.1Z</time>
      </trkpt>
      <trkpt lat="48.57794" lon="-3.15454">
        <ele>310</ele>
        <time>2016-04-03T08:03:10.1Z</time>
      </trkpt>
      <trkpt lat="48.57794" lon="-3.15455">
        <ele>310</ele>
        <time>2016-04-03T08:03:13.1Z</time>
      </trkpt>
      <trkpt lat="48.57794" lon="-3.15455">
        <ele>310</ele>
        <time>2016-04-03T08:03:20.1Z</time>
      </trkpt>
      <trkpt lat="48.57793" lon="-3.15453">
        <ele>310</ele>
        <time>2016-04-03T08:03:23.1Z</time>
      </trkpt>
      <trkpt lat="48.57791" lon="-3.15452">
        <ele>310</ele>
        <time>2016-04-03T08:03:26.1Z</time>
      </trkpt>
      <trkpt lat="48.57789" lon="-3.15451">
        <ele>311</ele>
        <time>2016-04-03T08:03:28.1Z</time>
      </trkpt>
      <trkpt lat="48.57786" lon="-3.1545">
        <ele>311</ele>
        <time>2016-04-03T08:03:31.1Z</time>
      </trkpt>
      <trkpt lat="48.57783" lon="-3.1545">
        <ele>311</ele>
        <time>2016-04-03T08:03:33.1Z</time>
      </trkpt>
      <trkpt lat="48.5778" lon="-3.15448">
        <ele>311</ele>
        <time>2016-04-03T08:03:36.1Z</time>
      </trkpt>
      <trkpt lat="48.57778" lon="-3.15448">
        <ele>310</ele>
        <time>2016-04-03T08:03:38.1Z</time>
      </trkpt>
      <trkpt lat="48.57775" lon="-3.15447">
        <ele>310</ele>
        <time>2016-04-03T08:03:40.1Z</time>
      </trkpt>
      <trkpt lat="48.57773" lon="-3.15447">
        <ele>310</ele>
        <time>2016-04-03T08:03:43.1Z</time>
      </trkpt>
      <trkpt lat="48.57772" lon="-3.15447">
        <ele>310</ele>
        <time>2016-04-03T08:03:46.1Z</time>
      </trkpt>
      <trkpt lat="48.57771" lon="-3.15446">
        <ele>311</ele>
        <time>2016-04-03T08:03:48.1Z</time>
      </trkpt>
      <trkpt lat="48.5777" lon="-3.15445">
        <ele>311</ele>
        <time>2016-04-03T08:03:51.1Z</time>
      </trkpt>
      <trkpt lat="48.57769" lon="-3.15446">
        <ele>311</ele>
        <time>2016-04-03T08:03:53.1Z</time>
      </trkpt>
      <trkpt lat="48.57768" lon="-3.15446">
        <ele>311</ele>
        <time>2016-04-03T08:03:55.1Z</time>
      </trkpt>
      <trkpt lat="48.57767" lon="-3.15445">
        <ele>311</ele>
        <time>2016-04-03T08:03:58.1Z</time>
      </trkpt>
      <trkpt lat="48.57767" lon="-3.15445">
        <ele>311</ele>
        <time>2016-04-03T08:04:00.1Z</time>
      </trkpt>
      <trkpt lat="48.57767" lon="-3.15445">
        <ele>311</ele>
        <time>2016-04-03T08:04:03.1Z</time>
      </trkpt>
      <trkpt lat="48.57767" lon="-3.15444">
        <ele>311</ele>
        <time>2016-04-03T08:04:05.1Z</time>
      </trkpt>
      <trkpt lat="48.57767" lon="-3.15444">
        <ele>311</ele>
        <time>2016-04-03T08:04:08.1Z</time>
      </trkpt>
      <trkpt lat="48.57766" lon="-3.15444">
        <ele>311</ele>
        <time>2016-04-03T08:04:10.1Z</time>
      </trkpt>
      <trkpt lat="48.57766" lon="-3.15445">
        <ele>311</ele>
        <time>2016-04-03T08:04:13.1Z</time>
      </trkpt>
      <trkpt lat="48.57766" lon="-3.15445">
        <ele>311</ele>
        <time>2016-04-03T08:04:15.1Z</time>
      </trkpt>
      <trkpt lat="48.57766" lon="-3.15445">
        <ele>311</ele>
        <time>2016-04-03T08:04:20.1Z</time>
      </trkpt>
      <trkpt lat="48.57766" lon="-3.15445">
        <ele>311</ele>
        <time>2016-04-03T08:04:23.1Z</time>
      </trkpt>
      <trkpt lat="48.57766" lon="-3.15445">
        <ele>311</ele>
        <time>2016-04-03T08:04:26.1Z</time>
      </trkpt>
      <trkpt lat="48.57765" lon="-3.15445">
        <ele>311</ele>
        <time>2016-04-03T08:04:29.1Z</time>
      </trkpt>
      <trkpt lat="48.57765" lon="-3.15446">
        <ele>311</ele>
        <time>2016-04-03T08:04:31.1Z</time>
      </trkpt>
      <trkpt lat="48.57764" lon="-3.15444">
        <ele>311</ele>
        <time>2016-04-03T08:04:34.1Z</time>
      </trkpt>
      <trkpt lat="48.57763" lon="-3.15445">
        <ele>311</ele>
        <time>2016-04-03T08:04:37.1Z</time>
      </trkpt>
      <trkpt lat="48.57761" lon="-3.15444">
        <ele>311</ele>
        <time>2016-04-03T08:04:40.1Z</time>
      </trkpt>
      <trkpt lat="48.5776" lon="-3.15443">
        <ele>311</ele>
        <time>2016-04-03T08:04:44.1Z</time>
      </trkpt>
      <trkpt lat="48.57759" lon="-3.15442">
        <ele>311</ele>
        <time>2016-04-03T08:04:47.1Z</time>
      </trkpt>
      <trkpt lat="48.57759" lon="-3.15442">
        <ele>311</ele>
        <time>2016-04-03T08:04:49.1Z</time>
      </trkpt>
      <trkpt lat="48.57759" lon="-3.15441">
        <ele>311</ele>
        <time>2016-04-03T08:04:51.1Z</time>
      </trkpt>
      <trkpt lat="48.5776" lon="-3.15442">
        <ele>311</ele>
        <time>2016-04-03T08:04:54.1Z</time>
      </trkpt>
      <trkpt lat="48.5776" lon="-3.15442">
        <ele>311</ele>
        <time>2016-04-03T08:04:57.1Z</time>
      </trkpt>
      <trkpt lat="48.5776" lon="-3.15442">
        <ele>311</ele>
        <time>2016-04-03T08:05:00.1Z</time>
      </trkpt>
      <trkpt lat="48.5776" lon="-3.15442">
        <ele>311</ele>
        <time>2016-04-03T08:05:02.1Z</time>
      </trkpt>
      <trkpt lat="48.5776" lon="-3.15443">
        <ele>310</ele>
        <time>2016-04-03T08:05:05.1Z</time>
      </trkpt>
      <trkpt lat="48.57759" lon="-3.15442">
        <ele>311</ele>
        <time>2016-04-03T08:05:08.1Z</time>
      </trkpt>
      <trkpt lat="48.5776" lon="-3.15443">
        <ele>311</ele>
        <time>2016-04-03T08:05:11.1Z</time>
      </trkpt>
      <trkpt lat="48.5776" lon="-3.15443">
        <ele>311</ele>
        <time>2016-04-03T08:05:18.1Z</time>
      </trkpt>
      <trkpt lat="48.57759" lon="-3.15443">
        <ele>311</ele>
        <time>2016-04-03T08:05:21.1Z</time>
      </trkpt>
      <trkpt lat="48.5776" lon="-3.15443">
        <ele>311</ele>
        <time>2016-04-03T08:05:23.1Z</time>
      </trkpt>
      <trkpt lat="48.5776" lon="-3.15443">
        <ele>312</ele>
        <time>2016-04-03T08:05:26.1Z</time>
      </trkpt>
      <trkpt lat="48.5776" lon="-3.15444">
        <ele>312</ele>
        <time>2016-04-03T08:05:29.1Z</time>
      </trkpt>
      <trkpt lat="48.5776" lon="-3.15444">
        <ele>312</ele>
        <time>2016-04-03T08:05:32.1Z</time>
      </trkpt>
      <trkpt lat="48.5776" lon="-3.15444">
        <ele>311</ele>
        <time>2016-04-03T08:05:37.1Z</time>
      </trkpt>
      <trkpt lat="48.5776" lon="-3.15443">
        <ele>311</ele>
        <time>2016-04-03T08:05:40.1Z</time>
      </trkpt>
      <trkpt lat="48.5776" lon="-3.15443">
        <ele>311</ele>
        <time>2016-04-03T08:05:43.1Z</time>
      </trkpt>
      <trkpt lat="48.5776" lon="-3.15443">
        <ele>311</ele>
        <time>2016-04-03T08:05:45.1Z</time>
      </trkpt>
      <trkpt lat="48.5776" lon="-3.15443">
        <ele>311</ele>
        <time>2016-04-03T08:05:48.1Z</time>
      </trkpt>
      <trkpt lat="48.57759" lon="-3.15443">
        <ele>311</ele>
        <time>2016-04-03T08:05:51.1Z</time>
      </trkpt>
      <trkpt lat="48.57759" lon="-3.15443">
        <ele>311</ele>
        <time>2016-04-03T08:05:54.1Z</time>
      </trkpt>
      <trkpt lat="48.57759" lon="-3.15443">
        <ele>312</ele>
        <time>2016-04-03T08:05:57.1Z</time>
      </trkpt>
      <trkpt lat="48.57759" lon="-3.15443">
        <ele>311</ele>
        <time>2016-04-03T08:06:01.1Z</time>
      </trkpt>
      <trkpt lat="48.57759" lon="-3.15444">
        <ele>311</ele>
        <time>2016-04-03T08:06:03.1Z</time>
      </trkpt>
      <trkpt lat="48.57759" lon="-3.15444">
        <ele>311</ele>
        <time>2016-04-03T08:06:06.1Z</time>
      </trkpt>
      <trkpt lat="48.57759" lon="-3.15444">
        <ele>311</ele>
        <time>2016-04-03T08:06:09.1Z</time>
      </trkpt>
      <trkpt lat="48.57759" lon="-3.15444">
        <ele>311</ele>
        <time>2016-04-03T08:06:14.1Z</time>
      </trkpt>
      <trkpt lat="48.57759" lon="-3.15444">
        <ele>311</ele>
        <time>2016-04-03T08:06:17.1Z</time>
      </trkpt>
      <trkpt lat="48.57759" lon="-3.15444">
        <ele>311</ele>
        <time>2016-04-03T08:06:20.1Z</time>
      </trkpt>
      <trkpt lat="48.57759" lon="-3.15444">
        <ele>311</ele>
        <time>2016-04-03T08:06:23.1Z</time>
      </trkpt>
      <trkpt lat="48.57759" lon="-3.15444">
        <ele>311</ele>
        <time>2016-04-03T08:06:26.1Z</time>
      </trkpt>
      <trkpt lat="48.57759" lon="-3.15444">
        <ele>311</ele>
        <time>2016-04-03T08:06:29.1Z</time>
      </trkpt>
      <trkpt lat="48.57758" lon="-3.15443">
        <ele>311</ele>
        <time>2016-04-03T08:06:32.1Z</time>
      </trkpt>
      <trkpt lat="48.57758" lon="-3.15443">
        <ele>311</ele>
        <time>2016-04-03T08:06:35.1Z</time>
      </trkpt>
      <trkpt lat="48.57758" lon="-3.15444">
        <ele>311</ele>
        <time>2016-04-03T08:06:39.1Z</time>
      </trkpt>
      <trkpt lat="48.57758" lon="-3.15444">
        <ele>311</ele>
        <time>2016-04-03T08:06:43.1Z</time>
      </trkpt>
      <trkpt lat="48.57757" lon="-3.15445">
        <ele>311</ele>
        <time>2016-04-03T08:06:45.1Z</time>
      </trkpt>
      <trkpt lat="48.57758" lon="-3.15448">
        <ele>311</ele>
        <time>2016-04-03T08:06:48.1Z</time>
      </trkpt>
      <trkpt lat="48.57759" lon="-3.1545">
        <ele>311</ele>
        <time>2016-04-03T08:06:51.1Z</time>
      </trkpt>
      <trkpt lat="48.5776" lon="-3.1545">
        <ele>311</ele>
        <time>2016-04-03T08:06:53.1Z</time>
      </trkpt>
      <trkpt lat="48.5776" lon="-3.1545">
        <ele>311</ele>
        <time>2016-04-03T08:06:56.1Z</time>
      </trkpt>
      <trkpt lat="48.57761" lon="-3.1545">
        <ele>311</ele>
        <time>2016-04-03T08:06:58.1Z</time>
      </trkpt>
      <trkpt lat="48.57761" lon="-3.15451">
        <ele>311</ele>
        <time>2016-04-03T08:07:01.1Z</time>
      </trkpt>
      <trkpt lat="48.57761" lon="-3.15451">
        <ele>311</ele>
        <time>2016-04-03T08:07:04.1Z</time>
      </trkpt>
      <trkpt lat="48.57761" lon="-3.15451">
        <ele>311</ele>
        <time>2016-04-03T08:07:09.1Z</time>
      </trkpt>
      <trkpt lat="48.57761" lon="-3.15451">
        <ele>311</ele>
        <time>2016-04-03T08:07:11.1Z</time>
      </trkpt>
      <trkpt lat="48.57762" lon="-3.15452">
        <ele>311</ele>
        <time>2016-04-03T08:07:14.1Z</time>
      </trkpt>
      <trkpt lat="48.57762" lon="-3.15452">
        <ele>311</ele>
        <time>2016-04-03T08:07:16.1Z</time>
      </trkpt>
      <trkpt lat="48.57762" lon="-3.15452">
        <ele>311</ele>
        <time>2016-04-03T08:07:18.1Z</time>
      </trkpt>
      <trkpt lat="48.57763" lon="-3.15452">
        <ele>311</ele>
        <time>2016-04-03T08:07:20.1Z</time>
      </trkpt>
      <trkpt lat="48.57762" lon="-3.15451">
        <ele>311</ele>
        <time>2016-04-03T08:07:23.1Z</time>
      </trkpt>
      <trkpt lat="48.57761" lon="-3.15449">
        <ele>311</ele>
        <time>2016-04-03T08:07:26.1Z</time>
      </trkpt>
      <trkpt lat="48.5776" lon="-3.15448">
        <ele>311</ele>
        <time>2016-04-03T08:07:28.1Z</time>
      </trkpt>
      <trkpt lat="48.57759" lon="-3.15447">
        <ele>311</ele>
        <time>2016-04-03T08:07:30.1Z</time>
      </trkpt>
      <trkpt lat="48.57758" lon="-3.15446">
        <ele>311</ele>
        <time>2016-04-03T08:07:33.1Z</time>
      </trkpt>
      <trkpt lat="48.57755" lon="-3.15445">
        <ele>311</ele>
        <time>2016-04-03T08:07:36.1Z</time>
      </trkpt>
      <trkpt lat="48.57753" lon="-3.15445">
        <ele>311</ele>
        <time>2016-04-03T08:07:39.1Z</time>
      </trkpt>
      <trkpt lat="48.57751" lon="-3.15444">
        <ele>311</ele>
        <time>2016-04-03T08:07:41.1Z</time>
      </trkpt>
      <trkpt lat="48.57749" lon="-3.15443">
        <ele>311</ele>
        <time>2016-04-03T08:07:44.1Z</time>
      </trkpt>
      <trkpt lat="48.57746" lon="-3.15441">
        <ele>312</ele>
        <time>2016-04-03T08:07:47.1Z</time>
      </trkpt>
      <trkpt lat="48.57744" lon="-3.15441">
        <ele>312</ele>
        <time>2016-04-03T08:07:49.1Z</time>
      </trkpt>
      <trkpt lat="48.57743" lon="-3.1544">
        <ele>312</ele>
        <time>2016-04-03T08:07:52.1Z</time>
      </trkpt>
      <trkpt lat="48.5774" lon="-3.15438">
        <ele>312</ele>
        <time>2016-04-03T08:07:55.1Z</time>
      </trkpt>
      <trkpt lat="48.57737" lon="-3.15437">
        <ele>311</ele>
        <time>2016-04-03T08:07:58.1Z</time>
      </trkpt>
      <trkpt lat="48.57734" lon="-3.15436">
        <ele>311</ele>
        <time>2016-04-03T08:08:01.1Z</time>
      </trkpt>
      <trkpt lat="48.57732" lon="-3.15434">
        <ele>311</ele>
        <time>2016-04-03T08:08:03.1Z</time>
      </trkpt>
      <trkpt lat="48.57729" lon="-3.15433">
        <ele>312</ele>
        <time>2016-04-03T08:08:06.1Z</time>
      </trkpt>
      <trkpt lat="48.57727" lon="-3.15431">
        <ele>312</ele>
        <time>2016-04-03T08:08:08.1Z</time>
      </trkpt>
      <trkpt lat="48.57724" lon="-3.15429">
        <ele>312</ele>
        <time>2016-04-03T08:08:11.1Z</time>
      </trkpt>
      <trkpt lat="48.57722" lon="-3.15428">
        <ele>312</ele>
        <time>2016-04-03T08:08:13.1Z</time>
      </trkpt>
      <trkpt lat="48.57719" lon="-3.15427">
        <ele>312</ele>
        <time>2016-04-03T08:08:16.1Z</time>
      </trkpt>
      <trkpt lat="48.57717" lon="-3.15426">
        <ele>311</ele>
        <time>2016-04-03T08:08:18.1Z</time>
      </trkpt>
      <trkpt lat="48.57714" lon="-3.15424">
        <ele>311</ele>
        <time>2016-04-03T08:08:21.1Z</time>
      </trkpt>
      <trkpt lat="48.57712" lon="-3.15423">
        <ele>312</ele>
        <time>2016-04-03T08:08:23.1Z</time>
      </trkpt>
      <trkpt lat="48.57709" lon="-3.15421">
        <ele>311</ele>
        <time>2016-04-03T08:08:26.1Z</time>
      </trkpt>
      <trkpt lat="48.57706" lon="-3.1542">
        <ele>312</ele>
        <time>2016-04-03T08:08:29.1Z</time>
      </trkpt>
      <trkpt lat="48.57704" lon="-3.15419">
        <ele>312</ele>
        <time>2016-04-03T08:08:31.1Z</time>
      </trkpt>
      <trkpt lat="48.57701" lon="-3.15418">
        <ele>312</ele>
        <time>2016-04-03T08:08:34.1Z</time>
      </trkpt>
      <trkpt lat="48.57698" lon="-3.15416">
        <ele>311</ele>
        <time>2016-04-03T08:08:36.1Z</time>
      </trkpt>
      <trkpt lat="48.57695" lon="-3.15414">
        <ele>311</ele>
        <time>2016-04-03T08:08:39.1Z</time>
      </trkpt>
      <trkpt lat="48.57691" lon="-3.15412">
        <ele>311</ele>
        <time>2016-04-03T08:08:42.1Z</time>
      </trkpt>
      <trkpt lat="48.57689" lon="-3.1541">
        <ele>311</ele>
        <time>2016-04-03T08:08:44.1Z</time>
      </trkpt>
      <trkpt lat="48.57686" lon="-3.15409">
        <ele>312</ele>
        <time>2016-04-03T08:08:47.1Z</time>
      </trkpt>
      <trkpt lat="48.57683" lon="-3.15407">
        <ele>312</ele>
        <time>2016-04-03T08:08:50.1Z</time>
      </trkpt>
      <trkpt lat="48.5768" lon="-3.15406">
        <ele>312</ele>
        <time>2016-04-03T08:08:53.1Z</time>
      </trkpt>
      <trkpt lat="48.57678" lon="-3.15405">
        <ele>312</ele>
        <time>2016-04-03T08:08:55.1Z</time>
      </trkpt>
      <trkpt lat="48.57676" lon="-3.15403">
        <ele>312</ele>
        <time>2016-04-03T08:08:57.1Z</time>
      </trkpt>
      <trkpt lat="48.57673" lon="-3.15401">
        <ele>312</ele>
        <time>2016-04-03T08:09:00.1Z</time>
      </trkpt>
      <trkpt lat="48.57669" lon="-3.15398">
        <ele>312</ele>
        <time>2016-04-03T08:09:03.1Z</time>
      </trkpt>
      <trkpt lat="48.57665" lon="-3.15395">
        <ele>312</ele>
        <time>2016-04-03T08:09:06.1Z</time>
      </trkpt>
      <trkpt lat="48.57661" lon="-3.15393">
        <ele>311</ele>
        <time>2016-04-03T08:09:09.1Z</time>
      </trkpt>
      <trkpt lat="48.57659" lon="-3.15391">
        <ele>311</ele>
        <time>2016-04-03T08:09:11.1Z</time>
      </trkpt>
      <trkpt lat="48.57655" lon="-3.1539">
        <ele>311</ele>
        <time>2016-04-03T08:09:14.1Z</time>
      </trkpt>
      <trkpt lat="48.57652" lon="-3.15388">
        <ele>312</ele>
        <time>2016-04-03T08:09:17.1Z</time>
      </trkpt>
      <trkpt lat="48.5765" lon="-3.15387">
        <ele>312</ele>
        <time>2016-04-03T08:09:19.1Z</time>
      </trkpt>
      <trkpt lat="48.57646" lon="-3.15386">
        <ele>312</ele>
        <time>2016-04-03T08:09:22.1Z</time>
      </trkpt>
      <trkpt lat="48.57643" lon="-3.15384">
        <ele>312</ele>
        <time>2016-04-03T08:09:24.1Z</time>
      </trkpt>
      <trkpt lat="48.57639" lon="-3.15382">
        <ele>312</ele>
        <time>2016-04-03T08:09:27.1Z</time>
      </trkpt>
      <trkpt lat="48.57637" lon="-3.15381">
        <ele>312</ele>
        <time>2016-04-03T08:09:29.1Z</time>
      </trkpt>
      <trkpt lat="48.57634" lon="-3.15379">
        <ele>312</ele>
        <time>2016-04-03T08:09:32.1Z</time>
      </trkpt>
      <trkpt lat="48.57631" lon="-3.15378">
        <ele>312</ele>
        <time>2016-04-03T08:09:34.1Z</time>
      </trkpt>
      <trkpt lat="48.57628" lon="-3.15377">
        <ele>312</ele>
        <time>2016-04-03T08:09:37.1Z</time>
      </trkpt>
      <trkpt lat="48.57625" lon="-3.15375">
        <ele>313</ele>
        <time>2016-04-03T08:09:39.1Z</time>
      </trkpt>
      <trkpt lat="48.57622" lon="-3.15374">
        <ele>312</ele>
        <time>2016-04-03T08:09:42.1Z</time>
      </trkpt>
      <trkpt lat="48.5762" lon="-3.15373">
        <ele>312</ele>
        <time>2016-04-03T08:09:44.1Z</time>
      </trkpt>
      <trkpt lat="48.57616" lon="-3.15372">
        <ele>312</ele>
        <time>2016-04-03T08:09:47.1Z</time>
      </trkpt>
      <trkpt lat="48.57614" lon="-3.15371">
        <ele>312</ele>
        <time>2016-04-03T08:09:49.1Z</time>
      </trkpt>
      <trkpt lat="48.57612" lon="-3.1537">
        <ele>312</ele>
        <time>2016-04-03T08:09:51.1Z</time>
      </trkpt>
      <trkpt lat="48.57608" lon="-3.15369">
        <ele>312</ele>
        <time>2016-04-03T08:09:54.1Z</time>
      </trkpt>
      <trkpt lat="48.57605" lon="-3.15367">
        <ele>312</ele>
        <time>2016-04-03T08:09:57.1Z</time>
      </trkpt>
      <trkpt lat="48.57603" lon="-3.15367">
        <ele>312</ele>
        <time>2016-04-03T08:09:59.1Z</time>
      </trkpt>
      <trkpt lat="48.57601" lon="-3.15365">
        <ele>312</ele>
        <time>2016-04-03T08:10:01.1Z</time>
      </trkpt>
      <trkpt lat="48.57598" lon="-3.15364">
        <ele>313</ele>
        <time>2016-04-03T08:10:04.1Z</time>
      </trkpt>
      <trkpt lat="48.57596" lon="-3.15363">
        <ele>313</ele>
        <time>2016-04-03T08:10:06.1Z</time>
      </trkpt>
      <trkpt lat="48.57594" lon="-3.15361">
        <ele>313</ele>
        <time>2016-04-03T08:10:08.1Z</time>
      </trkpt>
      <trkpt lat="48.5759" lon="-3.1536">
        <ele>313</ele>
        <time>2016-04-03T08:10:11.1Z</time>
      </trkpt>
      <trkpt lat="48.57588" lon="-3.15359">
        <ele>313</ele>
        <time>2016-04-03T08:10:13.1Z</time>
      </trkpt>
      <trkpt lat="48.57585" lon="-3.15357">
        <ele>313</ele>
        <time>2016-04-03T08:10:16.1Z</time>
      </trkpt>
      <trkpt lat="48.57583" lon="-3.15356">
        <ele>313</ele>
        <time>2016-04-03T08:10:18.1Z</time>
      </trkpt>
      <trkpt lat="48.57579" lon="-3.15353">
        <ele>313</ele>
        <time>2016-04-03T08:10:21.1Z</time>
      </trkpt>
      <trkpt lat="48.57576" lon="-3.15351">
        <ele>313</ele>
        <time>2016-04-03T08:10:24.1Z</time>
      </trkpt>
      <trkpt lat="48.57573" lon="-3.15349">
        <ele>313</ele>
        <time>2016-04-03T08:10:27.1Z</time>
      </trkpt>
      <trkpt lat="48.57571" lon="-3.15348">
        <ele>313</ele>
        <time>2016-04-03T08:10:29.1Z</time>
      </trkpt>
      <trkpt lat="48.57567" lon="-3.15346">
        <ele>313</ele>
        <time>2016-04-03T08:10:32.1Z</time>
      </trkpt>
      <trkpt lat="48.57565" lon="-3.15344">
        <ele>313</ele>
        <time>2016-04-03T08:10:34.1Z</time>
      </trkpt>
      <trkpt lat="48.57562" lon="-3.15343">
        <ele>313</ele>
        <time>2016-04-03T08:10:36.1Z</time>
      </trkpt>
      <trkpt lat="48.57558" lon="-3.15341">
        <ele>313</ele>
        <time>2016-04-03T08:10:39.1Z</time>
      </trkpt>
      <trkpt lat="48.57556" lon="-3.15341">
        <ele>313</ele>
        <time>2016-04-03T08:10:41.1Z</time>
      </trkpt>
      <trkpt lat="48.57553" lon="-3.1534">
        <ele>313</ele>
        <time>2016-04-03T08:10:44.1Z</time>
      </trkpt>
      <trkpt lat="48.5755" lon="-3.15339">
        <ele>313</ele>
        <time>2016-04-03T08:10:47.1Z</time>
      </trkpt>
      <trkpt lat="48.57547" lon="-3.15339">
        <ele>313</ele>
        <time>2016-04-03T08:10:50.1Z</time>
      </trkpt>
      <trkpt lat="48.57544" lon="-3.15338">
        <ele>313</ele>
        <time>2016-04-03T08:10:53.1Z</time>
      </trkpt>
      <trkpt lat="48.57542" lon="-3.15338">
        <ele>313</ele>
        <time>2016-04-03T08:10:56.1Z</time>
      </trkpt>
      <trkpt lat="48.57542" lon="-3.15338">
        <ele>313</ele>
        <time>2016-04-03T08:11:00.1Z</time>
      </trkpt>
      <trkpt lat="48.57541" lon="-3.15338">
        <ele>313</ele>
        <time>2016-04-03T08:11:02.1Z</time>
      </trkpt>
      <trkpt lat="48.57538" lon="-3.15338">
        <ele>313</ele>
        <time>2016-04-03T08:11:05.1Z</time>
      </trkpt>
      <trkpt lat="48.57535" lon="-3.15337">
        <ele>313</ele>
        <time>2016-04-03T08:11:08.1Z</time>
      </trkpt>
      <trkpt lat="48.57533" lon="-3.15337">
        <ele>313</ele>
        <time>2016-04-03T08:11:11.1Z</time>
      </trkpt>
      <trkpt lat="48.5753" lon="-3.15336">
        <ele>313</ele>
        <time>2016-04-03T08:11:13.1Z</time>
      </trkpt>
      <trkpt lat="48.57527" lon="-3.15335">
        <ele>313</ele>
        <time>2016-04-03T08:11:16.1Z</time>
      </trkpt>
      <trkpt lat="48.57524" lon="-3.15334">
        <ele>313</ele>
        <time>2016-04-03T08:11:18.1Z</time>
      </trkpt>
      <trkpt lat="48.57521" lon="-3.15334">
        <ele>313</ele>
        <time>2016-04-03T08:11:21.1Z</time>
      </trkpt>
      <trkpt lat="48.57519" lon="-3.15333">
        <ele>313</ele>
        <time>2016-04-03T08:11:23.1Z</time>
      </trkpt>
      <trkpt lat="48.57515" lon="-3.15333">
        <ele>313</ele>
        <time>2016-04-03T08:11:26.1Z</time>
      </trkpt>
      <trkpt lat="48.57513" lon="-3.15332">
        <ele>313</ele>
        <time>2016-04-03T08:11:29.1Z</time>
      </trkpt>
      <trkpt lat="48.5751" lon="-3.15331">
        <ele>313</ele>
        <time>2016-04-03T08:11:31.1Z</time>
      </trkpt>
      <trkpt lat="48.57508" lon="-3.15331">
        <ele>313</ele>
        <time>2016-04-03T08:11:33.1Z</time>
      </trkpt>
      <trkpt lat="48.57505" lon="-3.1533">
        <ele>313</ele>
        <time>2016-04-03T08:11:36.1Z</time>
      </trkpt>
      <trkpt lat="48.57502" lon="-3.15329">
        <ele>313</ele>
        <time>2016-04-03T08:11:39.1Z</time>
      </trkpt>
      <trkpt lat="48.57499" lon="-3.15327">
        <ele>313</ele>
        <time>2016-04-03T08:11:42.1Z</time>
      </trkpt>
      <trkpt lat="48.57495" lon="-3.15326">
        <ele>313</ele>
        <time>2016-04-03T08:11:45.1Z</time>
      </trkpt>
      <trkpt lat="48.57492" lon="-3.15324">
        <ele>313</ele>
        <time>2016-04-03T08:11:48.1Z</time>
      </trkpt>
      <trkpt lat="48.57491" lon="-3.15323">
        <ele>314</ele>
        <time>2016-04-03T08:11:50.1Z</time>
      </trkpt>
      <trkpt lat="48.57489" lon="-3.15323">
        <ele>314</ele>
        <time>2016-04-03T08:11:52.1Z</time>
      </trkpt>
      <trkpt lat="48.57486" lon="-3.15323">
        <ele>313</ele>
        <time>2016-04-03T08:11:55.1Z</time>
      </trkpt>
      <trkpt lat="48.57482" lon="-3.15322">
        <ele>313</ele>
        <time>2016-04-03T08:11:58.1Z</time>
      </trkpt>
      <trkpt lat="48.57479" lon="-3.1532">
        <ele>314</ele>
        <time>2016-04-03T08:12:00.1Z</time>
      </trkpt>
      <trkpt lat="48.57476" lon="-3.15319">
        <ele>314</ele>
        <time>2016-04-03T08:12:03.1Z</time>
      </trkpt>
      <trkpt lat="48.57472" lon="-3.15318">
        <ele>314</ele>
        <time>2016-04-03T08:12:06.1Z</time>
      </trkpt>
      <trkpt lat="48.5747" lon="-3.15317">
        <ele>314</ele>
        <time>2016-04-03T08:12:08.1Z</time>
      </trkpt>
      <trkpt lat="48.57467" lon="-3.15316">
        <ele>313</ele>
        <time>2016-04-03T08:12:11.1Z</time>
      </trkpt>
      <trkpt lat="48.57464" lon="-3.15315">
        <ele>314</ele>
        <time>2016-04-03T08:12:13.1Z</time>
      </trkpt>
      <trkpt lat="48.57462" lon="-3.15313">
        <ele>313</ele>
        <time>2016-04-03T08:12:15.1Z</time>
      </trkpt>
      <trkpt lat="48.57457" lon="-3.15311">
        <ele>313</ele>
        <time>2016-04-03T08:12:18.1Z</time>
      </trkpt>
      <trkpt lat="48.57453" lon="-3.1531">
        <ele>314</ele>
        <time>2016-04-03T08:12:21.1Z</time>
      </trkpt>
      <trkpt lat="48.57449" lon="-3.15308">
        <ele>313</ele>
        <time>2016-04-03T08:12:24.1Z</time>
      </trkpt>
      <trkpt lat="48.57447" lon="-3.15307">
        <ele>314</ele>
        <time>2016-04-03T08:12:26.1Z</time>
      </trkpt>
      <trkpt lat="48.57443" lon="-3.15305">
        <ele>314</ele>
        <time>2016-04-03T08:12:29.1Z</time>
      </trkpt>
      <trkpt lat="48.57439" lon="-3.15304">
        <ele>314</ele>
        <time>2016-04-03T08:12:32.1Z</time>
      </trkpt>
      <trkpt lat="48.57436" lon="-3.15303">
        <ele>314</ele>
        <time>2016-04-03T08:12:35.1Z</time>
      </trkpt>
      <trkpt lat="48.57433" lon="-3.15303">
        <ele>314</ele>
        <time>2016-04-03T08:12:38.1Z</time>
      </trkpt>
      <trkpt lat="48.57429" lon="-3.15302">
        <ele>314</ele>
        <time>2016-04-03T08:12:41.1Z</time>
      </trkpt>
      <trkpt lat="48.57426" lon="-3.15301">
        <ele>314</ele>
        <time>2016-04-03T08:12:43.1Z</time>
      </trkpt>
      <trkpt lat="48.57423" lon="-3.15299">
        <ele>314</ele>
        <time>2016-04-03T08:12:46.1Z</time>
      </trkpt>
      <trkpt lat="48.5742" lon="-3.15298">
        <ele>313</ele>
        <time>2016-04-03T08:12:49.1Z</time>
      </trkpt>
      <trkpt lat="48.57416" lon="-3.15297">
        <ele>313</ele>
        <time>2016-04-03T08:12:52.1Z</time>
      </trkpt>
      <trkpt lat="48.57414" lon="-3.15296">
        <ele>314</ele>
        <time>2016-04-03T08:12:54.1Z</time>
      </trkpt>
      <trkpt lat="48.57412" lon="-3.15294">
        <ele>314</ele>
        <time>2016-04-03T08:12:57.1Z</time>
      </trkpt>
      <trkpt lat="48.57408" lon="-3.15293">
        <ele>314</ele>
        <time>2016-04-03T08:13:00.1Z</time>
      </trkpt>
      <trkpt lat="48.57404" lon="-3.15292">
        <ele>314</ele>
        <time>2016-04-03T08:13:03.1Z</time>
      </trkpt>
      <trkpt lat="48.57402" lon="-3.15292">
        <ele>314</ele>
        <time>2016-04-03T08:13:05.1Z</time>
      </trkpt>
      <trkpt lat="48.57399" lon="-3.15291">
        <ele>314</ele>
        <time>2016-04-03T08:13:08.1Z</time>
      </trkpt>
      <trkpt lat="48.57395" lon="-3.15289">
        <ele>314</ele>
        <time>2016-04-03T08:13:11.1Z</time>
      </trkpt>
      <trkpt lat="48.57393" lon="-3.15289">
        <ele>314</ele>
        <time>2016-04-03T08:13:13.1Z</time>
      </trkpt>
      <trkpt lat="48.57391" lon="-3.1529">
        <ele>314</ele>
        <time>2016-04-03T08:13:16.1Z</time>
      </trkpt>
      <trkpt lat="48.57388" lon="-3.15289">
        <ele>314</ele>
        <time>2016-04-03T08:13:18.1Z</time>
      </trkpt>
      <trkpt lat="48.57386" lon="-3.15288">
        <ele>314</ele>
        <time>2016-04-03T08:13:20.1Z</time>
      </trkpt>
      <trkpt lat="48.57382" lon="-3.15287">
        <ele>314</ele>
        <time>2016-04-03T08:13:23.1Z</time>
      </trkpt>
      <trkpt lat="48.5738" lon="-3.15285">
        <ele>314</ele>
        <time>2016-04-03T08:13:25.1Z</time>
      </trkpt>
      <trkpt lat="48.57376" lon="-3.15283">
        <ele>314</ele>
        <time>2016-04-03T08:13:28.1Z</time>
      </trkpt>
      <trkpt lat="48.57373" lon="-3.15282">
        <ele>314</ele>
        <time>2016-04-03T08:13:31.1Z</time>
      </trkpt>
      <trkpt lat="48.57369" lon="-3.1528">
        <ele>314</ele>
        <time>2016-04-03T08:13:34.1Z</time>
      </trkpt>
      <trkpt lat="48.57365" lon="-3.1528">
        <ele>314</ele>
        <time>2016-04-03T08:13:37.1Z</time>
      </trkpt>
      <trkpt lat="48.57362" lon="-3.15279">
        <ele>314</ele>
        <time>2016-04-03T08:13:40.1Z</time>
      </trkpt>
      <trkpt lat="48.57358" lon="-3.15278">
        <ele>314</ele>
        <time>2016-04-03T08:13:43.1Z</time>
      </trkpt>
      <trkpt lat="48.57355" lon="-3.15277">
        <ele>314</ele>
        <time>2016-04-03T08:13:45.1Z</time>
      </trkpt>
      <trkpt lat="48.57351" lon="-3.15276">
        <ele>313</ele>
        <time>2016-04-03T08:13:48.1Z</time>
      </trkpt>
      <trkpt lat="48.57347" lon="-3.15275">
        <ele>313</ele>
        <time>2016-04-03T08:13:50.1Z</time>
      </trkpt>
      <trkpt lat="48.57344" lon="-3.15277">
        <ele>313</ele>
        <time>2016-04-03T08:13:53.1Z</time>
      </trkpt>
      <trkpt lat="48.57342" lon="-3.15279">
        <ele>313</ele>
        <time>2016-04-03T08:13:55.1Z</time>
      </trkpt>
      <trkpt lat="48.5734" lon="-3.15283">
        <ele>313</ele>
        <time>2016-04-03T08:13:58.1Z</time>
      </trkpt>
      <trkpt lat="48.57339" lon="-3.15286">
        <ele>313</ele>
        <time>2016-04-03T08:14:00.1Z</time>
      </trkpt>
      <trkpt lat="48.57338" lon="-3.15291">
        <ele>313</ele>
        <time>2016-04-03T08:14:03.1Z</time>
      </trkpt>
      <trkpt lat="48.57337" lon="-3.15294">
        <ele>313</ele>
        <time>2016-04-03T08:14:05.1Z</time>
      </trkpt>
      <trkpt lat="48.57336" lon="-3.153">
        <ele>312</ele>
        <time>2016-04-03T08:14:08.1Z</time>
      </trkpt>
      <trkpt lat="48.57336" lon="-3.15304">
        <ele>312</ele>
        <time>2016-04-03T08:14:10.1Z</time>
      </trkpt>
      <trkpt lat="48.57336" lon="-3.15308">
        <ele>312</ele>
        <time>2016-04-03T08:14:12.1Z</time>
      </trkpt>
      <trkpt lat="48.57336" lon="-3.15315">
        <ele>311</ele>
        <time>2016-04-03T08:14:15.1Z</time>
      </trkpt>
      <trkpt lat="48.57336" lon="-3.15319">
        <ele>311</ele>
        <time>2016-04-03T08:14:17.1Z</time>
      </trkpt>
      <trkpt lat="48.57336" lon="-3.15325">
        <ele>311</ele>
        <time>2016-04-03T08:14:20.1Z</time>
      </trkpt>
      <trkpt lat="48.57336" lon="-3.15331">
        <ele>312</ele>
        <time>2016-04-03T08:14:23.1Z</time>
      </trkpt>
      <trkpt lat="48.57337" lon="-3.15335">
        <ele>312</ele>
        <time>2016-04-03T08:14:25.1Z</time>
      </trkpt>
      <trkpt lat="48.57338" lon="-3.15338">
        <ele>312</ele>
        <time>2016-04-03T08:14:27.1Z</time>
      </trkpt>
      <trkpt lat="48.57338" lon="-3.15345">
        <ele>312</ele>
        <time>2016-04-03T08:14:30.1Z</time>
      </trkpt>
      <trkpt lat="48.5734" lon="-3.1535">
        <ele>311</ele>
        <time>2016-04-03T08:14:33.1Z</time>
      </trkpt>
      <trkpt lat="48.57341" lon="-3.15355">
        <ele>311</ele>
        <time>2016-04-03T08:14:36.1Z</time>
      </trkpt>
      <trkpt lat="48.57343" lon="-3.1536">
        <ele>311</ele>
        <time>2016-04-03T08:14:39.1Z</time>
      </trkpt>
      <trkpt lat="48.57344" lon="-3.15363">
        <ele>311</ele>
        <time>2016-04-03T08:14:41.1Z</time>
      </trkpt>
      <trkpt lat="48.57344" lon="-3.15367">
        <ele>311</ele>
        <time>2016-04-03T08:14:43.1Z</time>
      </trkpt>
      <trkpt lat="48.57344" lon="-3.15372">
        <ele>310</ele>
        <time>2016-04-03T08:14:46.1Z</time>
      </trkpt>
      <trkpt lat="48.57344" lon="-3.15375">
        <ele>310</ele>
        <time>2016-04-03T08:14:48.1Z</time>
      </trkpt>
      <trkpt lat="48.57344" lon="-3.15379">
        <ele>310</ele>
        <time>2016-04-03T08:14:50.1Z</time>
      </trkpt>
      <trkpt lat="48.57344" lon="-3.15384">
        <ele>310</ele>
        <time>2016-04-03T08:14:53.1Z</time>
      </trkpt>
      <trkpt lat="48.57343" lon="-3.15389">
        <ele>310</ele>
        <time>2016-04-03T08:14:56.1Z</time>
      </trkpt>
      <trkpt lat="48.57343" lon="-3.15392">
        <ele>309</ele>
        <time>2016-04-03T08:14:58.1Z</time>
      </trkpt>
      <trkpt lat="48.57343" lon="-3.15398">
        <ele>309</ele>
        <time>2016-04-03T08:15:01.1Z</time>
      </trkpt>
      <trkpt lat="48.57341" lon="-3.15402">
        <ele>308</ele>
        <time>2016-04-03T08:15:04.1Z</time>
      </trkpt>
      <trkpt lat="48.57341" lon="-3.15405">
        <ele>308</ele>
        <time>2016-04-03T08:15:06.1Z</time>
      </trkpt>
      <trkpt lat="48.57339" lon="-3.15408">
        <ele>308</ele>
        <time>2016-04-03T08:15:08.1Z</time>
      </trkpt>
      <trkpt lat="48.57339" lon="-3.15411">
        <ele>308</ele>
        <time>2016-04-03T08:15:10.1Z</time>
      </trkpt>
      <trkpt lat="48.57338" lon="-3.15416">
        <ele>307</ele>
        <time>2016-04-03T08:15:13.1Z</time>
      </trkpt>
      <trkpt lat="48.57337" lon="-3.15419">
        <ele>307</ele>
        <time>2016-04-03T08:15:15.1Z</time>
      </trkpt>
      <trkpt lat="48.57336" lon="-3.15423">
        <ele>307</ele>
        <time>2016-04-03T08:15:18.1Z</time>
      </trkpt>
      <trkpt lat="48.57334" lon="-3.15425">
        <ele>306</ele>
        <time>2016-04-03T08:15:20.1Z</time>
      </trkpt>
      <trkpt lat="48.57332" lon="-3.15429">
        <ele>306</ele>
        <time>2016-04-03T08:15:23.1Z</time>
      </trkpt>
      <trkpt lat="48.5733" lon="-3.15434">
        <ele>305</ele>
        <time>2016-04-03T08:15:26.1Z</time>
      </trkpt>
      <trkpt lat="48.57329" lon="-3.15437">
        <ele>305</ele>
        <time>2016-04-03T08:15:28.1Z</time>
      </trkpt>
      <trkpt lat="48.57326" lon="-3.15441">
        <ele>305</ele>
        <time>2016-04-03T08:15:31.1Z</time>
      </trkpt>
      <trkpt lat="48.57323" lon="-3.15442">
        <ele>305</ele>
        <time>2016-04-03T08:15:33.1Z</time>
      </trkpt>
      <trkpt lat="48.5732" lon="-3.15445">
        <ele>305</ele>
        <time>2016-04-03T08:15:36.1Z</time>
      </trkpt>
      <trkpt lat="48.57317" lon="-3.15447">
        <ele>305</ele>
        <time>2016-04-03T08:15:39.1Z</time>
      </trkpt>
      <trkpt lat="48.57315" lon="-3.15448">
        <ele>305</ele>
        <time>2016-04-03T08:15:41.1Z</time>
      </trkpt>
      <trkpt lat="48.57313" lon="-3.15448">
        <ele>305</ele>
        <time>2016-04-03T08:15:43.1Z</time>
      </trkpt>
      <trkpt lat="48.57311" lon="-3.15448">
        <ele>304</ele>
        <time>2016-04-03T08:15:45.1Z</time>
      </trkpt>
      <trkpt lat="48.57307" lon="-3.15448">
        <ele>304</ele>
        <time>2016-04-03T08:15:48.1Z</time>
      </trkpt>
      <trkpt lat="48.57305" lon="-3.15448">
        <ele>304</ele>
        <time>2016-04-03T08:15:50.1Z</time>
      </trkpt>
      <trkpt lat="48.57302" lon="-3.15452">
        <ele>304</ele>
        <time>2016-04-03T08:15:53.1Z</time>
      </trkpt>
      <trkpt lat="48.573" lon="-3.15455">
        <ele>303</ele>
        <time>2016-04-03T08:15:55.1Z</time>
      </trkpt>
      <trkpt lat="48.57298" lon="-3.15459">
        <ele>303</ele>
        <time>2016-04-03T08:15:58.1Z</time>
      </trkpt>
      <trkpt lat="48.57297" lon="-3.15463">
        <ele>303</ele>
        <time>2016-04-03T08:16:00.1Z</time>
      </trkpt>
      <trkpt lat="48.57296" lon="-3.15468">
        <ele>303</ele>
        <time>2016-04-03T08:16:03.1Z</time>
      </trkpt>
      <trkpt lat="48.57295" lon="-3.15474">
        <ele>303</ele>
        <time>2016-04-03T08:16:06.1Z</time>
      </trkpt>
      <trkpt lat="48.57294" lon="-3.15477">
        <ele>302</ele>
        <time>2016-04-03T08:16:08.1Z</time>
      </trkpt>
      <trkpt lat="48.57293" lon="-3.15481">
        <ele>302</ele>
        <time>2016-04-03T08:16:10.1Z</time>
      </trkpt>
      <trkpt lat="48.57292" lon="-3.15486">
        <ele>302</ele>
        <time>2016-04-03T08:16:13.1Z</time>
      </trkpt>
      <trkpt lat="48.57291" lon="-3.1549">
        <ele>302</ele>
        <time>2016-04-03T08:16:15.1Z</time>
      </trkpt>
      <trkpt lat="48.5729" lon="-3.15495">
        <ele>302</ele>
        <time>2016-04-03T08:16:18.1Z</time>
      </trkpt>
      <trkpt lat="48.57289" lon="-3.15499">
        <ele>302</ele>
        <time>2016-04-03T08:16:21.1Z</time>
      </trkpt>
      <trkpt lat="48.57289" lon="-3.15503">
        <ele>302</ele>
        <time>2016-04-03T08:16:23.1Z</time>
      </trkpt>
      <trkpt lat="48.57288" lon="-3.15507">
        <ele>301</ele>
        <time>2016-04-03T08:16:26.1Z</time>
      </trkpt>
      <trkpt lat="48.57288" lon="-3.1551">
        <ele>301</ele>
        <time>2016-04-03T08:16:29.1Z</time>
      </trkpt>
      <trkpt lat="48.57286" lon="-3.15514">
        <ele>301</ele>
        <time>2016-04-03T08:16:32.1Z</time>
      </trkpt>
      <trkpt lat="48.57287" lon="-3.15516">
        <ele>301</ele>
        <time>2016-04-03T08:16:34.1Z</time>
      </trkpt>
      <trkpt lat="48.57289" lon="-3.15519">
        <ele>301</ele>
        <time>2016-04-03T08:16:37.1Z</time>
      </trkpt>
      <trkpt lat="48.57292" lon="-3.15522">
        <ele>302</ele>
        <time>2016-04-03T08:16:40.1Z</time>
      </trkpt>
      <trkpt lat="48.57294" lon="-3.15524">
        <ele>302</ele>
        <time>2016-04-03T08:16:43.1Z</time>
      </trkpt>
      <trkpt lat="48.57296" lon="-3.15527">
        <ele>302</ele>
        <time>2016-04-03T08:16:46.1Z</time>
      </trkpt>
      <trkpt lat="48.57298" lon="-3.15529">
        <ele>302</ele>
        <time>2016-04-03T08:16:49.1Z</time>
      </trkpt>
      <trkpt lat="48.57299" lon="-3.15532">
        <ele>302</ele>
        <time>2016-04-03T08:16:52.1Z</time>
      </trkpt>
      <trkpt lat="48.57302" lon="-3.15536">
        <ele>303</ele>
        <time>2016-04-03T08:16:55.1Z</time>
      </trkpt>
      <trkpt lat="48.57303" lon="-3.15538">
        <ele>303</ele>
        <time>2016-04-03T08:16:57.1Z</time>
      </trkpt>
      <trkpt lat="48.57306" lon="-3.15541">
        <ele>303</ele>
        <time>2016-04-03T08:17:00.1Z</time>
      </trkpt>
      <trkpt lat="48.57308" lon="-3.15543">
        <ele>303</ele>
        <time>2016-04-03T08:17:02.1Z</time>
      </trkpt>
      <trkpt lat="48.57311" lon="-3.15547">
        <ele>303</ele>
        <time>2016-04-03T08:17:05.1Z</time>
      </trkpt>
      <trkpt lat="48.57313" lon="-3.15552">
        <ele>304</ele>
        <time>2016-04-03T08:17:08.1Z</time>
      </trkpt>
      <trkpt lat="48.57314" lon="-3.15556">
        <ele>304</ele>
        <time>2016-04-03T08:17:10.1Z</time>
      </trkpt>
      <trkpt lat="48.57316" lon="-3.15561">
        <ele>304</ele>
        <time>2016-04-03T08:17:13.1Z</time>
      </trkpt>
      <trkpt lat="48.57317" lon="-3.15564">
        <ele>304</ele>
        <time>2016-04-03T08:17:15.1Z</time>
      </trkpt>
      <trkpt lat="48.5732" lon="-3.15568">
        <ele>304</ele>
        <time>2016-04-03T08:17:18.1Z</time>
      </trkpt>
      <trkpt lat="48.57321" lon="-3.15571">
        <ele>304</ele>
        <time>2016-04-03T08:17:20.1Z</time>
      </trkpt>
      <trkpt lat="48.57323" lon="-3.15574">
        <ele>305</ele>
        <time>2016-04-03T08:17:23.1Z</time>
      </trkpt>
      <trkpt lat="48.57326" lon="-3.15578">
        <ele>305</ele>
        <time>2016-04-03T08:17:26.1Z</time>
      </trkpt>
      <trkpt lat="48.57328" lon="-3.1558">
        <ele>305</ele>
        <time>2016-04-03T08:17:28.1Z</time>
      </trkpt>
      <trkpt lat="48.57329" lon="-3.15582">
        <ele>305</ele>
        <time>2016-04-03T08:17:30.1Z</time>
      </trkpt>
      <trkpt lat="48.57331" lon="-3.15586">
        <ele>305</ele>
        <time>2016-04-03T08:17:33.1Z</time>
      </trkpt>
      <trkpt lat="48.57333" lon="-3.15588">
        <ele>305</ele>
        <time>2016-04-03T08:17:35.1Z</time>
      </trkpt>
      <trkpt lat="48.57335" lon="-3.15591">
        <ele>305</ele>
        <time>2016-04-03T08:17:38.1Z</time>
      </trkpt>
      <trkpt lat="48.57338" lon="-3.15595">
        <ele>306</ele>
        <time>2016-04-03T08:17:41.1Z</time>
      </trkpt>
      <trkpt lat="48.5734" lon="-3.15599">
        <ele>306</ele>
        <time>2016-04-03T08:17:44.1Z</time>
      </trkpt>
      <trkpt lat="48.57343" lon="-3.15602">
        <ele>306</ele>
        <time>2016-04-03T08:17:47.1Z</time>
      </trkpt>
      <trkpt lat="48.57344" lon="-3.15604">
        <ele>306</ele>
        <time>2016-04-03T08:17:49.1Z</time>
      </trkpt>
      <trkpt lat="48.57346" lon="-3.15606">
        <ele>306</ele>
        <time>2016-04-03T08:17:51.1Z</time>
      </trkpt>
      <trkpt lat="48.57349" lon="-3.15609">
        <ele>306</ele>
        <time>2016-04-03T08:17:54.1Z</time>
      </trkpt>
      <trkpt lat="48.57352" lon="-3.15612">
        <ele>307</ele>
        <time>2016-04-03T08:17:57.1Z</time>
      </trkpt>
      <trkpt lat="48.57353" lon="-3.15613">
        <ele>307</ele>
        <time>2016-04-03T08:17:59.1Z</time>
      </trkpt>
      <trkpt lat="48.57354" lon="-3.15615">
        <ele>307</ele>
        <time>2016-04-03T08:18:01.1Z</time>
      </trkpt>
      <trkpt lat="48.57357" lon="-3.15617">
        <ele>307</ele>
        <time>2016-04-03T08:18:04.1Z</time>
      </trkpt>
      <trkpt lat="48.5736" lon="-3.15618">
        <ele>307</ele>
        <time>2016-04-03T08:18:07.1Z</time>
      </trkpt>
      <trkpt lat="48.57363" lon="-3.1562">
        <ele>307</ele>
        <time>2016-04-03T08:18:10.1Z</time>
      </trkpt>
      <trkpt lat="48.57366" lon="-3.15622">
        <ele>307</ele>
        <time>2016-04-03T08:18:13.1Z</time>
      </trkpt>
      <trkpt lat="48.57368" lon="-3.15623">
        <ele>307</ele>
        <time>2016-04-03T08:18:15.1Z</time>
      </trkpt>
      <trkpt lat="48.57371" lon="-3.15625">
        <ele>307</ele>
        <time>2016-04-03T08:18:18.1Z</time>
      </trkpt>
      <trkpt lat="48.57374" lon="-3.15627">
        <ele>307</ele>
        <time>2016-04-03T08:18:21.1Z</time>
      </trkpt>
      <trkpt lat="48.57376" lon="-3.15628">
        <ele>307</ele>
        <time>2016-04-03T08:18:24.1Z</time>
      </trkpt>
      <trkpt lat="48.57379" lon="-3.15629">
        <ele>307</ele>
        <time>2016-04-03T08:18:27.1Z</time>
      </trkpt>
      <trkpt lat="48.57381" lon="-3.1563">
        <ele>307</ele>
        <time>2016-04-03T08:18:29.1Z</time>
      </trkpt>
      <trkpt lat="48.57384" lon="-3.15631">
        <ele>308</ele>
        <time>2016-04-03T08:18:31.1Z</time>
      </trkpt>
      <trkpt lat="48.57387" lon="-3.15634">
        <ele>308</ele>
        <time>2016-04-03T08:18:34.1Z</time>
      </trkpt>
      <trkpt lat="48.57389" lon="-3.15635">
        <ele>308</ele>
        <time>2016-04-03T08:18:36.1Z</time>
      </trkpt>
      <trkpt lat="48.57391" lon="-3.15636">
        <ele>308</ele>
        <time>2016-04-03T08:18:38.1Z</time>
      </trkpt>
      <trkpt lat="48.57394" lon="-3.15639">
        <ele>308</ele>
        <time>2016-04-03T08:18:41.1Z</time>
      </trkpt>
      <trkpt lat="48.57398" lon="-3.15641">
        <ele>308</ele>
        <time>2016-04-03T08:18:44.1Z</time>
      </trkpt>
      <trkpt lat="48.57399" lon="-3.15643">
        <ele>308</ele>
        <time>2016-04-03T08:18:46.1Z</time>
      </trkpt>
      <trkpt lat="48.57402" lon="-3.15645">
        <ele>308</ele>
        <time>2016-04-03T08:18:49.1Z</time>
      </trkpt>
      <trkpt lat="48.57404" lon="-3.15647">
        <ele>308</ele>
        <time>2016-04-03T08:18:51.1Z</time>
      </trkpt>
      <trkpt lat="48.57406" lon="-3.15648">
        <ele>308</ele>
        <time>2016-04-03T08:18:53.1Z</time>
      </trkpt>
      <trkpt lat="48.5741" lon="-3.15651">
        <ele>308</ele>
        <time>2016-04-03T08:18:56.1Z</time>
      </trkpt>
      <trkpt lat="48.57413" lon="-3.15653">
        <ele>308</ele>
        <time>2016-04-03T08:18:59.1Z</time>
      </trkpt>
      <trkpt lat="48.57416" lon="-3.15655">
        <ele>308</ele>
        <time>2016-04-03T08:19:01.1Z</time>
      </trkpt>
      <trkpt lat="48.57418" lon="-3.15657">
        <ele>308</ele>
        <time>2016-04-03T08:19:04.1Z</time>
      </trkpt>
      <trkpt lat="48.57422" lon="-3.15658">
        <ele>309</ele>
        <time>2016-04-03T08:19:07.1Z</time>
      </trkpt>
      <trkpt lat="48.57425" lon="-3.1566">
        <ele>308</ele>
        <time>2016-04-03T08:19:10.1Z</time>
      </trkpt>
      <trkpt lat="48.57427" lon="-3.15662">
        <ele>309</ele>
        <time>2016-04-03T08:19:12.1Z</time>
      </trkpt>
      <trkpt lat="48.57431" lon="-3.15664">
        <ele>308</ele>
        <time>2016-04-03T08:19:15.1Z</time>
      </trkpt>
      <trkpt lat="48.57433" lon="-3.15666">
        <ele>308</ele>
        <time>2016-04-03T08:19:17.1Z</time>
      </trkpt>
      <trkpt lat="48.57435" lon="-3.15667">
        <ele>308</ele>
        <time>2016-04-03T08:19:19.1Z</time>
      </trkpt>
      <trkpt lat="48.57438" lon="-3.15669">
        <ele>308</ele>
        <time>2016-04-03T08:19:22.1Z</time>
      </trkpt>
      <trkpt lat="48.57441" lon="-3.1567">
        <ele>308</ele>
        <time>2016-04-03T08:19:25.1Z</time>
      </trkpt>
      <trkpt lat="48.57443" lon="-3.15672">
        <ele>308</ele>
        <time>2016-04-03T08:19:27.1Z</time>
      </trkpt>
      <trkpt lat="48.57445" lon="-3.15673">
        <ele>308</ele>
        <time>2016-04-03T08:19:29.1Z</time>
      </trkpt>
      <trkpt lat="48.57447" lon="-3.15674">
        <ele>308</ele>
        <time>2016-04-03T08:19:31.1Z</time>
      </trkpt>
      <trkpt lat="48.57449" lon="-3.15675">
        <ele>308</ele>
        <time>2016-04-03T08:19:33.1Z</time>
      </trkpt>
      <trkpt lat="48.57451" lon="-3.15677">
        <ele>308</ele>
        <time>2016-04-03T08:19:36.1Z</time>
      </trkpt>
      <trkpt lat="48.57453" lon="-3.15679">
        <ele>308</ele>
        <time>2016-04-03T08:19:38.1Z</time>
      </trkpt>
      <trkpt lat="48.57456" lon="-3.15681">
        <ele>308</ele>
        <time>2016-04-03T08:19:41.1Z</time>
      </trkpt>
      <trkpt lat="48.57459" lon="-3.15683">
        <ele>308</ele>
        <time>2016-04-03T08:19:44.1Z</time>
      </trkpt>
      <trkpt lat="48.57462" lon="-3.15684">
        <ele>308</ele>
        <time>2016-04-03T08:19:46.1Z</time>
      </trkpt>
      <trkpt lat="48.57466" lon="-3.15685">
        <ele>308</ele>
        <time>2016-04-03T08:19:49.1Z</time>
      </trkpt>
      <trkpt lat="48.57469" lon="-3.15687">
        <ele>308</ele>
        <time>2016-04-03T08:19:52.1Z</time>
      </trkpt>
      <trkpt lat="48.57471" lon="-3.15689">
        <ele>308</ele>
        <time>2016-04-03T08:19:55.1Z</time>
      </trkpt>
      <trkpt lat="48.57474" lon="-3.15691">
        <ele>308</ele>
        <time>2016-04-03T08:19:57.1Z</time>
      </trkpt>
      <trkpt lat="48.57476" lon="-3.15693">
        <ele>308</ele>
        <time>2016-04-03T08:19:59.1Z</time>
      </trkpt>
      <trkpt lat="48.57478" lon="-3.15695">
        <ele>308</ele>
        <time>2016-04-03T08:20:02.1Z</time>
      </trkpt>
      <trkpt lat="48.5748" lon="-3.15697">
        <ele>308</ele>
        <time>2016-04-03T08:20:04.1Z</time>
      </trkpt>
      <trkpt lat="48.57483" lon="-3.15699">
        <ele>308</ele>
        <time>2016-04-03T08:20:06.1Z</time>
      </trkpt>
      <trkpt lat="48.57485" lon="-3.15702">
        <ele>307</ele>
        <time>2016-04-03T08:20:09.1Z</time>
      </trkpt>
      <trkpt lat="48.57487" lon="-3.15704">
        <ele>308</ele>
        <time>2016-04-03T08:20:11.1Z</time>
      </trkpt>
      <trkpt lat="48.57489" lon="-3.15708">
        <ele>308</ele>
        <time>2016-04-03T08:20:14.1Z</time>
      </trkpt>
      <trkpt lat="48.57491" lon="-3.1571">
        <ele>308</ele>
        <time>2016-04-03T08:20:16.1Z</time>
      </trkpt>
      <trkpt lat="48.57494" lon="-3.15713">
        <ele>308</ele>
        <time>2016-04-03T08:20:19.1Z</time>
      </trkpt>
      <trkpt lat="48.57496" lon="-3.15715">
        <ele>307</ele>
        <time>2016-04-03T08:20:21.1Z</time>
      </trkpt>
      <trkpt lat="48.57498" lon="-3.15717">
        <ele>307</ele>
        <time>2016-04-03T08:20:23.1Z</time>
      </trkpt>
      <trkpt lat="48.575" lon="-3.15721">
        <ele>307</ele>
        <time>2016-04-03T08:20:26.1Z</time>
      </trkpt>
      <trkpt lat="48.57502" lon="-3.15725">
        <ele>307</ele>
        <time>2016-04-03T08:20:29.1Z</time>
      </trkpt>
      <trkpt lat="48.57503" lon="-3.15728">
        <ele>308</ele>
        <time>2016-04-03T08:20:31.1Z</time>
      </trkpt>
      <trkpt lat="48.57504" lon="-3.15733">
        <ele>308</ele>
        <time>2016-04-03T08:20:34.1Z</time>
      </trkpt>
      <trkpt lat="48.57505" lon="-3.15735">
        <ele>307</ele>
        <time>2016-04-03T08:20:36.1Z</time>
      </trkpt>
      <trkpt lat="48.57507" lon="-3.15739">
        <ele>307</ele>
        <time>2016-04-03T08:20:39.1Z</time>
      </trkpt>
      <trkpt lat="48.57507" lon="-3.15744">
        <ele>307</ele>
        <time>2016-04-03T08:20:42.1Z</time>
      </trkpt>
      <trkpt lat="48.57508" lon="-3.1575">
        <ele>307</ele>
        <time>2016-04-03T08:20:45.1Z</time>
      </trkpt>
      <trkpt lat="48.57508" lon="-3.15753">
        <ele>307</ele>
        <time>2016-04-03T08:20:47.1Z</time>
      </trkpt>
      <trkpt lat="48.57508" lon="-3.15757">
        <ele>307</ele>
        <time>2016-04-03T08:20:50.1Z</time>
      </trkpt>
      <trkpt lat="48.57508" lon="-3.15762">
        <ele>306</ele>
        <time>2016-04-03T08:20:53.1Z</time>
      </trkpt>
      <trkpt lat="48.57508" lon="-3.15766">
        <ele>306</ele>
        <time>2016-04-03T08:20:56.1Z</time>
      </trkpt>
      <trkpt lat="48.57508" lon="-3.15769">
        <ele>306</ele>
        <time>2016-04-03T08:20:58.1Z</time>
      </trkpt>
      <trkpt lat="48.57508" lon="-3.15772">
        <ele>306</ele>
        <time>2016-04-03T08:21:00.1Z</time>
      </trkpt>
      <trkpt lat="48.57508" lon="-3.15778">
        <ele>307</ele>
        <time>2016-04-03T08:21:03.1Z</time>
      </trkpt>
      <trkpt lat="48.57509" lon="-3.15781">
        <ele>306</ele>
        <time>2016-04-03T08:21:05.1Z</time>
      </trkpt>
      <trkpt lat="48.57509" lon="-3.15786">
        <ele>306</ele>
        <time>2016-04-03T08:21:08.1Z</time>
      </trkpt>
      <trkpt lat="48.5751" lon="-3.15789">
        <ele>306</ele>
        <time>2016-04-03T08:21:10.1Z</time>
      </trkpt>
      <trkpt lat="48.57511" lon="-3.15794">
        <ele>305</ele>
        <time>2016-04-03T08:21:13.1Z</time>
      </trkpt>
      <trkpt lat="48.57513" lon="-3.15798">
        <ele>305</ele>
        <time>2016-04-03T08:21:16.1Z</time>
      </trkpt>
      <trkpt lat="48.57514" lon="-3.15803">
        <ele>305</ele>
        <time>2016-04-03T08:21:19.1Z</time>
      </trkpt>
      <trkpt lat="48.57516" lon="-3.15808">
        <ele>305</ele>
        <time>2016-04-03T08:21:22.1Z</time>
      </trkpt>
      <trkpt lat="48.57517" lon="-3.15813">
        <ele>305</ele>
        <time>2016-04-03T08:21:25.1Z</time>
      </trkpt>
      <trkpt lat="48.57518" lon="-3.15818">
        <ele>304</ele>
        <time>2016-04-03T08:21:28.1Z</time>
      </trkpt>
      <trkpt lat="48.5752" lon="-3.15823">
        <ele>304</ele>
        <time>2016-04-03T08:21:31.1Z</time>
      </trkpt>
      <trkpt lat="48.57521" lon="-3.15828">
        <ele>304</ele>
        <time>2016-04-03T08:21:34.1Z</time>
      </trkpt>
      <trkpt lat="48.57522" lon="-3.15833">
        <ele>303</ele>
        <time>2016-04-03T08:21:37.1Z</time>
      </trkpt>
      <trkpt lat="48.57524" lon="-3.15837">
        <ele>303</ele>
        <time>2016-04-03T08:21:40.1Z</time>
      </trkpt>
      <trkpt lat="48.57526" lon="-3.15842">
        <ele>303</ele>
        <time>2016-04-03T08:21:43.1Z</time>
      </trkpt>
      <trkpt lat="48.57527" lon="-3.15845">
        <ele>303</ele>
        <time>2016-04-03T08:21:45.1Z</time>
      </trkpt>
      <trkpt lat="48.57529" lon="-3.15849">
        <ele>303</ele>
        <time>2016-04-03T08:21:48.1Z</time>
      </trkpt>
      <trkpt lat="48.57529" lon="-3.15852">
        <ele>302</ele>
        <time>2016-04-03T08:21:50.1Z</time>
      </trkpt>
      <trkpt lat="48.57531" lon="-3.15856">
        <ele>302</ele>
        <time>2016-04-03T08:21:53.1Z</time>
      </trkpt>
      <trkpt lat="48.57532" lon="-3.15859">
        <ele>302</ele>
        <time>2016-04-03T08:21:55.1Z</time>
      </trkpt>
      <trkpt lat="48.57534" lon="-3.15864">
        <ele>302</ele>
        <time>2016-04-03T08:21:58.1Z</time>
      </trkpt>
      <trkpt lat="48.57535" lon="-3.15869">
        <ele>302</ele>
        <time>2016-04-03T08:22:01.1Z</time>
      </trkpt>
      <trkpt lat="48.57537" lon="-3.15873">
        <ele>301</ele>
        <time>2016-04-03T08:22:04.1Z</time>
      </trkpt>
      <trkpt lat="48.57539" lon="-3.15878">
        <ele>301</ele>
        <time>2016-04-03T08:22:07.1Z</time>
      </trkpt>
      <trkpt lat="48.5754" lon="-3.15882">
        <ele>302</ele>
        <time>2016-04-03T08:22:10.1Z</time>
      </trkpt>
      <trkpt lat="48.57542" lon="-3.15886">
        <ele>302</ele>
        <time>2016-04-03T08:22:13.1Z</time>
      </trkpt>
      <trkpt lat="48.57544" lon="-3.15891">
        <ele>302</ele>
        <time>2016-04-03T08:22:16.1Z</time>
      </trkpt>
      <trkpt lat="48.57544" lon="-3.15895">
        <ele>302</ele>
        <time>2016-04-03T08:22:18.1Z</time>
      </trkpt>
      <trkpt lat="48.57546" lon="-3.15898">
        <ele>302</ele>
        <time>2016-04-03T08:22:21.1Z</time>
      </trkpt>
      <trkpt lat="48.57548" lon="-3.15901">
        <ele>301</ele>
        <time>2016-04-03T08:22:23.1Z</time>
      </trkpt>
      <trkpt lat="48.57551" lon="-3.15903">
        <ele>301</ele>
        <time>2016-04-03T08:22:26.1Z</time>
      </trkpt>
      <trkpt lat="48.57553" lon="-3.15904">
        <ele>301</ele>
        <time>2016-04-03T08:22:28.1Z</time>
      </trkpt>
      <trkpt lat="48.57555" lon="-3.15905">
        <ele>301</ele>
        <time>2016-04-03T08:22:30.1Z</time>
      </trkpt>
      <trkpt lat="48.57559" lon="-3.15905">
        <ele>301</ele>
        <time>2016-04-03T08:22:33.1Z</time>
      </trkpt>
      <trkpt lat="48.57561" lon="-3.15905">
        <ele>301</ele>
        <time>2016-04-03T08:22:35.1Z</time>
      </trkpt>
      <trkpt lat="48.57565" lon="-3.15905">
        <ele>301</ele>
        <time>2016-04-03T08:22:38.1Z</time>
      </trkpt>
      <trkpt lat="48.57568" lon="-3.15904">
        <ele>301</ele>
        <time>2016-04-03T08:22:41.1Z</time>
      </trkpt>
      <trkpt lat="48.57571" lon="-3.15903">
        <ele>302</ele>
        <time>2016-04-03T08:22:44.1Z</time>
      </trkpt>
      <trkpt lat="48.57575" lon="-3.159">
        <ele>301</ele>
        <time>2016-04-03T08:22:47.1Z</time>
      </trkpt>
      <trkpt lat="48.57577" lon="-3.15898">
        <ele>301</ele>
        <time>2016-04-03T08:22:49.1Z</time>
      </trkpt>
      <trkpt lat="48.57579" lon="-3.15895">
        <ele>301</ele>
        <time>2016-04-03T08:22:52.1Z</time>
      </trkpt>
      <trkpt lat="48.57581" lon="-3.15894">
        <ele>301</ele>
        <time>2016-04-03T08:22:54.1Z</time>
      </trkpt>
      <trkpt lat="48.57585" lon="-3.15891">
        <ele>301</ele>
        <time>2016-04-03T08:22:57.1Z</time>
      </trkpt>
      <trkpt lat="48.57588" lon="-3.15889">
        <ele>301</ele>
        <time>2016-04-03T08:23:00.1Z</time>
      </trkpt>
      <trkpt lat="48.57591" lon="-3.15886">
        <ele>300</ele>
        <time>2016-04-03T08:23:03.1Z</time>
      </trkpt>
      <trkpt lat="48.57592" lon="-3.15883">
        <ele>300</ele>
        <time>2016-04-03T08:23:05.1Z</time>
      </trkpt>
      <trkpt lat="48.57594" lon="-3.15881">
        <ele>300</ele>
        <time>2016-04-03T08:23:07.1Z</time>
      </trkpt>
      <trkpt lat="48.57597" lon="-3.15878">
        <ele>300</ele>
        <time>2016-04-03T08:23:10.1Z</time>
      </trkpt>
      <trkpt lat="48.576" lon="-3.15876">
        <ele>300</ele>
        <time>2016-04-03T08:23:13.1Z</time>
      </trkpt>
      <trkpt lat="48.57602" lon="-3.15874">
        <ele>300</ele>
        <time>2016-04-03T08:23:15.1Z</time>
      </trkpt>
      <trkpt lat="48.57605" lon="-3.15872">
        <ele>300</ele>
        <time>2016-04-03T08:23:18.1Z</time>
      </trkpt>
      <trkpt lat="48.57607" lon="-3.15871">
        <ele>300</ele>
        <time>2016-04-03T08:23:20.1Z</time>
      </trkpt>
      <trkpt lat="48.5761" lon="-3.15869">
        <ele>300</ele>
        <time>2016-04-03T08:23:23.1Z</time>
      </trkpt>
      <trkpt lat="48.57613" lon="-3.15866">
        <ele>299</ele>
        <time>2016-04-03T08:23:26.1Z</time>
      </trkpt>
      <trkpt lat="48.57614" lon="-3.15866">
        <ele>299</ele>
        <time>2016-04-03T08:23:28.1Z</time>
      </trkpt>
      <trkpt lat="48.57616" lon="-3.15863">
        <ele>299</ele>
        <time>2016-04-03T08:23:31.1Z</time>
      </trkpt>
      <trkpt lat="48.57619" lon="-3.15861">
        <ele>298</ele>
        <time>2016-04-03T08:23:34.1Z</time>
      </trkpt>
      <trkpt lat="48.57621" lon="-3.15861">
        <ele>298</ele>
        <time>2016-04-03T08:23:36.1Z</time>
      </trkpt>
      <trkpt lat="48.57623" lon="-3.1586">
        <ele>298</ele>
        <time>2016-04-03T08:23:38.1Z</time>
      </trkpt>
      <trkpt lat="48.57624" lon="-3.15859">
        <ele>297</ele>
        <time>2016-04-03T08:23:41.1Z</time>
      </trkpt>
      <trkpt lat="48.57628" lon="-3.15858">
        <ele>297</ele>
        <time>2016-04-03T08:23:44.1Z</time>
      </trkpt>
      <trkpt lat="48.57629" lon="-3.15857">
        <ele>297</ele>
        <time>2016-04-03T08:23:47.1Z</time>
      </trkpt>
      <trkpt lat="48.57629" lon="-3.15857">
        <ele>297</ele>
        <time>2016-04-03T08:23:50.1Z</time>
      </trkpt>
      <trkpt lat="48.57631" lon="-3.15855">
        <ele>297</ele>
        <time>2016-04-03T08:23:53.1Z</time>
      </trkpt>
      <trkpt lat="48.57632" lon="-3.15854">
        <ele>296</ele>
        <time>2016-04-03T08:23:55.1Z</time>
      </trkpt>
      <trkpt lat="48.57635" lon="-3.15853">
        <ele>296</ele>
        <time>2016-04-03T08:23:58.1Z</time>
      </trkpt>
      <trkpt lat="48.57638" lon="-3.15853">
        <ele>295</ele>
        <time>2016-04-03T08:24:01.1Z</time>
      </trkpt>
      <trkpt lat="48.57641" lon="-3.15853">
        <ele>295</ele>
        <time>2016-04-03T08:24:04.1Z</time>
      </trkpt>
      <trkpt lat="48.57644" lon="-3.15854">
        <ele>295</ele>
        <time>2016-04-03T08:24:06.1Z</time>
      </trkpt>
      <trkpt lat="48.57648" lon="-3.15855">
        <ele>295</ele>
        <time>2016-04-03T08:24:09.1Z</time>
      </trkpt>
      <trkpt lat="48.5765" lon="-3.15855">
        <ele>295</ele>
        <time>2016-04-03T08:24:11.1Z</time>
      </trkpt>
      <trkpt lat="48.57655" lon="-3.15856">
        <ele>295</ele>
        <time>2016-04-03T08:24:14.1Z</time>
      </trkpt>
      <trkpt lat="48.57657" lon="-3.15857">
        <ele>295</ele>
        <time>2016-04-03T08:24:16.1Z</time>
      </trkpt>
      <trkpt lat="48.5766" lon="-3.15858">
        <ele>295</ele>
        <time>2016-04-03T08:24:18.1Z</time>
      </trkpt>
      <trkpt lat="48.57663" lon="-3.15861">
        <ele>295</ele>
        <time>2016-04-03T08:24:21.1Z</time>
      </trkpt>
      <trkpt lat="48.57665" lon="-3.15863">
        <ele>295</ele>
        <time>2016-04-03T08:24:23.1Z</time>
      </trkpt>
      <trkpt lat="48.57668" lon="-3.15865">
        <ele>295</ele>
        <time>2016-04-03T08:24:26.1Z</time>
      </trkpt>
      <trkpt lat="48.57671" lon="-3.15867">
        <ele>295</ele>
        <time>2016-04-03T08:24:29.1Z</time>
      </trkpt>
      <trkpt lat="48.57674" lon="-3.1587">
        <ele>295</ele>
        <time>2016-04-03T08:24:32.1Z</time>
      </trkpt>
      <trkpt lat="48.57676" lon="-3.15872">
        <ele>295</ele>
        <time>2016-04-03T08:24:35.1Z</time>
      </trkpt>
      <trkpt lat="48.57678" lon="-3.15874">
        <ele>295</ele>
        <time>2016-04-03T08:24:38.1Z</time>
      </trkpt>
      <trkpt lat="48.5768" lon="-3.15876">
        <ele>295</ele>
        <time>2016-04-03T08:24:41.1Z</time>
      </trkpt>
      <trkpt lat="48.57682" lon="-3.15878">
        <ele>295</ele>
        <time>2016-04-03T08:24:43.1Z</time>
      </trkpt>
      <trkpt lat="48.57684" lon="-3.1588">
        <ele>295</ele>
        <time>2016-04-03T08:24:46.1Z</time>
      </trkpt>
      <trkpt lat="48.57685" lon="-3.15882">
        <ele>295</ele>
        <time>2016-04-03T08:24:49.1Z</time>
      </trkpt>
      <trkpt lat="48.57688" lon="-3.15884">
        <ele>295</ele>
        <time>2016-04-03T08:24:52.1Z</time>
      </trkpt>
      <trkpt lat="48.5769" lon="-3.15886">
        <ele>295</ele>
        <time>2016-04-03T08:24:54.1Z</time>
      </trkpt>
      <trkpt lat="48.57692" lon="-3.15888">
        <ele>295</ele>
        <time>2016-04-03T08:24:56.1Z</time>
      </trkpt>
      <trkpt lat="48.57694" lon="-3.1589">
        <ele>295</ele>
        <time>2016-04-03T08:24:59.1Z</time>
      </trkpt>
      <trkpt lat="48.57697" lon="-3.15893">
        <ele>296</ele>
        <time>2016-04-03T08:25:02.1Z</time>
      </trkpt>
      <trkpt lat="48.57699" lon="-3.15894">
        <ele>296</ele>
        <time>2016-04-03T08:25:04.1Z</time>
      </trkpt>
      <trkpt lat="48.57702" lon="-3.15896">
        <ele>295</ele>
        <time>2016-04-03T08:25:07.1Z</time>
      </trkpt>
      <trkpt lat="48.57704" lon="-3.15897">
        <ele>295</ele>
        <time>2016-04-03T08:25:09.1Z</time>
      </trkpt>
      <trkpt lat="48.57708" lon="-3.15898">
        <ele>295</ele>
        <time>2016-04-03T08:25:12.1Z</time>
      </trkpt>
      <trkpt lat="48.57711" lon="-3.159">
        <ele>295</ele>
        <time>2016-04-03T08:25:15.1Z</time>
      </trkpt>
      <trkpt lat="48.57713" lon="-3.15902">
        <ele>296</ele>
        <time>2016-04-03T08:25:17.1Z</time>
      </trkpt>
      <trkpt lat="48.57716" lon="-3.15903">
        <ele>296</ele>
        <time>2016-04-03T08:25:20.1Z</time>
      </trkpt>
      <trkpt lat="48.57717" lon="-3.15903">
        <ele>296</ele>
        <time>2016-04-03T08:25:22.1Z</time>
      </trkpt>
      <trkpt lat="48.5772" lon="-3.15903">
        <ele>296</ele>
        <time>2016-04-03T08:25:25.1Z</time>
      </trkpt>
      <trkpt lat="48.57723" lon="-3.15905">
        <ele>296</ele>
        <time>2016-04-03T08:25:28.1Z</time>
      </trkpt>
      <trkpt lat="48.57724" lon="-3.15905">
        <ele>296</ele>
        <time>2016-04-03T08:25:30.1Z</time>
      </trkpt>
      <trkpt lat="48.57727" lon="-3.15907">
        <ele>296</ele>
        <time>2016-04-03T08:25:33.1Z</time>
      </trkpt>
      <trkpt lat="48.5773" lon="-3.15908">
        <ele>296</ele>
        <time>2016-04-03T08:25:35.1Z</time>
      </trkpt>
      <trkpt lat="48.57732" lon="-3.15908">
        <ele>297</ele>
        <time>2016-04-03T08:25:37.1Z</time>
      </trkpt>
      <trkpt lat="48.57733" lon="-3.15909">
        <ele>297</ele>
        <time>2016-04-03T08:25:40.1Z</time>
      </trkpt>
      <trkpt lat="48.57733" lon="-3.15908">
        <ele>297</ele>
        <time>2016-04-03T08:25:42.1Z</time>
      </trkpt>
      <trkpt lat="48.57735" lon="-3.15908">
        <ele>297</ele>
        <time>2016-04-03T08:25:45.1Z</time>
      </trkpt>
      <trkpt lat="48.57736" lon="-3.1591">
        <ele>297</ele>
        <time>2016-04-03T08:25:48.1Z</time>
      </trkpt>
      <trkpt lat="48.57737" lon="-3.1591">
        <ele>297</ele>
        <time>2016-04-03T08:25:50.1Z</time>
      </trkpt>
      <trkpt lat="48.57739" lon="-3.15911">
        <ele>297</ele>
        <time>2016-04-03T08:25:52.1Z</time>
      </trkpt>
      <trkpt lat="48.57741" lon="-3.15912">
        <ele>297</ele>
        <time>2016-04-03T08:25:55.1Z</time>
      </trkpt>
      <trkpt lat="48.57743" lon="-3.15913">
        <ele>298</ele>
        <time>2016-04-03T08:25:58.1Z</time>
      </trkpt>
      <trkpt lat="48.57745" lon="-3.15914">
        <ele>298</ele>
        <time>2016-04-03T08:26:01.1Z</time>
      </trkpt>
      <trkpt lat="48.57747" lon="-3.15915">
        <ele>298</ele>
        <time>2016-04-03T08:26:03.1Z</time>
      </trkpt>
      <trkpt lat="48.57748" lon="-3.15916">
        <ele>298</ele>
        <time>2016-04-03T08:26:05.1Z</time>
      </trkpt>
      <trkpt lat="48.57751" lon="-3.15918">
        <ele>298</ele>
        <time>2016-04-03T08:26:08.1Z</time>
      </trkpt>
      <trkpt lat="48.57752" lon="-3.15919">
        <ele>298</ele>
        <time>2016-04-03T08:26:10.1Z</time>
      </trkpt>
      <trkpt lat="48.57755" lon="-3.15921">
        <ele>298</ele>
        <time>2016-04-03T08:26:13.1Z</time>
      </trkpt>
      <trkpt lat="48.57758" lon="-3.15923">
        <ele>298</ele>
        <time>2016-04-03T08:26:16.1Z</time>
      </trkpt>
      <trkpt lat="48.57761" lon="-3.15926">
        <ele>298</ele>
        <time>2016-04-03T08:26:19.1Z</time>
      </trkpt>
      <trkpt lat="48.57762" lon="-3.15927">
        <ele>299</ele>
        <time>2016-04-03T08:26:21.1Z</time>
      </trkpt>
      <trkpt lat="48.57765" lon="-3.15929">
        <ele>299</ele>
        <time>2016-04-03T08:26:24.1Z</time>
      </trkpt>
      <trkpt lat="48.57768" lon="-3.15931">
        <ele>300</ele>
        <time>2016-04-03T08:26:27.1Z</time>
      </trkpt>
      <trkpt lat="48.57769" lon="-3.15932">
        <ele>300</ele>
        <time>2016-04-03T08:26:29.1Z</time>
      </trkpt>
      <trkpt lat="48.57772" lon="-3.15933">
        <ele>300</ele>
        <time>2016-04-03T08:26:32.1Z</time>
      </trkpt>
      <trkpt lat="48.57775" lon="-3.15935">
        <ele>300</ele>
        <time>2016-04-03T08:26:35.1Z</time>
      </trkpt>
      <trkpt lat="48.57779" lon="-3.15936">
        <ele>300</ele>
        <time>2016-04-03T08:26:38.1Z</time>
      </trkpt>
      <trkpt lat="48.57781" lon="-3.15937">
        <ele>301</ele>
        <time>2016-04-03T08:26:40.1Z</time>
      </trkpt>
      <trkpt lat="48.57783" lon="-3.15938">
        <ele>300</ele>
        <time>2016-04-03T08:26:43.1Z</time>
      </trkpt>
      <trkpt lat="48.57785" lon="-3.15939">
        <ele>300</ele>
        <time>2016-04-03T08:26:45.1Z</time>
      </trkpt>
      <trkpt lat="48.57788" lon="-3.1594">
        <ele>300</ele>
        <time>2016-04-03T08:26:48.1Z</time>
      </trkpt>
      <trkpt lat="48.5779" lon="-3.15942">
        <ele>301</ele>
        <time>2016-04-03T08:26:50.1Z</time>
      </trkpt>
      <trkpt lat="48.57793" lon="-3.15943">
        <ele>301</ele>
        <time>2016-04-03T08:26:53.1Z</time>
      </trkpt>
      <trkpt lat="48.57795" lon="-3.15944">
        <ele>301</ele>
        <time>2016-04-03T08:26:55.1Z</time>
      </trkpt>
      <trkpt lat="48.57799" lon="-3.15946">
        <ele>300</ele>
        <time>2016-04-03T08:26:58.1Z</time>
      </trkpt>
      <trkpt lat="48.57801" lon="-3.15947">
        <ele>300</ele>
        <time>2016-04-03T08:27:00.1Z</time>
      </trkpt>
      <trkpt lat="48.57804" lon="-3.15948">
        <ele>301</ele>
        <time>2016-04-03T08:27:03.1Z</time>
      </trkpt>
      <trkpt lat="48.57806" lon="-3.15949">
        <ele>301</ele>
        <time>2016-04-03T08:27:06.1Z</time>
      </trkpt>
      <trkpt lat="48.57809" lon="-3.1595">
        <ele>301</ele>
        <time>2016-04-03T08:27:09.1Z</time>
      </trkpt>
      <trkpt lat="48.57811" lon="-3.1595">
        <ele>301</ele>
        <time>2016-04-03T08:27:11.1Z</time>
      </trkpt>
      <trkpt lat="48.57814" lon="-3.15951">
        <ele>301</ele>
        <time>2016-04-03T08:27:13.1Z</time>
      </trkpt>
      <trkpt lat="48.57816" lon="-3.15951">
        <ele>302</ele>
        <time>2016-04-03T08:27:15.1Z</time>
      </trkpt>
      <trkpt lat="48.57818" lon="-3.15951">
        <ele>302</ele>
        <time>2016-04-03T08:27:17.1Z</time>
      </trkpt>
      <trkpt lat="48.5782" lon="-3.15952">
        <ele>302</ele>
        <time>2016-04-03T08:27:19.1Z</time>
      </trkpt>
      <trkpt lat="48.57822" lon="-3.15952">
        <ele>302</ele>
        <time>2016-04-03T08:27:21.1Z</time>
      </trkpt>
      <trkpt lat="48.57825" lon="-3.15952">
        <ele>302</ele>
        <time>2016-04-03T08:27:24.1Z</time>
      </trkpt>
      <trkpt lat="48.57828" lon="-3.15953">
        <ele>302</ele>
        <time>2016-04-03T08:27:27.1Z</time>
      </trkpt>
      <trkpt lat="48.57831" lon="-3.15953">
        <ele>303</ele>
        <time>2016-04-03T08:27:30.1Z</time>
      </trkpt>
      <trkpt lat="48.57832" lon="-3.15952">
        <ele>303</ele>
        <time>2016-04-03T08:27:32.1Z</time>
      </trkpt>
      <trkpt lat="48.57834" lon="-3.15952">
        <ele>303</ele>
        <time>2016-04-03T08:27:35.1Z</time>
      </trkpt>
      <trkpt lat="48.57835" lon="-3.15951">
        <ele>303</ele>
        <time>2016-04-03T08:27:37.1Z</time>
      </trkpt>
      <trkpt lat="48.57837" lon="-3.1595">
        <ele>303</ele>
        <time>2016-04-03T08:27:39.1Z</time>
      </trkpt>
      <trkpt lat="48.57839" lon="-3.15949">
        <ele>303</ele>
        <time>2016-04-03T08:27:42.1Z</time>
      </trkpt>
      <trkpt lat="48.5784" lon="-3.15949">
        <ele>303</ele>
        <time>2016-04-03T08:27:44.1Z</time>
      </trkpt>
      <trkpt lat="48.57842" lon="-3.15947">
        <ele>303</ele>
        <time>2016-04-03T08:27:47.1Z</time>
      </trkpt>
      <trkpt lat="48.57844" lon="-3.15947">
        <ele>303</ele>
        <time>2016-04-03T08:27:50.1Z</time>
      </trkpt>
      <trkpt lat="48.57846" lon="-3.15946">
        <ele>303</ele>
        <time>2016-04-03T08:27:53.1Z</time>
      </trkpt>
      <trkpt lat="48.57846" lon="-3.15945">
        <ele>303</ele>
        <time>2016-04-03T08:27:55.1Z</time>
      </trkpt>
      <trkpt lat="48.57847" lon="-3.15944">
        <ele>304</ele>
        <time>2016-04-03T08:27:57.1Z</time>
      </trkpt>
      <trkpt lat="48.57848" lon="-3.15944">
        <ele>304</ele>
        <time>2016-04-03T08:27:59.1Z</time>
      </trkpt>
      <trkpt lat="48.57849" lon="-3.15943">
        <ele>304</ele>
        <time>2016-04-03T08:28:02.1Z</time>
      </trkpt>
      <trkpt lat="48.57851" lon="-3.15939">
        <ele>304</ele>
        <time>2016-04-03T08:28:05.1Z</time>
      </trkpt>
      <trkpt lat="48.57853" lon="-3.15936">
        <ele>304</ele>
        <time>2016-04-03T08:28:08.1Z</time>
      </trkpt>
      <trkpt lat="48.57853" lon="-3.15936">
        <ele>304</ele>
        <time>2016-04-03T08:28:11.1Z</time>
      </trkpt>
      <trkpt lat="48.57854" lon="-3.15935">
        <ele>304</ele>
        <time>2016-04-03T08:28:14.1Z</time>
      </trkpt>
      <trkpt lat="48.57854" lon="-3.15935">
        <ele>304</ele>
        <time>2016-04-03T08:28:17.1Z</time>
      </trkpt>
      <trkpt lat="48.57855" lon="-3.15934">
        <ele>304</ele>
        <time>2016-04-03T08:28:19.1Z</time>
      </trkpt>
      <trkpt lat="48.57855" lon="-3.15934">
        <ele>304</ele>
        <time>2016-04-03T08:28:22.1Z</time>
      </trkpt>
      <trkpt lat="48.57856" lon="-3.15934">
        <ele>304</ele>
        <time>2016-04-03T08:28:25.1Z</time>
      </trkpt>
      <trkpt lat="48.57857" lon="-3.15934">
        <ele>304</ele>
        <time>2016-04-03T08:28:28.1Z</time>
      </trkpt>
      <trkpt lat="48.57858" lon="-3.15934">
        <ele>304</ele>
        <time>2016-04-03T08:28:30.1Z</time>
      </trkpt>
      <trkpt lat="48.57858" lon="-3.15933">
        <ele>303</ele>
        <time>2016-04-03T08:28:33.1Z</time>
      </trkpt>
      <trkpt lat="48.57859" lon="-3.15932">
        <ele>303</ele>
        <time>2016-04-03T08:28:35.1Z</time>
      </trkpt>
      <trkpt lat="48.57858" lon="-3.15933">
        <ele>303</ele>
        <time>2016-04-03T08:28:38.1Z</time>
      </trkpt>
      <trkpt lat="48.57858" lon="-3.15933">
        <ele>304</ele>
        <time>2016-04-03T08:28:40.1Z</time>
      </trkpt>
      <trkpt lat="48.57858" lon="-3.15934">
        <ele>304</ele>
        <time>2016-04-03T08:28:43.1Z</time>
      </trkpt>
      <trkpt lat="48.57858" lon="-3.15936">
        <ele>304</ele>
        <time>2016-04-03T08:28:45.1Z</time>
      </trkpt>
      <trkpt lat="48.57858" lon="-3.15936">
        <ele>303</ele>
        <time>2016-04-03T08:28:48.1Z</time>
      </trkpt>
      <trkpt lat="48.57858" lon="-3.15935">
        <ele>303</ele>
        <time>2016-04-03T08:28:51.1Z</time>
      </trkpt>
      <trkpt lat="48.57857" lon="-3.15935">
        <ele>304</ele>
        <time>2016-04-03T08:28:54.1Z</time>
      </trkpt>
      <trkpt lat="48.57857" lon="-3.15935">
        <ele>304</ele>
        <time>2016-04-03T08:28:56.1Z</time>
      </trkpt>
      <trkpt lat="48.57858" lon="-3.15934">
        <ele>304</ele>
        <time>2016-04-03T08:28:59.1Z</time>
      </trkpt>
      <trkpt lat="48.57858" lon="-3.15934">
        <ele>304</ele>
        <time>2016-04-03T08:29:02.1Z</time>
      </trkpt>
      <trkpt lat="48.57857" lon="-3.15934">
        <ele>303</ele>
        <time>2016-04-03T08:29:05.1Z</time>
      </trkpt>
      <trkpt lat="48.57857" lon="-3.15934">
        <ele>303</ele>
        <time>2016-04-03T08:29:07.1Z</time>
      </trkpt>
      <trkpt lat="48.57857" lon="-3.15933">
        <ele>304</ele>
        <time>2016-04-03T08:29:10.1Z</time>
      </trkpt>
      <trkpt lat="48.57857" lon="-3.15932">
        <ele>304</ele>
        <time>2016-04-03T08:29:13.1Z</time>
      </trkpt>
      <trkpt lat="48.57857" lon="-3.15931">
        <ele>304</ele>
        <time>2016-04-03T08:29:15.1Z</time>
      </trkpt>
      <trkpt lat="48.57856" lon="-3.15929">
        <ele>304</ele>
        <time>2016-04-03T08:29:18.1Z</time>
      </trkpt>
      <trkpt lat="48.57856" lon="-3.15929">
        <ele>304</ele>
        <time>2016-04-03T08:29:20.1Z</time>
      </trkpt>
      <trkpt lat="48.57856" lon="-3.15929">
        <ele>304</ele>
        <time>2016-04-03T08:29:22.1Z</time>
      </trkpt>
      <trkpt lat="48.57857" lon="-3.15929">
        <ele>304</ele>
        <time>2016-04-03T08:29:26.1Z</time>
      </trkpt>
      <trkpt lat="48.57856" lon="-3.15929">
        <ele>304</ele>
        <time>2016-04-03T08:29:29.1Z</time>
      </trkpt>
      <trkpt lat="48.57856" lon="-3.1593">
        <ele>304</ele>
        <time>2016-04-03T08:29:31.1Z</time>
      </trkpt>
      <trkpt lat="48.57855" lon="-3.1593">
        <ele>304</ele>
        <time>2016-04-03T08:29:34.1Z</time>
      </trkpt>
      <trkpt lat="48.57855" lon="-3.15931">
        <ele>304</ele>
        <time>2016-04-03T08:29:36.1Z</time>
      </trkpt>
      <trkpt lat="48.57854" lon="-3.15931">
        <ele>304</ele>
        <time>2016-04-03T08:29:38.1Z</time>
      </trkpt>
      <trkpt lat="48.57853" lon="-3.15932">
        <ele>304</ele>
        <time>2016-04-03T08:29:42.1Z</time>
      </trkpt>
      <trkpt lat="48.57853" lon="-3.15932">
        <ele>304</ele>
        <time>2016-04-03T08:29:45.1Z</time>
      </trkpt>
      <trkpt lat="48.57853" lon="-3.15932">
        <ele>304</ele>
        <time>2016-04-03T08:29:48.1Z</time>
      </trkpt>
      <trkpt lat="48.57852" lon="-3.15933">
        <ele>304</ele>
        <time>2016-04-03T08:29:50.1Z</time>
      </trkpt>
      <trkpt lat="48.57852" lon="-3.15933">
        <ele>304</ele>
        <time>2016-04-03T08:29:52.1Z</time>
      </trkpt>
      <trkpt lat="48.57852" lon="-3.15933">
        <ele>304</ele>
        <time>2016-04-03T08:29:55.1Z</time>
      </trkpt>
      <trkpt lat="48.57852" lon="-3.15933">
        <ele>304</ele>
        <time>2016-04-03T08:29:57.1Z</time>
      </trkpt>
      <trkpt lat="48.57852" lon="-3.15933">
        <ele>304</ele>
        <time>2016-04-03T08:30:00.1Z</time>
      </trkpt>
      <trkpt lat="48.57852" lon="-3.15934">
        <ele>304</ele>
        <time>2016-04-03T08:30:03.1Z</time>
      </trkpt>
      <trkpt lat="48.57853" lon="-3.15934">
        <ele>304</ele>
        <time>2016-04-03T08:30:05.1Z</time>
      </trkpt>
      <trkpt lat="48.57853" lon="-3.15933">
        <ele>304</ele>
        <time>2016-04-03T08:30:08.1Z</time>
      </trkpt>
      <trkpt lat="48.57853" lon="-3.15932">
        <ele>303</ele>
        <time>2016-04-03T08:30:11.1Z</time>
      </trkpt>
      <trkpt lat="48.57853" lon="-3.15931">
        <ele>303</ele>
        <time>2016-04-03T08:30:14.1Z</time>
      </trkpt>
      <trkpt lat="48.57853" lon="-3.15932">
        <ele>304</ele>
        <time>2016-04-03T08:30:17.1Z</time>
      </trkpt>
      <trkpt lat="48.57853" lon="-3.15932">
        <ele>304</ele>
        <time>2016-04-03T08:30:20.1Z</time>
      </trkpt>
      <trkpt lat="48.57854" lon="-3.15933">
        <ele>304</ele>
        <time>2016-04-03T08:30:23.1Z</time>
      </trkpt>
      <trkpt lat="48.57853" lon="-3.15933">
        <ele>304</ele>
        <time>2016-04-03T08:30:27.1Z</time>
      </trkpt>
      <trkpt lat="48.57854" lon="-3.15933">
        <ele>304</ele>
        <time>2016-04-03T08:30:29.1Z</time>
      </trkpt>
      <trkpt lat="48.57854" lon="-3.15934">
        <ele>304</ele>
        <time>2016-04-03T08:30:32.1Z</time>
      </trkpt>
      <trkpt lat="48.57854" lon="-3.15935">
        <ele>304</ele>
        <time>2016-04-03T08:30:35.1Z</time>
      </trkpt>
      <trkpt lat="48.57854" lon="-3.15934">
        <ele>304</ele>
        <time>2016-04-03T08:30:38.1Z</time>
      </trkpt>
      <trkpt lat="48.57854" lon="-3.15935">
        <ele>304</ele>
        <time>2016-04-03T08:30:41.1Z</time>
      </trkpt>
      <trkpt lat="48.57854" lon="-3.15935">
        <ele>304</ele>
        <time>2016-04-03T08:30:43.1Z</time>
      </trkpt>
      <trkpt lat="48.57853" lon="-3.15935">
        <ele>304</ele>
        <time>2016-04-03T08:30:46.1Z</time>
      </trkpt>
      <trkpt lat="48.57853" lon="-3.15934">
        <ele>304</ele>
        <time>2016-04-03T08:30:48.1Z</time>
      </trkpt>
      <trkpt lat="48.57854" lon="-3.15934">
        <ele>304</ele>
        <time>2016-04-03T08:30:51.1Z</time>
      </trkpt>
      <trkpt lat="48.57854" lon="-3.15934">
        <ele>304</ele>
        <time>2016-04-03T08:30:53.1Z</time>
      </trkpt>
      <trkpt lat="48.57854" lon="-3.15934">
        <ele>304</ele>
        <time>2016-04-03T08:30:55.1Z</time>
      </trkpt>
      <trkpt lat="48.57853" lon="-3.15934">
        <ele>304</ele>
        <time>2016-04-03T08:30:58.1Z</time>
      </trkpt>
      <trkpt lat="48.57853" lon="-3.15933">
        <ele>304</ele>
        <time>2016-04-03T08:31:01.1Z</time>
      </trkpt>
      <trkpt lat="48.57853" lon="-3.15932">
        <ele>304</ele>
        <time>2016-04-03T08:31:03.1Z</time>
      </trkpt>
      <trkpt lat="48.57852" lon="-3.15933">
        <ele>304</ele>
        <time>2016-04-03T08:31:06.1Z</time>
      </trkpt>
      <trkpt lat="48.57851" lon="-3.15934">
        <ele>304</ele>
        <time>2016-04-03T08:31:08.1Z</time>
      </trkpt>
      <trkpt lat="48.57851" lon="-3.15935">
        <ele>304</ele>
        <time>2016-04-03T08:31:11.1Z</time>
      </trkpt>
      <trkpt lat="48.57851" lon="-3.15936">
        <ele>304</ele>
        <time>2016-04-03T08:31:14.1Z</time>
      </trkpt>
      <trkpt lat="48.5785" lon="-3.15936">
        <ele>304</ele>
        <time>2016-04-03T08:31:16.1Z</time>
      </trkpt>
      <trkpt lat="48.57849" lon="-3.15936">
        <ele>304</ele>
        <time>2016-04-03T08:31:19.1Z</time>
      </trkpt>
      <trkpt lat="48.57849" lon="-3.15936">
        <ele>304</ele>
        <time>2016-04-03T08:31:21.1Z</time>
      </trkpt>
      <trkpt lat="48.57849" lon="-3.15936">
        <ele>304</ele>
        <time>2016-04-03T08:31:23.1Z</time>
      </trkpt>
      <trkpt lat="48.57849" lon="-3.15936">
        <ele>304</ele>
        <time>2016-04-03T08:31:26.1Z</time>
      </trkpt>
      <trkpt lat="48.5785" lon="-3.15938">
        <ele>304</ele>
        <time>2016-04-03T08:31:29.1Z</time>
      </trkpt>
      <trkpt lat="48.57851" lon="-3.15939">
        <ele>304</ele>
        <time>2016-04-03T08:31:32.1Z</time>
      </trkpt>
      <trkpt lat="48.57851" lon="-3.15939">
        <ele>304</ele>
        <time>2016-04-03T08:31:34.1Z</time>
      </trkpt>
      <trkpt lat="48.57851" lon="-3.1594">
        <ele>304</ele>
        <time>2016-04-03T08:31:37.1Z</time>
      </trkpt>
      <trkpt lat="48.57851" lon="-3.1594">
        <ele>304</ele>
        <time>2016-04-03T08:31:39.1Z</time>
      </trkpt>
      <trkpt lat="48.57852" lon="-3.1594">
        <ele>304</ele>
        <time>2016-04-03T08:31:42.1Z</time>
      </trkpt>
      <trkpt lat="48.57853" lon="-3.1594">
        <ele>304</ele>
        <time>2016-04-03T08:31:45.1Z</time>
      </trkpt>
      <trkpt lat="48.57853" lon="-3.15936">
        <ele>304</ele>
        <time>2016-04-03T08:31:48.1Z</time>
      </trkpt>
      <trkpt lat="48.57853" lon="-3.15935">
        <ele>304</ele>
        <time>2016-04-03T08:31:51.1Z</time>
      </trkpt>
      <trkpt lat="48.57855" lon="-3.15935">
        <ele>304</ele>
        <time>2016-04-03T08:31:54.1Z</time>
      </trkpt>
      <trkpt lat="48.57855" lon="-3.15934">
        <ele>304</ele>
        <time>2016-04-03T08:31:57.1Z</time>
      </trkpt>
      <trkpt lat="48.57855" lon="-3.15933">
        <ele>304</ele>
        <time>2016-04-03T08:31:59.1Z</time>
      </trkpt>
      <trkpt lat="48.57854" lon="-3.15933">
        <ele>304</ele>
        <time>2016-04-03T08:32:02.1Z</time>
      </trkpt>
      <trkpt lat="48.57854" lon="-3.15933">
        <ele>304</ele>
        <time>2016-04-03T08:32:04.1Z</time>
      </trkpt>
      <trkpt lat="48.57854" lon="-3.15932">
        <ele>304</ele>
        <time>2016-04-03T08:32:06.1Z</time>
      </trkpt>
      <trkpt lat="48.57854" lon="-3.15932">
        <ele>304</ele>
        <time>2016-04-03T08:32:09.1Z</time>
      </trkpt>
      <trkpt lat="48.57854" lon="-3.15931">
        <ele>304</ele>
        <time>2016-04-03T08:32:12.1Z</time>
      </trkpt>
      <trkpt lat="48.57853" lon="-3.15931">
        <ele>304</ele>
        <time>2016-04-03T08:32:15.1Z</time>
      </trkpt>
      <trkpt lat="48.57853" lon="-3.1593">
        <ele>304</ele>
        <time>2016-04-03T08:32:18.1Z</time>
      </trkpt>
      <trkpt lat="48.57853" lon="-3.15929">
        <ele>304</ele>
        <time>2016-04-03T08:32:20.1Z</time>
      </trkpt>
      <trkpt lat="48.57851" lon="-3.1593">
        <ele>304</ele>
        <time>2016-04-03T08:32:22.1Z</time>
      </trkpt>
      <trkpt lat="48.57851" lon="-3.15931">
        <ele>304</ele>
        <time>2016-04-03T08:32:24.1Z</time>
      </trkpt>
      <trkpt lat="48.57851" lon="-3.1593">
        <ele>304</ele>
        <time>2016-04-03T08:32:27.1Z</time>
      </trkpt>
      <trkpt lat="48.57852" lon="-3.1593">
        <ele>304</ele>
        <time>2016-04-03T08:32:29.1Z</time>
      </trkpt>
      <trkpt lat="48.57852" lon="-3.15929">
        <ele>304</ele>
        <time>2016-04-03T08:32:32.1Z</time>
      </trkpt>
      <trkpt lat="48.57852" lon="-3.15928">
        <ele>304</ele>
        <time>2016-04-03T08:32:35.1Z</time>
      </trkpt>
      <trkpt lat="48.57852" lon="-3.15927">
        <ele>305</ele>
        <time>2016-04-03T08:32:37.1Z</time>
      </trkpt>
      <trkpt lat="48.57852" lon="-3.15927">
        <ele>305</ele>
        <time>2016-04-03T08:32:40.1Z</time>
      </trkpt>
      <trkpt lat="48.57852" lon="-3.15928">
        <ele>305</ele>
        <time>2016-04-03T08:32:44.1Z</time>
      </trkpt>
      <trkpt lat="48.57852" lon="-3.15928">
        <ele>305</ele>
        <time>2016-04-03T08:32:46.1Z</time>
      </trkpt>
      <trkpt lat="48.57853" lon="-3.15929">
        <ele>305</ele>
        <time>2016-04-03T08:32:49.1Z</time>
      </trkpt>
      <trkpt lat="48.57853" lon="-3.15929">
        <ele>304</ele>
        <time>2016-04-03T08:32:51.1Z</time>
      </trkpt>
      <trkpt lat="48.57853" lon="-3.15928">
        <ele>304</ele>
        <time>2016-04-03T08:32:54.1Z</time>
      </trkpt>
      <trkpt lat="48.57853" lon="-3.15928">
        <ele>304</ele>
        <time>2016-04-03T08:32:57.1Z</time>
      </trkpt>
      <trkpt lat="48.57853" lon="-3.15928">
        <ele>304</ele>
        <time>2016-04-03T08:33:00.1Z</time>
      </trkpt>
      <trkpt lat="48.57852" lon="-3.15928">
        <ele>304</ele>
        <time>2016-04-03T08:33:03.1Z</time>
      </trkpt>
      <trkpt lat="48.57852" lon="-3.15928">
        <ele>305</ele>
        <time>2016-04-03T08:33:05.1Z</time>
      </trkpt>
      <trkpt lat="48.57852" lon="-3.15927">
        <ele>305</ele>
        <time>2016-04-03T08:33:07.1Z</time>
      </trkpt>
      <trkpt lat="48.57852" lon="-3.15927">
        <ele>304</ele>
        <time>2016-04-03T08:33:10.1Z</time>
      </trkpt>
      <trkpt lat="48.57851" lon="-3.15927">
        <ele>305</ele>
        <time>2016-04-03T08:33:13.1Z</time>
      </trkpt>
      <trkpt lat="48.57851" lon="-3.15926">
        <ele>304</ele>
        <time>2016-04-03T08:33:16.1Z</time>
      </trkpt>
      <trkpt lat="48.57851" lon="-3.15926">
        <ele>305</ele>
        <time>2016-04-03T08:33:18.1Z</time>
      </trkpt>
      <trkpt lat="48.5785" lon="-3.15926">
        <ele>304</ele>
        <time>2016-04-03T08:33:21.1Z</time>
      </trkpt>
      <trkpt lat="48.5785" lon="-3.15926">
        <ele>304</ele>
        <time>2016-04-03T08:33:23.1Z</time>
      </trkpt>
      <trkpt lat="48.57849" lon="-3.15927">
        <ele>304</ele>
        <time>2016-04-03T08:33:25.1Z</time>
      </trkpt>
      <trkpt lat="48.57848" lon="-3.15929">
        <ele>304</ele>
        <time>2016-04-03T08:33:28.1Z</time>
      </trkpt>
      <trkpt lat="48.57848" lon="-3.1593">
        <ele>304</ele>
        <time>2016-04-03T08:33:31.1Z</time>
      </trkpt>
      <trkpt lat="48.57847" lon="-3.1593">
        <ele>304</ele>
        <time>2016-04-03T08:33:34.1Z</time>
      </trkpt>
      <trkpt lat="48.57847" lon="-3.1593">
        <ele>305</ele>
        <time>2016-04-03T08:33:36.1Z</time>
      </trkpt>
      <trkpt lat="48.57846" lon="-3.15931">
        <ele>304</ele>
        <time>2016-04-03T08:33:39.1Z</time>
      </trkpt>
      <trkpt lat="48.57846" lon="-3.15932">
        <ele>305</ele>
        <time>2016-04-03T08:33:41.1Z</time>
      </trkpt>
      <trkpt lat="48.57846" lon="-3.15934">
        <ele>305</ele>
        <time>2016-04-03T08:33:44.1Z</time>
      </trkpt>
      <trkpt lat="48.57846" lon="-3.15935">
        <ele>304</ele>
        <time>2016-04-03T08:33:47.1Z</time>
      </trkpt>
      <trkpt lat="48.57846" lon="-3.15936">
        <ele>304</ele>
        <time>2016-04-03T08:33:50.1Z</time>
      </trkpt>
      <trkpt lat="48.57846" lon="-3.15937">
        <ele>304</ele>
        <time>2016-04-03T08:33:53.1Z</time>
      </trkpt>
      <trkpt lat="48.57846" lon="-3.15937">
        <ele>304</ele>
        <time>2016-04-03T08:33:56.1Z</time>
      </trkpt>
      <trkpt lat="48.57846" lon="-3.15937">
        <ele>304</ele>
        <time>2016-04-03T08:34:00.1Z</time>
      </trkpt>
      <trkpt lat="48.57846" lon="-3.15938">
        <ele>305</ele>
        <time>2016-04-03T08:34:03.1Z</time>
      </trkpt>
      <trkpt lat="48.57846" lon="-3.15939">
        <ele>305</ele>
        <time>2016-04-03T08:34:06.1Z</time>
      </trkpt>
      <trkpt lat="48.57846" lon="-3.15939">
        <ele>305</ele>
        <time>2016-04-03T08:34:08.1Z</time>
      </trkpt>
      <trkpt lat="48.57846" lon="-3.15939">
        <ele>304</ele>
        <time>2016-04-03T08:34:13.1Z</time>
      </trkpt>
      <trkpt lat="48.57846" lon="-3.1594">
        <ele>305</ele>
        <time>2016-04-03T08:34:16.1Z</time>
      </trkpt>
      <trkpt lat="48.57846" lon="-3.1594">
        <ele>305</ele>
        <time>2016-04-03T08:34:18.1Z</time>
      </trkpt>
      <trkpt lat="48.57846" lon="-3.1594">
        <ele>305</ele>
        <time>2016-04-03T08:34:21.1Z</time>
      </trkpt>
      <trkpt lat="48.57846" lon="-3.15939">
        <ele>305</ele>
        <time>2016-04-03T08:34:23.1Z</time>
      </trkpt>
      <trkpt lat="48.57846" lon="-3.15939">
        <ele>305</ele>
        <time>2016-04-03T08:34:26.1Z</time>
      </trkpt>
      <trkpt lat="48.57847" lon="-3.15939">
        <ele>305</ele>
        <time>2016-04-03T08:34:28.1Z</time>
      </trkpt>
      <trkpt lat="48.57847" lon="-3.15937">
        <ele>305</ele>
        <time>2016-04-03T08:34:30.1Z</time>
      </trkpt>
      <trkpt lat="48.57847" lon="-3.15934">
        <ele>306</ele>
        <time>2016-04-03T08:34:33.1Z</time>
      </trkpt>
      <trkpt lat="48.57848" lon="-3.1593">
        <ele>306</ele>
        <time>2016-04-03T08:34:36.1Z</time>
      </trkpt>
      <trkpt lat="48.57849" lon="-3.15928">
        <ele>306</ele>
        <time>2016-04-03T08:34:39.1Z</time>
      </trkpt>
      <trkpt lat="48.5785" lon="-3.15927">
        <ele>306</ele>
        <time>2016-04-03T08:34:42.1Z</time>
      </trkpt>
      <trkpt lat="48.57851" lon="-3.15926">
        <ele>307</ele>
        <time>2016-04-03T08:34:45.1Z</time>
      </trkpt>
      <trkpt lat="48.57852" lon="-3.15928">
        <ele>307</ele>
        <time>2016-04-03T08:34:48.1Z</time>
      </trkpt>
      <trkpt lat="48.57851" lon="-3.15929">
        <ele>306</ele>
        <time>2016-04-03T08:34:51.1Z</time>
      </trkpt>
      <trkpt lat="48.57851" lon="-3.15929">
        <ele>306</ele>
        <time>2016-04-03T08:34:53.1Z</time>
      </trkpt>
      <trkpt lat="48.5785" lon="-3.15931">
        <ele>305</ele>
        <time>2016-04-03T08:34:56.1Z</time>
      </trkpt>
      <trkpt lat="48.5785" lon="-3.15931">
        <ele>305</ele>
        <time>2016-04-03T08:34:58.1Z</time>
      </trkpt>
      <trkpt lat="48.57851" lon="-3.1593">
        <ele>305</ele>
        <time>2016-04-03T08:35:02.1Z</time>
      </trkpt>
      <trkpt lat="48.57851" lon="-3.15927">
        <ele>306</ele>
        <time>2016-04-03T08:35:05.1Z</time>
      </trkpt>
      <trkpt lat="48.57852" lon="-3.15926">
        <ele>306</ele>
        <time>2016-04-03T08:35:08.1Z</time>
      </trkpt>
      <trkpt lat="48.57853" lon="-3.15925">
        <ele>306</ele>
        <time>2016-04-03T08:35:10.1Z</time>
      </trkpt>
      <trkpt lat="48.57855" lon="-3.1592">
        <ele>306</ele>
        <time>2016-04-03T08:35:13.1Z</time>
      </trkpt>
      <trkpt lat="48.57857" lon="-3.15918">
        <ele>306</ele>
        <time>2016-04-03T08:35:15.1Z</time>
      </trkpt>
      <trkpt lat="48.57859" lon="-3.15915">
        <ele>306</ele>
        <time>2016-04-03T08:35:17.1Z</time>
      </trkpt>
      <trkpt lat="48.5786" lon="-3.15914">
        <ele>306</ele>
        <time>2016-04-03T08:35:19.1Z</time>
      </trkpt>
      <trkpt lat="48.57861" lon="-3.15909">
        <ele>306</ele>
        <time>2016-04-03T08:35:22.1Z</time>
      </trkpt>
      <trkpt lat="48.57861" lon="-3.15906">
        <ele>306</ele>
        <time>2016-04-03T08:35:24.1Z</time>
      </trkpt>
      <trkpt lat="48.57863" lon="-3.15902">
        <ele>307</ele>
        <time>2016-04-03T08:35:27.1Z</time>
      </trkpt>
      <trkpt lat="48.57864" lon="-3.15901">
        <ele>307</ele>
        <time>2016-04-03T08:35:30.1Z</time>
      </trkpt>
      <trkpt lat="48.57865" lon="-3.159">
        <ele>307</ele>
        <time>2016-04-03T08:35:33.1Z</time>
      </trkpt>
      <trkpt lat="48.57865" lon="-3.15901">
        <ele>307</ele>
        <time>2016-04-03T08:35:36.1Z</time>
      </trkpt>
      <trkpt lat="48.57867" lon="-3.15902">
        <ele>307</ele>
        <time>2016-04-03T08:35:39.1Z</time>
      </trkpt>
      <trkpt lat="48.5787" lon="-3.15902">
        <ele>307</ele>
        <time>2016-04-03T08:35:41.1Z</time>
      </trkpt>
      <trkpt lat="48.57873" lon="-3.15902">
        <ele>306</ele>
        <time>2016-04-03T08:35:44.1Z</time>
      </trkpt>
      <trkpt lat="48.57877" lon="-3.15902">
        <ele>306</ele>
        <time>2016-04-03T08:35:47.1Z</time>
      </trkpt>
      <trkpt lat="48.57878" lon="-3.15901">
        <ele>306</ele>
        <time>2016-04-03T08:35:49.1Z</time>
      </trkpt>
      <trkpt lat="48.57881" lon="-3.159">
        <ele>306</ele>
        <time>2016-04-03T08:35:51.1Z</time>
      </trkpt>
      <trkpt lat="48.57884" lon="-3.159">
        <ele>307</ele>
        <time>2016-04-03T08:35:54.1Z</time>
      </trkpt>
      <trkpt lat="48.57886" lon="-3.159">
        <ele>307</ele>
        <time>2016-04-03T08:35:56.1Z</time>
      </trkpt>
      <trkpt lat="48.57889" lon="-3.15899">
        <ele>307</ele>
        <time>2016-04-03T08:35:59.1Z</time>
      </trkpt>
      <trkpt lat="48.57891" lon="-3.159">
        <ele>307</ele>
        <time>2016-04-03T08:36:01.1Z</time>
      </trkpt>
      <trkpt lat="48.57894" lon="-3.159">
        <ele>307</ele>
        <time>2016-04-03T08:36:04.1Z</time>
      </trkpt>
      <trkpt lat="48.57896" lon="-3.159">
        <ele>307</ele>
        <time>2016-04-03T08:36:06.1Z</time>
      </trkpt>
      <trkpt lat="48.57899" lon="-3.159">
        <ele>307</ele>
        <time>2016-04-03T08:36:09.1Z</time>
      </trkpt>
      <trkpt lat="48.579" lon="-3.159">
        <ele>307</ele>
        <time>2016-04-03T08:36:11.1Z</time>
      </trkpt>
      <trkpt lat="48.57902" lon="-3.15901">
        <ele>307</ele>
        <time>2016-04-03T08:36:14.1Z</time>
      </trkpt>
      <trkpt lat="48.57904" lon="-3.15902">
        <ele>307</ele>
        <time>2016-04-03T08:36:16.1Z</time>
      </trkpt>
      <trkpt lat="48.57906" lon="-3.15902">
        <ele>307</ele>
        <time>2016-04-03T08:36:18.1Z</time>
      </trkpt>
      <trkpt lat="48.57907" lon="-3.15902">
        <ele>307</ele>
        <time>2016-04-03T08:36:20.1Z</time>
      </trkpt>
      <trkpt lat="48.5791" lon="-3.15903">
        <ele>307</ele>
        <time>2016-04-03T08:36:23.1Z</time>
      </trkpt>
      <trkpt lat="48.57914" lon="-3.15903">
        <ele>307</ele>
        <time>2016-04-03T08:36:26.1Z</time>
      </trkpt>
      <trkpt lat="48.57917" lon="-3.15904">
        <ele>307</ele>
        <time>2016-04-03T08:36:29.1Z</time>
      </trkpt>
      <trkpt lat="48.57919" lon="-3.15904">
        <ele>307</ele>
        <time>2016-04-03T08:36:31.1Z</time>
      </trkpt>
      <trkpt lat="48.57922" lon="-3.15904">
        <ele>307</ele>
        <time>2016-04-03T08:36:34.1Z</time>
      </trkpt>
      <trkpt lat="48.57924" lon="-3.15905">
        <ele>307</ele>
        <time>2016-04-03T08:36:36.1Z</time>
      </trkpt>
      <trkpt lat="48.57927" lon="-3.15905">
        <ele>307</ele>
        <time>2016-04-03T08:36:39.1Z</time>
      </trkpt>
      <trkpt lat="48.57929" lon="-3.15905">
        <ele>307</ele>
        <time>2016-04-03T08:36:41.1Z</time>
      </trkpt>
      <trkpt lat="48.57932" lon="-3.15905">
        <ele>307</ele>
        <time>2016-04-03T08:36:44.1Z</time>
      </trkpt>
      <trkpt lat="48.57934" lon="-3.15905">
        <ele>307</ele>
        <time>2016-04-03T08:36:46.1Z</time>
      </trkpt>
      <trkpt lat="48.57937" lon="-3.15907">
        <ele>307</ele>
        <time>2016-04-03T08:36:49.1Z</time>
      </trkpt>
      <trkpt lat="48.57939" lon="-3.15908">
        <ele>307</ele>
        <time>2016-04-03T08:36:51.1Z</time>
      </trkpt>
      <trkpt lat="48.57941" lon="-3.15907">
        <ele>307</ele>
        <time>2016-04-03T08:36:54.1Z</time>
      </trkpt>
      <trkpt lat="48.57943" lon="-3.15908">
        <ele>307</ele>
        <time>2016-04-03T08:36:56.1Z</time>
      </trkpt>
      <trkpt lat="48.57944" lon="-3.15907">
        <ele>307</ele>
        <time>2016-04-03T08:36:58.1Z</time>
      </trkpt>
      <trkpt lat="48.57946" lon="-3.15907">
        <ele>307</ele>
        <time>2016-04-03T08:37:01.1Z</time>
      </trkpt>
      <trkpt lat="48.57949" lon="-3.15907">
        <ele>307</ele>
        <time>2016-04-03T08:37:03.1Z</time>
      </trkpt>
      <trkpt lat="48.57952" lon="-3.15908">
        <ele>307</ele>
        <time>2016-04-03T08:37:06.1Z</time>
      </trkpt>
      <trkpt lat="48.57955" lon="-3.15908">
        <ele>307</ele>
        <time>2016-04-03T08:37:09.1Z</time>
      </trkpt>
      <trkpt lat="48.57957" lon="-3.15908">
        <ele>306</ele>
        <time>2016-04-03T08:37:11.1Z</time>
      </trkpt>
      <trkpt lat="48.5796" lon="-3.15909">
        <ele>306</ele>
        <time>2016-04-03T08:37:14.1Z</time>
      </trkpt>
      <trkpt lat="48.57962" lon="-3.15909">
        <ele>306</ele>
        <time>2016-04-03T08:37:16.1Z</time>
      </trkpt>
      <trkpt lat="48.57964" lon="-3.15909">
        <ele>306</ele>
        <time>2016-04-03T08:37:18.1Z</time>
      </trkpt>
      <trkpt lat="48.57968" lon="-3.15909">
        <ele>306</ele>
        <time>2016-04-03T08:37:21.1Z</time>
      </trkpt>
      <trkpt lat="48.57971" lon="-3.15909">
        <ele>306</ele>
        <time>2016-04-03T08:37:23.1Z</time>
      </trkpt>
      <trkpt lat="48.57973" lon="-3.15909">
        <ele>306</ele>
        <time>2016-04-03T08:37:25.1Z</time>
      </trkpt>
      <trkpt lat="48.57977" lon="-3.1591">
        <ele>306</ele>
        <time>2016-04-03T08:37:28.1Z</time>
      </trkpt>
      <trkpt lat="48.57978" lon="-3.15911">
        <ele>306</ele>
        <time>2016-04-03T08:37:30.1Z</time>
      </trkpt>
      <trkpt lat="48.57981" lon="-3.15911">
        <ele>306</ele>
        <time>2016-04-03T08:37:32.1Z</time>
      </trkpt>
      <trkpt lat="48.57985" lon="-3.15911">
        <ele>306</ele>
        <time>2016-04-03T08:37:35.1Z</time>
      </trkpt>
      <trkpt lat="48.57987" lon="-3.15911">
        <ele>306</ele>
        <time>2016-04-03T08:37:37.1Z</time>
      </trkpt>
      <trkpt lat="48.57991" lon="-3.1591">
        <ele>306</ele>
        <time>2016-04-03T08:37:40.1Z</time>
      </trkpt>
      <trkpt lat="48.57993" lon="-3.1591">
        <ele>306</ele>
        <time>2016-04-03T08:37:42.1Z</time>
      </trkpt>
      <trkpt lat="48.57997" lon="-3.1591">
        <ele>306</ele>
        <time>2016-04-03T08:37:45.1Z</time>
      </trkpt>
      <trkpt lat="48.57999" lon="-3.1591">
        <ele>306</ele>
        <time>2016-04-03T08:37:48.1Z</time>
      </trkpt>
      <trkpt lat="48.58003" lon="-3.15911">
        <ele>305</ele>
        <time>2016-04-03T08:37:51.1Z</time>
      </trkpt>
      <trkpt lat="48.58005" lon="-3.15911">
        <ele>305</ele>
        <time>2016-04-03T08:37:53.1Z</time>
      </trkpt>
      <trkpt lat="48.58009" lon="-3.15912">
        <ele>305</ele>
        <time>2016-04-03T08:37:56.1Z</time>
      </trkpt>
      <trkpt lat="48.58011" lon="-3.15913">
        <ele>305</ele>
        <time>2016-04-03T08:37:58.1Z</time>
      </trkpt>
      <trkpt lat="48.58014" lon="-3.15914">
        <ele>305</ele>
        <time>2016-04-03T08:38:00.1Z</time>
      </trkpt>
      <trkpt lat="48.58016" lon="-3.15914">
        <ele>305</ele>
        <time>2016-04-03T08:38:02.1Z</time>
      </trkpt>
      <trkpt lat="48.58019" lon="-3.15915">
        <ele>305</ele>
        <time>2016-04-03T08:38:05.1Z</time>
      </trkpt>
      <trkpt lat="48.5802" lon="-3.15915">
        <ele>305</ele>
        <time>2016-04-03T08:38:07.1Z</time>
      </trkpt>
      <trkpt lat="48.58024" lon="-3.15916">
        <ele>305</ele>
        <time>2016-04-03T08:38:10.1Z</time>
      </trkpt>
      <trkpt lat="48.58025" lon="-3.15916">
        <ele>305</ele>
        <time>2016-04-03T08:38:12.1Z</time>
      </trkpt>
      <trkpt lat="48.58027" lon="-3.15916">
        <ele>305</ele>
        <time>2016-04-03T08:38:14.1Z</time>
      </trkpt>
      <trkpt lat="48.58031" lon="-3.15916">
        <ele>305</ele>
        <time>2016-04-03T08:38:17.1Z</time>
      </trkpt>
      <trkpt lat="48.58033" lon="-3.15917">
        <ele>305</ele>
        <time>2016-04-03T08:38:19.1Z</time>
      </trkpt>
      <trkpt lat="48.58036" lon="-3.15918">
        <ele>305</ele>
        <time>2016-04-03T08:38:22.1Z</time>
      </trkpt>
      <trkpt lat="48.58038" lon="-3.15919">
        <ele>305</ele>
        <time>2016-04-03T08:38:24.1Z</time>
      </trkpt>
      <trkpt lat="48.5804" lon="-3.15921">
        <ele>305</ele>
        <time>2016-04-03T08:38:26.1Z</time>
      </trkpt>
      <trkpt lat="48.58044" lon="-3.15923">
        <ele>305</ele>
        <time>2016-04-03T08:38:29.1Z</time>
      </trkpt>
      <trkpt lat="48.58046" lon="-3.15925">
        <ele>305</ele>
        <time>2016-04-03T08:38:31.1Z</time>
      </trkpt>
      <trkpt lat="48.58048" lon="-3.15928">
        <ele>305</ele>
        <time>2016-04-03T08:38:34.1Z</time>
      </trkpt>
      <trkpt lat="48.58049" lon="-3.1593">
        <ele>306</ele>
        <time>2016-04-03T08:38:36.1Z</time>
      </trkpt>
      <trkpt lat="48.58051" lon="-3.15931">
        <ele>306</ele>
        <time>2016-04-03T08:38:39.1Z</time>
      </trkpt>
      <trkpt lat="48.58052" lon="-3.15932">
        <ele>306</ele>
        <time>2016-04-03T08:38:41.1Z</time>
      </trkpt>
      <trkpt lat="48.58052" lon="-3.15933">
        <ele>306</ele>
        <time>2016-04-03T08:38:43.1Z</time>
      </trkpt>
      <trkpt lat="48.58054" lon="-3.15933">
        <ele>305</ele>
        <time>2016-04-03T08:38:46.1Z</time>
      </trkpt>
      <trkpt lat="48.58054" lon="-3.15934">
        <ele>305</ele>
        <time>2016-04-03T08:38:48.1Z</time>
      </trkpt>
      <trkpt lat="48.58056" lon="-3.15938">
        <ele>305</ele>
        <time>2016-04-03T08:38:51.1Z</time>
      </trkpt>
      <trkpt lat="48.58058" lon="-3.15943">
        <ele>305</ele>
        <time>2016-04-03T08:38:54.1Z</time>
      </trkpt>
      <trkpt lat="48.58059" lon="-3.15947">
        <ele>305</ele>
        <time>2016-04-03T08:38:56.1Z</time>
      </trkpt>
      <trkpt lat="48.58062" lon="-3.15953">
        <ele>305</ele>
        <time>2016-04-03T08:38:59.1Z</time>
      </trkpt>
      <trkpt lat="48.58063" lon="-3.15957">
        <ele>305</ele>
        <time>2016-04-03T08:39:02.1Z</time>
      </trkpt>
      <trkpt lat="48.58065" lon="-3.15963">
        <ele>305</ele>
        <time>2016-04-03T08:39:05.1Z</time>
      </trkpt>
      <trkpt lat="48.58066" lon="-3.15965">
        <ele>305</ele>
        <time>2016-04-03T08:39:07.1Z</time>
      </trkpt>
      <trkpt lat="48.58068" lon="-3.15969">
        <ele>305</ele>
        <time>2016-04-03T08:39:10.1Z</time>
      </trkpt>
      <trkpt lat="48.5807" lon="-3.15974">
        <ele>305</ele>
        <time>2016-04-03T08:39:13.1Z</time>
      </trkpt>
      <trkpt lat="48.58071" lon="-3.15977">
        <ele>305</ele>
        <time>2016-04-03T08:39:15.1Z</time>
      </trkpt>
      <trkpt lat="48.58073" lon="-3.15982">
        <ele>305</ele>
        <time>2016-04-03T08:39:18.1Z</time>
      </trkpt>
      <trkpt lat="48.58074" lon="-3.15986">
        <ele>305</ele>
        <time>2016-04-03T08:39:21.1Z</time>
      </trkpt>
      <trkpt lat="48.58075" lon="-3.15991">
        <ele>305</ele>
        <time>2016-04-03T08:39:24.1Z</time>
      </trkpt>
      <trkpt lat="48.58077" lon="-3.15995">
        <ele>305</ele>
        <time>2016-04-03T08:39:27.1Z</time>
      </trkpt>
      <trkpt lat="48.58078" lon="-3.15999">
        <ele>305</ele>
        <time>2016-04-03T08:39:29.1Z</time>
      </trkpt>
      <trkpt lat="48.58079" lon="-3.16002">
        <ele>305</ele>
        <time>2016-04-03T08:39:32.1Z</time>
      </trkpt>
      <trkpt lat="48.5808" lon="-3.16008">
        <ele>305</ele>
        <time>2016-04-03T08:39:35.1Z</time>
      </trkpt>
      <trkpt lat="48.58081" lon="-3.16011">
        <ele>305</ele>
        <time>2016-04-03T08:39:37.1Z</time>
      </trkpt>
      <trkpt lat="48.58083" lon="-3.16016">
        <ele>305</ele>
        <time>2016-04-03T08:39:40.1Z</time>
      </trkpt>
      <trkpt lat="48.58083" lon="-3.16019">
        <ele>305</ele>
        <time>2016-04-03T08:39:42.1Z</time>
      </trkpt>
      <trkpt lat="48.58085" lon="-3.16024">
        <ele>305</ele>
        <time>2016-04-03T08:39:45.1Z</time>
      </trkpt>
      <trkpt lat="48.58086" lon="-3.16029">
        <ele>305</ele>
        <time>2016-04-03T08:39:48.1Z</time>
      </trkpt>
      <trkpt lat="48.58088" lon="-3.16031">
        <ele>305</ele>
        <time>2016-04-03T08:39:50.1Z</time>
      </trkpt>
      <trkpt lat="48.5809" lon="-3.16033">
        <ele>305</ele>
        <time>2016-04-03T08:39:52.1Z</time>
      </trkpt>
      <trkpt lat="48.58093" lon="-3.16035">
        <ele>305</ele>
        <time>2016-04-03T08:39:55.1Z</time>
      </trkpt>
      <trkpt lat="48.58095" lon="-3.16035">
        <ele>305</ele>
        <time>2016-04-03T08:39:57.1Z</time>
      </trkpt>
      <trkpt lat="48.58101" lon="-3.16035">
        <ele>305</ele>
        <time>2016-04-03T08:40:00.1Z</time>
      </trkpt>
      <trkpt lat="48.58102" lon="-3.16035">
        <ele>305</ele>
        <time>2016-04-03T08:40:02.1Z</time>
      </trkpt>
      <trkpt lat="48.58105" lon="-3.16034">
        <ele>305</ele>
        <time>2016-04-03T08:40:05.1Z</time>
      </trkpt>
      <trkpt lat="48.58107" lon="-3.16033">
        <ele>305</ele>
        <time>2016-04-03T08:40:08.1Z</time>
      </trkpt>
      <trkpt lat="48.58108" lon="-3.16032">
        <ele>305</ele>
        <time>2016-04-03T08:40:10.1Z</time>
      </trkpt>
      <trkpt lat="48.58111" lon="-3.1603">
        <ele>305</ele>
        <time>2016-04-03T08:40:13.1Z</time>
      </trkpt>
      <trkpt lat="48.58112" lon="-3.16029">
        <ele>305</ele>
        <time>2016-04-03T08:40:15.1Z</time>
      </trkpt>
      <trkpt lat="48.58115" lon="-3.16027">
        <ele>305</ele>
        <time>2016-04-03T08:40:18.1Z</time>
      </trkpt>
      <trkpt lat="48.58117" lon="-3.16025">
        <ele>304</ele>
        <time>2016-04-03T08:40:20.1Z</time>
      </trkpt>
      <trkpt lat="48.58119" lon="-3.16023">
        <ele>304</ele>
        <time>2016-04-03T08:40:23.1Z</time>
      </trkpt>
      <trkpt lat="48.58121" lon="-3.16022">
        <ele>304</ele>
        <time>2016-04-03T08:40:25.1Z</time>
      </trkpt>
      <trkpt lat="48.58123" lon="-3.16021">
        <ele>304</ele>
        <time>2016-04-03T08:40:27.1Z</time>
      </trkpt>
      <trkpt lat="48.58125" lon="-3.1602">
        <ele>303</ele>
        <time>2016-04-03T08:40:30.1Z</time>
      </trkpt>
      <trkpt lat="48.58127" lon="-3.16019">
        <ele>303</ele>
        <time>2016-04-03T08:40:32.1Z</time>
      </trkpt>
      <trkpt lat="48.5813" lon="-3.16018">
        <ele>303</ele>
        <time>2016-04-03T08:40:35.1Z</time>
      </trkpt>
      <trkpt lat="48.58132" lon="-3.16017">
        <ele>303</ele>
        <time>2016-04-03T08:40:37.1Z</time>
      </trkpt>
      <trkpt lat="48.58136" lon="-3.16015">
        <ele>302</ele>
        <time>2016-04-03T08:40:40.1Z</time>
      </trkpt>
      <trkpt lat="48.58139" lon="-3.16014">
        <ele>302</ele>
        <time>2016-04-03T08:40:43.1Z</time>
      </trkpt>
      <trkpt lat="48.58142" lon="-3.16012">
        <ele>302</ele>
        <time>2016-04-03T08:40:46.1Z</time>
      </trkpt>
      <trkpt lat="48.58143" lon="-3.16011">
        <ele>302</ele>
        <time>2016-04-03T08:40:48.1Z</time>
      </trkpt>
      <trkpt lat="48.58144" lon="-3.16009">
        <ele>302</ele>
        <time>2016-04-03T08:40:51.1Z</time>
      </trkpt>
      <trkpt lat="48.58147" lon="-3.16008">
        <ele>301</ele>
        <time>2016-04-03T08:40:54.1Z</time>
      </trkpt>
      <trkpt lat="48.58149" lon="-3.16007">
        <ele>301</ele>
        <time>2016-04-03T08:40:56.1Z</time>
      </trkpt>
      <trkpt lat="48.58151" lon="-3.16004">
        <ele>300</ele>
        <time>2016-04-03T08:40:59.1Z</time>
      </trkpt>
      <trkpt lat="48.58153" lon="-3.16002">
        <ele>300</ele>
        <time>2016-04-03T08:41:01.1Z</time>
      </trkpt>
      <trkpt lat="48.58155" lon="-3.16002">
        <ele>300</ele>
        <time>2016-04-03T08:41:03.1Z</time>
      </trkpt>
      <trkpt lat="48.58158" lon="-3.16">
        <ele>300</ele>
        <time>2016-04-03T08:41:06.1Z</time>
      </trkpt>
      <trkpt lat="48.5816" lon="-3.15998">
        <ele>300</ele>
        <time>2016-04-03T08:41:09.1Z</time>
      </trkpt>
      <trkpt lat="48.58164" lon="-3.15997">
        <ele>299</ele>
        <time>2016-04-03T08:41:12.1Z</time>
      </trkpt>
      <trkpt lat="48.58168" lon="-3.15996">
        <ele>299</ele>
        <time>2016-04-03T08:41:15.1Z</time>
      </trkpt>
      <trkpt lat="48.58173" lon="-3.15993">
        <ele>299</ele>
        <time>2016-04-03T08:41:18.1Z</time>
      </trkpt>
      <trkpt lat="48.58176" lon="-3.15991">
        <ele>299</ele>
        <time>2016-04-03T08:41:21.1Z</time>
      </trkpt>
      <trkpt lat="48.58179" lon="-3.1599">
        <ele>299</ele>
        <time>2016-04-03T08:41:23.1Z</time>
      </trkpt>
      <trkpt lat="48.58182" lon="-3.15989">
        <ele>299</ele>
        <time>2016-04-03T08:41:25.1Z</time>
      </trkpt>
      <trkpt lat="48.58185" lon="-3.15986">
        <ele>299</ele>
        <time>2016-04-03T08:41:28.1Z</time>
      </trkpt>
      <trkpt lat="48.58187" lon="-3.15984">
        <ele>299</ele>
        <time>2016-04-03T08:41:30.1Z</time>
      </trkpt>
      <trkpt lat="48.58191" lon="-3.15982">
        <ele>299</ele>
        <time>2016-04-03T08:41:33.1Z</time>
      </trkpt>
      <trkpt lat="48.58193" lon="-3.1598">
        <ele>299</ele>
        <time>2016-04-03T08:41:36.1Z</time>
      </trkpt>
      <trkpt lat="48.58197" lon="-3.15977">
        <ele>299</ele>
        <time>2016-04-03T08:41:39.1Z</time>
      </trkpt>
      <trkpt lat="48.58199" lon="-3.15975">
        <ele>299</ele>
        <time>2016-04-03T08:41:41.1Z</time>
      </trkpt>
      <trkpt lat="48.58202" lon="-3.15972">
        <ele>299</ele>
        <time>2016-04-03T08:41:44.1Z</time>
      </trkpt>
      <trkpt lat="48.58205" lon="-3.15971">
        <ele>299</ele>
        <time>2016-04-03T08:41:46.1Z</time>
      </trkpt>
      <trkpt lat="48.58208" lon="-3.15969">
        <ele>299</ele>
        <time>2016-04-03T08:41:49.1Z</time>
      </trkpt>
      <trkpt lat="48.58212" lon="-3.15967">
        <ele>300</ele>
        <time>2016-04-03T08:41:52.1Z</time>
      </trkpt>
      <trkpt lat="48.58214" lon="-3.15966">
        <ele>299</ele>
        <time>2016-04-03T08:41:54.1Z</time>
      </trkpt>
      <trkpt lat="48.58218" lon="-3.15963">
        <ele>300</ele>
        <time>2016-04-03T08:41:57.1Z</time>
      </trkpt>
      <trkpt lat="48.58221" lon="-3.15962">
        <ele>299</ele>
        <time>2016-04-03T08:41:59.1Z</time>
      </trkpt>
      <trkpt lat="48.58224" lon="-3.1596">
        <ele>299</ele>
        <time>2016-04-03T08:42:01.1Z</time>
      </trkpt>
      <trkpt lat="48.58227" lon="-3.15958">
        <ele>299</ele>
        <time>2016-04-03T08:42:04.1Z</time>
      </trkpt>
      <trkpt lat="48.58231" lon="-3.15956">
        <ele>300</ele>
        <time>2016-04-03T08:42:07.1Z</time>
      </trkpt>
      <trkpt lat="48.58234" lon="-3.15954">
        <ele>300</ele>
        <time>2016-04-03T08:42:09.1Z</time>
      </trkpt>
      <trkpt lat="48.58237" lon="-3.15952">
        <ele>300</ele>
        <time>2016-04-03T08:42:12.1Z</time>
      </trkpt>
      <trkpt lat="48.5824" lon="-3.15951">
        <ele>300</ele>
        <time>2016-04-03T08:42:14.1Z</time>
      </trkpt>
      <trkpt lat="48.58243" lon="-3.1595">
        <ele>300</ele>
        <time>2016-04-03T08:42:16.1Z</time>
      </trkpt>
      <trkpt lat="48.58246" lon="-3.15947">
        <ele>300</ele>
        <time>2016-04-03T08:42:19.1Z</time>
      </trkpt>
      <trkpt lat="48.58249" lon="-3.15946">
        <ele>301</ele>
        <time>2016-04-03T08:42:21.1Z</time>
      </trkpt>
      <trkpt lat="48.58251" lon="-3.15944">
        <ele>301</ele>
        <time>2016-04-03T08:42:23.1Z</time>
      </trkpt>
      <trkpt lat="48.58255" lon="-3.15942">
        <ele>301</ele>
        <time>2016-04-03T08:42:26.1Z</time>
      </trkpt>
      <trkpt lat="48.58258" lon="-3.1594">
        <ele>301</ele>
        <time>2016-04-03T08:42:29.1Z</time>
      </trkpt>
      <trkpt lat="48.5826" lon="-3.15939">
        <ele>301</ele>
        <time>2016-04-03T08:42:31.1Z</time>
      </trkpt>
      <trkpt lat="48.58263" lon="-3.15937">
        <ele>301</ele>
        <time>2016-04-03T08:42:34.1Z</time>
      </trkpt>
      <trkpt lat="48.58266" lon="-3.15936">
        <ele>301</ele>
        <time>2016-04-03T08:42:36.1Z</time>
      </trkpt>
      <trkpt lat="48.58268" lon="-3.15934">
        <ele>302</ele>
        <time>2016-04-03T08:42:38.1Z</time>
      </trkpt>
      <trkpt lat="48.58271" lon="-3.15932">
        <ele>302</ele>
        <time>2016-04-03T08:42:41.1Z</time>
      </trkpt>
      <trkpt lat="48.58273" lon="-3.15931">
        <ele>302</ele>
        <time>2016-04-03T08:42:43.1Z</time>
      </trkpt>
      <trkpt lat="48.58277" lon="-3.15928">
        <ele>302</ele>
        <time>2016-04-03T08:42:46.1Z</time>
      </trkpt>
      <trkpt lat="48.58279" lon="-3.15927">
        <ele>302</ele>
        <time>2016-04-03T08:42:48.1Z</time>
      </trkpt>
      <trkpt lat="48.58281" lon="-3.15925">
        <ele>302</ele>
        <time>2016-04-03T08:42:50.1Z</time>
      </trkpt>
      <trkpt lat="48.58285" lon="-3.15922">
        <ele>302</ele>
        <time>2016-04-03T08:42:53.1Z</time>
      </trkpt>
      <trkpt lat="48.58287" lon="-3.1592">
        <ele>302</ele>
        <time>2016-04-03T08:42:55.1Z</time>
      </trkpt>
      <trkpt lat="48.5829" lon="-3.15919">
        <ele>303</ele>
        <time>2016-04-03T08:42:57.1Z</time>
      </trkpt>
      <trkpt lat="48.58293" lon="-3.15917">
        <ele>303</ele>
        <time>2016-04-03T08:43:00.1Z</time>
      </trkpt>
      <trkpt lat="48.58296" lon="-3.15916">
        <ele>303</ele>
        <time>2016-04-03T08:43:02.1Z</time>
      </trkpt>
      <trkpt lat="48.58299" lon="-3.15914">
        <ele>303</ele>
        <time>2016-04-03T08:43:05.1Z</time>
      </trkpt>
      <trkpt lat="48.58301" lon="-3.15914">
        <ele>303</ele>
        <time>2016-04-03T08:43:07.1Z</time>
      </trkpt>
      <trkpt lat="48.58302" lon="-3.15916">
        <ele>303</ele>
        <time>2016-04-03T08:43:09.1Z</time>
      </trkpt>
      <trkpt lat="48.58306" lon="-3.15916">
        <ele>303</ele>
        <time>2016-04-03T08:43:12.1Z</time>
      </trkpt>
      <trkpt lat="48.58308" lon="-3.15914">
        <ele>303</ele>
        <time>2016-04-03T08:43:14.1Z</time>
      </trkpt>
      <trkpt lat="48.58312" lon="-3.15912">
        <ele>303</ele>
        <time>2016-04-03T08:43:17.1Z</time>
      </trkpt>
      <trkpt lat="48.58314" lon="-3.15911">
        <ele>303</ele>
        <time>2016-04-03T08:43:19.1Z</time>
      </trkpt>
      <trkpt lat="48.58317" lon="-3.1591">
        <ele>303</ele>
        <time>2016-04-03T08:43:22.1Z</time>
      </trkpt>
      <trkpt lat="48.58319" lon="-3.15908">
        <ele>303</ele>
        <time>2016-04-03T08:43:24.1Z</time>
      </trkpt>
      <trkpt lat="48.58322" lon="-3.15906">
        <ele>304</ele>
        <time>2016-04-03T08:43:27.1Z</time>
      </trkpt>
      <trkpt lat="48.58324" lon="-3.15905">
        <ele>303</ele>
        <time>2016-04-03T08:43:29.1Z</time>
      </trkpt>
      <trkpt lat="48.58327" lon="-3.15903">
        <ele>303</ele>
        <time>2016-04-03T08:43:32.1Z</time>
      </trkpt>
      <trkpt lat="48.58329" lon="-3.15901">
        <ele>303</ele>
        <time>2016-04-03T08:43:35.1Z</time>
      </trkpt>
      <trkpt lat="48.58331" lon="-3.159">
        <ele>304</ele>
        <time>2016-04-03T08:43:37.1Z</time>
      </trkpt>
      <trkpt lat="48.58334" lon="-3.15899">
        <ele>304</ele>
        <time>2016-04-03T08:43:39.1Z</time>
      </trkpt>
      <trkpt lat="48.58336" lon="-3.15897">
        <ele>304</ele>
        <time>2016-04-03T08:43:42.1Z</time>
      </trkpt>
      <trkpt lat="48.5834" lon="-3.15895">
        <ele>304</ele>
        <time>2016-04-03T08:43:45.1Z</time>
      </trkpt>
      <trkpt lat="48.58342" lon="-3.15894">
        <ele>304</ele>
        <time>2016-04-03T08:43:47.1Z</time>
      </trkpt>
      <trkpt lat="48.58345" lon="-3.15892">
        <ele>304</ele>
        <time>2016-04-03T08:43:50.1Z</time>
      </trkpt>
      <trkpt lat="48.58348" lon="-3.1589">
        <ele>304</ele>
        <time>2016-04-03T08:43:53.1Z</time>
      </trkpt>
      <trkpt lat="48.58351" lon="-3.15889">
        <ele>304</ele>
        <time>2016-04-03T08:43:55.1Z</time>
      </trkpt>
      <trkpt lat="48.58353" lon="-3.15887">
        <ele>304</ele>
        <time>2016-04-03T08:43:57.1Z</time>
      </trkpt>
      <trkpt lat="48.58355" lon="-3.15885">
        <ele>304</ele>
        <time>2016-04-03T08:44:00.1Z</time>
      </trkpt>
      <trkpt lat="48.58356" lon="-3.15884">
        <ele>304</ele>
        <time>2016-04-03T08:44:02.1Z</time>
      </trkpt>
      <trkpt lat="48.5836" lon="-3.15882">
        <ele>304</ele>
        <time>2016-04-03T08:44:05.1Z</time>
      </trkpt>
      <trkpt lat="48.58362" lon="-3.15881">
        <ele>304</ele>
        <time>2016-04-03T08:44:07.1Z</time>
      </trkpt>
      <trkpt lat="48.58364" lon="-3.15879">
        <ele>304</ele>
        <time>2016-04-03T08:44:10.1Z</time>
      </trkpt>
      <trkpt lat="48.58368" lon="-3.15877">
        <ele>303</ele>
        <time>2016-04-03T08:44:13.1Z</time>
      </trkpt>
      <trkpt lat="48.5837" lon="-3.15876">
        <ele>303</ele>
        <time>2016-04-03T08:44:15.1Z</time>
      </trkpt>
      <trkpt lat="48.58372" lon="-3.15874">
        <ele>303</ele>
        <time>2016-04-03T08:44:18.1Z</time>
      </trkpt>
      <trkpt lat="48.58376" lon="-3.15873">
        <ele>303</ele>
        <time>2016-04-03T08:44:21.1Z</time>
      </trkpt>
      <trkpt lat="48.58379" lon="-3.15872">
        <ele>303</ele>
        <time>2016-04-03T08:44:24.1Z</time>
      </trkpt>
      <trkpt lat="48.58382" lon="-3.1587">
        <ele>303</ele>
        <time>2016-04-03T08:44:26.1Z</time>
      </trkpt>
      <trkpt lat="48.58386" lon="-3.15871">
        <ele>303</ele>
        <time>2016-04-03T08:44:29.1Z</time>
      </trkpt>
      <trkpt lat="48.58391" lon="-3.15873">
        <ele>303</ele>
        <time>2016-04-03T08:44:32.1Z</time>
      </trkpt>
      <trkpt lat="48.58395" lon="-3.15871">
        <ele>303</ele>
        <time>2016-04-03T08:44:35.1Z</time>
      </trkpt>
      <trkpt lat="48.58396" lon="-3.15871">
        <ele>303</ele>
        <time>2016-04-03T08:44:37.1Z</time>
      </trkpt>
      <trkpt lat="48.58399" lon="-3.15869">
        <ele>302</ele>
        <time>2016-04-03T08:44:40.1Z</time>
      </trkpt>
      <trkpt lat="48.584" lon="-3.15867">
        <ele>302</ele>
        <time>2016-04-03T08:44:42.1Z</time>
      </trkpt>
      <trkpt lat="48.58401" lon="-3.15866">
        <ele>302</ele>
        <time>2016-04-03T08:44:44.1Z</time>
      </trkpt>
      <trkpt lat="48.58404" lon="-3.15864">
        <ele>302</ele>
        <time>2016-04-03T08:44:47.1Z</time>
      </trkpt>
      <trkpt lat="48.58405" lon="-3.15863">
        <ele>303</ele>
        <time>2016-04-03T08:44:49.1Z</time>
      </trkpt>
      <trkpt lat="48.58408" lon="-3.15861">
        <ele>302</ele>
        <time>2016-04-03T08:44:52.1Z</time>
      </trkpt>
      <trkpt lat="48.5841" lon="-3.1586">
        <ele>302</ele>
        <time>2016-04-03T08:44:54.1Z</time>
      </trkpt>
      <trkpt lat="48.58415" lon="-3.15857">
        <ele>302</ele>
        <time>2016-04-03T08:44:57.1Z</time>
      </trkpt>
      <trkpt lat="48.58417" lon="-3.15855">
        <ele>302</ele>
        <time>2016-04-03T08:44:59.1Z</time>
      </trkpt>
      <trkpt lat="48.58421" lon="-3.15852">
        <ele>302</ele>
        <time>2016-04-03T08:45:02.1Z</time>
      </trkpt>
      <trkpt lat="48.58423" lon="-3.1585">
        <ele>302</ele>
        <time>2016-04-03T08:45:04.1Z</time>
      </trkpt>
      <trkpt lat="48.58426" lon="-3.15849">
        <ele>302</ele>
        <time>2016-04-03T08:45:07.1Z</time>
      </trkpt>
      <trkpt lat="48.58429" lon="-3.15846">
        <ele>302</ele>
        <time>2016-04-03T08:45:09.1Z</time>
      </trkpt>
      <trkpt lat="48.5843" lon="-3.15843">
        <ele>301</ele>
        <time>2016-04-03T08:45:11.1Z</time>
      </trkpt>
      <trkpt lat="48.58432" lon="-3.15841">
        <ele>301</ele>
        <time>2016-04-03T08:45:13.1Z</time>
      </trkpt>
      <trkpt lat="48.58434" lon="-3.15837">
        <ele>301</ele>
        <time>2016-04-03T08:45:16.1Z</time>
      </trkpt>
      <trkpt lat="48.58437" lon="-3.15833">
        <ele>300</ele>
        <time>2016-04-03T08:45:19.1Z</time>
      </trkpt>
      <trkpt lat="48.58439" lon="-3.1583">
        <ele>300</ele>
        <time>2016-04-03T08:45:21.1Z</time>
      </trkpt>
      <trkpt lat="48.5844" lon="-3.15827">
        <ele>300</ele>
        <time>2016-04-03T08:45:23.1Z</time>
      </trkpt>
      <trkpt lat="48.58439" lon="-3.15824">
        <ele>300</ele>
        <time>2016-04-03T08:45:25.1Z</time>
      </trkpt>
      <trkpt lat="48.58439" lon="-3.15819">
        <ele>300</ele>
        <time>2016-04-03T08:45:28.1Z</time>
      </trkpt>
      <trkpt lat="48.58439" lon="-3.15815">
        <ele>300</ele>
        <time>2016-04-03T08:45:30.1Z</time>
      </trkpt>
      <trkpt lat="48.5844" lon="-3.15812">
        <ele>299</ele>
        <time>2016-04-03T08:45:32.1Z</time>
      </trkpt>
      <trkpt lat="48.58441" lon="-3.15806">
        <ele>299</ele>
        <time>2016-04-03T08:45:35.1Z</time>
      </trkpt>
      <trkpt lat="48.58443" lon="-3.158">
        <ele>298</ele>
        <time>2016-04-03T08:45:38.1Z</time>
      </trkpt>
      <trkpt lat="48.58443" lon="-3.15796">
        <ele>298</ele>
        <time>2016-04-03T08:45:41.1Z</time>
      </trkpt>
      <trkpt lat="48.58442" lon="-3.15792">
        <ele>299</ele>
        <time>2016-04-03T08:45:43.1Z</time>
      </trkpt>
      <trkpt lat="48.58442" lon="-3.15789">
        <ele>299</ele>
        <time>2016-04-03T08:45:45.1Z</time>
      </trkpt>
      <trkpt lat="48.58442" lon="-3.15785">
        <ele>299</ele>
        <time>2016-04-03T08:45:48.1Z</time>
      </trkpt>
      <trkpt lat="48.58442" lon="-3.1578">
        <ele>298</ele>
        <time>2016-04-03T08:45:51.1Z</time>
      </trkpt>
      <trkpt lat="48.58442" lon="-3.15777">
        <ele>298</ele>
        <time>2016-04-03T08:45:53.1Z</time>
      </trkpt>
      <trkpt lat="48.58442" lon="-3.15774">
        <ele>298</ele>
        <time>2016-04-03T08:45:55.1Z</time>
      </trkpt>
      <trkpt lat="48.58442" lon="-3.15769">
        <ele>298</ele>
        <time>2016-04-03T08:45:58.1Z</time>
      </trkpt>
      <trkpt lat="48.58443" lon="-3.15766">
        <ele>298</ele>
        <time>2016-04-03T08:46:00.1Z</time>
      </trkpt>
      <trkpt lat="48.58443" lon="-3.15763">
        <ele>298</ele>
        <time>2016-04-03T08:46:02.1Z</time>
      </trkpt>
      <trkpt lat="48.58443" lon="-3.1576">
        <ele>298</ele>
        <time>2016-04-03T08:46:04.1Z</time>
      </trkpt>
      <trkpt lat="48.58442" lon="-3.15755">
        <ele>298</ele>
        <time>2016-04-03T08:46:07.1Z</time>
      </trkpt>
      <trkpt lat="48.5844" lon="-3.15749">
        <ele>298</ele>
        <time>2016-04-03T08:46:10.1Z</time>
      </trkpt>
      <trkpt lat="48.5844" lon="-3.15745">
        <ele>298</ele>
        <time>2016-04-03T08:46:12.1Z</time>
      </trkpt>
      <trkpt lat="48.58438" lon="-3.15739">
        <ele>298</ele>
        <time>2016-04-03T08:46:15.1Z</time>
      </trkpt>
      <trkpt lat="48.58437" lon="-3.15734">
        <ele>298</ele>
        <time>2016-04-03T08:46:18.1Z</time>
      </trkpt>
      <trkpt lat="48.58435" lon="-3.15731">
        <ele>298</ele>
        <time>2016-04-03T08:46:20.1Z</time>
      </trkpt>
      <trkpt lat="48.58434" lon="-3.15725">
        <ele>298</ele>
        <time>2016-04-03T08:46:23.1Z</time>
      </trkpt>
      <trkpt lat="48.58432" lon="-3.15719">
        <ele>298</ele>
        <time>2016-04-03T08:46:26.1Z</time>
      </trkpt>
      <trkpt lat="48.58431" lon="-3.15715">
        <ele>298</ele>
        <time>2016-04-03T08:46:28.1Z</time>
      </trkpt>
      <trkpt lat="48.5843" lon="-3.15709">
        <ele>298</ele>
        <time>2016-04-03T08:46:31.1Z</time>
      </trkpt>
      <trkpt lat="48.58429" lon="-3.15705">
        <ele>299</ele>
        <time>2016-04-03T08:46:33.1Z</time>
      </trkpt>
      <trkpt lat="48.58428" lon="-3.15701">
        <ele>298</ele>
        <time>2016-04-03T08:46:35.1Z</time>
      </trkpt>
      <trkpt lat="48.58427" lon="-3.15697">
        <ele>298</ele>
        <time>2016-04-03T08:46:37.1Z</time>
      </trkpt>
      <trkpt lat="48.58426" lon="-3.15694">
        <ele>298</ele>
        <time>2016-04-03T08:46:39.1Z</time>
      </trkpt>
      <trkpt lat="48.58425" lon="-3.15691">
        <ele>298</ele>
        <time>2016-04-03T08:46:41.1Z</time>
      </trkpt>
      <trkpt lat="48.58423" lon="-3.15686">
        <ele>298</ele>
        <time>2016-04-03T08:46:44.1Z</time>
      </trkpt>
      <trkpt lat="48.58421" lon="-3.15681">
        <ele>299</ele>
        <time>2016-04-03T08:46:47.1Z</time>
      </trkpt>
      <trkpt lat="48.5842" lon="-3.15677">
        <ele>299</ele>
        <time>2016-04-03T08:46:49.1Z</time>
      </trkpt>
      <trkpt lat="48.58419" lon="-3.15674">
        <ele>299</ele>
        <time>2016-04-03T08:46:51.1Z</time>
      </trkpt>
      <trkpt lat="48.58418" lon="-3.15671">
        <ele>299</ele>
        <time>2016-04-03T08:46:53.1Z</time>
      </trkpt>
      <trkpt lat="48.58417" lon="-3.15668">
        <ele>299</ele>
        <time>2016-04-03T08:46:55.1Z</time>
      </trkpt>
      <trkpt lat="48.58416" lon="-3.15665">
        <ele>299</ele>
        <time>2016-04-03T08:46:57.1Z</time>
      </trkpt>
      <trkpt lat="48.58415" lon="-3.15661">
        <ele>299</ele>
        <time>2016-04-03T08:47:00.1Z</time>
      </trkpt>
      <trkpt lat="48.58414" lon="-3.15658">
        <ele>299</ele>
        <time>2016-04-03T08:47:02.1Z</time>
      </trkpt>
      <trkpt lat="48.58413" lon="-3.15653">
        <ele>299</ele>
        <time>2016-04-03T08:47:05.1Z</time>
      </trkpt>
      <trkpt lat="48.58412" lon="-3.15651">
        <ele>300</ele>
        <time>2016-04-03T08:47:08.1Z</time>
      </trkpt>
      <trkpt lat="48.58413" lon="-3.15653">
        <ele>300</ele>
        <time>2016-04-03T08:47:10.1Z</time>
      </trkpt>
      <trkpt lat="48.58413" lon="-3.15653">
        <ele>300</ele>
        <time>2016-04-03T08:47:13.1Z</time>
      </trkpt>
      <trkpt lat="48.58413" lon="-3.15652">
        <ele>300</ele>
        <time>2016-04-03T08:47:15.1Z</time>
      </trkpt>
      <trkpt lat="48.58414" lon="-3.15653">
        <ele>300</ele>
        <time>2016-04-03T08:47:18.1Z</time>
      </trkpt>
      <trkpt lat="48.58415" lon="-3.15653">
        <ele>299</ele>
        <time>2016-04-03T08:47:21.1Z</time>
      </trkpt>
      <trkpt lat="48.58414" lon="-3.15653">
        <ele>299</ele>
        <time>2016-04-03T08:47:24.1Z</time>
      </trkpt>
      <trkpt lat="48.58414" lon="-3.15653">
        <ele>299</ele>
        <time>2016-04-03T08:47:26.1Z</time>
      </trkpt>
      <trkpt lat="48.58413" lon="-3.15653">
        <ele>299</ele>
        <time>2016-04-03T08:47:29.1Z</time>
      </trkpt>
      <trkpt lat="48.58411" lon="-3.15651">
        <ele>300</ele>
        <time>2016-04-03T08:47:31.1Z</time>
      </trkpt>
      <trkpt lat="48.5841" lon="-3.15648">
        <ele>300</ele>
        <time>2016-04-03T08:47:34.1Z</time>
      </trkpt>
      <trkpt lat="48.58409" lon="-3.15646">
        <ele>301</ele>
        <time>2016-04-03T08:47:36.1Z</time>
      </trkpt>
      <trkpt lat="48.58408" lon="-3.15643">
        <ele>301</ele>
        <time>2016-04-03T08:47:38.1Z</time>
      </trkpt>
      <trkpt lat="48.58407" lon="-3.1564">
        <ele>301</ele>
        <time>2016-04-03T08:47:40.1Z</time>
      </trkpt>
      <trkpt lat="48.58406" lon="-3.15637">
        <ele>301</ele>
        <time>2016-04-03T08:47:42.1Z</time>
      </trkpt>
      <trkpt lat="48.58404" lon="-3.15632">
        <ele>301</ele>
        <time>2016-04-03T08:47:45.1Z</time>
      </trkpt>
      <trkpt lat="48.58402" lon="-3.15627">
        <ele>301</ele>
        <time>2016-04-03T08:47:48.1Z</time>
      </trkpt>
      <trkpt lat="48.58401" lon="-3.15623">
        <ele>301</ele>
        <time>2016-04-03T08:47:50.1Z</time>
      </trkpt>
      <trkpt lat="48.584" lon="-3.1562">
        <ele>301</ele>
        <time>2016-04-03T08:47:52.1Z</time>
      </trkpt>
      <trkpt lat="48.58399" lon="-3.15614">
        <ele>301</ele>
        <time>2016-04-03T08:47:55.1Z</time>
      </trkpt>
      <trkpt lat="48.58398" lon="-3.1561">
        <ele>301</ele>
        <time>2016-04-03T08:47:57.1Z</time>
      </trkpt>
      <trkpt lat="48.58396" lon="-3.15604">
        <ele>301</ele>
        <time>2016-04-03T08:48:00.1Z</time>
      </trkpt>
      <trkpt lat="48.58395" lon="-3.15599">
        <ele>302</ele>
        <time>2016-04-03T08:48:03.1Z</time>
      </trkpt>
      <trkpt lat="48.58395" lon="-3.15596">
        <ele>301</ele>
        <time>2016-04-03T08:48:05.1Z</time>
      </trkpt>
      <trkpt lat="48.58394" lon="-3.15592">
        <ele>301</ele>
        <time>2016-04-03T08:48:07.1Z</time>
      </trkpt>
      <trkpt lat="48.58393" lon="-3.15589">
        <ele>301</ele>
        <time>2016-04-03T08:48:09.1Z</time>
      </trkpt>
      <trkpt lat="48.58392" lon="-3.15583">
        <ele>302</ele>
        <time>2016-04-03T08:48:12.1Z</time>
      </trkpt>
      <trkpt lat="48.5839" lon="-3.15578">
        <ele>302</ele>
        <time>2016-04-03T08:48:15.1Z</time>
      </trkpt>
      <trkpt lat="48.5839" lon="-3.15575">
        <ele>302</ele>
        <time>2016-04-03T08:48:17.1Z</time>
      </trkpt>
      <trkpt lat="48.58392" lon="-3.1557">
        <ele>302</ele>
        <time>2016-04-03T08:48:20.1Z</time>
      </trkpt>
      <trkpt lat="48.58393" lon="-3.15568">
        <ele>301</ele>
        <time>2016-04-03T08:48:22.1Z</time>
      </trkpt>
      <trkpt lat="48.58396" lon="-3.15566">
        <ele>301</ele>
        <time>2016-04-03T08:48:25.1Z</time>
      </trkpt>
      <trkpt lat="48.584" lon="-3.15564">
        <ele>301</ele>
        <time>2016-04-03T08:48:28.1Z</time>
      </trkpt>
      <trkpt lat="48.58403" lon="-3.15563">
        <ele>301</ele>
        <time>2016-04-03T08:48:31.1Z</time>
      </trkpt>
      <trkpt lat="48.58406" lon="-3.15564">
        <ele>301</ele>
        <time>2016-04-03T08:48:34.1Z</time>
      </trkpt>
      <trkpt lat="48.58409" lon="-3.15564">
        <ele>301</ele>
        <time>2016-04-03T08:48:37.1Z</time>
      </trkpt>
      <trkpt lat="48.58411" lon="-3.15565">
        <ele>300</ele>
        <time>2016-04-03T08:48:40.1Z</time>
      </trkpt>
      <trkpt lat="48.58413" lon="-3.15565">
        <ele>300</ele>
        <time>2016-04-03T08:48:42.1Z</time>
      </trkpt>
      <trkpt lat="48.58415" lon="-3.15566">
        <ele>300</ele>
        <time>2016-04-03T08:48:44.1Z</time>
      </trkpt>
      <trkpt lat="48.58419" lon="-3.15567">
        <ele>300</ele>
        <time>2016-04-03T08:48:47.1Z</time>
      </trkpt>
      <trkpt lat="48.58421" lon="-3.15568">
        <ele>299</ele>
        <time>2016-04-03T08:48:49.1Z</time>
      </trkpt>
      <trkpt lat="48.58424" lon="-3.15569">
        <ele>299</ele>
        <time>2016-04-03T08:48:52.1Z</time>
      </trkpt>
      <trkpt lat="48.58426" lon="-3.1557">
        <ele>299</ele>
        <time>2016-04-03T08:48:55.1Z</time>
      </trkpt>
      <trkpt lat="48.58428" lon="-3.15571">
        <ele>298</ele>
        <time>2016-04-03T08:48:57.1Z</time>
      </trkpt>
      <trkpt lat="48.5843" lon="-3.15573">
        <ele>298</ele>
        <time>2016-04-03T08:49:00.1Z</time>
      </trkpt>
      <trkpt lat="48.58432" lon="-3.15574">
        <ele>298</ele>
        <time>2016-04-03T08:49:02.1Z</time>
      </trkpt>
      <trkpt lat="48.58435" lon="-3.15576">
        <ele>298</ele>
        <time>2016-04-03T08:49:04.1Z</time>
      </trkpt>
      <trkpt lat="48.58438" lon="-3.15579">
        <ele>298</ele>
        <time>2016-04-03T08:49:07.1Z</time>
      </trkpt>
      <trkpt lat="48.58441" lon="-3.15581">
        <ele>297</ele>
        <time>2016-04-03T08:49:10.1Z</time>
      </trkpt>
      <trkpt lat="48.58443" lon="-3.15583">
        <ele>297</ele>
        <time>2016-04-03T08:49:13.1Z</time>
      </trkpt>
      <trkpt lat="48.58445" lon="-3.15584">
        <ele>296</ele>
        <time>2016-04-03T08:49:15.1Z</time>
      </trkpt>
      <trkpt lat="48.58447" lon="-3.15586">
        <ele>296</ele>
        <time>2016-04-03T08:49:18.1Z</time>
      </trkpt>
      <trkpt lat="48.58449" lon="-3.15587">
        <ele>295</ele>
        <time>2016-04-03T08:49:20.1Z</time>
      </trkpt>
      <trkpt lat="48.5845" lon="-3.15588">
        <ele>295</ele>
        <time>2016-04-03T08:49:22.1Z</time>
      </trkpt>
      <trkpt lat="48.58453" lon="-3.1559">
        <ele>294</ele>
        <time>2016-04-03T08:49:25.1Z</time>
      </trkpt>
      <trkpt lat="48.58455" lon="-3.15592">
        <ele>294</ele>
        <time>2016-04-03T08:49:28.1Z</time>
      </trkpt>
      <trkpt lat="48.58456" lon="-3.15594">
        <ele>294</ele>
        <time>2016-04-03T08:49:30.1Z</time>
      </trkpt>
      <trkpt lat="48.58459" lon="-3.15595">
        <ele>294</ele>
        <time>2016-04-03T08:49:32.1Z</time>
      </trkpt>
      <trkpt lat="48.58461" lon="-3.15597">
        <ele>293</ele>
        <time>2016-04-03T08:49:35.1Z</time>
      </trkpt>
      <trkpt lat="48.58464" lon="-3.15599">
        <ele>293</ele>
        <time>2016-04-03T08:49:38.1Z</time>
      </trkpt>
      <trkpt lat="48.58467" lon="-3.156">
        <ele>292</ele>
        <time>2016-04-03T08:49:41.1Z</time>
      </trkpt>
      <trkpt lat="48.58469" lon="-3.15601">
        <ele>291</ele>
        <time>2016-04-03T08:49:44.1Z</time>
      </trkpt>
      <trkpt lat="48.58472" lon="-3.15603">
        <ele>290</ele>
        <time>2016-04-03T08:49:47.1Z</time>
      </trkpt>
      <trkpt lat="48.58474" lon="-3.15604">
        <ele>290</ele>
        <time>2016-04-03T08:49:49.1Z</time>
      </trkpt>
      <trkpt lat="48.58477" lon="-3.15604">
        <ele>290</ele>
        <time>2016-04-03T08:49:52.1Z</time>
      </trkpt>
      <trkpt lat="48.5848" lon="-3.15605">
        <ele>289</ele>
        <time>2016-04-03T08:49:55.1Z</time>
      </trkpt>
      <trkpt lat="48.58483" lon="-3.15605">
        <ele>289</ele>
        <time>2016-04-03T08:49:58.1Z</time>
      </trkpt>
      <trkpt lat="48.58486" lon="-3.15605">
        <ele>288</ele>
        <time>2016-04-03T08:50:01.1Z</time>
      </trkpt>
      <trkpt lat="48.58487" lon="-3.15605">
        <ele>288</ele>
        <time>2016-04-03T08:50:03.1Z</time>
      </trkpt>
      <trkpt lat="48.58488" lon="-3.15606">
        <ele>288</ele>
        <time>2016-04-03T08:50:05.1Z</time>
      </trkpt>
      <trkpt lat="48.5849" lon="-3.15606">
        <ele>288</ele>
        <time>2016-04-03T08:50:08.1Z</time>
      </trkpt>
      <trkpt lat="48.58491" lon="-3.15606">
        <ele>288</ele>
        <time>2016-04-03T08:50:10.1Z</time>
      </trkpt>
      <trkpt lat="48.58492" lon="-3.15605">
        <ele>288</ele>
        <time>2016-04-03T08:50:12.1Z</time>
      </trkpt>
      <trkpt lat="48.58494" lon="-3.15605">
        <ele>288</ele>
        <time>2016-04-03T08:50:15.1Z</time>
      </trkpt>
      <trkpt lat="48.58495" lon="-3.15604">
        <ele>287</ele>
        <time>2016-04-03T08:50:17.1Z</time>
      </trkpt>
      <trkpt lat="48.58496" lon="-3.15604">
        <ele>287</ele>
        <time>2016-04-03T08:50:19.1Z</time>
      </trkpt>
      <trkpt lat="48.58496" lon="-3.15605">
        <ele>287</ele>
        <time>2016-04-03T08:50:22.1Z</time>
      </trkpt>
      <trkpt lat="48.58497" lon="-3.15604">
        <ele>287</ele>
        <time>2016-04-03T08:50:24.1Z</time>
      </trkpt>
      <trkpt lat="48.58497" lon="-3.15605">
        <ele>287</ele>
        <time>2016-04-03T08:50:26.1Z</time>
      </trkpt>
      <trkpt lat="48.58498" lon="-3.15604">
        <ele>287</ele>
        <time>2016-04-03T08:50:29.1Z</time>
      </trkpt>
      <trkpt lat="48.58499" lon="-3.15604">
        <ele>287</ele>
        <time>2016-04-03T08:50:31.1Z</time>
      </trkpt>
      <trkpt lat="48.585" lon="-3.15604">
        <ele>287</ele>
        <time>2016-04-03T08:50:34.1Z</time>
      </trkpt>
      <trkpt lat="48.58501" lon="-3.15604">
        <ele>287</ele>
        <time>2016-04-03T08:50:36.1Z</time>
      </trkpt>
      <trkpt lat="48.58501" lon="-3.15604">
        <ele>287</ele>
        <time>2016-04-03T08:50:39.1Z</time>
      </trkpt>
      <trkpt lat="48.58502" lon="-3.15604">
        <ele>287</ele>
        <time>2016-04-03T08:50:41.1Z</time>
      </trkpt>
      <trkpt lat="48.58502" lon="-3.15604">
        <ele>287</ele>
        <time>2016-04-03T08:50:44.1Z</time>
      </trkpt>
      <trkpt lat="48.58503" lon="-3.15603">
        <ele>287</ele>
        <time>2016-04-03T08:50:46.1Z</time>
      </trkpt>
      <trkpt lat="48.58504" lon="-3.15603">
        <ele>287</ele>
        <time>2016-04-03T08:50:48.1Z</time>
      </trkpt>
      <trkpt lat="48.58504" lon="-3.15602">
        <ele>287</ele>
        <time>2016-04-03T08:50:50.1Z</time>
      </trkpt>
      <trkpt lat="48.58505" lon="-3.15602">
        <ele>287</ele>
        <time>2016-04-03T08:50:52.1Z</time>
      </trkpt>
      <trkpt lat="48.58506" lon="-3.15602">
        <ele>287</ele>
        <time>2016-04-03T08:50:55.1Z</time>
      </trkpt>
      <trkpt lat="48.58506" lon="-3.15601">
        <ele>287</ele>
        <time>2016-04-03T08:50:58.1Z</time>
      </trkpt>
      <trkpt lat="48.58506" lon="-3.15601">
        <ele>287</ele>
        <time>2016-04-03T08:51:00.1Z</time>
      </trkpt>
      <trkpt lat="48.58507" lon="-3.15601">
        <ele>287</ele>
        <time>2016-04-03T08:51:03.1Z</time>
      </trkpt>
      <trkpt lat="48.58508" lon="-3.15601">
        <ele>287</ele>
        <time>2016-04-03T08:51:05.1Z</time>
      </trkpt>
      <trkpt lat="48.58508" lon="-3.15601">
        <ele>287</ele>
        <time>2016-04-03T08:51:08.1Z</time>
      </trkpt>
      <trkpt lat="48.58508" lon="-3.15601">
        <ele>287</ele>
        <time>2016-04-03T08:51:10.1Z</time>
      </trkpt>
      <trkpt lat="48.58509" lon="-3.156">
        <ele>287</ele>
        <time>2016-04-03T08:51:12.1Z</time>
      </trkpt>
      <trkpt lat="48.5851" lon="-3.15599">
        <ele>287</ele>
        <time>2016-04-03T08:51:14.1Z</time>
      </trkpt>
      <trkpt lat="48.58511" lon="-3.15596">
        <ele>287</ele>
        <time>2016-04-03T08:51:17.1Z</time>
      </trkpt>
      <trkpt lat="48.58512" lon="-3.15594">
        <ele>286</ele>
        <time>2016-04-03T08:51:19.1Z</time>
      </trkpt>
      <trkpt lat="48.58513" lon="-3.15591">
        <ele>286</ele>
        <time>2016-04-03T08:51:22.1Z</time>
      </trkpt>
      <trkpt lat="48.58515" lon="-3.15589">
        <ele>286</ele>
        <time>2016-04-03T08:51:24.1Z</time>
      </trkpt>
      <trkpt lat="48.58518" lon="-3.15585">
        <ele>285</ele>
        <time>2016-04-03T08:51:27.1Z</time>
      </trkpt>
      <trkpt lat="48.58521" lon="-3.15581">
        <ele>286</ele>
        <time>2016-04-03T08:51:30.1Z</time>
      </trkpt>
      <trkpt lat="48.58522" lon="-3.1558">
        <ele>285</ele>
        <time>2016-04-03T08:51:32.1Z</time>
      </trkpt>
      <trkpt lat="48.58524" lon="-3.15577">
        <ele>285</ele>
        <time>2016-04-03T08:51:35.1Z</time>
      </trkpt>
      <trkpt lat="48.58524" lon="-3.15576">
        <ele>285</ele>
        <time>2016-04-03T08:51:37.1Z</time>
      </trkpt>
      <trkpt lat="48.58526" lon="-3.15573">
        <ele>285</ele>
        <time>2016-04-03T08:51:40.1Z</time>
      </trkpt>
      <trkpt lat="48.58527" lon="-3.15569">
        <ele>284</ele>
        <time>2016-04-03T08:51:43.1Z</time>
      </trkpt>
      <trkpt lat="48.58529" lon="-3.15566">
        <ele>284</ele>
        <time>2016-04-03T08:51:46.1Z</time>
      </trkpt>
      <trkpt lat="48.5853" lon="-3.15562">
        <ele>284</ele>
        <time>2016-04-03T08:51:49.1Z</time>
      </trkpt>
      <trkpt lat="48.58532" lon="-3.15558">
        <ele>283</ele>
        <time>2016-04-03T08:51:52.1Z</time>
      </trkpt>
      <trkpt lat="48.58535" lon="-3.15555">
        <ele>283</ele>
        <time>2016-04-03T08:51:55.1Z</time>
      </trkpt>
      <trkpt lat="48.58536" lon="-3.15552">
        <ele>283</ele>
        <time>2016-04-03T08:51:57.1Z</time>
      </trkpt>
      <trkpt lat="48.58537" lon="-3.15549">
        <ele>282</ele>
        <time>2016-04-03T08:52:00.1Z</time>
      </trkpt>
      <trkpt lat="48.58537" lon="-3.15546">
        <ele>282</ele>
        <time>2016-04-03T08:52:02.1Z</time>
      </trkpt>
      <trkpt lat="48.58538" lon="-3.15542">
        <ele>282</ele>
        <time>2016-04-03T08:52:05.1Z</time>
      </trkpt>
      <trkpt lat="48.58541" lon="-3.15537">
        <ele>281</ele>
        <time>2016-04-03T08:52:08.1Z</time>
      </trkpt>
      <trkpt lat="48.58541" lon="-3.15534">
        <ele>281</ele>
        <time>2016-04-03T08:52:11.1Z</time>
      </trkpt>
      <trkpt lat="48.58543" lon="-3.15531">
        <ele>281</ele>
        <time>2016-04-03T08:52:14.1Z</time>
      </trkpt>
      <trkpt lat="48.58544" lon="-3.15528">
        <ele>280</ele>
        <time>2016-04-03T08:52:16.1Z</time>
      </trkpt>
      <trkpt lat="48.58546" lon="-3.15523">
        <ele>280</ele>
        <time>2016-04-03T08:52:19.1Z</time>
      </trkpt>
      <trkpt lat="48.58547" lon="-3.1552">
        <ele>280</ele>
        <time>2016-04-03T08:52:21.1Z</time>
      </trkpt>
      <trkpt lat="48.58547" lon="-3.15516">
        <ele>280</ele>
        <time>2016-04-03T08:52:23.1Z</time>
      </trkpt>
      <trkpt lat="48.58548" lon="-3.15513">
        <ele>279</ele>
        <time>2016-04-03T08:52:25.1Z</time>
      </trkpt>
      <trkpt lat="48.58549" lon="-3.1551">
        <ele>279</ele>
        <time>2016-04-03T08:52:28.1Z</time>
      </trkpt>
      <trkpt lat="48.58551" lon="-3.15507">
        <ele>279</ele>
        <time>2016-04-03T08:52:30.1Z</time>
      </trkpt>
      <trkpt lat="48.58552" lon="-3.15504">
        <ele>279</ele>
        <time>2016-04-03T08:52:32.1Z</time>
      </trkpt>
      <trkpt lat="48.58553" lon="-3.155">
        <ele>278</ele>
        <time>2016-04-03T08:52:35.1Z</time>
      </trkpt>
      <trkpt lat="48.58554" lon="-3.15495">
        <ele>278</ele>
        <time>2016-04-03T08:52:38.1Z</time>
      </trkpt>
      <trkpt lat="48.58555" lon="-3.15493">
        <ele>277</ele>
        <time>2016-04-03T08:52:40.1Z</time>
      </trkpt>
      <trkpt lat="48.58556" lon="-3.15489">
        <ele>277</ele>
        <time>2016-04-03T08:52:43.1Z</time>
      </trkpt>
      <trkpt lat="48.58558" lon="-3.15487">
        <ele>277</ele>
        <time>2016-04-03T08:52:45.1Z</time>
      </trkpt>
      <trkpt lat="48.58559" lon="-3.15485">
        <ele>277</ele>
        <time>2016-04-03T08:52:47.1Z</time>
      </trkpt>
      <trkpt lat="48.58561" lon="-3.15483">
        <ele>277</ele>
        <time>2016-04-03T08:52:49.1Z</time>
      </trkpt>
      <trkpt lat="48.58563" lon="-3.15479">
        <ele>276</ele>
        <time>2016-04-03T08:52:52.1Z</time>
      </trkpt>
      <trkpt lat="48.58564" lon="-3.15473">
        <ele>276</ele>
        <time>2016-04-03T08:52:55.1Z</time>
      </trkpt>
      <trkpt lat="48.58567" lon="-3.15468">
        <ele>275</ele>
        <time>2016-04-03T08:52:57.1Z</time>
      </trkpt>
      <trkpt lat="48.58568" lon="-3.15464">
        <ele>275</ele>
        <time>2016-04-03T08:52:59.1Z</time>
      </trkpt>
      <trkpt lat="48.5857" lon="-3.15459">
        <ele>274</ele>
        <time>2016-04-03T08:53:02.1Z</time>
      </trkpt>
      <trkpt lat="48.58572" lon="-3.15454">
        <ele>273</ele>
        <time>2016-04-03T08:53:05.1Z</time>
      </trkpt>
      <trkpt lat="48.58575" lon="-3.15448">
        <ele>273</ele>
        <time>2016-04-03T08:53:08.1Z</time>
      </trkpt>
      <trkpt lat="48.58575" lon="-3.15444">
        <ele>273</ele>
        <time>2016-04-03T08:53:10.1Z</time>
      </trkpt>
      <trkpt lat="48.58575" lon="-3.15441">
        <ele>272</ele>
        <time>2016-04-03T08:53:12.1Z</time>
      </trkpt>
      <trkpt lat="48.58577" lon="-3.15435">
        <ele>272</ele>
        <time>2016-04-03T08:53:15.1Z</time>
      </trkpt>
      <trkpt lat="48.58578" lon="-3.15431">
        <ele>272</ele>
        <time>2016-04-03T08:53:17.1Z</time>
      </trkpt>
      <trkpt lat="48.58579" lon="-3.15426">
        <ele>271</ele>
        <time>2016-04-03T08:53:20.1Z</time>
      </trkpt>
      <trkpt lat="48.58579" lon="-3.15422">
        <ele>270</ele>
        <time>2016-04-03T08:53:22.1Z</time>
      </trkpt>
      <trkpt lat="48.58579" lon="-3.15419">
        <ele>270</ele>
        <time>2016-04-03T08:53:24.1Z</time>
      </trkpt>
      <trkpt lat="48.5858" lon="-3.15413">
        <ele>270</ele>
        <time>2016-04-03T08:53:27.1Z</time>
      </trkpt>
      <trkpt lat="48.5858" lon="-3.1541">
        <ele>269</ele>
        <time>2016-04-03T08:53:30.1Z</time>
      </trkpt>
      <trkpt lat="48.58582" lon="-3.15406">
        <ele>268</ele>
        <time>2016-04-03T08:53:33.1Z</time>
      </trkpt>
      <trkpt lat="48.58583" lon="-3.15404">
        <ele>268</ele>
        <time>2016-04-03T08:53:35.1Z</time>
      </trkpt>
      <trkpt lat="48.58583" lon="-3.15402">
        <ele>268</ele>
        <time>2016-04-03T08:53:37.1Z</time>
      </trkpt>
      <trkpt lat="48.58584" lon="-3.15399">
        <ele>267</ele>
        <time>2016-04-03T08:53:40.1Z</time>
      </trkpt>
      <trkpt lat="48.58585" lon="-3.15397">
        <ele>267</ele>
        <time>2016-04-03T08:53:42.1Z</time>
      </trkpt>
      <trkpt lat="48.58587" lon="-3.15396">
        <ele>266</ele>
        <time>2016-04-03T08:53:45.1Z</time>
      </trkpt>
      <trkpt lat="48.58589" lon="-3.15394">
        <ele>266</ele>
        <time>2016-04-03T08:53:48.1Z</time>
      </trkpt>
      <trkpt lat="48.58591" lon="-3.15392">
        <ele>265</ele>
        <time>2016-04-03T08:53:51.1Z</time>
      </trkpt>
      <trkpt lat="48.58591" lon="-3.1539">
        <ele>265</ele>
        <time>2016-04-03T08:53:53.1Z</time>
      </trkpt>
      <trkpt lat="48.58591" lon="-3.15387">
        <ele>265</ele>
        <time>2016-04-03T08:53:56.1Z</time>
      </trkpt>
      <trkpt lat="48.58592" lon="-3.15383">
        <ele>264</ele>
        <time>2016-04-03T08:53:59.1Z</time>
      </trkpt>
      <trkpt lat="48.58593" lon="-3.15381">
        <ele>264</ele>
        <time>2016-04-03T08:54:01.1Z</time>
      </trkpt>
      <trkpt lat="48.58593" lon="-3.15377">
        <ele>264</ele>
        <time>2016-04-03T08:54:04.1Z</time>
      </trkpt>
      <trkpt lat="48.58593" lon="-3.15373">
        <ele>263</ele>
        <time>2016-04-03T08:54:07.1Z</time>
      </trkpt>
      <trkpt lat="48.58593" lon="-3.1537">
        <ele>263</ele>
        <time>2016-04-03T08:54:09.1Z</time>
      </trkpt>
      <trkpt lat="48.58595" lon="-3.15367">
        <ele>262</ele>
        <time>2016-04-03T08:54:11.1Z</time>
      </trkpt>
      <trkpt lat="48.58596" lon="-3.15362">
        <ele>262</ele>
        <time>2016-04-03T08:54:14.1Z</time>
      </trkpt>
      <trkpt lat="48.58596" lon="-3.15358">
        <ele>262</ele>
        <time>2016-04-03T08:54:16.1Z</time>
      </trkpt>
      <trkpt lat="48.58598" lon="-3.15352">
        <ele>262</ele>
        <time>2016-04-03T08:54:19.1Z</time>
      </trkpt>
      <trkpt lat="48.58598" lon="-3.15349">
        <ele>262</ele>
        <time>2016-04-03T08:54:21.1Z</time>
      </trkpt>
      <trkpt lat="48.586" lon="-3.15344">
        <ele>261</ele>
        <time>2016-04-03T08:54:24.1Z</time>
      </trkpt>
      <trkpt lat="48.58602" lon="-3.15339">
        <ele>261</ele>
        <time>2016-04-03T08:54:27.1Z</time>
      </trkpt>
      <trkpt lat="48.58603" lon="-3.15335">
        <ele>261</ele>
        <time>2016-04-03T08:54:29.1Z</time>
      </trkpt>
      <trkpt lat="48.58603" lon="-3.15332">
        <ele>261</ele>
        <time>2016-04-03T08:54:31.1Z</time>
      </trkpt>
      <trkpt lat="48.58604" lon="-3.15326">
        <ele>261</ele>
        <time>2016-04-03T08:54:34.1Z</time>
      </trkpt>
      <trkpt lat="48.58605" lon="-3.15322">
        <ele>260</ele>
        <time>2016-04-03T08:54:36.1Z</time>
      </trkpt>
      <trkpt lat="48.58605" lon="-3.15316">
        <ele>260</ele>
        <time>2016-04-03T08:54:39.1Z</time>
      </trkpt>
      <trkpt lat="48.58605" lon="-3.15313">
        <ele>260</ele>
        <time>2016-04-03T08:54:41.1Z</time>
      </trkpt>
      <trkpt lat="48.58606" lon="-3.15309">
        <ele>260</ele>
        <time>2016-04-03T08:54:44.1Z</time>
      </trkpt>
      <trkpt lat="48.58607" lon="-3.15305">
        <ele>260</ele>
        <time>2016-04-03T08:54:47.1Z</time>
      </trkpt>
      <trkpt lat="48.58607" lon="-3.15302">
        <ele>260</ele>
        <time>2016-04-03T08:54:49.1Z</time>
      </trkpt>
      <trkpt lat="48.58609" lon="-3.15296">
        <ele>259</ele>
        <time>2016-04-03T08:54:52.1Z</time>
      </trkpt>
      <trkpt lat="48.5861" lon="-3.15293">
        <ele>259</ele>
        <time>2016-04-03T08:54:54.1Z</time>
      </trkpt>
      <trkpt lat="48.5861" lon="-3.15288">
        <ele>259</ele>
        <time>2016-04-03T08:54:57.1Z</time>
      </trkpt>
      <trkpt lat="48.5861" lon="-3.15283">
        <ele>259</ele>
        <time>2016-04-03T08:55:00.1Z</time>
      </trkpt>
      <trkpt lat="48.58611" lon="-3.1528">
        <ele>258</ele>
        <time>2016-04-03T08:55:02.1Z</time>
      </trkpt>
      <trkpt lat="48.58613" lon="-3.15276">
        <ele>258</ele>
        <time>2016-04-03T08:55:05.1Z</time>
      </trkpt>
      <trkpt lat="48.58615" lon="-3.15271">
        <ele>258</ele>
        <time>2016-04-03T08:55:08.1Z</time>
      </trkpt>
      <trkpt lat="48.58617" lon="-3.15268">
        <ele>258</ele>
        <time>2016-04-03T08:55:10.1Z</time>
      </trkpt>
      <trkpt lat="48.5862" lon="-3.15264">
        <ele>258</ele>
        <time>2016-04-03T08:55:13.1Z</time>
      </trkpt>
      <trkpt lat="48.58622" lon="-3.15261">
        <ele>258</ele>
        <time>2016-04-03T08:55:15.1Z</time>
      </trkpt>
      <trkpt lat="48.58623" lon="-3.15257">
        <ele>258</ele>
        <time>2016-04-03T08:55:17.1Z</time>
      </trkpt>
      <trkpt lat="48.58622" lon="-3.15252">
        <ele>258</ele>
        <time>2016-04-03T08:55:20.1Z</time>
      </trkpt>
      <trkpt lat="48.58624" lon="-3.15248">
        <ele>257</ele>
        <time>2016-04-03T08:55:23.1Z</time>
      </trkpt>
      <trkpt lat="48.58624" lon="-3.15246">
        <ele>258</ele>
        <time>2016-04-03T08:55:25.1Z</time>
      </trkpt>
      <trkpt lat="48.58623" lon="-3.15243">
        <ele>257</ele>
        <time>2016-04-03T08:55:28.1Z</time>
      </trkpt>
      <trkpt lat="48.58624" lon="-3.15243">
        <ele>258</ele>
        <time>2016-04-03T08:55:30.1Z</time>
      </trkpt>
      <trkpt lat="48.58625" lon="-3.15242">
        <ele>257</ele>
        <time>2016-04-03T08:55:33.1Z</time>
      </trkpt>
      <trkpt lat="48.58625" lon="-3.15239">
        <ele>257</ele>
        <time>2016-04-03T08:55:36.1Z</time>
      </trkpt>
      <trkpt lat="48.58626" lon="-3.15237">
        <ele>257</ele>
        <time>2016-04-03T08:55:38.1Z</time>
      </trkpt>
      <trkpt lat="48.58626" lon="-3.15233">
        <ele>257</ele>
        <time>2016-04-03T08:55:41.1Z</time>
      </trkpt>
      <trkpt lat="48.58627" lon="-3.15229">
        <ele>257</ele>
        <time>2016-04-03T08:55:44.1Z</time>
      </trkpt>
      <trkpt lat="48.58628" lon="-3.15225">
        <ele>257</ele>
        <time>2016-04-03T08:55:46.1Z</time>
      </trkpt>
      <trkpt lat="48.5863" lon="-3.1522">
        <ele>257</ele>
        <time>2016-04-03T08:55:49.1Z</time>
      </trkpt>
      <trkpt lat="48.58631" lon="-3.15215">
        <ele>257</ele>
        <time>2016-04-03T08:55:52.1Z</time>
      </trkpt>
      <trkpt lat="48.58632" lon="-3.1521">
        <ele>256</ele>
        <time>2016-04-03T08:55:55.1Z</time>
      </trkpt>
      <trkpt lat="48.58633" lon="-3.15204">
        <ele>256</ele>
        <time>2016-04-03T08:55:58.1Z</time>
      </trkpt>
      <trkpt lat="48.58633" lon="-3.15201">
        <ele>256</ele>
        <time>2016-04-03T08:56:00.1Z</time>
      </trkpt>
      <trkpt lat="48.58633" lon="-3.15198">
        <ele>256</ele>
        <time>2016-04-03T08:56:02.1Z</time>
      </trkpt>
      <trkpt lat="48.58635" lon="-3.15194">
        <ele>256</ele>
        <time>2016-04-03T08:56:05.1Z</time>
      </trkpt>
      <trkpt lat="48.58635" lon="-3.15191">
        <ele>256</ele>
        <time>2016-04-03T08:56:08.1Z</time>
      </trkpt>
      <trkpt lat="48.58636" lon="-3.15188">
        <ele>256</ele>
        <time>2016-04-03T08:56:10.1Z</time>
      </trkpt>
      <trkpt lat="48.58638" lon="-3.15183">
        <ele>256</ele>
        <time>2016-04-03T08:56:13.1Z</time>
      </trkpt>
      <trkpt lat="48.58638" lon="-3.15178">
        <ele>256</ele>
        <time>2016-04-03T08:56:16.1Z</time>
      </trkpt>
      <trkpt lat="48.58638" lon="-3.15172">
        <ele>255</ele>
        <time>2016-04-03T08:56:19.1Z</time>
      </trkpt>
      <trkpt lat="48.58638" lon="-3.15166">
        <ele>255</ele>
        <time>2016-04-03T08:56:22.1Z</time>
      </trkpt>
      <trkpt lat="48.58638" lon="-3.15163">
        <ele>255</ele>
        <time>2016-04-03T08:56:24.1Z</time>
      </trkpt>
      <trkpt lat="48.5864" lon="-3.15157">
        <ele>255</ele>
        <time>2016-04-03T08:56:27.1Z</time>
      </trkpt>
      <trkpt lat="48.58641" lon="-3.15154">
        <ele>255</ele>
        <time>2016-04-03T08:56:29.1Z</time>
      </trkpt>
      <trkpt lat="48.58643" lon="-3.15149">
        <ele>255</ele>
        <time>2016-04-03T08:56:32.1Z</time>
      </trkpt>
      <trkpt lat="48.58644" lon="-3.15146">
        <ele>255</ele>
        <time>2016-04-03T08:56:35.1Z</time>
      </trkpt>
      <trkpt lat="48.58646" lon="-3.15144">
        <ele>255</ele>
        <time>2016-04-03T08:56:37.1Z</time>
      </trkpt>
      <trkpt lat="48.58648" lon="-3.1514">
        <ele>255</ele>
        <time>2016-04-03T08:56:39.1Z</time>
      </trkpt>
      <trkpt lat="48.58648" lon="-3.15135">
        <ele>255</ele>
        <time>2016-04-03T08:56:42.1Z</time>
      </trkpt>
      <trkpt lat="48.58649" lon="-3.15132">
        <ele>255</ele>
        <time>2016-04-03T08:56:44.1Z</time>
      </trkpt>
      <trkpt lat="48.58651" lon="-3.15128">
        <ele>255</ele>
        <time>2016-04-03T08:56:47.1Z</time>
      </trkpt>
      <trkpt lat="48.58652" lon="-3.15126">
        <ele>254</ele>
        <time>2016-04-03T08:56:49.1Z</time>
      </trkpt>
      <trkpt lat="48.58652" lon="-3.15124">
        <ele>254</ele>
        <time>2016-04-03T08:56:51.1Z</time>
      </trkpt>
      <trkpt lat="48.58653" lon="-3.15119">
        <ele>254</ele>
        <time>2016-04-03T08:56:54.1Z</time>
      </trkpt>
      <trkpt lat="48.58654" lon="-3.15114">
        <ele>254</ele>
        <time>2016-04-03T08:56:57.1Z</time>
      </trkpt>
      <trkpt lat="48.58656" lon="-3.15111">
        <ele>254</ele>
        <time>2016-04-03T08:57:00.1Z</time>
      </trkpt>
      <trkpt lat="48.58658" lon="-3.15107">
        <ele>254</ele>
        <time>2016-04-03T08:57:03.1Z</time>
      </trkpt>
      <trkpt lat="48.5866" lon="-3.15103">
        <ele>254</ele>
        <time>2016-04-03T08:57:06.1Z</time>
      </trkpt>
      <trkpt lat="48.58662" lon="-3.15098">
        <ele>254</ele>
        <time>2016-04-03T08:57:09.1Z</time>
      </trkpt>
      <trkpt lat="48.58663" lon="-3.15095">
        <ele>254</ele>
        <time>2016-04-03T08:57:11.1Z</time>
      </trkpt>
      <trkpt lat="48.58665" lon="-3.1509">
        <ele>254</ele>
        <time>2016-04-03T08:57:14.1Z</time>
      </trkpt>
      <trkpt lat="48.58667" lon="-3.15087">
        <ele>254</ele>
        <time>2016-04-03T08:57:17.1Z</time>
      </trkpt>
      <trkpt lat="48.58669" lon="-3.15085">
        <ele>254</ele>
        <time>2016-04-03T08:57:19.1Z</time>
      </trkpt>
      <trkpt lat="48.5867" lon="-3.15082">
        <ele>254</ele>
        <time>2016-04-03T08:57:21.1Z</time>
      </trkpt>
      <trkpt lat="48.58672" lon="-3.15077">
        <ele>254</ele>
        <time>2016-04-03T08:57:24.1Z</time>
      </trkpt>
      <trkpt lat="48.58673" lon="-3.15075">
        <ele>254</ele>
        <time>2016-04-03T08:57:26.1Z</time>
      </trkpt>
      <trkpt lat="48.58676" lon="-3.15071">
        <ele>254</ele>
        <time>2016-04-03T08:57:29.1Z</time>
      </trkpt>
      <trkpt lat="48.58677" lon="-3.15068">
        <ele>254</ele>
        <time>2016-04-03T08:57:31.1Z</time>
      </trkpt>
      <trkpt lat="48.58678" lon="-3.15063">
        <ele>254</ele>
        <time>2016-04-03T08:57:34.1Z</time>
      </trkpt>
      <trkpt lat="48.58679" lon="-3.15059">
        <ele>254</ele>
        <time>2016-04-03T08:57:36.1Z</time>
      </trkpt>
      <trkpt lat="48.5868" lon="-3.15054">
        <ele>254</ele>
        <time>2016-04-03T08:57:39.1Z</time>
      </trkpt>
      <trkpt lat="48.58681" lon="-3.1505">
        <ele>254</ele>
        <time>2016-04-03T08:57:42.1Z</time>
      </trkpt>
      <trkpt lat="48.58682" lon="-3.15046">
        <ele>254</ele>
        <time>2016-04-03T08:57:45.1Z</time>
      </trkpt>
      <trkpt lat="48.58682" lon="-3.15044">
        <ele>254</ele>
        <time>2016-04-03T08:57:47.1Z</time>
      </trkpt>
      <trkpt lat="48.58684" lon="-3.1504">
        <ele>254</ele>
        <time>2016-04-03T08:57:50.1Z</time>
      </trkpt>
      <trkpt lat="48.58685" lon="-3.15037">
        <ele>254</ele>
        <time>2016-04-03T08:57:53.1Z</time>
      </trkpt>
      <trkpt lat="48.58687" lon="-3.15033">
        <ele>253</ele>
        <time>2016-04-03T08:57:56.1Z</time>
      </trkpt>
      <trkpt lat="48.58688" lon="-3.1503">
        <ele>254</ele>
        <time>2016-04-03T08:57:58.1Z</time>
      </trkpt>
      <trkpt lat="48.5869" lon="-3.15027">
        <ele>254</ele>
        <time>2016-04-03T08:58:01.1Z</time>
      </trkpt>
      <trkpt lat="48.58693" lon="-3.15024">
        <ele>254</ele>
        <time>2016-04-03T08:58:04.1Z</time>
      </trkpt>
      <trkpt lat="48.58693" lon="-3.15023">
        <ele>254</ele>
        <time>2016-04-03T08:58:06.1Z</time>
      </trkpt>
      <trkpt lat="48.58694" lon="-3.1502">
        <ele>254</ele>
        <time>2016-04-03T08:58:09.1Z</time>
      </trkpt>
      <trkpt lat="48.58696" lon="-3.15016">
        <ele>254</ele>
        <time>2016-04-03T08:58:12.1Z</time>
      </trkpt>
      <trkpt lat="48.58697" lon="-3.15014">
        <ele>254</ele>
        <time>2016-04-03T08:58:14.1Z</time>
      </trkpt>
      <trkpt lat="48.58698" lon="-3.15012">
        <ele>254</ele>
        <time>2016-04-03T08:58:16.1Z</time>
      </trkpt>
      <trkpt lat="48.587" lon="-3.15009">
        <ele>254</ele>
        <time>2016-04-03T08:58:19.1Z</time>
      </trkpt>
      <trkpt lat="48.58701" lon="-3.15008">
        <ele>254</ele>
        <time>2016-04-03T08:58:21.1Z</time>
      </trkpt>
      <trkpt lat="48.58703" lon="-3.15005">
        <ele>254</ele>
        <time>2016-04-03T08:58:24.1Z</time>
      </trkpt>
      <trkpt lat="48.58704" lon="-3.15004">
        <ele>254</ele>
        <time>2016-04-03T08:58:26.1Z</time>
      </trkpt>
      <trkpt lat="48.58707" lon="-3.15001">
        <ele>254</ele>
        <time>2016-04-03T08:58:29.1Z</time>
      </trkpt>
      <trkpt lat="48.58709" lon="-3.15">
        <ele>254</ele>
        <time>2016-04-03T08:58:31.1Z</time>
      </trkpt>
      <trkpt lat="48.58712" lon="-3.14997">
        <ele>254</ele>
        <time>2016-04-03T08:58:34.1Z</time>
      </trkpt>
      <trkpt lat="48.58714" lon="-3.14995">
        <ele>254</ele>
        <time>2016-04-03T08:58:37.1Z</time>
      </trkpt>
      <trkpt lat="48.58716" lon="-3.14993">
        <ele>254</ele>
        <time>2016-04-03T08:58:40.1Z</time>
      </trkpt>
      <trkpt lat="48.58717" lon="-3.14991">
        <ele>254</ele>
        <time>2016-04-03T08:58:42.1Z</time>
      </trkpt>
      <trkpt lat="48.5872" lon="-3.14988">
        <ele>255</ele>
        <time>2016-04-03T08:58:45.1Z</time>
      </trkpt>
      <trkpt lat="48.58722" lon="-3.14985">
        <ele>254</ele>
        <time>2016-04-03T08:58:48.1Z</time>
      </trkpt>
      <trkpt lat="48.58725" lon="-3.14983">
        <ele>254</ele>
        <time>2016-04-03T08:58:51.1Z</time>
      </trkpt>
      <trkpt lat="48.58727" lon="-3.14979">
        <ele>254</ele>
        <time>2016-04-03T08:58:54.1Z</time>
      </trkpt>
      <trkpt lat="48.58728" lon="-3.14976">
        <ele>255</ele>
        <time>2016-04-03T08:58:56.1Z</time>
      </trkpt>
      <trkpt lat="48.58731" lon="-3.14973">
        <ele>255</ele>
        <time>2016-04-03T08:58:59.1Z</time>
      </trkpt>
      <trkpt lat="48.58733" lon="-3.14971">
        <ele>255</ele>
        <time>2016-04-03T08:59:01.1Z</time>
      </trkpt>
      <trkpt lat="48.58735" lon="-3.14968">
        <ele>254</ele>
        <time>2016-04-03T08:59:04.1Z</time>
      </trkpt>
      <trkpt lat="48.58739" lon="-3.14965">
        <ele>254</ele>
        <time>2016-04-03T08:59:07.1Z</time>
      </trkpt>
      <trkpt lat="48.58741" lon="-3.14963">
        <ele>254</ele>
        <time>2016-04-03T08:59:10.1Z</time>
      </trkpt>
      <trkpt lat="48.58743" lon="-3.14961">
        <ele>254</ele>
        <time>2016-04-03T08:59:12.1Z</time>
      </trkpt>
      <trkpt lat="48.58744" lon="-3.14959">
        <ele>254</ele>
        <time>2016-04-03T08:59:15.1Z</time>
      </trkpt>
      <trkpt lat="48.58746" lon="-3.14958">
        <ele>254</ele>
        <time>2016-04-03T08:59:17.1Z</time>
      </trkpt>
      <trkpt lat="48.58749" lon="-3.14957">
        <ele>254</ele>
        <time>2016-04-03T08:59:19.1Z</time>
      </trkpt>
      <trkpt lat="48.58752" lon="-3.14956">
        <ele>254</ele>
        <time>2016-04-03T08:59:22.1Z</time>
      </trkpt>
      <trkpt lat="48.58753" lon="-3.14956">
        <ele>254</ele>
        <time>2016-04-03T08:59:24.1Z</time>
      </trkpt>
      <trkpt lat="48.58754" lon="-3.14957">
        <ele>254</ele>
        <time>2016-04-03T08:59:26.1Z</time>
      </trkpt>
      <trkpt lat="48.58755" lon="-3.14958">
        <ele>253</ele>
        <time>2016-04-03T08:59:28.1Z</time>
      </trkpt>
      <trkpt lat="48.58757" lon="-3.14959">
        <ele>253</ele>
        <time>2016-04-03T08:59:31.1Z</time>
      </trkpt>
      <trkpt lat="48.58759" lon="-3.14958">
        <ele>253</ele>
        <time>2016-04-03T08:59:34.1Z</time>
      </trkpt>
      <trkpt lat="48.5876" lon="-3.14958">
        <ele>253</ele>
        <time>2016-04-03T08:59:36.1Z</time>
      </trkpt>
      <trkpt lat="48.58763" lon="-3.14957">
        <ele>253</ele>
        <time>2016-04-03T08:59:39.1Z</time>
      </trkpt>
      <trkpt lat="48.58765" lon="-3.14957">
        <ele>253</ele>
        <time>2016-04-03T08:59:41.1Z</time>
      </trkpt>
      <trkpt lat="48.58767" lon="-3.14955">
        <ele>253</ele>
        <time>2016-04-03T08:59:44.1Z</time>
      </trkpt>
      <trkpt lat="48.58769" lon="-3.14953">
        <ele>254</ele>
        <time>2016-04-03T08:59:47.1Z</time>
      </trkpt>
      <trkpt lat="48.58771" lon="-3.1495">
        <ele>254</ele>
        <time>2016-04-03T08:59:50.1Z</time>
      </trkpt>
      <trkpt lat="48.58773" lon="-3.14948">
        <ele>254</ele>
        <time>2016-04-03T08:59:52.1Z</time>
      </trkpt>
      <trkpt lat="48.58775" lon="-3.14945">
        <ele>254</ele>
        <time>2016-04-03T08:59:55.1Z</time>
      </trkpt>
      <trkpt lat="48.58778" lon="-3.14943">
        <ele>254</ele>
        <time>2016-04-03T08:59:58.1Z</time>
      </trkpt>
      <trkpt lat="48.58781" lon="-3.14939">
        <ele>254</ele>
        <time>2016-04-03T09:00:01.1Z</time>
      </trkpt>
      <trkpt lat="48.58782" lon="-3.14936">
        <ele>254</ele>
        <time>2016-04-03T09:00:03.1Z</time>
      </trkpt>
      <trkpt lat="48.58784" lon="-3.14933">
        <ele>254</ele>
        <time>2016-04-03T09:00:06.1Z</time>
      </trkpt>
      <trkpt lat="48.58786" lon="-3.1493">
        <ele>254</ele>
        <time>2016-04-03T09:00:09.1Z</time>
      </trkpt>
      <trkpt lat="48.58788" lon="-3.14928">
        <ele>254</ele>
        <time>2016-04-03T09:00:11.1Z</time>
      </trkpt>
      <trkpt lat="48.5879" lon="-3.14924">
        <ele>254</ele>
        <time>2016-04-03T09:00:14.1Z</time>
      </trkpt>
      <trkpt lat="48.58793" lon="-3.14921">
        <ele>254</ele>
        <time>2016-04-03T09:00:17.1Z</time>
      </trkpt>
      <trkpt lat="48.58794" lon="-3.1492">
        <ele>254</ele>
        <time>2016-04-03T09:00:19.1Z</time>
      </trkpt>
      <trkpt lat="48.58796" lon="-3.14918">
        <ele>254</ele>
        <time>2016-04-03T09:00:22.1Z</time>
      </trkpt>
      <trkpt lat="48.58798" lon="-3.14915">
        <ele>255</ele>
        <time>2016-04-03T09:00:25.1Z</time>
      </trkpt>
      <trkpt lat="48.588" lon="-3.14912">
        <ele>255</ele>
        <time>2016-04-03T09:00:28.1Z</time>
      </trkpt>
      <trkpt lat="48.58802" lon="-3.14911">
        <ele>255</ele>
        <time>2016-04-03T09:00:30.1Z</time>
      </trkpt>
      <trkpt lat="48.58802" lon="-3.14909">
        <ele>255</ele>
        <time>2016-04-03T09:00:33.1Z</time>
      </trkpt>
      <trkpt lat="48.58804" lon="-3.14906">
        <ele>255</ele>
        <time>2016-04-03T09:00:36.1Z</time>
      </trkpt>
      <trkpt lat="48.58805" lon="-3.14904">
        <ele>255</ele>
        <time>2016-04-03T09:00:39.1Z</time>
      </trkpt>
      <trkpt lat="48.58805" lon="-3.14903">
        <ele>255</ele>
        <time>2016-04-03T09:00:41.1Z</time>
      </trkpt>
      <trkpt lat="48.58808" lon="-3.14901">
        <ele>255</ele>
        <time>2016-04-03T09:00:44.1Z</time>
      </trkpt>
      <trkpt lat="48.58809" lon="-3.14898">
        <ele>255</ele>
        <time>2016-04-03T09:00:46.1Z</time>
      </trkpt>
      <trkpt lat="48.58811" lon="-3.14896">
        <ele>255</ele>
        <time>2016-04-03T09:00:49.1Z</time>
      </trkpt>
      <trkpt lat="48.58812" lon="-3.14895">
        <ele>256</ele>
        <time>2016-04-03T09:00:52.1Z</time>
      </trkpt>
      <trkpt lat="48.58815" lon="-3.14893">
        <ele>256</ele>
        <time>2016-04-03T09:00:55.1Z</time>
      </trkpt>
      <trkpt lat="48.58816" lon="-3.14891">
        <ele>256</ele>
        <time>2016-04-03T09:00:58.1Z</time>
      </trkpt>
      <trkpt lat="48.58818" lon="-3.1489">
        <ele>256</ele>
        <time>2016-04-03T09:01:00.1Z</time>
      </trkpt>
      <trkpt lat="48.58818" lon="-3.1489">
        <ele>256</ele>
        <time>2016-04-03T09:01:03.1Z</time>
      </trkpt>
      <trkpt lat="48.58819" lon="-3.14889">
        <ele>256</ele>
        <time>2016-04-03T09:01:05.1Z</time>
      </trkpt>
      <trkpt lat="48.5882" lon="-3.14887">
        <ele>256</ele>
        <time>2016-04-03T09:01:08.1Z</time>
      </trkpt>
      <trkpt lat="48.58821" lon="-3.14887">
        <ele>256</ele>
        <time>2016-04-03T09:01:10.1Z</time>
      </trkpt>
      <trkpt lat="48.58821" lon="-3.14886">
        <ele>256</ele>
        <time>2016-04-03T09:01:12.1Z</time>
      </trkpt>
      <trkpt lat="48.58823" lon="-3.14886">
        <ele>256</ele>
        <time>2016-04-03T09:01:15.1Z</time>
      </trkpt>
      <trkpt lat="48.58825" lon="-3.14886">
        <ele>256</ele>
        <time>2016-04-03T09:01:18.1Z</time>
      </trkpt>
      <trkpt lat="48.58827" lon="-3.14886">
        <ele>255</ele>
        <time>2016-04-03T09:01:21.1Z</time>
      </trkpt>
      <trkpt lat="48.58829" lon="-3.14885">
        <ele>255</ele>
        <time>2016-04-03T09:01:24.1Z</time>
      </trkpt>
      <trkpt lat="48.58831" lon="-3.14884">
        <ele>255</ele>
        <time>2016-04-03T09:01:26.1Z</time>
      </trkpt>
      <trkpt lat="48.58832" lon="-3.14885">
        <ele>255</ele>
        <time>2016-04-03T09:01:29.1Z</time>
      </trkpt>
      <trkpt lat="48.58834" lon="-3.14886">
        <ele>255</ele>
        <time>2016-04-03T09:01:32.1Z</time>
      </trkpt>
      <trkpt lat="48.58836" lon="-3.14887">
        <ele>255</ele>
        <time>2016-04-03T09:01:34.1Z</time>
      </trkpt>
      <trkpt lat="48.58836" lon="-3.14888">
        <ele>255</ele>
        <time>2016-04-03T09:01:36.1Z</time>
      </trkpt>
      <trkpt lat="48.58839" lon="-3.1489">
        <ele>255</ele>
        <time>2016-04-03T09:01:39.1Z</time>
      </trkpt>
      <trkpt lat="48.58841" lon="-3.14891">
        <ele>254</ele>
        <time>2016-04-03T09:01:41.1Z</time>
      </trkpt>
      <trkpt lat="48.58843" lon="-3.14892">
        <ele>254</ele>
        <time>2016-04-03T09:01:43.1Z</time>
      </trkpt>
      <trkpt lat="48.58846" lon="-3.14892">
        <ele>254</ele>
        <time>2016-04-03T09:01:46.1Z</time>
      </trkpt>
      <trkpt lat="48.58847" lon="-3.14893">
        <ele>254</ele>
        <time>2016-04-03T09:01:48.1Z</time>
      </trkpt>
      <trkpt lat="48.5885" lon="-3.14893">
        <ele>254</ele>
        <time>2016-04-03T09:01:51.1Z</time>
      </trkpt>
      <trkpt lat="48.5885" lon="-3.14894">
        <ele>254</ele>
        <time>2016-04-03T09:01:54.1Z</time>
      </trkpt>
      <trkpt lat="48.5885" lon="-3.14895">
        <ele>255</ele>
        <time>2016-04-03T09:01:56.1Z</time>
      </trkpt>
      <trkpt lat="48.58852" lon="-3.14894">
        <ele>255</ele>
        <time>2016-04-03T09:01:59.1Z</time>
      </trkpt>
      <trkpt lat="48.58854" lon="-3.14893">
        <ele>255</ele>
        <time>2016-04-03T09:02:01.1Z</time>
      </trkpt>
      <trkpt lat="48.58855" lon="-3.14891">
        <ele>254</ele>
        <time>2016-04-03T09:02:03.1Z</time>
      </trkpt>
      <trkpt lat="48.58856" lon="-3.14891">
        <ele>254</ele>
        <time>2016-04-03T09:02:05.1Z</time>
      </trkpt>
      <trkpt lat="48.58856" lon="-3.14891">
        <ele>254</ele>
        <time>2016-04-03T09:02:08.1Z</time>
      </trkpt>
      <trkpt lat="48.58858" lon="-3.14889">
        <ele>254</ele>
        <time>2016-04-03T09:02:11.1Z</time>
      </trkpt>
      <trkpt lat="48.5886" lon="-3.14884">
        <ele>254</ele>
        <time>2016-04-03T09:02:14.1Z</time>
      </trkpt>
      <trkpt lat="48.58864" lon="-3.14879">
        <ele>254</ele>
        <time>2016-04-03T09:02:17.1Z</time>
      </trkpt>
      <trkpt lat="48.58867" lon="-3.14875">
        <ele>254</ele>
        <time>2016-04-03T09:02:19.1Z</time>
      </trkpt>
      <trkpt lat="48.58869" lon="-3.14872">
        <ele>255</ele>
        <time>2016-04-03T09:02:21.1Z</time>
      </trkpt>
      <trkpt lat="48.58871" lon="-3.14868">
        <ele>255</ele>
        <time>2016-04-03T09:02:24.1Z</time>
      </trkpt>
      <trkpt lat="48.58873" lon="-3.14865">
        <ele>255</ele>
        <time>2016-04-03T09:02:26.1Z</time>
      </trkpt>
      <trkpt lat="48.58875" lon="-3.14863">
        <ele>255</ele>
        <time>2016-04-03T09:02:29.1Z</time>
      </trkpt>
      <trkpt lat="48.58876" lon="-3.14862">
        <ele>255</ele>
        <time>2016-04-03T09:02:32.1Z</time>
      </trkpt>
      <trkpt lat="48.58878" lon="-3.14862">
        <ele>255</ele>
        <time>2016-04-03T09:02:34.1Z</time>
      </trkpt>
      <trkpt lat="48.58882" lon="-3.14861">
        <ele>254</ele>
        <time>2016-04-03T09:02:37.1Z</time>
      </trkpt>
      <trkpt lat="48.58884" lon="-3.14862">
        <ele>254</ele>
        <time>2016-04-03T09:02:39.1Z</time>
      </trkpt>
      <trkpt lat="48.58886" lon="-3.14861">
        <ele>254</ele>
        <time>2016-04-03T09:02:41.1Z</time>
      </trkpt>
      <trkpt lat="48.58889" lon="-3.14861">
        <ele>253</ele>
        <time>2016-04-03T09:02:44.1Z</time>
      </trkpt>
      <trkpt lat="48.58891" lon="-3.14862">
        <ele>253</ele>
        <time>2016-04-03T09:02:46.1Z</time>
      </trkpt>
      <trkpt lat="48.58892" lon="-3.14862">
        <ele>253</ele>
        <time>2016-04-03T09:02:48.1Z</time>
      </trkpt>
      <trkpt lat="48.58895" lon="-3.14863">
        <ele>253</ele>
        <time>2016-04-03T09:02:51.1Z</time>
      </trkpt>
      <trkpt lat="48.58897" lon="-3.14864">
        <ele>253</ele>
        <time>2016-04-03T09:02:53.1Z</time>
      </trkpt>
      <trkpt lat="48.58898" lon="-3.14864">
        <ele>253</ele>
        <time>2016-04-03T09:02:56.1Z</time>
      </trkpt>
      <trkpt lat="48.58901" lon="-3.14863">
        <ele>253</ele>
        <time>2016-04-03T09:02:59.1Z</time>
      </trkpt>
      <trkpt lat="48.58903" lon="-3.14862">
        <ele>253</ele>
        <time>2016-04-03T09:03:01.1Z</time>
      </trkpt>
      <trkpt lat="48.58907" lon="-3.14859">
        <ele>254</ele>
        <time>2016-04-03T09:03:04.1Z</time>
      </trkpt>
      <trkpt lat="48.58908" lon="-3.14857">
        <ele>254</ele>
        <time>2016-04-03T09:03:06.1Z</time>
      </trkpt>
      <trkpt lat="48.58912" lon="-3.14853">
        <ele>254</ele>
        <time>2016-04-03T09:03:09.1Z</time>
      </trkpt>
      <trkpt lat="48.58915" lon="-3.14849">
        <ele>254</ele>
        <time>2016-04-03T09:03:12.1Z</time>
      </trkpt>
      <trkpt lat="48.58917" lon="-3.14846">
        <ele>254</ele>
        <time>2016-04-03T09:03:14.1Z</time>
      </trkpt>
      <trkpt lat="48.58921" lon="-3.14843">
        <ele>254</ele>
        <time>2016-04-03T09:03:17.1Z</time>
      </trkpt>
      <trkpt lat="48.58923" lon="-3.1484">
        <ele>254</ele>
        <time>2016-04-03T09:03:19.1Z</time>
      </trkpt>
      <trkpt lat="48.58924" lon="-3.1484">
        <ele>254</ele>
        <time>2016-04-03T09:03:21.1Z</time>
      </trkpt>
      <trkpt lat="48.58926" lon="-3.14839">
        <ele>254</ele>
        <time>2016-04-03T09:03:24.1Z</time>
      </trkpt>
      <trkpt lat="48.58928" lon="-3.14839">
        <ele>254</ele>
        <time>2016-04-03T09:03:26.1Z</time>
      </trkpt>
      <trkpt lat="48.58929" lon="-3.14839">
        <ele>254</ele>
        <time>2016-04-03T09:03:28.1Z</time>
      </trkpt>
      <trkpt lat="48.58931" lon="-3.14838">
        <ele>253</ele>
        <time>2016-04-03T09:03:31.1Z</time>
      </trkpt>
      <trkpt lat="48.58934" lon="-3.14838">
        <ele>253</ele>
        <time>2016-04-03T09:03:34.1Z</time>
      </trkpt>
      <trkpt lat="48.58936" lon="-3.14839">
        <ele>252</ele>
        <time>2016-04-03T09:03:37.1Z</time>
      </trkpt>
      <trkpt lat="48.58938" lon="-3.14839">
        <ele>252</ele>
        <time>2016-04-03T09:03:40.1Z</time>
      </trkpt>
      <trkpt lat="48.5894" lon="-3.14838">
        <ele>252</ele>
        <time>2016-04-03T09:03:43.1Z</time>
      </trkpt>
      <trkpt lat="48.58941" lon="-3.14838">
        <ele>252</ele>
        <time>2016-04-03T09:03:45.1Z</time>
      </trkpt>
      <trkpt lat="48.58943" lon="-3.14838">
        <ele>251</ele>
        <time>2016-04-03T09:03:48.1Z</time>
      </trkpt>
      <trkpt lat="48.58945" lon="-3.14838">
        <ele>251</ele>
        <time>2016-04-03T09:03:51.1Z</time>
      </trkpt>
      <trkpt lat="48.58945" lon="-3.14837">
        <ele>251</ele>
        <time>2016-04-03T09:03:53.1Z</time>
      </trkpt>
      <trkpt lat="48.58946" lon="-3.14838">
        <ele>251</ele>
        <time>2016-04-03T09:03:56.1Z</time>
      </trkpt>
      <trkpt lat="48.58948" lon="-3.14839">
        <ele>251</ele>
        <time>2016-04-03T09:03:58.1Z</time>
      </trkpt>
      <trkpt lat="48.58949" lon="-3.14839">
        <ele>252</ele>
        <time>2016-04-03T09:04:01.1Z</time>
      </trkpt>
      <trkpt lat="48.5895" lon="-3.14839">
        <ele>252</ele>
        <time>2016-04-03T09:04:04.1Z</time>
      </trkpt>
      <trkpt lat="48.58951" lon="-3.14839">
        <ele>252</ele>
        <time>2016-04-03T09:04:06.1Z</time>
      </trkpt>
      <trkpt lat="48.58952" lon="-3.14839">
        <ele>251</ele>
        <time>2016-04-03T09:04:09.1Z</time>
      </trkpt>
      <trkpt lat="48.58953" lon="-3.14841">
        <ele>251</ele>
        <time>2016-04-03T09:04:12.1Z</time>
      </trkpt>
      <trkpt lat="48.58953" lon="-3.14842">
        <ele>251</ele>
        <time>2016-04-03T09:04:14.1Z</time>
      </trkpt>
      <trkpt lat="48.58953" lon="-3.14842">
        <ele>252</ele>
        <time>2016-04-03T09:04:17.1Z</time>
      </trkpt>
      <trkpt lat="48.58953" lon="-3.14844">
        <ele>252</ele>
        <time>2016-04-03T09:04:20.1Z</time>
      </trkpt>
      <trkpt lat="48.58953" lon="-3.14844">
        <ele>251</ele>
        <time>2016-04-03T09:04:22.1Z</time>
      </trkpt>
      <trkpt lat="48.58953" lon="-3.14844">
        <ele>251</ele>
        <time>2016-04-03T09:04:26.1Z</time>
      </trkpt>
      <trkpt lat="48.58953" lon="-3.14843">
        <ele>251</ele>
        <time>2016-04-03T09:04:28.1Z</time>
      </trkpt>
      <trkpt lat="48.58953" lon="-3.14842">
        <ele>251</ele>
        <time>2016-04-03T09:04:30.1Z</time>
      </trkpt>
      <trkpt lat="48.58954" lon="-3.1484">
        <ele>251</ele>
        <time>2016-04-03T09:04:32.1Z</time>
      </trkpt>
      <trkpt lat="48.58954" lon="-3.14839">
        <ele>251</ele>
        <time>2016-04-03T09:04:35.1Z</time>
      </trkpt>
      <trkpt lat="48.58953" lon="-3.14839">
        <ele>251</ele>
        <time>2016-04-03T09:04:38.1Z</time>
      </trkpt>
      <trkpt lat="48.58953" lon="-3.1484">
        <ele>251</ele>
        <time>2016-04-03T09:04:40.1Z</time>
      </trkpt>
      <trkpt lat="48.58952" lon="-3.1484">
        <ele>251</ele>
        <time>2016-04-03T09:04:43.1Z</time>
      </trkpt>
      <trkpt lat="48.58952" lon="-3.14841">
        <ele>251</ele>
        <time>2016-04-03T09:04:46.1Z</time>
      </trkpt>
      <trkpt lat="48.58951" lon="-3.14841">
        <ele>251</ele>
        <time>2016-04-03T09:04:49.1Z</time>
      </trkpt>
      <trkpt lat="48.58951" lon="-3.1484">
        <ele>251</ele>
        <time>2016-04-03T09:04:52.1Z</time>
      </trkpt>
      <trkpt lat="48.58951" lon="-3.14838">
        <ele>252</ele>
        <time>2016-04-03T09:04:55.1Z</time>
      </trkpt>
      <trkpt lat="48.5895" lon="-3.14836">
        <ele>252</ele>
        <time>2016-04-03T09:04:57.1Z</time>
      </trkpt>
      <trkpt lat="48.5895" lon="-3.14834">
        <ele>252</ele>
        <time>2016-04-03T09:04:59.1Z</time>
      </trkpt>
      <trkpt lat="48.58949" lon="-3.14833">
        <ele>252</ele>
        <time>2016-04-03T09:05:01.1Z</time>
      </trkpt>
      <trkpt lat="48.58949" lon="-3.14831">
        <ele>252</ele>
        <time>2016-04-03T09:05:04.1Z</time>
      </trkpt>
      <trkpt lat="48.58948" lon="-3.14829">
        <ele>252</ele>
        <time>2016-04-03T09:05:07.1Z</time>
      </trkpt>
      <trkpt lat="48.58949" lon="-3.14829">
        <ele>251</ele>
        <time>2016-04-03T09:05:09.1Z</time>
      </trkpt>
      <trkpt lat="48.58949" lon="-3.14828">
        <ele>251</ele>
        <time>2016-04-03T09:05:11.1Z</time>
      </trkpt>
      <trkpt lat="48.5895" lon="-3.14829">
        <ele>251</ele>
        <time>2016-04-03T09:05:14.1Z</time>
      </trkpt>
      <trkpt lat="48.5895" lon="-3.1483">
        <ele>251</ele>
        <time>2016-04-03T09:05:17.1Z</time>
      </trkpt>
      <trkpt lat="48.58951" lon="-3.14831">
        <ele>251</ele>
        <time>2016-04-03T09:05:20.1Z</time>
      </trkpt>
      <trkpt lat="48.58952" lon="-3.14833">
        <ele>251</ele>
        <time>2016-04-03T09:05:23.1Z</time>
      </trkpt>
      <trkpt lat="48.58953" lon="-3.14834">
        <ele>251</ele>
        <time>2016-04-03T09:05:26.1Z</time>
      </trkpt>
      <trkpt lat="48.58955" lon="-3.14833">
        <ele>251</ele>
        <time>2016-04-03T09:05:29.1Z</time>
      </trkpt>
      <trkpt lat="48.58956" lon="-3.14832">
        <ele>251</ele>
        <time>2016-04-03T09:05:32.1Z</time>
      </trkpt>
      <trkpt lat="48.58958" lon="-3.14832">
        <ele>251</ele>
        <time>2016-04-03T09:05:35.1Z</time>
      </trkpt>
      <trkpt lat="48.5896" lon="-3.14831">
        <ele>251</ele>
        <time>2016-04-03T09:05:37.1Z</time>
      </trkpt>
      <trkpt lat="48.58962" lon="-3.14831">
        <ele>252</ele>
        <time>2016-04-03T09:05:40.1Z</time>
      </trkpt>
      <trkpt lat="48.58963" lon="-3.14831">
        <ele>251</ele>
        <time>2016-04-03T09:05:42.1Z</time>
      </trkpt>
      <trkpt lat="48.58964" lon="-3.14831">
        <ele>251</ele>
        <time>2016-04-03T09:05:44.1Z</time>
      </trkpt>
      <trkpt lat="48.58965" lon="-3.14832">
        <ele>251</ele>
        <time>2016-04-03T09:05:46.1Z</time>
      </trkpt>
      <trkpt lat="48.58966" lon="-3.14832">
        <ele>251</ele>
        <time>2016-04-03T09:05:49.1Z</time>
      </trkpt>
      <trkpt lat="48.58967" lon="-3.14832">
        <ele>251</ele>
        <time>2016-04-03T09:05:52.1Z</time>
      </trkpt>
      <trkpt lat="48.58967" lon="-3.1483">
        <ele>252</ele>
        <time>2016-04-03T09:05:55.1Z</time>
      </trkpt>
      <trkpt lat="48.58967" lon="-3.14828">
        <ele>252</ele>
        <time>2016-04-03T09:05:58.1Z</time>
      </trkpt>
      <trkpt lat="48.58966" lon="-3.14827">
        <ele>251</ele>
        <time>2016-04-03T09:06:00.1Z</time>
      </trkpt>
      <trkpt lat="48.58966" lon="-3.14827">
        <ele>251</ele>
        <time>2016-04-03T09:06:03.1Z</time>
      </trkpt>
      <trkpt lat="48.58967" lon="-3.14827">
        <ele>251</ele>
        <time>2016-04-03T09:06:05.1Z</time>
      </trkpt>
      <trkpt lat="48.58968" lon="-3.14827">
        <ele>251</ele>
        <time>2016-04-03T09:06:08.1Z</time>
      </trkpt>
      <trkpt lat="48.58969" lon="-3.14827">
        <ele>251</ele>
        <time>2016-04-03T09:06:11.1Z</time>
      </trkpt>
      <trkpt lat="48.5897" lon="-3.14826">
        <ele>251</ele>
        <time>2016-04-03T09:06:13.1Z</time>
      </trkpt>
      <trkpt lat="48.58971" lon="-3.14824">
        <ele>252</ele>
        <time>2016-04-03T09:06:16.1Z</time>
      </trkpt>
      <trkpt lat="48.58972" lon="-3.14824">
        <ele>251</ele>
        <time>2016-04-03T09:06:18.1Z</time>
      </trkpt>
      <trkpt lat="48.58972" lon="-3.14822">
        <ele>252</ele>
        <time>2016-04-03T09:06:21.1Z</time>
      </trkpt>
      <trkpt lat="48.58972" lon="-3.14821">
        <ele>251</ele>
        <time>2016-04-03T09:06:24.1Z</time>
      </trkpt>
      <trkpt lat="48.58973" lon="-3.1482">
        <ele>251</ele>
        <time>2016-04-03T09:06:27.1Z</time>
      </trkpt>
      <trkpt lat="48.58973" lon="-3.1482">
        <ele>251</ele>
        <time>2016-04-03T09:06:29.1Z</time>
      </trkpt>
      <trkpt lat="48.58973" lon="-3.14818">
        <ele>251</ele>
        <time>2016-04-03T09:06:31.1Z</time>
      </trkpt>
      <trkpt lat="48.58973" lon="-3.14818">
        <ele>252</ele>
        <time>2016-04-03T09:06:33.1Z</time>
      </trkpt>
      <trkpt lat="48.58973" lon="-3.14818">
        <ele>252</ele>
        <time>2016-04-03T09:06:36.1Z</time>
      </trkpt>
      <trkpt lat="48.58972" lon="-3.14817">
        <ele>252</ele>
        <time>2016-04-03T09:06:39.1Z</time>
      </trkpt>
      <trkpt lat="48.58972" lon="-3.14817">
        <ele>252</ele>
        <time>2016-04-03T09:06:41.1Z</time>
      </trkpt>
      <trkpt lat="48.58973" lon="-3.14818">
        <ele>252</ele>
        <time>2016-04-03T09:06:44.1Z</time>
      </trkpt>
      <trkpt lat="48.58975" lon="-3.14816">
        <ele>252</ele>
        <time>2016-04-03T09:06:47.1Z</time>
      </trkpt>
      <trkpt lat="48.58976" lon="-3.14817">
        <ele>251</ele>
        <time>2016-04-03T09:06:52.1Z</time>
      </trkpt>
      <trkpt lat="48.58976" lon="-3.14818">
        <ele>251</ele>
        <time>2016-04-03T09:06:55.1Z</time>
      </trkpt>
      <trkpt lat="48.58976" lon="-3.14818">
        <ele>251</ele>
        <time>2016-04-03T09:06:57.1Z</time>
      </trkpt>
      <trkpt lat="48.58976" lon="-3.14818">
        <ele>251</ele>
        <time>2016-04-03T09:07:00.1Z</time>
      </trkpt>
      <trkpt lat="48.58975" lon="-3.14818">
        <ele>252</ele>
        <time>2016-04-03T09:07:02.1Z</time>
      </trkpt>
      <trkpt lat="48.58974" lon="-3.14819">
        <ele>252</ele>
        <time>2016-04-03T09:07:04.1Z</time>
      </trkpt>
      <trkpt lat="48.58973" lon="-3.1482">
        <ele>252</ele>
        <time>2016-04-03T09:07:07.1Z</time>
      </trkpt>
      <trkpt lat="48.58973" lon="-3.14821">
        <ele>252</ele>
        <time>2016-04-03T09:07:10.1Z</time>
      </trkpt>
      <trkpt lat="48.58973" lon="-3.1482">
        <ele>252</ele>
        <time>2016-04-03T09:07:13.1Z</time>
      </trkpt>
      <trkpt lat="48.58974" lon="-3.14819">
        <ele>252</ele>
        <time>2016-04-03T09:07:16.1Z</time>
      </trkpt>
      <trkpt lat="48.58974" lon="-3.14818">
        <ele>252</ele>
        <time>2016-04-03T09:07:18.1Z</time>
      </trkpt>
      <trkpt lat="48.58973" lon="-3.14818">
        <ele>252</ele>
        <time>2016-04-03T09:07:21.1Z</time>
      </trkpt>
      <trkpt lat="48.58973" lon="-3.14818">
        <ele>252</ele>
        <time>2016-04-03T09:07:24.1Z</time>
      </trkpt>
      <trkpt lat="48.58972" lon="-3.14818">
        <ele>252</ele>
        <time>2016-04-03T09:07:26.1Z</time>
      </trkpt>
      <trkpt lat="48.58972" lon="-3.14818">
        <ele>252</ele>
        <time>2016-04-03T09:07:29.1Z</time>
      </trkpt>
      <trkpt lat="48.58972" lon="-3.14817">
        <ele>252</ele>
        <time>2016-04-03T09:07:31.1Z</time>
      </trkpt>
      <trkpt lat="48.58973" lon="-3.14816">
        <ele>251</ele>
        <time>2016-04-03T09:07:34.1Z</time>
      </trkpt>
      <trkpt lat="48.58973" lon="-3.14817">
        <ele>251</ele>
        <time>2016-04-03T09:07:36.1Z</time>
      </trkpt>
      <trkpt lat="48.58974" lon="-3.14818">
        <ele>252</ele>
        <time>2016-04-03T09:07:38.1Z</time>
      </trkpt>
      <trkpt lat="48.58974" lon="-3.14818">
        <ele>252</ele>
        <time>2016-04-03T09:07:40.1Z</time>
      </trkpt>
      <trkpt lat="48.58975" lon="-3.14819">
        <ele>252</ele>
        <time>2016-04-03T09:07:43.1Z</time>
      </trkpt>
      <trkpt lat="48.58976" lon="-3.14821">
        <ele>252</ele>
        <time>2016-04-03T09:07:46.1Z</time>
      </trkpt>
      <trkpt lat="48.58977" lon="-3.14821">
        <ele>252</ele>
        <time>2016-04-03T09:07:50.1Z</time>
      </trkpt>
      <trkpt lat="48.58977" lon="-3.14822">
        <ele>252</ele>
        <time>2016-04-03T09:07:53.1Z</time>
      </trkpt>
      <trkpt lat="48.58977" lon="-3.14822">
        <ele>252</ele>
        <time>2016-04-03T09:07:55.1Z</time>
      </trkpt>
      <trkpt lat="48.58977" lon="-3.14823">
        <ele>252</ele>
        <time>2016-04-03T09:07:58.1Z</time>
      </trkpt>
      <trkpt lat="48.58978" lon="-3.14824">
        <ele>252</ele>
        <time>2016-04-03T09:08:01.1Z</time>
      </trkpt>
      <trkpt lat="48.58978" lon="-3.14824">
        <ele>252</ele>
        <time>2016-04-03T09:08:03.1Z</time>
      </trkpt>
      <trkpt lat="48.58979" lon="-3.14824">
        <ele>252</ele>
        <time>2016-04-03T09:08:06.1Z</time>
      </trkpt>
      <trkpt lat="48.5898" lon="-3.14823">
        <ele>252</ele>
        <time>2016-04-03T09:08:08.1Z</time>
      </trkpt>
      <trkpt lat="48.58981" lon="-3.14822">
        <ele>252</ele>
        <time>2016-04-03T09:08:10.1Z</time>
      </trkpt>
      <trkpt lat="48.58981" lon="-3.14821">
        <ele>252</ele>
        <time>2016-04-03T09:08:13.1Z</time>
      </trkpt>
      <trkpt lat="48.58981" lon="-3.1482">
        <ele>252</ele>
        <time>2016-04-03T09:08:16.1Z</time>
      </trkpt>
      <trkpt lat="48.58982" lon="-3.14819">
        <ele>253</ele>
        <time>2016-04-03T09:08:18.1Z</time>
      </trkpt>
      <trkpt lat="48.58983" lon="-3.14818">
        <ele>253</ele>
        <time>2016-04-03T09:08:20.1Z</time>
      </trkpt>
      <trkpt lat="48.58985" lon="-3.14816">
        <ele>253</ele>
        <time>2016-04-03T09:08:23.1Z</time>
      </trkpt>
      <trkpt lat="48.58987" lon="-3.14816">
        <ele>253</ele>
        <time>2016-04-03T09:08:25.1Z</time>
      </trkpt>
      <trkpt lat="48.58988" lon="-3.14815">
        <ele>253</ele>
        <time>2016-04-03T09:08:28.1Z</time>
      </trkpt>
      <trkpt lat="48.5899" lon="-3.14814">
        <ele>253</ele>
        <time>2016-04-03T09:08:31.1Z</time>
      </trkpt>
      <trkpt lat="48.58992" lon="-3.14813">
        <ele>253</ele>
        <time>2016-04-03T09:08:34.1Z</time>
      </trkpt>
      <trkpt lat="48.58995" lon="-3.14813">
        <ele>253</ele>
        <time>2016-04-03T09:08:37.1Z</time>
      </trkpt>
      <trkpt lat="48.58996" lon="-3.14812">
        <ele>253</ele>
        <time>2016-04-03T09:08:39.1Z</time>
      </trkpt>
      <trkpt lat="48.58999" lon="-3.14811">
        <ele>253</ele>
        <time>2016-04-03T09:08:42.1Z</time>
      </trkpt>
      <trkpt lat="48.59001" lon="-3.1481">
        <ele>253</ele>
        <time>2016-04-03T09:08:44.1Z</time>
      </trkpt>
      <trkpt lat="48.59003" lon="-3.14808">
        <ele>253</ele>
        <time>2016-04-03T09:08:47.1Z</time>
      </trkpt>
      <trkpt lat="48.59005" lon="-3.14807">
        <ele>253</ele>
        <time>2016-04-03T09:08:49.1Z</time>
      </trkpt>
      <trkpt lat="48.59008" lon="-3.14805">
        <ele>253</ele>
        <time>2016-04-03T09:08:52.1Z</time>
      </trkpt>
      <trkpt lat="48.5901" lon="-3.14805">
        <ele>254</ele>
        <time>2016-04-03T09:08:54.1Z</time>
      </trkpt>
      <trkpt lat="48.59011" lon="-3.14804">
        <ele>254</ele>
        <time>2016-04-03T09:08:56.1Z</time>
      </trkpt>
      <trkpt lat="48.59014" lon="-3.14803">
        <ele>254</ele>
        <time>2016-04-03T09:08:59.1Z</time>
      </trkpt>
      <trkpt lat="48.59017" lon="-3.14802">
        <ele>253</ele>
        <time>2016-04-03T09:09:02.1Z</time>
      </trkpt>
      <trkpt lat="48.59019" lon="-3.14801">
        <ele>253</ele>
        <time>2016-04-03T09:09:04.1Z</time>
      </trkpt>
      <trkpt lat="48.59021" lon="-3.148">
        <ele>253</ele>
        <time>2016-04-03T09:09:06.1Z</time>
      </trkpt>
      <trkpt lat="48.59022" lon="-3.14799">
        <ele>253</ele>
        <time>2016-04-03T09:09:08.1Z</time>
      </trkpt>
      <trkpt lat="48.59024" lon="-3.14798">
        <ele>253</ele>
        <time>2016-04-03T09:09:11.1Z</time>
      </trkpt>
      <trkpt lat="48.59026" lon="-3.14797">
        <ele>253</ele>
        <time>2016-04-03T09:09:13.1Z</time>
      </trkpt>
      <trkpt lat="48.5903" lon="-3.14796">
        <ele>253</ele>
        <time>2016-04-03T09:09:16.1Z</time>
      </trkpt>
      <trkpt lat="48.59033" lon="-3.14796">
        <ele>253</ele>
        <time>2016-04-03T09:09:19.1Z</time>
      </trkpt>
      <trkpt lat="48.59035" lon="-3.14795">
        <ele>253</ele>
        <time>2016-04-03T09:09:21.1Z</time>
      </trkpt>
      <trkpt lat="48.59039" lon="-3.14795">
        <ele>253</ele>
        <time>2016-04-03T09:09:24.1Z</time>
      </trkpt>
      <trkpt lat="48.5904" lon="-3.14794">
        <ele>253</ele>
        <time>2016-04-03T09:09:26.1Z</time>
      </trkpt>
      <trkpt lat="48.59042" lon="-3.14793">
        <ele>253</ele>
        <time>2016-04-03T09:09:28.1Z</time>
      </trkpt>
      <trkpt lat="48.59044" lon="-3.14792">
        <ele>253</ele>
        <time>2016-04-03T09:09:31.1Z</time>
      </trkpt>
      <trkpt lat="48.59046" lon="-3.14791">
        <ele>253</ele>
        <time>2016-04-03T09:09:33.1Z</time>
      </trkpt>
      <trkpt lat="48.5905" lon="-3.14791">
        <ele>253</ele>
        <time>2016-04-03T09:09:36.1Z</time>
      </trkpt>
      <trkpt lat="48.59053" lon="-3.14791">
        <ele>253</ele>
        <time>2016-04-03T09:09:39.1Z</time>
      </trkpt>
      <trkpt lat="48.59056" lon="-3.14791">
        <ele>253</ele>
        <time>2016-04-03T09:09:42.1Z</time>
      </trkpt>
      <trkpt lat="48.5906" lon="-3.14791">
        <ele>253</ele>
        <time>2016-04-03T09:09:45.1Z</time>
      </trkpt>
      <trkpt lat="48.59064" lon="-3.1479">
        <ele>253</ele>
        <time>2016-04-03T09:09:48.1Z</time>
      </trkpt>
      <trkpt lat="48.59066" lon="-3.14791">
        <ele>252</ele>
        <time>2016-04-03T09:09:50.1Z</time>
      </trkpt>
      <trkpt lat="48.59071" lon="-3.14791">
        <ele>253</ele>
        <time>2016-04-03T09:09:53.1Z</time>
      </trkpt>
      <trkpt lat="48.59073" lon="-3.1479">
        <ele>252</ele>
        <time>2016-04-03T09:09:55.1Z</time>
      </trkpt>
      <trkpt lat="48.59077" lon="-3.14788">
        <ele>252</ele>
        <time>2016-04-03T09:09:58.1Z</time>
      </trkpt>
      <trkpt lat="48.59079" lon="-3.14787">
        <ele>252</ele>
        <time>2016-04-03T09:10:00.1Z</time>
      </trkpt>
      <trkpt lat="48.59082" lon="-3.14784">
        <ele>252</ele>
        <time>2016-04-03T09:10:03.1Z</time>
      </trkpt>
      <trkpt lat="48.59085" lon="-3.14781">
        <ele>252</ele>
        <time>2016-04-03T09:10:06.1Z</time>
      </trkpt>
      <trkpt lat="48.59088" lon="-3.14779">
        <ele>252</ele>
        <time>2016-04-03T09:10:09.1Z</time>
      </trkpt>
      <trkpt lat="48.5909" lon="-3.14778">
        <ele>252</ele>
        <time>2016-04-03T09:10:12.1Z</time>
      </trkpt>
      <trkpt lat="48.59092" lon="-3.14778">
        <ele>252</ele>
        <time>2016-04-03T09:10:15.1Z</time>
      </trkpt>
      <trkpt lat="48.59095" lon="-3.14777">
        <ele>253</ele>
        <time>2016-04-03T09:10:18.1Z</time>
      </trkpt>
      <trkpt lat="48.59097" lon="-3.14778">
        <ele>253</ele>
        <time>2016-04-03T09:10:20.1Z</time>
      </trkpt>
      <trkpt lat="48.591" lon="-3.14779">
        <ele>253</ele>
        <time>2016-04-03T09:10:23.1Z</time>
      </trkpt>
      <trkpt lat="48.59102" lon="-3.14779">
        <ele>253</ele>
        <time>2016-04-03T09:10:25.1Z</time>
      </trkpt>
      <trkpt lat="48.59105" lon="-3.14778">
        <ele>253</ele>
        <time>2016-04-03T09:10:28.1Z</time>
      </trkpt>
      <trkpt lat="48.59107" lon="-3.14777">
        <ele>253</ele>
        <time>2016-04-03T09:10:30.1Z</time>
      </trkpt>
      <trkpt lat="48.5911" lon="-3.14777">
        <ele>253</ele>
        <time>2016-04-03T09:10:33.1Z</time>
      </trkpt>
      <trkpt lat="48.59113" lon="-3.14779">
        <ele>253</ele>
        <time>2016-04-03T09:10:36.1Z</time>
      </trkpt>
      <trkpt lat="48.59117" lon="-3.14779">
        <ele>253</ele>
        <time>2016-04-03T09:10:39.1Z</time>
      </trkpt>
      <trkpt lat="48.59119" lon="-3.14779">
        <ele>253</ele>
        <time>2016-04-03T09:10:41.1Z</time>
      </trkpt>
      <trkpt lat="48.5912" lon="-3.14778">
        <ele>253</ele>
        <time>2016-04-03T09:10:43.1Z</time>
      </trkpt>
      <trkpt lat="48.59122" lon="-3.14777">
        <ele>253</ele>
        <time>2016-04-03T09:10:46.1Z</time>
      </trkpt>
      <trkpt lat="48.59125" lon="-3.14777">
        <ele>253</ele>
        <time>2016-04-03T09:10:49.1Z</time>
      </trkpt>
      <trkpt lat="48.59126" lon="-3.14777">
        <ele>253</ele>
        <time>2016-04-03T09:10:51.1Z</time>
      </trkpt>
      <trkpt lat="48.59129" lon="-3.14776">
        <ele>253</ele>
        <time>2016-04-03T09:10:54.1Z</time>
      </trkpt>
      <trkpt lat="48.5913" lon="-3.14774">
        <ele>253</ele>
        <time>2016-04-03T09:10:56.1Z</time>
      </trkpt>
      <trkpt lat="48.59132" lon="-3.14772">
        <ele>253</ele>
        <time>2016-04-03T09:10:59.1Z</time>
      </trkpt>
      <trkpt lat="48.59133" lon="-3.14771">
        <ele>253</ele>
        <time>2016-04-03T09:11:02.1Z</time>
      </trkpt>
      <trkpt lat="48.59135" lon="-3.1477">
        <ele>253</ele>
        <time>2016-04-03T09:11:04.1Z</time>
      </trkpt>
      <trkpt lat="48.59135" lon="-3.14767">
        <ele>253</ele>
        <time>2016-04-03T09:11:07.1Z</time>
      </trkpt>
      <trkpt lat="48.59137" lon="-3.14765">
        <ele>253</ele>
        <time>2016-04-03T09:11:10.1Z</time>
      </trkpt>
      <trkpt lat="48.59138" lon="-3.14764">
        <ele>253</ele>
        <time>2016-04-03T09:11:12.1Z</time>
      </trkpt>
      <trkpt lat="48.5914" lon="-3.14762">
        <ele>253</ele>
        <time>2016-04-03T09:11:15.1Z</time>
      </trkpt>
      <trkpt lat="48.59143" lon="-3.1476">
        <ele>253</ele>
        <time>2016-04-03T09:11:18.1Z</time>
      </trkpt>
      <trkpt lat="48.59145" lon="-3.1476">
        <ele>253</ele>
        <time>2016-04-03T09:11:21.1Z</time>
      </trkpt>
      <trkpt lat="48.59146" lon="-3.1476">
        <ele>253</ele>
        <time>2016-04-03T09:11:24.1Z</time>
      </trkpt>
      <trkpt lat="48.59147" lon="-3.14759">
        <ele>253</ele>
        <time>2016-04-03T09:11:27.1Z</time>
      </trkpt>
      <trkpt lat="48.59147" lon="-3.14758">
        <ele>253</ele>
        <time>2016-04-03T09:11:30.1Z</time>
      </trkpt>
      <trkpt lat="48.59147" lon="-3.14758">
        <ele>253</ele>
        <time>2016-04-03T09:11:33.1Z</time>
      </trkpt>
      <trkpt lat="48.59148" lon="-3.14757">
        <ele>253</ele>
        <time>2016-04-03T09:11:36.1Z</time>
      </trkpt>
      <trkpt lat="48.59148" lon="-3.14756">
        <ele>253</ele>
        <time>2016-04-03T09:11:38.1Z</time>
      </trkpt>
      <trkpt lat="48.59149" lon="-3.14755">
        <ele>253</ele>
        <time>2016-04-03T09:11:40.1Z</time>
      </trkpt>
      <trkpt lat="48.59151" lon="-3.14754">
        <ele>253</ele>
        <time>2016-04-03T09:11:43.1Z</time>
      </trkpt>
      <trkpt lat="48.59153" lon="-3.14752">
        <ele>253</ele>
        <time>2016-04-03T09:11:46.1Z</time>
      </trkpt>
      <trkpt lat="48.59155" lon="-3.14751">
        <ele>253</ele>
        <time>2016-04-03T09:11:49.1Z</time>
      </trkpt>
      <trkpt lat="48.59156" lon="-3.1475">
        <ele>253</ele>
        <time>2016-04-03T09:11:51.1Z</time>
      </trkpt>
      <trkpt lat="48.5916" lon="-3.1475">
        <ele>252</ele>
        <time>2016-04-03T09:11:54.1Z</time>
      </trkpt>
      <trkpt lat="48.59161" lon="-3.14752">
        <ele>252</ele>
        <time>2016-04-03T09:11:56.1Z</time>
      </trkpt>
      <trkpt lat="48.59161" lon="-3.14754">
        <ele>252</ele>
        <time>2016-04-03T09:11:59.1Z</time>
      </trkpt>
      <trkpt lat="48.59162" lon="-3.14756">
        <ele>252</ele>
        <time>2016-04-03T09:12:01.1Z</time>
      </trkpt>
      <trkpt lat="48.59164" lon="-3.14757">
        <ele>252</ele>
        <time>2016-04-03T09:12:04.1Z</time>
      </trkpt>
      <trkpt lat="48.59164" lon="-3.14757">
        <ele>252</ele>
        <time>2016-04-03T09:12:06.1Z</time>
      </trkpt>
      <trkpt lat="48.59166" lon="-3.14757">
        <ele>252</ele>
        <time>2016-04-03T09:12:09.1Z</time>
      </trkpt>
      <trkpt lat="48.59168" lon="-3.14757">
        <ele>252</ele>
        <time>2016-04-03T09:12:12.1Z</time>
      </trkpt>
      <trkpt lat="48.59169" lon="-3.14757">
        <ele>252</ele>
        <time>2016-04-03T09:12:14.1Z</time>
      </trkpt>
      <trkpt lat="48.5917" lon="-3.14757">
        <ele>252</ele>
        <time>2016-04-03T09:12:17.1Z</time>
      </trkpt>
      <trkpt lat="48.59172" lon="-3.14757">
        <ele>253</ele>
        <time>2016-04-03T09:12:19.1Z</time>
      </trkpt>
      <trkpt lat="48.59173" lon="-3.14758">
        <ele>253</ele>
        <time>2016-04-03T09:12:22.1Z</time>
      </trkpt>
      <trkpt lat="48.59173" lon="-3.14758">
        <ele>253</ele>
        <time>2016-04-03T09:12:24.1Z</time>
      </trkpt>
      <trkpt lat="48.59174" lon="-3.14759">
        <ele>253</ele>
        <time>2016-04-03T09:12:26.1Z</time>
      </trkpt>
      <trkpt lat="48.59174" lon="-3.1476">
        <ele>253</ele>
        <time>2016-04-03T09:12:29.1Z</time>
      </trkpt>
      <trkpt lat="48.59174" lon="-3.14761">
        <ele>253</ele>
        <time>2016-04-03T09:12:31.1Z</time>
      </trkpt>
      <trkpt lat="48.59174" lon="-3.14763">
        <ele>253</ele>
        <time>2016-04-03T09:12:34.1Z</time>
      </trkpt>
      <trkpt lat="48.59174" lon="-3.14763">
        <ele>252</ele>
        <time>2016-04-03T09:12:37.1Z</time>
      </trkpt>
      <trkpt lat="48.59176" lon="-3.14762">
        <ele>252</ele>
        <time>2016-04-03T09:12:40.1Z</time>
      </trkpt>
      <trkpt lat="48.59178" lon="-3.14761">
        <ele>252</ele>
        <time>2016-04-03T09:12:43.1Z</time>
      </trkpt>
      <trkpt lat="48.5918" lon="-3.14761">
        <ele>253</ele>
        <time>2016-04-03T09:12:45.1Z</time>
      </trkpt>
      <trkpt lat="48.59182" lon="-3.14759">
        <ele>253</ele>
        <time>2016-04-03T09:12:48.1Z</time>
      </trkpt>
      <trkpt lat="48.59183" lon="-3.14759">
        <ele>253</ele>
        <time>2016-04-03T09:12:50.1Z</time>
      </trkpt>
      <trkpt lat="48.59185" lon="-3.14757">
        <ele>253</ele>
        <time>2016-04-03T09:12:53.1Z</time>
      </trkpt>
      <trkpt lat="48.59187" lon="-3.14755">
        <ele>253</ele>
        <time>2016-04-03T09:12:55.1Z</time>
      </trkpt>
      <trkpt lat="48.5919" lon="-3.14754">
        <ele>253</ele>
        <time>2016-04-03T09:12:58.1Z</time>
      </trkpt>
      <trkpt lat="48.59192" lon="-3.14754">
        <ele>253</ele>
        <time>2016-04-03T09:13:00.1Z</time>
      </trkpt>
      <trkpt lat="48.59193" lon="-3.14754">
        <ele>253</ele>
        <time>2016-04-03T09:13:03.1Z</time>
      </trkpt>
      <trkpt lat="48.59195" lon="-3.14754">
        <ele>253</ele>
        <time>2016-04-03T09:13:06.1Z</time>
      </trkpt>
      <trkpt lat="48.59196" lon="-3.14754">
        <ele>253</ele>
        <time>2016-04-03T09:13:08.1Z</time>
      </trkpt>
      <trkpt lat="48.59199" lon="-3.14754">
        <ele>253</ele>
        <time>2016-04-03T09:13:11.1Z</time>
      </trkpt>
      <trkpt lat="48.59201" lon="-3.14753">
        <ele>253</ele>
        <time>2016-04-03T09:13:13.1Z</time>
      </trkpt>
      <trkpt lat="48.59202" lon="-3.14752">
        <ele>253</ele>
        <time>2016-04-03T09:13:16.1Z</time>
      </trkpt>
      <trkpt lat="48.59203" lon="-3.14751">
        <ele>253</ele>
        <time>2016-04-03T09:13:18.1Z</time>
      </trkpt>
      <trkpt lat="48.59204" lon="-3.1475">
        <ele>253</ele>
        <time>2016-04-03T09:13:21.1Z</time>
      </trkpt>
      <trkpt lat="48.59206" lon="-3.1475">
        <ele>253</ele>
        <time>2016-04-03T09:13:23.1Z</time>
      </trkpt>
      <trkpt lat="48.59207" lon="-3.14751">
        <ele>253</ele>
        <time>2016-04-03T09:13:26.1Z</time>
      </trkpt>
      <trkpt lat="48.59209" lon="-3.14751">
        <ele>253</ele>
        <time>2016-04-03T09:13:29.1Z</time>
      </trkpt>
      <trkpt lat="48.59212" lon="-3.14751">
        <ele>253</ele>
        <time>2016-04-03T09:13:32.1Z</time>
      </trkpt>
      <trkpt lat="48.59214" lon="-3.14751">
        <ele>253</ele>
        <time>2016-04-03T09:13:34.1Z</time>
      </trkpt>
      <trkpt lat="48.59216" lon="-3.14751">
        <ele>253</ele>
        <time>2016-04-03T09:13:37.1Z</time>
      </trkpt>
      <trkpt lat="48.59219" lon="-3.14752">
        <ele>253</ele>
        <time>2016-04-03T09:13:40.1Z</time>
      </trkpt>
      <trkpt lat="48.5922" lon="-3.14752">
        <ele>253</ele>
        <time>2016-04-03T09:13:42.1Z</time>
      </trkpt>
      <trkpt lat="48.59223" lon="-3.14752">
        <ele>253</ele>
        <time>2016-04-03T09:13:45.1Z</time>
      </trkpt>
      <trkpt lat="48.59225" lon="-3.14752">
        <ele>253</ele>
        <time>2016-04-03T09:13:48.1Z</time>
      </trkpt>
      <trkpt lat="48.59227" lon="-3.14753">
        <ele>253</ele>
        <time>2016-04-03T09:13:50.1Z</time>
      </trkpt>
      <trkpt lat="48.59231" lon="-3.14753">
        <ele>252</ele>
        <time>2016-04-03T09:13:53.1Z</time>
      </trkpt>
      <trkpt lat="48.59233" lon="-3.14755">
        <ele>252</ele>
        <time>2016-04-03T09:13:55.1Z</time>
      </trkpt>
      <trkpt lat="48.59236" lon="-3.14756">
        <ele>252</ele>
        <time>2016-04-03T09:13:58.1Z</time>
      </trkpt>
      <trkpt lat="48.59239" lon="-3.14756">
        <ele>253</ele>
        <time>2016-04-03T09:14:01.1Z</time>
      </trkpt>
      <trkpt lat="48.59241" lon="-3.14757">
        <ele>253</ele>
        <time>2016-04-03T09:14:03.1Z</time>
      </trkpt>
      <trkpt lat="48.59244" lon="-3.14757">
        <ele>253</ele>
        <time>2016-04-03T09:14:06.1Z</time>
      </trkpt>
      <trkpt lat="48.59245" lon="-3.14753">
        <ele>253</ele>
        <time>2016-04-03T09:14:09.1Z</time>
      </trkpt>
      <trkpt lat="48.59245" lon="-3.14752">
        <ele>253</ele>
        <time>2016-04-03T09:14:12.1Z</time>
      </trkpt>
      <trkpt lat="48.59246" lon="-3.14752">
        <ele>253</ele>
        <time>2016-04-03T09:14:14.1Z</time>
      </trkpt>
      <trkpt lat="48.59247" lon="-3.14752">
        <ele>253</ele>
        <time>2016-04-03T09:14:16.1Z</time>
      </trkpt>
      <trkpt lat="48.59247" lon="-3.14752">
        <ele>253</ele>
        <time>2016-04-03T09:14:19.1Z</time>
      </trkpt>
      <trkpt lat="48.59248" lon="-3.14754">
        <ele>253</ele>
        <time>2016-04-03T09:14:21.1Z</time>
      </trkpt>
      <trkpt lat="48.59249" lon="-3.14756">
        <ele>253</ele>
        <time>2016-04-03T09:14:24.1Z</time>
      </trkpt>
      <trkpt lat="48.59251" lon="-3.14757">
        <ele>253</ele>
        <time>2016-04-03T09:14:26.1Z</time>
      </trkpt>
      <trkpt lat="48.59253" lon="-3.14758">
        <ele>253</ele>
        <time>2016-04-03T09:14:29.1Z</time>
      </trkpt>
      <trkpt lat="48.59256" lon="-3.1476">
        <ele>253</ele>
        <time>2016-04-03T09:14:32.1Z</time>
      </trkpt>
      <trkpt lat="48.59259" lon="-3.14761">
        <ele>253</ele>
        <time>2016-04-03T09:14:35.1Z</time>
      </trkpt>
      <trkpt lat="48.59262" lon="-3.14761">
        <ele>253</ele>
        <time>2016-04-03T09:14:38.1Z</time>
      </trkpt>
      <trkpt lat="48.59264" lon="-3.14763">
        <ele>253</ele>
        <time>2016-04-03T09:14:40.1Z</time>
      </trkpt>
      <trkpt lat="48.59268" lon="-3.14765">
        <ele>253</ele>
        <time>2016-04-03T09:14:43.1Z</time>
      </trkpt>
      <trkpt lat="48.5927" lon="-3.14766">
        <ele>253</ele>
        <time>2016-04-03T09:14:45.1Z</time>
      </trkpt>
      <trkpt lat="48.59273" lon="-3.14768">
        <ele>253</ele>
        <time>2016-04-03T09:14:48.1Z</time>
      </trkpt>
      <trkpt lat="48.59276" lon="-3.1477">
        <ele>253</ele>
        <time>2016-04-03T09:14:51.1Z</time>
      </trkpt>
      <trkpt lat="48.59278" lon="-3.1477">
        <ele>253</ele>
        <time>2016-04-03T09:14:53.1Z</time>
      </trkpt>
      <trkpt lat="48.59282" lon="-3.14771">
        <ele>253</ele>
        <time>2016-04-03T09:14:56.1Z</time>
      </trkpt>
      <trkpt lat="48.59285" lon="-3.14771">
        <ele>253</ele>
        <time>2016-04-03T09:14:58.1Z</time>
      </trkpt>
      <trkpt lat="48.59288" lon="-3.14772">
        <ele>253</ele>
        <time>2016-04-03T09:15:01.1Z</time>
      </trkpt>
      <trkpt lat="48.59291" lon="-3.14771">
        <ele>253</ele>
        <time>2016-04-03T09:15:04.1Z</time>
      </trkpt>
      <trkpt lat="48.59293" lon="-3.14771">
        <ele>253</ele>
        <time>2016-04-03T09:15:06.1Z</time>
      </trkpt>
      <trkpt lat="48.59297" lon="-3.1477">
        <ele>253</ele>
        <time>2016-04-03T09:15:09.1Z</time>
      </trkpt>
      <trkpt lat="48.59299" lon="-3.1477">
        <ele>253</ele>
        <time>2016-04-03T09:15:11.1Z</time>
      </trkpt>
      <trkpt lat="48.59302" lon="-3.1477">
        <ele>253</ele>
        <time>2016-04-03T09:15:14.1Z</time>
      </trkpt>
      <trkpt lat="48.59306" lon="-3.1477">
        <ele>253</ele>
        <time>2016-04-03T09:15:17.1Z</time>
      </trkpt>
      <trkpt lat="48.59307" lon="-3.14769">
        <ele>253</ele>
        <time>2016-04-03T09:15:19.1Z</time>
      </trkpt>
      <trkpt lat="48.59309" lon="-3.14768">
        <ele>253</ele>
        <time>2016-04-03T09:15:21.1Z</time>
      </trkpt>
      <trkpt lat="48.59312" lon="-3.14768">
        <ele>253</ele>
        <time>2016-04-03T09:15:23.1Z</time>
      </trkpt>
      <trkpt lat="48.59315" lon="-3.14768">
        <ele>253</ele>
        <time>2016-04-03T09:15:26.1Z</time>
      </trkpt>
      <trkpt lat="48.59318" lon="-3.14768">
        <ele>253</ele>
        <time>2016-04-03T09:15:28.1Z</time>
      </trkpt>
      <trkpt lat="48.59321" lon="-3.14768">
        <ele>253</ele>
        <time>2016-04-03T09:15:31.1Z</time>
      </trkpt>
      <trkpt lat="48.59324" lon="-3.14769">
        <ele>253</ele>
        <time>2016-04-03T09:15:34.1Z</time>
      </trkpt>
      <trkpt lat="48.59326" lon="-3.14769">
        <ele>253</ele>
        <time>2016-04-03T09:15:36.1Z</time>
      </trkpt>
      <trkpt lat="48.59329" lon="-3.14771">
        <ele>253</ele>
        <time>2016-04-03T09:15:39.1Z</time>
      </trkpt>
      <trkpt lat="48.59331" lon="-3.14771">
        <ele>253</ele>
        <time>2016-04-03T09:15:41.1Z</time>
      </trkpt>
      <trkpt lat="48.59333" lon="-3.14772">
        <ele>253</ele>
        <time>2016-04-03T09:15:44.1Z</time>
      </trkpt>
      <trkpt lat="48.59335" lon="-3.14773">
        <ele>253</ele>
        <time>2016-04-03T09:15:46.1Z</time>
      </trkpt>
      <trkpt lat="48.59338" lon="-3.14773">
        <ele>253</ele>
        <time>2016-04-03T09:15:48.1Z</time>
      </trkpt>
      <trkpt lat="48.5934" lon="-3.14773">
        <ele>253</ele>
        <time>2016-04-03T09:15:50.1Z</time>
      </trkpt>
      <trkpt lat="48.59343" lon="-3.14773">
        <ele>253</ele>
        <time>2016-04-03T09:15:53.1Z</time>
      </trkpt>
      <trkpt lat="48.59344" lon="-3.14772">
        <ele>253</ele>
        <time>2016-04-03T09:15:55.1Z</time>
      </trkpt>
      <trkpt lat="48.59348" lon="-3.14772">
        <ele>253</ele>
        <time>2016-04-03T09:15:58.1Z</time>
      </trkpt>
      <trkpt lat="48.5935" lon="-3.14772">
        <ele>253</ele>
        <time>2016-04-03T09:16:00.1Z</time>
      </trkpt>
      <trkpt lat="48.59352" lon="-3.14772">
        <ele>253</ele>
        <time>2016-04-03T09:16:02.1Z</time>
      </trkpt>
      <trkpt lat="48.59355" lon="-3.14773">
        <ele>253</ele>
        <time>2016-04-03T09:16:04.1Z</time>
      </trkpt>
      <trkpt lat="48.59359" lon="-3.14773">
        <ele>253</ele>
        <time>2016-04-03T09:16:07.1Z</time>
      </trkpt>
      <trkpt lat="48.59362" lon="-3.14775">
        <ele>253</ele>
        <time>2016-04-03T09:16:10.1Z</time>
      </trkpt>
      <trkpt lat="48.59366" lon="-3.14775">
        <ele>254</ele>
        <time>2016-04-03T09:16:13.1Z</time>
      </trkpt>
      <trkpt lat="48.5937" lon="-3.14774">
        <ele>254</ele>
        <time>2016-04-03T09:16:16.1Z</time>
      </trkpt>
      <trkpt lat="48.59373" lon="-3.14772">
        <ele>254</ele>
        <time>2016-04-03T09:16:19.1Z</time>
      </trkpt>
      <trkpt lat="48.59375" lon="-3.14771">
        <ele>254</ele>
        <time>2016-04-03T09:16:22.1Z</time>
      </trkpt>
      <trkpt lat="48.59378" lon="-3.14768">
        <ele>254</ele>
        <time>2016-04-03T09:16:24.1Z</time>
      </trkpt>
      <trkpt lat="48.59381" lon="-3.14766">
        <ele>254</ele>
        <time>2016-04-03T09:16:27.1Z</time>
      </trkpt>
      <trkpt lat="48.59383" lon="-3.14764">
        <ele>254</ele>
        <time>2016-04-03T09:16:29.1Z</time>
      </trkpt>
      <trkpt lat="48.59385" lon="-3.14762">
        <ele>254</ele>
        <time>2016-04-03T09:16:31.1Z</time>
      </trkpt>
      <trkpt lat="48.59387" lon="-3.1476">
        <ele>255</ele>
        <time>2016-04-03T09:16:33.1Z</time>
      </trkpt>
      <trkpt lat="48.59389" lon="-3.14758">
        <ele>255</ele>
        <time>2016-04-03T09:16:35.1Z</time>
      </trkpt>
      <trkpt lat="48.59391" lon="-3.14755">
        <ele>255</ele>
        <time>2016-04-03T09:16:38.1Z</time>
      </trkpt>
      <trkpt lat="48.59393" lon="-3.14752">
        <ele>256</ele>
        <time>2016-04-03T09:16:40.1Z</time>
      </trkpt>
      <trkpt lat="48.59395" lon="-3.14749">
        <ele>255</ele>
        <time>2016-04-03T09:16:43.1Z</time>
      </trkpt>
      <trkpt lat="48.59396" lon="-3.14747">
        <ele>256</ele>
        <time>2016-04-03T09:16:45.1Z</time>
      </trkpt>
      <trkpt lat="48.59397" lon="-3.14743">
        <ele>256</ele>
        <time>2016-04-03T09:16:48.1Z</time>
      </trkpt>
      <trkpt lat="48.59398" lon="-3.1474">
        <ele>256</ele>
        <time>2016-04-03T09:16:50.1Z</time>
      </trkpt>
      <trkpt lat="48.59399" lon="-3.14737">
        <ele>256</ele>
        <time>2016-04-03T09:16:53.1Z</time>
      </trkpt>
      <trkpt lat="48.594" lon="-3.14735">
        <ele>257</ele>
        <time>2016-04-03T09:16:55.1Z</time>
      </trkpt>
      <trkpt lat="48.59401" lon="-3.14732">
        <ele>257</ele>
        <time>2016-04-03T09:16:58.1Z</time>
      </trkpt>
      <trkpt lat="48.59403" lon="-3.14729">
        <ele>257</ele>
        <time>2016-04-03T09:17:01.1Z</time>
      </trkpt>
      <trkpt lat="48.59404" lon="-3.14727">
        <ele>257</ele>
        <time>2016-04-03T09:17:03.1Z</time>
      </trkpt>
      <trkpt lat="48.59405" lon="-3.14727">
        <ele>257</ele>
        <time>2016-04-03T09:17:05.1Z</time>
      </trkpt>
      <trkpt lat="48.59407" lon="-3.14726">
        <ele>257</ele>
        <time>2016-04-03T09:17:08.1Z</time>
      </trkpt>
      <trkpt lat="48.59408" lon="-3.14725">
        <ele>257</ele>
        <time>2016-04-03T09:17:10.1Z</time>
      </trkpt>
      <trkpt lat="48.59409" lon="-3.14723">
        <ele>257</ele>
        <time>2016-04-03T09:17:12.1Z</time>
      </trkpt>
      <trkpt lat="48.5941" lon="-3.14723">
        <ele>257</ele>
        <time>2016-04-03T09:17:15.1Z</time>
      </trkpt>
      <trkpt lat="48.5941" lon="-3.14723">
        <ele>257</ele>
        <time>2016-04-03T09:17:17.1Z</time>
      </trkpt>
      <trkpt lat="48.59411" lon="-3.14723">
        <ele>257</ele>
        <time>2016-04-03T09:17:19.1Z</time>
      </trkpt>
      <trkpt lat="48.59412" lon="-3.14723">
        <ele>257</ele>
        <time>2016-04-03T09:17:21.1Z</time>
      </trkpt>
      <trkpt lat="48.59413" lon="-3.14722">
        <ele>258</ele>
        <time>2016-04-03T09:17:24.1Z</time>
      </trkpt>
      <trkpt lat="48.59414" lon="-3.14722">
        <ele>258</ele>
        <time>2016-04-03T09:17:27.1Z</time>
      </trkpt>
      <trkpt lat="48.59416" lon="-3.14722">
        <ele>257</ele>
        <time>2016-04-03T09:17:30.1Z</time>
      </trkpt>
      <trkpt lat="48.59418" lon="-3.14721">
        <ele>257</ele>
        <time>2016-04-03T09:17:33.1Z</time>
      </trkpt>
      <trkpt lat="48.5942" lon="-3.14724">
        <ele>257</ele>
        <time>2016-04-03T09:17:36.1Z</time>
      </trkpt>
      <trkpt lat="48.59421" lon="-3.14726">
        <ele>257</ele>
        <time>2016-04-03T09:17:38.1Z</time>
      </trkpt>
      <trkpt lat="48.59423" lon="-3.14729">
        <ele>257</ele>
        <time>2016-04-03T09:17:41.1Z</time>
      </trkpt>
      <trkpt lat="48.59424" lon="-3.14733">
        <ele>256</ele>
        <time>2016-04-03T09:17:44.1Z</time>
      </trkpt>
      <trkpt lat="48.59425" lon="-3.14735">
        <ele>256</ele>
        <time>2016-04-03T09:17:46.1Z</time>
      </trkpt>
      <trkpt lat="48.59426" lon="-3.14739">
        <ele>256</ele>
        <time>2016-04-03T09:17:49.1Z</time>
      </trkpt>
      <trkpt lat="48.59427" lon="-3.14741">
        <ele>256</ele>
        <time>2016-04-03T09:17:51.1Z</time>
      </trkpt>
      <trkpt lat="48.59428" lon="-3.14744">
        <ele>255</ele>
        <time>2016-04-03T09:17:53.1Z</time>
      </trkpt>
      <trkpt lat="48.59428" lon="-3.14745">
        <ele>255</ele>
        <time>2016-04-03T09:17:55.1Z</time>
      </trkpt>
      <trkpt lat="48.59429" lon="-3.14748">
        <ele>255</ele>
        <time>2016-04-03T09:17:57.1Z</time>
      </trkpt>
      <trkpt lat="48.59431" lon="-3.14751">
        <ele>255</ele>
        <time>2016-04-03T09:18:00.1Z</time>
      </trkpt>
      <trkpt lat="48.59432" lon="-3.14753">
        <ele>255</ele>
        <time>2016-04-03T09:18:02.1Z</time>
      </trkpt>
      <trkpt lat="48.59432" lon="-3.14754">
        <ele>255</ele>
        <time>2016-04-03T09:18:05.1Z</time>
      </trkpt>
      <trkpt lat="48.59432" lon="-3.14754">
        <ele>255</ele>
        <time>2016-04-03T09:18:07.1Z</time>
      </trkpt>
      <trkpt lat="48.59431" lon="-3.14755">
        <ele>255</ele>
        <time>2016-04-03T09:18:09.1Z</time>
      </trkpt>
      <trkpt lat="48.59432" lon="-3.14757">
        <ele>255</ele>
        <time>2016-04-03T09:18:12.1Z</time>
      </trkpt>
      <trkpt lat="48.59432" lon="-3.14757">
        <ele>255</ele>
        <time>2016-04-03T09:18:15.1Z</time>
      </trkpt>
      <trkpt lat="48.59431" lon="-3.14756">
        <ele>255</ele>
        <time>2016-04-03T09:18:18.1Z</time>
      </trkpt>
      <trkpt lat="48.5943" lon="-3.14756">
        <ele>256</ele>
        <time>2016-04-03T09:18:21.1Z</time>
      </trkpt>
      <trkpt lat="48.5943" lon="-3.14755">
        <ele>256</ele>
        <time>2016-04-03T09:18:23.1Z</time>
      </trkpt>
      <trkpt lat="48.59428" lon="-3.14753">
        <ele>256</ele>
        <time>2016-04-03T09:18:26.1Z</time>
      </trkpt>
      <trkpt lat="48.59425" lon="-3.14752">
        <ele>256</ele>
        <time>2016-04-03T09:18:28.1Z</time>
      </trkpt>
      <trkpt lat="48.59424" lon="-3.14752">
        <ele>255</ele>
        <time>2016-04-03T09:18:30.1Z</time>
      </trkpt>
      <trkpt lat="48.59423" lon="-3.14751">
        <ele>255</ele>
        <time>2016-04-03T09:18:33.1Z</time>
      </trkpt>
      <trkpt lat="48.59423" lon="-3.1475">
        <ele>255</ele>
        <time>2016-04-03T09:18:36.1Z</time>
      </trkpt>
      <trkpt lat="48.59423" lon="-3.1475">
        <ele>255</ele>
        <time>2016-04-03T09:18:38.1Z</time>
      </trkpt>
      <trkpt lat="48.59423" lon="-3.1475">
        <ele>255</ele>
        <time>2016-04-03T09:18:41.1Z</time>
      </trkpt>
      <trkpt lat="48.59423" lon="-3.14749">
        <ele>255</ele>
        <time>2016-04-03T09:18:44.1Z</time>
      </trkpt>
      <trkpt lat="48.59424" lon="-3.14751">
        <ele>255</ele>
        <time>2016-04-03T09:18:47.1Z</time>
      </trkpt>
      <trkpt lat="48.59425" lon="-3.14751">
        <ele>255</ele>
        <time>2016-04-03T09:18:49.1Z</time>
      </trkpt>
      <trkpt lat="48.59426" lon="-3.14751">
        <ele>255</ele>
        <time>2016-04-03T09:18:51.1Z</time>
      </trkpt>
      <trkpt lat="48.59427" lon="-3.14751">
        <ele>255</ele>
        <time>2016-04-03T09:18:53.1Z</time>
      </trkpt>
      <trkpt lat="48.59428" lon="-3.14751">
        <ele>255</ele>
        <time>2016-04-03T09:18:56.1Z</time>
      </trkpt>
      <trkpt lat="48.59429" lon="-3.14753">
        <ele>255</ele>
        <time>2016-04-03T09:18:59.1Z</time>
      </trkpt>
      <trkpt lat="48.59428" lon="-3.14753">
        <ele>255</ele>
        <time>2016-04-03T09:19:02.1Z</time>
      </trkpt>
      <trkpt lat="48.59428" lon="-3.14752">
        <ele>255</ele>
        <time>2016-04-03T09:19:04.1Z</time>
      </trkpt>
      <trkpt lat="48.59429" lon="-3.14752">
        <ele>255</ele>
        <time>2016-04-03T09:19:06.1Z</time>
      </trkpt>
      <trkpt lat="48.59429" lon="-3.14751">
        <ele>255</ele>
        <time>2016-04-03T09:19:08.1Z</time>
      </trkpt>
      <trkpt lat="48.5943" lon="-3.14752">
        <ele>255</ele>
        <time>2016-04-03T09:19:11.1Z</time>
      </trkpt>
      <trkpt lat="48.5943" lon="-3.14751">
        <ele>255</ele>
        <time>2016-04-03T09:19:13.1Z</time>
      </trkpt>
      <trkpt lat="48.59431" lon="-3.14752">
        <ele>255</ele>
        <time>2016-04-03T09:19:16.1Z</time>
      </trkpt>
      <trkpt lat="48.59432" lon="-3.14753">
        <ele>255</ele>
        <time>2016-04-03T09:19:18.1Z</time>
      </trkpt>
      <trkpt lat="48.59433" lon="-3.14754">
        <ele>255</ele>
        <time>2016-04-03T09:19:21.1Z</time>
      </trkpt>
      <trkpt lat="48.59434" lon="-3.14755">
        <ele>255</ele>
        <time>2016-04-03T09:19:23.1Z</time>
      </trkpt>
      <trkpt lat="48.59435" lon="-3.14759">
        <ele>255</ele>
        <time>2016-04-03T09:19:26.1Z</time>
      </trkpt>
      <trkpt lat="48.59435" lon="-3.14763">
        <ele>255</ele>
        <time>2016-04-03T09:19:29.1Z</time>
      </trkpt>
      <trkpt lat="48.59434" lon="-3.14766">
        <ele>255</ele>
        <time>2016-04-03T09:19:31.1Z</time>
      </trkpt>
      <trkpt lat="48.59433" lon="-3.1477">
        <ele>255</ele>
        <time>2016-04-03T09:19:33.1Z</time>
      </trkpt>
      <trkpt lat="48.59431" lon="-3.14774">
        <ele>255</ele>
        <time>2016-04-03T09:19:36.1Z</time>
      </trkpt>
      <trkpt lat="48.5943" lon="-3.14777">
        <ele>255</ele>
        <time>2016-04-03T09:19:38.1Z</time>
      </trkpt>
      <trkpt lat="48.59428" lon="-3.14779">
        <ele>255</ele>
        <time>2016-04-03T09:19:41.1Z</time>
      </trkpt>
      <trkpt lat="48.59426" lon="-3.14781">
        <ele>255</ele>
        <time>2016-04-03T09:19:44.1Z</time>
      </trkpt>
      <trkpt lat="48.59425" lon="-3.14785">
        <ele>255</ele>
        <time>2016-04-03T09:19:47.1Z</time>
      </trkpt>
      <trkpt lat="48.59424" lon="-3.14787">
        <ele>255</ele>
        <time>2016-04-03T09:19:49.1Z</time>
      </trkpt>
      <trkpt lat="48.59424" lon="-3.14788">
        <ele>255</ele>
        <time>2016-04-03T09:19:52.1Z</time>
      </trkpt>
      <trkpt lat="48.59424" lon="-3.14788">
        <ele>255</ele>
        <time>2016-04-03T09:19:56.1Z</time>
      </trkpt>
      <trkpt lat="48.59425" lon="-3.14789">
        <ele>255</ele>
        <time>2016-04-03T09:19:58.1Z</time>
      </trkpt>
      <trkpt lat="48.59426" lon="-3.1479">
        <ele>255</ele>
        <time>2016-04-03T09:20:01.1Z</time>
      </trkpt>
      <trkpt lat="48.59426" lon="-3.14791">
        <ele>255</ele>
        <time>2016-04-03T09:20:04.1Z</time>
      </trkpt>
      <trkpt lat="48.59426" lon="-3.14791">
        <ele>255</ele>
        <time>2016-04-03T09:20:06.1Z</time>
      </trkpt>
      <trkpt lat="48.59426" lon="-3.14792">
        <ele>255</ele>
        <time>2016-04-03T09:20:09.1Z</time>
      </trkpt>
      <trkpt lat="48.59428" lon="-3.1479">
        <ele>255</ele>
        <time>2016-04-03T09:20:11.1Z</time>
      </trkpt>
      <trkpt lat="48.59429" lon="-3.1479">
        <ele>255</ele>
        <time>2016-04-03T09:20:13.1Z</time>
      </trkpt>
      <trkpt lat="48.5943" lon="-3.14789">
        <ele>255</ele>
        <time>2016-04-03T09:20:15.1Z</time>
      </trkpt>
      <trkpt lat="48.59432" lon="-3.14788">
        <ele>255</ele>
        <time>2016-04-03T09:20:18.1Z</time>
      </trkpt>
      <trkpt lat="48.59435" lon="-3.14788">
        <ele>255</ele>
        <time>2016-04-03T09:20:20.1Z</time>
      </trkpt>
      <trkpt lat="48.59437" lon="-3.14789">
        <ele>255</ele>
        <time>2016-04-03T09:20:23.1Z</time>
      </trkpt>
      <trkpt lat="48.5944" lon="-3.1479">
        <ele>255</ele>
        <time>2016-04-03T09:20:26.1Z</time>
      </trkpt>
      <trkpt lat="48.59443" lon="-3.14789">
        <ele>255</ele>
        <time>2016-04-03T09:20:28.1Z</time>
      </trkpt>
      <trkpt lat="48.59445" lon="-3.14787">
        <ele>255</ele>
        <time>2016-04-03T09:20:31.1Z</time>
      </trkpt>
      <trkpt lat="48.59447" lon="-3.14786">
        <ele>255</ele>
        <time>2016-04-03T09:20:34.1Z</time>
      </trkpt>
      <trkpt lat="48.59449" lon="-3.14785">
        <ele>255</ele>
        <time>2016-04-03T09:20:36.1Z</time>
      </trkpt>
      <trkpt lat="48.59451" lon="-3.14784">
        <ele>255</ele>
        <time>2016-04-03T09:20:39.1Z</time>
      </trkpt>
      <trkpt lat="48.59452" lon="-3.14784">
        <ele>255</ele>
        <time>2016-04-03T09:20:41.1Z</time>
      </trkpt>
      <trkpt lat="48.59453" lon="-3.14782">
        <ele>254</ele>
        <time>2016-04-03T09:20:44.1Z</time>
      </trkpt>
      <trkpt lat="48.59454" lon="-3.14781">
        <ele>254</ele>
        <time>2016-04-03T09:20:46.1Z</time>
      </trkpt>
      <trkpt lat="48.59455" lon="-3.14781">
        <ele>254</ele>
        <time>2016-04-03T09:20:49.1Z</time>
      </trkpt>
      <trkpt lat="48.59457" lon="-3.14781">
        <ele>254</ele>
        <time>2016-04-03T09:20:51.1Z</time>
      </trkpt>
      <trkpt lat="48.5946" lon="-3.14783">
        <ele>254</ele>
        <time>2016-04-03T09:20:54.1Z</time>
      </trkpt>
      <trkpt lat="48.59462" lon="-3.14784">
        <ele>254</ele>
        <time>2016-04-03T09:20:57.1Z</time>
      </trkpt>
      <trkpt lat="48.59464" lon="-3.14786">
        <ele>254</ele>
        <time>2016-04-03T09:21:00.1Z</time>
      </trkpt>
      <trkpt lat="48.59465" lon="-3.14786">
        <ele>254</ele>
        <time>2016-04-03T09:21:02.1Z</time>
      </trkpt>
      <trkpt lat="48.59465" lon="-3.14787">
        <ele>254</ele>
        <time>2016-04-03T09:21:05.1Z</time>
      </trkpt>
      <trkpt lat="48.59466" lon="-3.14787">
        <ele>254</ele>
        <time>2016-04-03T09:21:07.1Z</time>
      </trkpt>
      <trkpt lat="48.59467" lon="-3.14788">
        <ele>254</ele>
        <time>2016-04-03T09:21:10.1Z</time>
      </trkpt>
      <trkpt lat="48.59468" lon="-3.14788">
        <ele>254</ele>
        <time>2016-04-03T09:21:12.1Z</time>
      </trkpt>
      <trkpt lat="48.59468" lon="-3.14788">
        <ele>254</ele>
        <time>2016-04-03T09:21:15.1Z</time>
      </trkpt>
      <trkpt lat="48.5947" lon="-3.14788">
        <ele>254</ele>
        <time>2016-04-03T09:21:18.1Z</time>
      </trkpt>
      <trkpt lat="48.5947" lon="-3.14789">
        <ele>254</ele>
        <time>2016-04-03T09:21:21.1Z</time>
      </trkpt>
      <trkpt lat="48.5947" lon="-3.1479">
        <ele>254</ele>
        <time>2016-04-03T09:21:23.1Z</time>
      </trkpt>
      <trkpt lat="48.5947" lon="-3.14791">
        <ele>254</ele>
        <time>2016-04-03T09:21:25.1Z</time>
      </trkpt>
      <trkpt lat="48.5947" lon="-3.14793">
        <ele>254</ele>
        <time>2016-04-03T09:21:28.1Z</time>
      </trkpt>
      <trkpt lat="48.5947" lon="-3.14793">
        <ele>254</ele>
        <time>2016-04-03T09:21:30.1Z</time>
      </trkpt>
      <trkpt lat="48.5947" lon="-3.14794">
        <ele>254</ele>
        <time>2016-04-03T09:21:32.1Z</time>
      </trkpt>
      <trkpt lat="48.59471" lon="-3.14795">
        <ele>254</ele>
        <time>2016-04-03T09:21:34.1Z</time>
      </trkpt>
      <trkpt lat="48.59471" lon="-3.14796">
        <ele>254</ele>
        <time>2016-04-03T09:21:37.1Z</time>
      </trkpt>
      <trkpt lat="48.59471" lon="-3.14797">
        <ele>254</ele>
        <time>2016-04-03T09:21:40.1Z</time>
      </trkpt>
      <trkpt lat="48.59471" lon="-3.14799">
        <ele>254</ele>
        <time>2016-04-03T09:21:43.1Z</time>
      </trkpt>
      <trkpt lat="48.59472" lon="-3.14801">
        <ele>254</ele>
        <time>2016-04-03T09:21:46.1Z</time>
      </trkpt>
      <trkpt lat="48.59471" lon="-3.14801">
        <ele>254</ele>
        <time>2016-04-03T09:21:48.1Z</time>
      </trkpt>
      <trkpt lat="48.59471" lon="-3.14801">
        <ele>255</ele>
        <time>2016-04-03T09:21:51.1Z</time>
      </trkpt>
      <trkpt lat="48.5947" lon="-3.14801">
        <ele>255</ele>
        <time>2016-04-03T09:21:54.1Z</time>
      </trkpt>
      <trkpt lat="48.5947" lon="-3.148">
        <ele>255</ele>
        <time>2016-04-03T09:21:57.1Z</time>
      </trkpt>
      <trkpt lat="48.5947" lon="-3.14802">
        <ele>255</ele>
        <time>2016-04-03T09:22:00.1Z</time>
      </trkpt>
      <trkpt lat="48.5947" lon="-3.14803">
        <ele>255</ele>
        <time>2016-04-03T09:22:02.1Z</time>
      </trkpt>
      <trkpt lat="48.5947" lon="-3.14803">
        <ele>255</ele>
        <time>2016-04-03T09:22:04.1Z</time>
      </trkpt>
      <trkpt lat="48.5947" lon="-3.14803">
        <ele>255</ele>
        <time>2016-04-03T09:22:07.1Z</time>
      </trkpt>
      <trkpt lat="48.59471" lon="-3.14803">
        <ele>255</ele>
        <time>2016-04-03T09:22:10.1Z</time>
      </trkpt>
      <trkpt lat="48.59471" lon="-3.14803">
        <ele>255</ele>
        <time>2016-04-03T09:22:13.1Z</time>
      </trkpt>
      <trkpt lat="48.59471" lon="-3.14802">
        <ele>255</ele>
        <time>2016-04-03T09:22:15.1Z</time>
      </trkpt>
      <trkpt lat="48.59471" lon="-3.14801">
        <ele>255</ele>
        <time>2016-04-03T09:22:17.1Z</time>
      </trkpt>
      <trkpt lat="48.59471" lon="-3.148">
        <ele>255</ele>
        <time>2016-04-03T09:22:19.1Z</time>
      </trkpt>
      <trkpt lat="48.59471" lon="-3.14797">
        <ele>255</ele>
        <time>2016-04-03T09:22:22.1Z</time>
      </trkpt>
      <trkpt lat="48.59471" lon="-3.14794">
        <ele>255</ele>
        <time>2016-04-03T09:22:25.1Z</time>
      </trkpt>
      <trkpt lat="48.5947" lon="-3.1479">
        <ele>255</ele>
        <time>2016-04-03T09:22:27.1Z</time>
      </trkpt>
      <trkpt lat="48.5947" lon="-3.14787">
        <ele>254</ele>
        <time>2016-04-03T09:22:30.1Z</time>
      </trkpt>
      <trkpt lat="48.59468" lon="-3.14786">
        <ele>254</ele>
        <time>2016-04-03T09:22:32.1Z</time>
      </trkpt>
      <trkpt lat="48.59466" lon="-3.14784">
        <ele>254</ele>
        <time>2016-04-03T09:22:35.1Z</time>
      </trkpt>
      <trkpt lat="48.59464" lon="-3.14782">
        <ele>255</ele>
        <time>2016-04-03T09:22:38.1Z</time>
      </trkpt>
      <trkpt lat="48.59462" lon="-3.14781">
        <ele>255</ele>
        <time>2016-04-03T09:22:41.1Z</time>
      </trkpt>
      <trkpt lat="48.59459" lon="-3.1478">
        <ele>255</ele>
        <time>2016-04-03T09:22:44.1Z</time>
      </trkpt>
      <trkpt lat="48.59457" lon="-3.1478">
        <ele>256</ele>
        <time>2016-04-03T09:22:47.1Z</time>
      </trkpt>
      <trkpt lat="48.59457" lon="-3.14779">
        <ele>256</ele>
        <time>2016-04-03T09:22:49.1Z</time>
      </trkpt>
      <trkpt lat="48.59456" lon="-3.14778">
        <ele>255</ele>
        <time>2016-04-03T09:22:51.1Z</time>
      </trkpt>
      <trkpt lat="48.59456" lon="-3.14774">
        <ele>255</ele>
        <time>2016-04-03T09:22:54.1Z</time>
      </trkpt>
      <trkpt lat="48.59455" lon="-3.14772">
        <ele>254</ele>
        <time>2016-04-03T09:22:56.1Z</time>
      </trkpt>
      <trkpt lat="48.59454" lon="-3.1477">
        <ele>254</ele>
        <time>2016-04-03T09:22:59.1Z</time>
      </trkpt>
      <trkpt lat="48.59453" lon="-3.14769">
        <ele>254</ele>
        <time>2016-04-03T09:23:01.1Z</time>
      </trkpt>
      <trkpt lat="48.59452" lon="-3.14766">
        <ele>254</ele>
        <time>2016-04-03T09:23:04.1Z</time>
      </trkpt>
      <trkpt lat="48.59451" lon="-3.14764">
        <ele>254</ele>
        <time>2016-04-03T09:23:06.1Z</time>
      </trkpt>
      <trkpt lat="48.5945" lon="-3.14761">
        <ele>254</ele>
        <time>2016-04-03T09:23:09.1Z</time>
      </trkpt>
      <trkpt lat="48.59449" lon="-3.14759">
        <ele>255</ele>
        <time>2016-04-03T09:23:11.1Z</time>
      </trkpt>
      <trkpt lat="48.59448" lon="-3.14754">
        <ele>255</ele>
        <time>2016-04-03T09:23:14.1Z</time>
      </trkpt>
      <trkpt lat="48.59447" lon="-3.14752">
        <ele>255</ele>
        <time>2016-04-03T09:23:16.1Z</time>
      </trkpt>
      <trkpt lat="48.59446" lon="-3.1475">
        <ele>255</ele>
        <time>2016-04-03T09:23:18.1Z</time>
      </trkpt>
      <trkpt lat="48.59445" lon="-3.14746">
        <ele>255</ele>
        <time>2016-04-03T09:23:20.1Z</time>
      </trkpt>
      <trkpt lat="48.59444" lon="-3.14744">
        <ele>255</ele>
        <time>2016-04-03T09:23:23.1Z</time>
      </trkpt>
      <trkpt lat="48.59442" lon="-3.14743">
        <ele>255</ele>
        <time>2016-04-03T09:23:26.1Z</time>
      </trkpt>
      <trkpt lat="48.59441" lon="-3.14742">
        <ele>255</ele>
        <time>2016-04-03T09:23:28.1Z</time>
      </trkpt>
      <trkpt lat="48.59439" lon="-3.1474">
        <ele>255</ele>
        <time>2016-04-03T09:23:30.1Z</time>
      </trkpt>
      <trkpt lat="48.59439" lon="-3.14739">
        <ele>255</ele>
        <time>2016-04-03T09:23:33.1Z</time>
      </trkpt>
      <trkpt lat="48.59439" lon="-3.1474">
        <ele>254</ele>
        <time>2016-04-03T09:23:35.1Z</time>
      </trkpt>
      <trkpt lat="48.59439" lon="-3.14741">
        <ele>254</ele>
        <time>2016-04-03T09:23:37.1Z</time>
      </trkpt>
      <trkpt lat="48.59438" lon="-3.14742">
        <ele>254</ele>
        <time>2016-04-03T09:23:40.1Z</time>
      </trkpt>
      <trkpt lat="48.59439" lon="-3.14742">
        <ele>255</ele>
        <time>2016-04-03T09:23:43.1Z</time>
      </trkpt>
      <trkpt lat="48.59438" lon="-3.14744">
        <ele>255</ele>
        <time>2016-04-03T09:23:46.1Z</time>
      </trkpt>
      <trkpt lat="48.59437" lon="-3.14745">
        <ele>255</ele>
        <time>2016-04-03T09:23:49.1Z</time>
      </trkpt>
      <trkpt lat="48.59436" lon="-3.14745">
        <ele>255</ele>
        <time>2016-04-03T09:23:51.1Z</time>
      </trkpt>
      <trkpt lat="48.59435" lon="-3.14744">
        <ele>255</ele>
        <time>2016-04-03T09:23:53.1Z</time>
      </trkpt>
      <trkpt lat="48.59435" lon="-3.14744">
        <ele>255</ele>
        <time>2016-04-03T09:23:56.1Z</time>
      </trkpt>
      <trkpt lat="48.59433" lon="-3.14744">
        <ele>255</ele>
        <time>2016-04-03T09:23:58.1Z</time>
      </trkpt>
      <trkpt lat="48.59433" lon="-3.14743">
        <ele>255</ele>
        <time>2016-04-03T09:24:00.1Z</time>
      </trkpt>
      <trkpt lat="48.59432" lon="-3.14743">
        <ele>256</ele>
        <time>2016-04-03T09:24:03.1Z</time>
      </trkpt>
      <trkpt lat="48.5943" lon="-3.1474">
        <ele>256</ele>
        <time>2016-04-03T09:24:06.1Z</time>
      </trkpt>
      <trkpt lat="48.5943" lon="-3.14739">
        <ele>256</ele>
        <time>2016-04-03T09:24:08.1Z</time>
      </trkpt>
      <trkpt lat="48.59428" lon="-3.14738">
        <ele>256</ele>
        <time>2016-04-03T09:24:10.1Z</time>
      </trkpt>
      <trkpt lat="48.59427" lon="-3.14737">
        <ele>256</ele>
        <time>2016-04-03T09:24:13.1Z</time>
      </trkpt>
      <trkpt lat="48.59427" lon="-3.14736">
        <ele>256</ele>
        <time>2016-04-03T09:24:15.1Z</time>
      </trkpt>
      <trkpt lat="48.59426" lon="-3.14734">
        <ele>256</ele>
        <time>2016-04-03T09:24:17.1Z</time>
      </trkpt>
      <trkpt lat="48.59425" lon="-3.14732">
        <ele>256</ele>
        <time>2016-04-03T09:24:19.1Z</time>
      </trkpt>
      <trkpt lat="48.59423" lon="-3.1473">
        <ele>256</ele>
        <time>2016-04-03T09:24:22.1Z</time>
      </trkpt>
      <trkpt lat="48.59422" lon="-3.14729">
        <ele>257</ele>
        <time>2016-04-03T09:24:25.1Z</time>
      </trkpt>
      <trkpt lat="48.5942" lon="-3.14726">
        <ele>257</ele>
        <time>2016-04-03T09:24:28.1Z</time>
      </trkpt>
      <trkpt lat="48.59418" lon="-3.14724">
        <ele>258</ele>
        <time>2016-04-03T09:24:30.1Z</time>
      </trkpt>
      <trkpt lat="48.59417" lon="-3.14723">
        <ele>258</ele>
        <time>2016-04-03T09:24:32.1Z</time>
      </trkpt>
      <trkpt lat="48.59417" lon="-3.14721">
        <ele>258</ele>
        <time>2016-04-03T09:24:35.1Z</time>
      </trkpt>
      <trkpt lat="48.59415" lon="-3.14719">
        <ele>258</ele>
        <time>2016-04-03T09:24:37.1Z</time>
      </trkpt>
      <trkpt lat="48.59413" lon="-3.14716">
        <ele>258</ele>
        <time>2016-04-03T09:24:39.1Z</time>
      </trkpt>
      <trkpt lat="48.59413" lon="-3.14714">
        <ele>258</ele>
        <time>2016-04-03T09:24:42.1Z</time>
      </trkpt>
      <trkpt lat="48.59412" lon="-3.14712">
        <ele>258</ele>
        <time>2016-04-03T09:24:44.1Z</time>
      </trkpt>
      <trkpt lat="48.59411" lon="-3.14708">
        <ele>258</ele>
        <time>2016-04-03T09:24:47.1Z</time>
      </trkpt>
      <trkpt lat="48.59409" lon="-3.14705">
        <ele>259</ele>
        <time>2016-04-03T09:24:50.1Z</time>
      </trkpt>
      <trkpt lat="48.59408" lon="-3.14703">
        <ele>259</ele>
        <time>2016-04-03T09:24:52.1Z</time>
      </trkpt>
      <trkpt lat="48.59407" lon="-3.14702">
        <ele>259</ele>
        <time>2016-04-03T09:24:56.1Z</time>
      </trkpt>
      <trkpt lat="48.59405" lon="-3.14701">
        <ele>260</ele>
        <time>2016-04-03T09:24:59.1Z</time>
      </trkpt>
      <trkpt lat="48.59404" lon="-3.14698">
        <ele>260</ele>
        <time>2016-04-03T09:25:02.1Z</time>
      </trkpt>
      <trkpt lat="48.59401" lon="-3.14695">
        <ele>260</ele>
        <time>2016-04-03T09:25:04.1Z</time>
      </trkpt>
      <trkpt lat="48.594" lon="-3.14693">
        <ele>261</ele>
        <time>2016-04-03T09:25:07.1Z</time>
      </trkpt>
      <trkpt lat="48.59399" lon="-3.1469">
        <ele>261</ele>
        <time>2016-04-03T09:25:10.1Z</time>
      </trkpt>
      <trkpt lat="48.59398" lon="-3.14689">
        <ele>261</ele>
        <time>2016-04-03T09:25:12.1Z</time>
      </trkpt>
      <trkpt lat="48.59396" lon="-3.14686">
        <ele>262</ele>
        <time>2016-04-03T09:25:15.1Z</time>
      </trkpt>
      <trkpt lat="48.59394" lon="-3.14683">
        <ele>262</ele>
        <time>2016-04-03T09:25:18.1Z</time>
      </trkpt>
      <trkpt lat="48.59393" lon="-3.14681">
        <ele>262</ele>
        <time>2016-04-03T09:25:20.1Z</time>
      </trkpt>
      <trkpt lat="48.59391" lon="-3.14678">
        <ele>263</ele>
        <time>2016-04-03T09:25:22.1Z</time>
      </trkpt>
      <trkpt lat="48.59391" lon="-3.14675">
        <ele>263</ele>
        <time>2016-04-03T09:25:24.1Z</time>
      </trkpt>
      <trkpt lat="48.5939" lon="-3.14673">
        <ele>263</ele>
        <time>2016-04-03T09:25:27.1Z</time>
      </trkpt>
      <trkpt lat="48.59388" lon="-3.14669">
        <ele>263</ele>
        <time>2016-04-03T09:25:29.1Z</time>
      </trkpt>
      <trkpt lat="48.59386" lon="-3.14666">
        <ele>264</ele>
        <time>2016-04-03T09:25:33.1Z</time>
      </trkpt>
      <trkpt lat="48.59385" lon="-3.14665">
        <ele>264</ele>
        <time>2016-04-03T09:25:35.1Z</time>
      </trkpt>
      <trkpt lat="48.59383" lon="-3.14662">
        <ele>265</ele>
        <time>2016-04-03T09:25:37.1Z</time>
      </trkpt>
      <trkpt lat="48.59381" lon="-3.1466">
        <ele>265</ele>
        <time>2016-04-03T09:25:40.1Z</time>
      </trkpt>
      <trkpt lat="48.5938" lon="-3.14657">
        <ele>265</ele>
        <time>2016-04-03T09:25:43.1Z</time>
      </trkpt>
      <trkpt lat="48.59378" lon="-3.14654">
        <ele>265</ele>
        <time>2016-04-03T09:25:45.1Z</time>
      </trkpt>
      <trkpt lat="48.59377" lon="-3.14652">
        <ele>266</ele>
        <time>2016-04-03T09:25:47.1Z</time>
      </trkpt>
      <trkpt lat="48.59376" lon="-3.14649">
        <ele>266</ele>
        <time>2016-04-03T09:25:49.1Z</time>
      </trkpt>
      <trkpt lat="48.59375" lon="-3.14647">
        <ele>267</ele>
        <time>2016-04-03T09:25:52.1Z</time>
      </trkpt>
      <trkpt lat="48.59373" lon="-3.14643">
        <ele>267</ele>
        <time>2016-04-03T09:25:54.1Z</time>
      </trkpt>
      <trkpt lat="48.59371" lon="-3.1464">
        <ele>268</ele>
        <time>2016-04-03T09:25:58.1Z</time>
      </trkpt>
      <trkpt lat="48.5937" lon="-3.14638">
        <ele>268</ele>
        <time>2016-04-03T09:26:00.1Z</time>
      </trkpt>
      <trkpt lat="48.59368" lon="-3.14634">
        <ele>268</ele>
        <time>2016-04-03T09:26:03.1Z</time>
      </trkpt>
      <trkpt lat="48.59366" lon="-3.14631">
        <ele>268</ele>
        <time>2016-04-03T09:26:05.1Z</time>
      </trkpt>
      <trkpt lat="48.59365" lon="-3.14629">
        <ele>269</ele>
        <time>2016-04-03T09:26:08.1Z</time>
      </trkpt>
      <trkpt lat="48.59364" lon="-3.14627">
        <ele>269</ele>
        <time>2016-04-03T09:26:10.1Z</time>
      </trkpt>
      <trkpt lat="48.59362" lon="-3.14623">
        <ele>270</ele>
        <time>2016-04-03T09:26:12.1Z</time>
      </trkpt>
      <trkpt lat="48.5936" lon="-3.14621">
        <ele>270</ele>
        <time>2016-04-03T09:26:16.1Z</time>
      </trkpt>
      <trkpt lat="48.59359" lon="-3.14619">
        <ele>270</ele>
        <time>2016-04-03T09:26:18.1Z</time>
      </trkpt>
      <trkpt lat="48.59357" lon="-3.14616">
        <ele>271</ele>
        <time>2016-04-03T09:26:20.1Z</time>
      </trkpt>
      <trkpt lat="48.59356" lon="-3.14614">
        <ele>271</ele>
        <time>2016-04-03T09:26:23.1Z</time>
      </trkpt>
      <trkpt lat="48.59355" lon="-3.14612">
        <ele>271</ele>
        <time>2016-04-03T09:26:25.1Z</time>
      </trkpt>
      <trkpt lat="48.59353" lon="-3.14609">
        <ele>271</ele>
        <time>2016-04-03T09:26:27.1Z</time>
      </trkpt>
      <trkpt lat="48.59351" lon="-3.14607">
        <ele>272</ele>
        <time>2016-04-03T09:26:30.1Z</time>
      </trkpt>
      <trkpt lat="48.59349" lon="-3.14603">
        <ele>272</ele>
        <time>2016-04-03T09:26:32.1Z</time>
      </trkpt>
      <trkpt lat="48.59348" lon="-3.14601">
        <ele>272</ele>
        <time>2016-04-03T09:26:34.1Z</time>
      </trkpt>
      <trkpt lat="48.59347" lon="-3.14599">
        <ele>272</ele>
        <time>2016-04-03T09:26:37.1Z</time>
      </trkpt>
      <trkpt lat="48.59345" lon="-3.14596">
        <ele>273</ele>
        <time>2016-04-03T09:26:40.1Z</time>
      </trkpt>
      <trkpt lat="48.59343" lon="-3.14592">
        <ele>273</ele>
        <time>2016-04-03T09:26:43.1Z</time>
      </trkpt>
      <trkpt lat="48.59341" lon="-3.14589">
        <ele>273</ele>
        <time>2016-04-03T09:26:46.1Z</time>
      </trkpt>
      <trkpt lat="48.59339" lon="-3.14585">
        <ele>274</ele>
        <time>2016-04-03T09:26:48.1Z</time>
      </trkpt>
      <trkpt lat="48.59338" lon="-3.14583">
        <ele>274</ele>
        <time>2016-04-03T09:26:51.1Z</time>
      </trkpt>
      <trkpt lat="48.59336" lon="-3.14581">
        <ele>274</ele>
        <time>2016-04-03T09:26:53.1Z</time>
      </trkpt>
      <trkpt lat="48.59334" lon="-3.14578">
        <ele>274</ele>
        <time>2016-04-03T09:26:56.1Z</time>
      </trkpt>
      <trkpt lat="48.59332" lon="-3.14574">
        <ele>274</ele>
        <time>2016-04-03T09:26:58.1Z</time>
      </trkpt>
      <trkpt lat="48.59331" lon="-3.14573">
        <ele>275</ele>
        <time>2016-04-03T09:27:01.1Z</time>
      </trkpt>
      <trkpt lat="48.59329" lon="-3.14569">
        <ele>275</ele>
        <time>2016-04-03T09:27:04.1Z</time>
      </trkpt>
      <trkpt lat="48.59328" lon="-3.14567">
        <ele>276</ele>
        <time>2016-04-03T09:27:06.1Z</time>
      </trkpt>
      <trkpt lat="48.59327" lon="-3.14565">
        <ele>276</ele>
        <time>2016-04-03T09:27:08.1Z</time>
      </trkpt>
      <trkpt lat="48.59325" lon="-3.14561">
        <ele>276</ele>
        <time>2016-04-03T09:27:11.1Z</time>
      </trkpt>
      <trkpt lat="48.59324" lon="-3.14559">
        <ele>276</ele>
        <time>2016-04-03T09:27:13.1Z</time>
      </trkpt>
      <trkpt lat="48.59323" lon="-3.14557">
        <ele>277</ele>
        <time>2016-04-03T09:27:15.1Z</time>
      </trkpt>
      <trkpt lat="48.59322" lon="-3.14554">
        <ele>277</ele>
        <time>2016-04-03T09:27:17.1Z</time>
      </trkpt>
      <trkpt lat="48.59321" lon="-3.14552">
        <ele>278</ele>
        <time>2016-04-03T09:27:20.1Z</time>
      </trkpt>
      <trkpt lat="48.5932" lon="-3.1455">
        <ele>278</ele>
        <time>2016-04-03T09:27:22.1Z</time>
      </trkpt>
      <trkpt lat="48.59318" lon="-3.14546">
        <ele>278</ele>
        <time>2016-04-03T09:27:24.1Z</time>
      </trkpt>
      <trkpt lat="48.59317" lon="-3.14544">
        <ele>279</ele>
        <time>2016-04-03T09:27:26.1Z</time>
      </trkpt>
      <trkpt lat="48.59315" lon="-3.14542">
        <ele>279</ele>
        <time>2016-04-03T09:27:29.1Z</time>
      </trkpt>
      <trkpt lat="48.59314" lon="-3.14538">
        <ele>279</ele>
        <time>2016-04-03T09:27:31.1Z</time>
      </trkpt>
      <trkpt lat="48.59312" lon="-3.14535">
        <ele>279</ele>
        <time>2016-04-03T09:27:33.1Z</time>
      </trkpt>
      <trkpt lat="48.59311" lon="-3.14532">
        <ele>279</ele>
        <time>2016-04-03T09:27:36.1Z</time>
      </trkpt>
      <trkpt lat="48.59309" lon="-3.14529">
        <ele>279</ele>
        <time>2016-04-03T09:27:39.1Z</time>
      </trkpt>
      <trkpt lat="48.59306" lon="-3.14525">
        <ele>280</ele>
        <time>2016-04-03T09:27:41.1Z</time>
      </trkpt>
      <trkpt lat="48.59306" lon="-3.14523">
        <ele>280</ele>
        <time>2016-04-03T09:27:44.1Z</time>
      </trkpt>
      <trkpt lat="48.59304" lon="-3.1452">
        <ele>281</ele>
        <time>2016-04-03T09:27:46.1Z</time>
      </trkpt>
      <trkpt lat="48.59303" lon="-3.14517">
        <ele>281</ele>
        <time>2016-04-03T09:27:48.1Z</time>
      </trkpt>
      <trkpt lat="48.593" lon="-3.14513">
        <ele>280</ele>
        <time>2016-04-03T09:27:51.1Z</time>
      </trkpt>
      <trkpt lat="48.59298" lon="-3.14511">
        <ele>281</ele>
        <time>2016-04-03T09:27:53.1Z</time>
      </trkpt>
      <trkpt lat="48.59296" lon="-3.14508">
        <ele>281</ele>
        <time>2016-04-03T09:27:56.1Z</time>
      </trkpt>
      <trkpt lat="48.59294" lon="-3.14506">
        <ele>281</ele>
        <time>2016-04-03T09:27:58.1Z</time>
      </trkpt>
      <trkpt lat="48.59291" lon="-3.14503">
        <ele>282</ele>
        <time>2016-04-03T09:28:00.1Z</time>
      </trkpt>
      <trkpt lat="48.5929" lon="-3.14501">
        <ele>282</ele>
        <time>2016-04-03T09:28:03.1Z</time>
      </trkpt>
      <trkpt lat="48.59288" lon="-3.14497">
        <ele>282</ele>
        <time>2016-04-03T09:28:06.1Z</time>
      </trkpt>
      <trkpt lat="48.59285" lon="-3.14494">
        <ele>282</ele>
        <time>2016-04-03T09:28:09.1Z</time>
      </trkpt>
      <trkpt lat="48.59283" lon="-3.1449">
        <ele>283</ele>
        <time>2016-04-03T09:28:11.1Z</time>
      </trkpt>
      <trkpt lat="48.59282" lon="-3.14488">
        <ele>283</ele>
        <time>2016-04-03T09:28:14.1Z</time>
      </trkpt>
      <trkpt lat="48.59279" lon="-3.14484">
        <ele>283</ele>
        <time>2016-04-03T09:28:17.1Z</time>
      </trkpt>
      <trkpt lat="48.59277" lon="-3.14481">
        <ele>284</ele>
        <time>2016-04-03T09:28:20.1Z</time>
      </trkpt>
      <trkpt lat="48.59274" lon="-3.14478">
        <ele>284</ele>
        <time>2016-04-03T09:28:23.1Z</time>
      </trkpt>
      <trkpt lat="48.59272" lon="-3.14474">
        <ele>284</ele>
        <time>2016-04-03T09:28:25.1Z</time>
      </trkpt>
      <trkpt lat="48.59271" lon="-3.14472">
        <ele>284</ele>
        <time>2016-04-03T09:28:28.1Z</time>
      </trkpt>
      <trkpt lat="48.59269" lon="-3.14469">
        <ele>285</ele>
        <time>2016-04-03T09:28:31.1Z</time>
      </trkpt>
      <trkpt lat="48.59267" lon="-3.14465">
        <ele>285</ele>
        <time>2016-04-03T09:28:34.1Z</time>
      </trkpt>
      <trkpt lat="48.59265" lon="-3.14462">
        <ele>285</ele>
        <time>2016-04-03T09:28:36.1Z</time>
      </trkpt>
      <trkpt lat="48.59263" lon="-3.1446">
        <ele>285</ele>
        <time>2016-04-03T09:28:39.1Z</time>
      </trkpt>
      <trkpt lat="48.5926" lon="-3.14456">
        <ele>285</ele>
        <time>2016-04-03T09:28:42.1Z</time>
      </trkpt>
      <trkpt lat="48.59258" lon="-3.14453">
        <ele>286</ele>
        <time>2016-04-03T09:28:45.1Z</time>
      </trkpt>
      <trkpt lat="48.59256" lon="-3.14451">
        <ele>286</ele>
        <time>2016-04-03T09:28:47.1Z</time>
      </trkpt>
      <trkpt lat="48.59254" lon="-3.14448">
        <ele>286</ele>
        <time>2016-04-03T09:28:49.1Z</time>
      </trkpt>
      <trkpt lat="48.59252" lon="-3.14445">
        <ele>287</ele>
        <time>2016-04-03T09:28:51.1Z</time>
      </trkpt>
      <trkpt lat="48.59249" lon="-3.14442">
        <ele>287</ele>
        <time>2016-04-03T09:28:55.1Z</time>
      </trkpt>
      <trkpt lat="48.59247" lon="-3.1444">
        <ele>287</ele>
        <time>2016-04-03T09:28:57.1Z</time>
      </trkpt>
      <trkpt lat="48.59245" lon="-3.14437">
        <ele>287</ele>
        <time>2016-04-03T09:28:59.1Z</time>
      </trkpt>
      <trkpt lat="48.59242" lon="-3.14434">
        <ele>287</ele>
        <time>2016-04-03T09:29:03.1Z</time>
      </trkpt>
      <trkpt lat="48.5924" lon="-3.14431">
        <ele>287</ele>
        <time>2016-04-03T09:29:05.1Z</time>
      </trkpt>
      <trkpt lat="48.59237" lon="-3.14428">
        <ele>287</ele>
        <time>2016-04-03T09:29:07.1Z</time>
      </trkpt>
      <trkpt lat="48.59236" lon="-3.14425">
        <ele>287</ele>
        <time>2016-04-03T09:29:09.1Z</time>
      </trkpt>
      <trkpt lat="48.59234" lon="-3.14423">
        <ele>288</ele>
        <time>2016-04-03T09:29:11.1Z</time>
      </trkpt>
      <trkpt lat="48.59232" lon="-3.14421">
        <ele>288</ele>
        <time>2016-04-03T09:29:15.1Z</time>
      </trkpt>
      <trkpt lat="48.59232" lon="-3.14421">
        <ele>287</ele>
        <time>2016-04-03T09:29:17.1Z</time>
      </trkpt>
      <trkpt lat="48.59232" lon="-3.14421">
        <ele>287</ele>
        <time>2016-04-03T09:29:19.1Z</time>
      </trkpt>
      <trkpt lat="48.59233" lon="-3.14421">
        <ele>287</ele>
        <time>2016-04-03T09:29:21.1Z</time>
      </trkpt>
      <trkpt lat="48.59233" lon="-3.14421">
        <ele>287</ele>
        <time>2016-04-03T09:29:23.1Z</time>
      </trkpt>
      <trkpt lat="48.59233" lon="-3.14421">
        <ele>287</ele>
        <time>2016-04-03T09:29:27.1Z</time>
      </trkpt>
      <trkpt lat="48.59232" lon="-3.14421">
        <ele>287</ele>
        <time>2016-04-03T09:29:29.1Z</time>
      </trkpt>
      <trkpt lat="48.59232" lon="-3.14421">
        <ele>287</ele>
        <time>2016-04-03T09:29:32.1Z</time>
      </trkpt>
      <trkpt lat="48.59231" lon="-3.14421">
        <ele>287</ele>
        <time>2016-04-03T09:29:35.1Z</time>
      </trkpt>
      <trkpt lat="48.59231" lon="-3.14421">
        <ele>287</ele>
        <time>2016-04-03T09:29:37.1Z</time>
      </trkpt>
      <trkpt lat="48.59231" lon="-3.14421">
        <ele>288</ele>
        <time>2016-04-03T09:29:41.1Z</time>
      </trkpt>
      <trkpt lat="48.5923" lon="-3.14421">
        <ele>288</ele>
        <time>2016-04-03T09:29:43.1Z</time>
      </trkpt>
      <trkpt lat="48.5923" lon="-3.14422">
        <ele>288</ele>
        <time>2016-04-03T09:29:46.1Z</time>
      </trkpt>
      <trkpt lat="48.5923" lon="-3.14422">
        <ele>288</ele>
        <time>2016-04-03T09:29:49.1Z</time>
      </trkpt>
      <trkpt lat="48.5923" lon="-3.14422">
        <ele>288</ele>
        <time>2016-04-03T09:29:52.1Z</time>
      </trkpt>
      <trkpt lat="48.59229" lon="-3.14422">
        <ele>288</ele>
        <time>2016-04-03T09:29:55.1Z</time>
      </trkpt>
      <trkpt lat="48.59228" lon="-3.1442">
        <ele>288</ele>
        <time>2016-04-03T09:29:57.1Z</time>
      </trkpt>
      <trkpt lat="48.59226" lon="-3.14418">
        <ele>288</ele>
        <time>2016-04-03T09:29:59.1Z</time>
      </trkpt>
      <trkpt lat="48.59225" lon="-3.14415">
        <ele>288</ele>
        <time>2016-04-03T09:30:02.1Z</time>
      </trkpt>
      <trkpt lat="48.59223" lon="-3.14412">
        <ele>288</ele>
        <time>2016-04-03T09:30:04.1Z</time>
      </trkpt>
      <trkpt lat="48.59221" lon="-3.14409">
        <ele>288</ele>
        <time>2016-04-03T09:30:06.1Z</time>
      </trkpt>
      <trkpt lat="48.5922" lon="-3.14407">
        <ele>288</ele>
        <time>2016-04-03T09:30:08.1Z</time>
      </trkpt>
      <trkpt lat="48.59219" lon="-3.14404">
        <ele>288</ele>
        <time>2016-04-03T09:30:10.1Z</time>
      </trkpt>
      <trkpt lat="48.59218" lon="-3.14401">
        <ele>288</ele>
        <time>2016-04-03T09:30:12.1Z</time>
      </trkpt>
      <trkpt lat="48.59217" lon="-3.14397">
        <ele>289</ele>
        <time>2016-04-03T09:30:16.1Z</time>
      </trkpt>
      <trkpt lat="48.59216" lon="-3.14395">
        <ele>289</ele>
        <time>2016-04-03T09:30:18.1Z</time>
      </trkpt>
      <trkpt lat="48.59214" lon="-3.14392">
        <ele>289</ele>
        <time>2016-04-03T09:30:20.1Z</time>
      </trkpt>
      <trkpt lat="48.59214" lon="-3.14391">
        <ele>289</ele>
        <time>2016-04-03T09:30:23.1Z</time>
      </trkpt>
      <trkpt lat="48.59214" lon="-3.14391">
        <ele>289</ele>
        <time>2016-04-03T09:30:26.1Z</time>
      </trkpt>
      <trkpt lat="48.59214" lon="-3.14389">
        <ele>289</ele>
        <time>2016-04-03T09:30:28.1Z</time>
      </trkpt>
      <trkpt lat="48.59214" lon="-3.14389">
        <ele>290</ele>
        <time>2016-04-03T09:30:30.1Z</time>
      </trkpt>
      <trkpt lat="48.59214" lon="-3.14389">
        <ele>289</ele>
        <time>2016-04-03T09:30:34.1Z</time>
      </trkpt>
      <trkpt lat="48.59213" lon="-3.14389">
        <ele>289</ele>
        <time>2016-04-03T09:30:36.1Z</time>
      </trkpt>
      <trkpt lat="48.59212" lon="-3.14387">
        <ele>289</ele>
        <time>2016-04-03T09:30:39.1Z</time>
      </trkpt>
      <trkpt lat="48.59212" lon="-3.14385">
        <ele>290</ele>
        <time>2016-04-03T09:30:41.1Z</time>
      </trkpt>
      <trkpt lat="48.59212" lon="-3.14383">
        <ele>290</ele>
        <time>2016-04-03T09:30:43.1Z</time>
      </trkpt>
      <trkpt lat="48.59212" lon="-3.1438">
        <ele>290</ele>
        <time>2016-04-03T09:30:45.1Z</time>
      </trkpt>
      <trkpt lat="48.59212" lon="-3.14377">
        <ele>290</ele>
        <time>2016-04-03T09:30:47.1Z</time>
      </trkpt>
      <trkpt lat="48.59212" lon="-3.14373">
        <ele>289</ele>
        <time>2016-04-03T09:30:50.1Z</time>
      </trkpt>
      <trkpt lat="48.59212" lon="-3.14371">
        <ele>289</ele>
        <time>2016-04-03T09:30:53.1Z</time>
      </trkpt>
      <trkpt lat="48.59212" lon="-3.14367">
        <ele>290</ele>
        <time>2016-04-03T09:30:55.1Z</time>
      </trkpt>
      <trkpt lat="48.59212" lon="-3.14363">
        <ele>290</ele>
        <time>2016-04-03T09:30:58.1Z</time>
      </trkpt>
      <trkpt lat="48.59212" lon="-3.14357">
        <ele>291</ele>
        <time>2016-04-03T09:31:00.1Z</time>
      </trkpt>
      <trkpt lat="48.59212" lon="-3.14354">
        <ele>291</ele>
        <time>2016-04-03T09:31:02.1Z</time>
      </trkpt>
      <trkpt lat="48.59213" lon="-3.1435">
        <ele>291</ele>
        <time>2016-04-03T09:31:05.1Z</time>
      </trkpt>
      <trkpt lat="48.59213" lon="-3.14345">
        <ele>291</ele>
        <time>2016-04-03T09:31:09.1Z</time>
      </trkpt>
      <trkpt lat="48.59213" lon="-3.14341">
        <ele>291</ele>
        <time>2016-04-03T09:31:11.1Z</time>
      </trkpt>
      <trkpt lat="48.59213" lon="-3.14336">
        <ele>291</ele>
        <time>2016-04-03T09:31:13.1Z</time>
      </trkpt>
      <trkpt lat="48.59213" lon="-3.14333">
        <ele>292</ele>
        <time>2016-04-03T09:31:16.1Z</time>
      </trkpt>
      <trkpt lat="48.59213" lon="-3.14328">
        <ele>292</ele>
        <time>2016-04-03T09:31:18.1Z</time>
      </trkpt>
      <trkpt lat="48.59213" lon="-3.14325">
        <ele>292</ele>
        <time>2016-04-03T09:31:20.1Z</time>
      </trkpt>
      <trkpt lat="48.59213" lon="-3.14322">
        <ele>292</ele>
        <time>2016-04-03T09:31:23.1Z</time>
      </trkpt>
      <trkpt lat="48.59212" lon="-3.14317">
        <ele>293</ele>
        <time>2016-04-03T09:31:26.1Z</time>
      </trkpt>
      <trkpt lat="48.59212" lon="-3.14314">
        <ele>293</ele>
        <time>2016-04-03T09:31:28.1Z</time>
      </trkpt>
      <trkpt lat="48.59211" lon="-3.14309">
        <ele>293</ele>
        <time>2016-04-03T09:31:31.1Z</time>
      </trkpt>
      <trkpt lat="48.59211" lon="-3.14304">
        <ele>293</ele>
        <time>2016-04-03T09:31:34.1Z</time>
      </trkpt>
      <trkpt lat="48.59211" lon="-3.143">
        <ele>293</ele>
        <time>2016-04-03T09:31:37.1Z</time>
      </trkpt>
      <trkpt lat="48.59211" lon="-3.14295">
        <ele>293</ele>
        <time>2016-04-03T09:31:39.1Z</time>
      </trkpt>
      <trkpt lat="48.59211" lon="-3.14292">
        <ele>293</ele>
        <time>2016-04-03T09:31:41.1Z</time>
      </trkpt>
      <trkpt lat="48.59211" lon="-3.14288">
        <ele>293</ele>
        <time>2016-04-03T09:31:43.1Z</time>
      </trkpt>
      <trkpt lat="48.59211" lon="-3.14284">
        <ele>293</ele>
        <time>2016-04-03T09:31:46.1Z</time>
      </trkpt>
      <trkpt lat="48.59211" lon="-3.1428">
        <ele>293</ele>
        <time>2016-04-03T09:31:49.1Z</time>
      </trkpt>
      <trkpt lat="48.59211" lon="-3.14276">
        <ele>293</ele>
        <time>2016-04-03T09:31:51.1Z</time>
      </trkpt>
      <trkpt lat="48.59212" lon="-3.14271">
        <ele>293</ele>
        <time>2016-04-03T09:31:53.1Z</time>
      </trkpt>
      <trkpt lat="48.59212" lon="-3.14267">
        <ele>293</ele>
        <time>2016-04-03T09:31:55.1Z</time>
      </trkpt>
      <trkpt lat="48.59212" lon="-3.14262">
        <ele>293</ele>
        <time>2016-04-03T09:31:59.1Z</time>
      </trkpt>
      <trkpt lat="48.59212" lon="-3.14257">
        <ele>293</ele>
        <time>2016-04-03T09:32:01.1Z</time>
      </trkpt>
      <trkpt lat="48.59213" lon="-3.14252">
        <ele>294</ele>
        <time>2016-04-03T09:32:05.1Z</time>
      </trkpt>
      <trkpt lat="48.59213" lon="-3.14249">
        <ele>294</ele>
        <time>2016-04-03T09:32:07.1Z</time>
      </trkpt>
      <trkpt lat="48.59213" lon="-3.14246">
        <ele>294</ele>
        <time>2016-04-03T09:32:09.1Z</time>
      </trkpt>
      <trkpt lat="48.59215" lon="-3.14247">
        <ele>293</ele>
        <time>2016-04-03T09:32:12.1Z</time>
      </trkpt>
      <trkpt lat="48.59215" lon="-3.14246">
        <ele>293</ele>
        <time>2016-04-03T09:32:14.1Z</time>
      </trkpt>
      <trkpt lat="48.59214" lon="-3.14243">
        <ele>293</ele>
        <time>2016-04-03T09:32:16.1Z</time>
      </trkpt>
      <trkpt lat="48.59212" lon="-3.1424">
        <ele>293</ele>
        <time>2016-04-03T09:32:19.1Z</time>
      </trkpt>
      <trkpt lat="48.59211" lon="-3.14237">
        <ele>293</ele>
        <time>2016-04-03T09:32:21.1Z</time>
      </trkpt>
      <trkpt lat="48.59211" lon="-3.14235">
        <ele>294</ele>
        <time>2016-04-03T09:32:23.1Z</time>
      </trkpt>
      <trkpt lat="48.59211" lon="-3.14231">
        <ele>294</ele>
        <time>2016-04-03T09:32:26.1Z</time>
      </trkpt>
      <trkpt lat="48.59209" lon="-3.14227">
        <ele>294</ele>
        <time>2016-04-03T09:32:28.1Z</time>
      </trkpt>
      <trkpt lat="48.59208" lon="-3.14223">
        <ele>294</ele>
        <time>2016-04-03T09:32:31.1Z</time>
      </trkpt>
      <trkpt lat="48.59207" lon="-3.14219">
        <ele>294</ele>
        <time>2016-04-03T09:32:33.1Z</time>
      </trkpt>
      <trkpt lat="48.59205" lon="-3.14215">
        <ele>294</ele>
        <time>2016-04-03T09:32:36.1Z</time>
      </trkpt>
      <trkpt lat="48.59203" lon="-3.14211">
        <ele>294</ele>
        <time>2016-04-03T09:32:39.1Z</time>
      </trkpt>
      <trkpt lat="48.59203" lon="-3.14209">
        <ele>294</ele>
        <time>2016-04-03T09:32:41.1Z</time>
      </trkpt>
      <trkpt lat="48.59201" lon="-3.14204">
        <ele>294</ele>
        <time>2016-04-03T09:32:44.1Z</time>
      </trkpt>
      <trkpt lat="48.59198" lon="-3.14202">
        <ele>294</ele>
        <time>2016-04-03T09:32:47.1Z</time>
      </trkpt>
      <trkpt lat="48.59197" lon="-3.14201">
        <ele>294</ele>
        <time>2016-04-03T09:32:49.1Z</time>
      </trkpt>
      <trkpt lat="48.59194" lon="-3.14201">
        <ele>294</ele>
        <time>2016-04-03T09:32:52.1Z</time>
      </trkpt>
      <trkpt lat="48.59193" lon="-3.14201">
        <ele>294</ele>
        <time>2016-04-03T09:32:54.1Z</time>
      </trkpt>
      <trkpt lat="48.5919" lon="-3.14201">
        <ele>294</ele>
        <time>2016-04-03T09:32:57.1Z</time>
      </trkpt>
      <trkpt lat="48.59188" lon="-3.14201">
        <ele>294</ele>
        <time>2016-04-03T09:32:59.1Z</time>
      </trkpt>
      <trkpt lat="48.59186" lon="-3.14201">
        <ele>293</ele>
        <time>2016-04-03T09:33:02.1Z</time>
      </trkpt>
      <trkpt lat="48.59184" lon="-3.14202">
        <ele>293</ele>
        <time>2016-04-03T09:33:04.1Z</time>
      </trkpt>
      <trkpt lat="48.59182" lon="-3.14204">
        <ele>293</ele>
        <time>2016-04-03T09:33:07.1Z</time>
      </trkpt>
      <trkpt lat="48.59181" lon="-3.14204">
        <ele>292</ele>
        <time>2016-04-03T09:33:10.1Z</time>
      </trkpt>
      <trkpt lat="48.59177" lon="-3.14204">
        <ele>292</ele>
        <time>2016-04-03T09:33:12.1Z</time>
      </trkpt>
      <trkpt lat="48.59176" lon="-3.14205">
        <ele>292</ele>
        <time>2016-04-03T09:33:14.1Z</time>
      </trkpt>
      <trkpt lat="48.59173" lon="-3.14206">
        <ele>292</ele>
        <time>2016-04-03T09:33:17.1Z</time>
      </trkpt>
      <trkpt lat="48.5917" lon="-3.14207">
        <ele>291</ele>
        <time>2016-04-03T09:33:20.1Z</time>
      </trkpt>
      <trkpt lat="48.59168" lon="-3.14208">
        <ele>291</ele>
        <time>2016-04-03T09:33:22.1Z</time>
      </trkpt>
      <trkpt lat="48.59165" lon="-3.14209">
        <ele>291</ele>
        <time>2016-04-03T09:33:25.1Z</time>
      </trkpt>
      <trkpt lat="48.59162" lon="-3.14209">
        <ele>291</ele>
        <time>2016-04-03T09:33:27.1Z</time>
      </trkpt>
      <trkpt lat="48.5916" lon="-3.1421">
        <ele>291</ele>
        <time>2016-04-03T09:33:29.1Z</time>
      </trkpt>
      <trkpt lat="48.59156" lon="-3.14212">
        <ele>291</ele>
        <time>2016-04-03T09:33:32.1Z</time>
      </trkpt>
      <trkpt lat="48.59154" lon="-3.14211">
        <ele>291</ele>
        <time>2016-04-03T09:33:34.1Z</time>
      </trkpt>
      <trkpt lat="48.59152" lon="-3.14212">
        <ele>290</ele>
        <time>2016-04-03T09:33:36.1Z</time>
      </trkpt>
      <trkpt lat="48.59149" lon="-3.14212">
        <ele>290</ele>
        <time>2016-04-03T09:33:39.1Z</time>
      </trkpt>
      <trkpt lat="48.59146" lon="-3.14212">
        <ele>290</ele>
        <time>2016-04-03T09:33:41.1Z</time>
      </trkpt>
      <trkpt lat="48.59145" lon="-3.14213">
        <ele>289</ele>
        <time>2016-04-03T09:33:43.1Z</time>
      </trkpt>
      <trkpt lat="48.59143" lon="-3.14213">
        <ele>289</ele>
        <time>2016-04-03T09:33:45.1Z</time>
      </trkpt>
      <trkpt lat="48.59138" lon="-3.14213">
        <ele>289</ele>
        <time>2016-04-03T09:33:48.1Z</time>
      </trkpt>
      <trkpt lat="48.59135" lon="-3.14213">
        <ele>289</ele>
        <time>2016-04-03T09:33:51.1Z</time>
      </trkpt>
      <trkpt lat="48.59134" lon="-3.14213">
        <ele>289</ele>
        <time>2016-04-03T09:33:53.1Z</time>
      </trkpt>
      <trkpt lat="48.59131" lon="-3.14213">
        <ele>289</ele>
        <time>2016-04-03T09:33:56.1Z</time>
      </trkpt>
      <trkpt lat="48.59128" lon="-3.14215">
        <ele>289</ele>
        <time>2016-04-03T09:33:58.1Z</time>
      </trkpt>
      <trkpt lat="48.59127" lon="-3.14216">
        <ele>289</ele>
        <time>2016-04-03T09:34:00.1Z</time>
      </trkpt>
      <trkpt lat="48.59123" lon="-3.14217">
        <ele>290</ele>
        <time>2016-04-03T09:34:03.1Z</time>
      </trkpt>
      <trkpt lat="48.59121" lon="-3.14219">
        <ele>290</ele>
        <time>2016-04-03T09:34:05.1Z</time>
      </trkpt>
      <trkpt lat="48.59119" lon="-3.14221">
        <ele>290</ele>
        <time>2016-04-03T09:34:08.1Z</time>
      </trkpt>
      <trkpt lat="48.59117" lon="-3.14222">
        <ele>290</ele>
        <time>2016-04-03T09:34:11.1Z</time>
      </trkpt>
      <trkpt lat="48.59114" lon="-3.14225">
        <ele>290</ele>
        <time>2016-04-03T09:34:13.1Z</time>
      </trkpt>
      <trkpt lat="48.59112" lon="-3.14227">
        <ele>290</ele>
        <time>2016-04-03T09:34:16.1Z</time>
      </trkpt>
      <trkpt lat="48.5911" lon="-3.14229">
        <ele>289</ele>
        <time>2016-04-03T09:34:18.1Z</time>
      </trkpt>
      <trkpt lat="48.59108" lon="-3.1423">
        <ele>289</ele>
        <time>2016-04-03T09:34:20.1Z</time>
      </trkpt>
      <trkpt lat="48.59106" lon="-3.14233">
        <ele>289</ele>
        <time>2016-04-03T09:34:23.1Z</time>
      </trkpt>
      <trkpt lat="48.59103" lon="-3.14236">
        <ele>289</ele>
        <time>2016-04-03T09:34:26.1Z</time>
      </trkpt>
      <trkpt lat="48.59101" lon="-3.14238">
        <ele>289</ele>
        <time>2016-04-03T09:34:29.1Z</time>
      </trkpt>
      <trkpt lat="48.591" lon="-3.14241">
        <ele>289</ele>
        <time>2016-04-03T09:34:31.1Z</time>
      </trkpt>
      <trkpt lat="48.59098" lon="-3.14243">
        <ele>288</ele>
        <time>2016-04-03T09:34:34.1Z</time>
      </trkpt>
      <trkpt lat="48.59095" lon="-3.14245">
        <ele>288</ele>
        <time>2016-04-03T09:34:37.1Z</time>
      </trkpt>
      <trkpt lat="48.59091" lon="-3.14247">
        <ele>288</ele>
        <time>2016-04-03T09:34:40.1Z</time>
      </trkpt>
      <trkpt lat="48.5909" lon="-3.14247">
        <ele>288</ele>
        <time>2016-04-03T09:34:42.1Z</time>
      </trkpt>
      <trkpt lat="48.59088" lon="-3.14248">
        <ele>288</ele>
        <time>2016-04-03T09:34:45.1Z</time>
      </trkpt>
      <trkpt lat="48.59087" lon="-3.14249">
        <ele>288</ele>
        <time>2016-04-03T09:34:47.1Z</time>
      </trkpt>
      <trkpt lat="48.59084" lon="-3.14251">
        <ele>288</ele>
        <time>2016-04-03T09:34:50.1Z</time>
      </trkpt>
      <trkpt lat="48.59083" lon="-3.14252">
        <ele>287</ele>
        <time>2016-04-03T09:34:52.1Z</time>
      </trkpt>
      <trkpt lat="48.59081" lon="-3.14254">
        <ele>287</ele>
        <time>2016-04-03T09:34:55.1Z</time>
      </trkpt>
      <trkpt lat="48.5908" lon="-3.14255">
        <ele>286</ele>
        <time>2016-04-03T09:34:58.1Z</time>
      </trkpt>
      <trkpt lat="48.59079" lon="-3.14255">
        <ele>286</ele>
        <time>2016-04-03T09:35:01.1Z</time>
      </trkpt>
      <trkpt lat="48.59079" lon="-3.14256">
        <ele>285</ele>
        <time>2016-04-03T09:35:03.1Z</time>
      </trkpt>
      <trkpt lat="48.59077" lon="-3.14258">
        <ele>285</ele>
        <time>2016-04-03T09:35:06.1Z</time>
      </trkpt>
      <trkpt lat="48.59075" lon="-3.1426">
        <ele>285</ele>
        <time>2016-04-03T09:35:08.1Z</time>
      </trkpt>
      <trkpt lat="48.59073" lon="-3.14262">
        <ele>284</ele>
        <time>2016-04-03T09:35:11.1Z</time>
      </trkpt>
      <trkpt lat="48.59071" lon="-3.14263">
        <ele>284</ele>
        <time>2016-04-03T09:35:13.1Z</time>
      </trkpt>
      <trkpt lat="48.59069" lon="-3.14264">
        <ele>284</ele>
        <time>2016-04-03T09:35:15.1Z</time>
      </trkpt>
      <trkpt lat="48.59066" lon="-3.14266">
        <ele>284</ele>
        <time>2016-04-03T09:35:18.1Z</time>
      </trkpt>
      <trkpt lat="48.59065" lon="-3.14267">
        <ele>283</ele>
        <time>2016-04-03T09:35:20.1Z</time>
      </trkpt>
      <trkpt lat="48.59063" lon="-3.14267">
        <ele>282</ele>
        <time>2016-04-03T09:35:23.1Z</time>
      </trkpt>
      <trkpt lat="48.5906" lon="-3.14268">
        <ele>282</ele>
        <time>2016-04-03T09:35:26.1Z</time>
      </trkpt>
      <trkpt lat="48.59058" lon="-3.14269">
        <ele>281</ele>
        <time>2016-04-03T09:35:29.1Z</time>
      </trkpt>
      <trkpt lat="48.59056" lon="-3.1427">
        <ele>280</ele>
        <time>2016-04-03T09:35:32.1Z</time>
      </trkpt>
      <trkpt lat="48.59053" lon="-3.14271">
        <ele>280</ele>
        <time>2016-04-03T09:35:34.1Z</time>
      </trkpt>
      <trkpt lat="48.59052" lon="-3.14272">
        <ele>280</ele>
        <time>2016-04-03T09:35:36.1Z</time>
      </trkpt>
      <trkpt lat="48.59048" lon="-3.14272">
        <ele>280</ele>
        <time>2016-04-03T09:35:39.1Z</time>
      </trkpt>
      <trkpt lat="48.59045" lon="-3.14272">
        <ele>280</ele>
        <time>2016-04-03T09:35:42.1Z</time>
      </trkpt>
      <trkpt lat="48.59043" lon="-3.14273">
        <ele>280</ele>
        <time>2016-04-03T09:35:45.1Z</time>
      </trkpt>
      <trkpt lat="48.5904" lon="-3.14274">
        <ele>280</ele>
        <time>2016-04-03T09:35:48.1Z</time>
      </trkpt>
      <trkpt lat="48.59038" lon="-3.14274">
        <ele>279</ele>
        <time>2016-04-03T09:35:50.1Z</time>
      </trkpt>
      <trkpt lat="48.59037" lon="-3.14272">
        <ele>280</ele>
        <time>2016-04-03T09:35:53.1Z</time>
      </trkpt>
      <trkpt lat="48.59037" lon="-3.14272">
        <ele>280</ele>
        <time>2016-04-03T09:35:55.1Z</time>
      </trkpt>
      <trkpt lat="48.59037" lon="-3.14273">
        <ele>280</ele>
        <time>2016-04-03T09:35:58.1Z</time>
      </trkpt>
      <trkpt lat="48.59036" lon="-3.14273">
        <ele>280</ele>
        <time>2016-04-03T09:36:00.1Z</time>
      </trkpt>
      <trkpt lat="48.59034" lon="-3.14274">
        <ele>280</ele>
        <time>2016-04-03T09:36:03.1Z</time>
      </trkpt>
      <trkpt lat="48.59033" lon="-3.14275">
        <ele>280</ele>
        <time>2016-04-03T09:36:05.1Z</time>
      </trkpt>
      <trkpt lat="48.59032" lon="-3.14277">
        <ele>280</ele>
        <time>2016-04-03T09:36:07.1Z</time>
      </trkpt>
      <trkpt lat="48.5903" lon="-3.14278">
        <ele>279</ele>
        <time>2016-04-03T09:36:09.1Z</time>
      </trkpt>
      <trkpt lat="48.59028" lon="-3.14279">
        <ele>279</ele>
        <time>2016-04-03T09:36:12.1Z</time>
      </trkpt>
      <trkpt lat="48.59026" lon="-3.1428">
        <ele>279</ele>
        <time>2016-04-03T09:36:14.1Z</time>
      </trkpt>
      <trkpt lat="48.59022" lon="-3.14281">
        <ele>279</ele>
        <time>2016-04-03T09:36:18.1Z</time>
      </trkpt>
      <trkpt lat="48.59019" lon="-3.14283">
        <ele>279</ele>
        <time>2016-04-03T09:36:20.1Z</time>
      </trkpt>
      <trkpt lat="48.59018" lon="-3.14283">
        <ele>279</ele>
        <time>2016-04-03T09:36:22.1Z</time>
      </trkpt>
      <trkpt lat="48.59018" lon="-3.14284">
        <ele>279</ele>
        <time>2016-04-03T09:36:25.1Z</time>
      </trkpt>
      <trkpt lat="48.59019" lon="-3.14284">
        <ele>279</ele>
        <time>2016-04-03T09:36:27.1Z</time>
      </trkpt>
      <trkpt lat="48.5902" lon="-3.14285">
        <ele>279</ele>
        <time>2016-04-03T09:36:30.1Z</time>
      </trkpt>
      <trkpt lat="48.5902" lon="-3.14286">
        <ele>279</ele>
        <time>2016-04-03T09:36:33.1Z</time>
      </trkpt>
      <trkpt lat="48.59019" lon="-3.14287">
        <ele>279</ele>
        <time>2016-04-03T09:36:35.1Z</time>
      </trkpt>
      <trkpt lat="48.59019" lon="-3.14288">
        <ele>279</ele>
        <time>2016-04-03T09:36:38.1Z</time>
      </trkpt>
      <trkpt lat="48.59019" lon="-3.14287">
        <ele>279</ele>
        <time>2016-04-03T09:36:41.1Z</time>
      </trkpt>
      <trkpt lat="48.59017" lon="-3.14288">
        <ele>279</ele>
        <time>2016-04-03T09:36:44.1Z</time>
      </trkpt>
      <trkpt lat="48.59016" lon="-3.14288">
        <ele>279</ele>
        <time>2016-04-03T09:36:47.1Z</time>
      </trkpt>
      <trkpt lat="48.59015" lon="-3.1429">
        <ele>279</ele>
        <time>2016-04-03T09:36:50.1Z</time>
      </trkpt>
      <trkpt lat="48.59015" lon="-3.14291">
        <ele>279</ele>
        <time>2016-04-03T09:36:53.1Z</time>
      </trkpt>
      <trkpt lat="48.59015" lon="-3.14292">
        <ele>279</ele>
        <time>2016-04-03T09:36:56.1Z</time>
      </trkpt>
      <trkpt lat="48.59015" lon="-3.14292">
        <ele>279</ele>
        <time>2016-04-03T09:36:58.1Z</time>
      </trkpt>
      <trkpt lat="48.59014" lon="-3.14291">
        <ele>279</ele>
        <time>2016-04-03T09:37:01.1Z</time>
      </trkpt>
      <trkpt lat="48.59013" lon="-3.14291">
        <ele>279</ele>
        <time>2016-04-03T09:37:04.1Z</time>
      </trkpt>
      <trkpt lat="48.59013" lon="-3.1429">
        <ele>279</ele>
        <time>2016-04-03T09:37:07.1Z</time>
      </trkpt>
      <trkpt lat="48.59013" lon="-3.1429">
        <ele>279</ele>
        <time>2016-04-03T09:37:09.1Z</time>
      </trkpt>
      <trkpt lat="48.59013" lon="-3.1429">
        <ele>279</ele>
        <time>2016-04-03T09:37:12.1Z</time>
      </trkpt>
      <trkpt lat="48.59012" lon="-3.1429">
        <ele>279</ele>
        <time>2016-04-03T09:37:14.1Z</time>
      </trkpt>
      <trkpt lat="48.59011" lon="-3.1429">
        <ele>279</ele>
        <time>2016-04-03T09:37:16.1Z</time>
      </trkpt>
      <trkpt lat="48.59011" lon="-3.14289">
        <ele>279</ele>
        <time>2016-04-03T09:37:19.1Z</time>
      </trkpt>
      <trkpt lat="48.59011" lon="-3.14289">
        <ele>279</ele>
        <time>2016-04-03T09:37:21.1Z</time>
      </trkpt>
      <trkpt lat="48.59011" lon="-3.14289">
        <ele>279</ele>
        <time>2016-04-03T09:37:23.1Z</time>
      </trkpt>
      <trkpt lat="48.5901" lon="-3.14289">
        <ele>279</ele>
        <time>2016-04-03T09:37:26.1Z</time>
      </trkpt>
      <trkpt lat="48.59011" lon="-3.1429">
        <ele>279</ele>
        <time>2016-04-03T09:37:28.1Z</time>
      </trkpt>
      <trkpt lat="48.59011" lon="-3.1429">
        <ele>279</ele>
        <time>2016-04-03T09:37:31.1Z</time>
      </trkpt>
      <trkpt lat="48.5901" lon="-3.1429">
        <ele>279</ele>
        <time>2016-04-03T09:37:34.1Z</time>
      </trkpt>
      <trkpt lat="48.59009" lon="-3.14291">
        <ele>279</ele>
        <time>2016-04-03T09:37:36.1Z</time>
      </trkpt>
      <trkpt lat="48.59009" lon="-3.14292">
        <ele>279</ele>
        <time>2016-04-03T09:37:39.1Z</time>
      </trkpt>
      <trkpt lat="48.59009" lon="-3.14292">
        <ele>279</ele>
        <time>2016-04-03T09:37:41.1Z</time>
      </trkpt>
      <trkpt lat="48.59011" lon="-3.14291">
        <ele>279</ele>
        <time>2016-04-03T09:37:44.1Z</time>
      </trkpt>
      <trkpt lat="48.59012" lon="-3.14292">
        <ele>279</ele>
        <time>2016-04-03T09:37:47.1Z</time>
      </trkpt>
      <trkpt lat="48.59012" lon="-3.14292">
        <ele>279</ele>
        <time>2016-04-03T09:37:50.1Z</time>
      </trkpt>
      <trkpt lat="48.59012" lon="-3.14293">
        <ele>279</ele>
        <time>2016-04-03T09:37:52.1Z</time>
      </trkpt>
      <trkpt lat="48.59011" lon="-3.14293">
        <ele>279</ele>
        <time>2016-04-03T09:37:55.1Z</time>
      </trkpt>
      <trkpt lat="48.59011" lon="-3.14294">
        <ele>279</ele>
        <time>2016-04-03T09:37:57.1Z</time>
      </trkpt>
      <trkpt lat="48.5901" lon="-3.14294">
        <ele>279</ele>
        <time>2016-04-03T09:38:00.1Z</time>
      </trkpt>
      <trkpt lat="48.59009" lon="-3.14294">
        <ele>280</ele>
        <time>2016-04-03T09:38:02.1Z</time>
      </trkpt>
      <trkpt lat="48.59009" lon="-3.14294">
        <ele>279</ele>
        <time>2016-04-03T09:38:05.1Z</time>
      </trkpt>
      <trkpt lat="48.59009" lon="-3.14294">
        <ele>280</ele>
        <time>2016-04-03T09:38:07.1Z</time>
      </trkpt>
      <trkpt lat="48.59008" lon="-3.14295">
        <ele>279</ele>
        <time>2016-04-03T09:38:10.1Z</time>
      </trkpt>
      <trkpt lat="48.59006" lon="-3.14295">
        <ele>279</ele>
        <time>2016-04-03T09:38:12.1Z</time>
      </trkpt>
      <trkpt lat="48.59005" lon="-3.14296">
        <ele>279</ele>
        <time>2016-04-03T09:38:14.1Z</time>
      </trkpt>
      <trkpt lat="48.59003" lon="-3.14296">
        <ele>280</ele>
        <time>2016-04-03T09:38:16.1Z</time>
      </trkpt>
      <trkpt lat="48.59002" lon="-3.14296">
        <ele>280</ele>
        <time>2016-04-03T09:38:19.1Z</time>
      </trkpt>
      <trkpt lat="48.59" lon="-3.14294">
        <ele>280</ele>
        <time>2016-04-03T09:38:22.1Z</time>
      </trkpt>
      <trkpt lat="48.58999" lon="-3.14293">
        <ele>280</ele>
        <time>2016-04-03T09:38:24.1Z</time>
      </trkpt>
      <trkpt lat="48.58998" lon="-3.14291">
        <ele>280</ele>
        <time>2016-04-03T09:38:26.1Z</time>
      </trkpt>
      <trkpt lat="48.58996" lon="-3.1429">
        <ele>280</ele>
        <time>2016-04-03T09:38:29.1Z</time>
      </trkpt>
      <trkpt lat="48.58996" lon="-3.1429">
        <ele>281</ele>
        <time>2016-04-03T09:38:31.1Z</time>
      </trkpt>
      <trkpt lat="48.58994" lon="-3.14288">
        <ele>281</ele>
        <time>2016-04-03T09:38:34.1Z</time>
      </trkpt>
      <trkpt lat="48.58991" lon="-3.14287">
        <ele>281</ele>
        <time>2016-04-03T09:38:37.1Z</time>
      </trkpt>
      <trkpt lat="48.5899" lon="-3.14286">
        <ele>281</ele>
        <time>2016-04-03T09:38:39.1Z</time>
      </trkpt>
      <trkpt lat="48.58989" lon="-3.14285">
        <ele>281</ele>
        <time>2016-04-03T09:38:41.1Z</time>
      </trkpt>
      <trkpt lat="48.58987" lon="-3.14285">
        <ele>281</ele>
        <time>2016-04-03T09:38:44.1Z</time>
      </trkpt>
      <trkpt lat="48.58985" lon="-3.14286">
        <ele>281</ele>
        <time>2016-04-03T09:38:47.1Z</time>
      </trkpt>
      <trkpt lat="48.58985" lon="-3.14286">
        <ele>282</ele>
        <time>2016-04-03T09:38:50.1Z</time>
      </trkpt>
      <trkpt lat="48.58985" lon="-3.14285">
        <ele>282</ele>
        <time>2016-04-03T09:38:53.1Z</time>
      </trkpt>
      <trkpt lat="48.58985" lon="-3.14285">
        <ele>282</ele>
        <time>2016-04-03T09:38:57.1Z</time>
      </trkpt>
      <trkpt lat="48.58985" lon="-3.14286">
        <ele>281</ele>
        <time>2016-04-03T09:38:59.1Z</time>
      </trkpt>
      <trkpt lat="48.58986" lon="-3.14285">
        <ele>281</ele>
        <time>2016-04-03T09:39:02.1Z</time>
      </trkpt>
      <trkpt lat="48.58986" lon="-3.14286">
        <ele>281</ele>
        <time>2016-04-03T09:39:04.1Z</time>
      </trkpt>
      <trkpt lat="48.58987" lon="-3.14287">
        <ele>282</ele>
        <time>2016-04-03T09:39:07.1Z</time>
      </trkpt>
      <trkpt lat="48.58987" lon="-3.14287">
        <ele>282</ele>
        <time>2016-04-03T09:39:09.1Z</time>
      </trkpt>
      <trkpt lat="48.58988" lon="-3.14288">
        <ele>282</ele>
        <time>2016-04-03T09:39:13.1Z</time>
      </trkpt>
      <trkpt lat="48.58987" lon="-3.14288">
        <ele>282</ele>
        <time>2016-04-03T09:39:15.1Z</time>
      </trkpt>
      <trkpt lat="48.58987" lon="-3.14288">
        <ele>282</ele>
        <time>2016-04-03T09:39:17.1Z</time>
      </trkpt>
      <trkpt lat="48.58987" lon="-3.14288">
        <ele>282</ele>
        <time>2016-04-03T09:39:19.1Z</time>
      </trkpt>
      <trkpt lat="48.58986" lon="-3.14288">
        <ele>282</ele>
        <time>2016-04-03T09:39:23.1Z</time>
      </trkpt>
      <trkpt lat="48.58987" lon="-3.14288">
        <ele>282</ele>
        <time>2016-04-03T09:39:26.1Z</time>
      </trkpt>
      <trkpt lat="48.58987" lon="-3.14288">
        <ele>282</ele>
        <time>2016-04-03T09:39:28.1Z</time>
      </trkpt>
      <trkpt lat="48.58987" lon="-3.14288">
        <ele>282</ele>
        <time>2016-04-03T09:39:30.1Z</time>
      </trkpt>
      <trkpt lat="48.58989" lon="-3.1429">
        <ele>282</ele>
        <time>2016-04-03T09:39:33.1Z</time>
      </trkpt>
      <trkpt lat="48.58989" lon="-3.14289">
        <ele>282</ele>
        <time>2016-04-03T09:39:35.1Z</time>
      </trkpt>
      <trkpt lat="48.58989" lon="-3.14289">
        <ele>282</ele>
        <time>2016-04-03T09:39:38.1Z</time>
      </trkpt>
      <trkpt lat="48.5899" lon="-3.14289">
        <ele>282</ele>
        <time>2016-04-03T09:39:41.1Z</time>
      </trkpt>
      <trkpt lat="48.58991" lon="-3.1429">
        <ele>282</ele>
        <time>2016-04-03T09:39:44.1Z</time>
      </trkpt>
      <trkpt lat="48.5899" lon="-3.14289">
        <ele>282</ele>
        <time>2016-04-03T09:39:47.1Z</time>
      </trkpt>
      <trkpt lat="48.58989" lon="-3.14289">
        <ele>282</ele>
        <time>2016-04-03T09:39:50.1Z</time>
      </trkpt>
      <trkpt lat="48.58988" lon="-3.1429">
        <ele>282</ele>
        <time>2016-04-03T09:39:52.1Z</time>
      </trkpt>
      <trkpt lat="48.58986" lon="-3.14289">
        <ele>282</ele>
        <time>2016-04-03T09:39:55.1Z</time>
      </trkpt>
      <trkpt lat="48.58983" lon="-3.14288">
        <ele>283</ele>
        <time>2016-04-03T09:39:58.1Z</time>
      </trkpt>
      <trkpt lat="48.58982" lon="-3.14288">
        <ele>284</ele>
        <time>2016-04-03T09:40:00.1Z</time>
      </trkpt>
      <trkpt lat="48.58979" lon="-3.14285">
        <ele>284</ele>
        <time>2016-04-03T09:40:03.1Z</time>
      </trkpt>
      <trkpt lat="48.58978" lon="-3.14284">
        <ele>284</ele>
        <time>2016-04-03T09:40:05.1Z</time>
      </trkpt>
      <trkpt lat="48.58977" lon="-3.14282">
        <ele>284</ele>
        <time>2016-04-03T09:40:07.1Z</time>
      </trkpt>
      <trkpt lat="48.58975" lon="-3.14281">
        <ele>284</ele>
        <time>2016-04-03T09:40:10.1Z</time>
      </trkpt>
      <trkpt lat="48.58972" lon="-3.14279">
        <ele>284</ele>
        <time>2016-04-03T09:40:13.1Z</time>
      </trkpt>
      <trkpt lat="48.58971" lon="-3.14278">
        <ele>284</ele>
        <time>2016-04-03T09:40:15.1Z</time>
      </trkpt>
      <trkpt lat="48.58969" lon="-3.14275">
        <ele>285</ele>
        <time>2016-04-03T09:40:18.1Z</time>
      </trkpt>
      <trkpt lat="48.58968" lon="-3.14274">
        <ele>285</ele>
        <time>2016-04-03T09:40:20.1Z</time>
      </trkpt>
      <trkpt lat="48.58965" lon="-3.14271">
        <ele>285</ele>
        <time>2016-04-03T09:40:22.1Z</time>
      </trkpt>
      <trkpt lat="48.58964" lon="-3.14269">
        <ele>285</ele>
        <time>2016-04-03T09:40:24.1Z</time>
      </trkpt>
      <trkpt lat="48.58963" lon="-3.14268">
        <ele>285</ele>
        <time>2016-04-03T09:40:26.1Z</time>
      </trkpt>
      <trkpt lat="48.58962" lon="-3.14266">
        <ele>284</ele>
        <time>2016-04-03T09:40:28.1Z</time>
      </trkpt>
      <trkpt lat="48.58961" lon="-3.14263">
        <ele>285</ele>
        <time>2016-04-03T09:40:31.1Z</time>
      </trkpt>
      <trkpt lat="48.58959" lon="-3.14261">
        <ele>285</ele>
        <time>2016-04-03T09:40:34.1Z</time>
      </trkpt>
      <trkpt lat="48.58958" lon="-3.14259">
        <ele>285</ele>
        <time>2016-04-03T09:40:36.1Z</time>
      </trkpt>
      <trkpt lat="48.58956" lon="-3.14257">
        <ele>286</ele>
        <time>2016-04-03T09:40:39.1Z</time>
      </trkpt>
      <trkpt lat="48.58955" lon="-3.14256">
        <ele>286</ele>
        <time>2016-04-03T09:40:41.1Z</time>
      </trkpt>
      <trkpt lat="48.58955" lon="-3.14255">
        <ele>286</ele>
        <time>2016-04-03T09:40:44.1Z</time>
      </trkpt>
      <trkpt lat="48.58953" lon="-3.14253">
        <ele>286</ele>
        <time>2016-04-03T09:40:46.1Z</time>
      </trkpt>
      <trkpt lat="48.58953" lon="-3.14251">
        <ele>286</ele>
        <time>2016-04-03T09:40:48.1Z</time>
      </trkpt>
      <trkpt lat="48.58953" lon="-3.1425">
        <ele>286</ele>
        <time>2016-04-03T09:40:50.1Z</time>
      </trkpt>
      <trkpt lat="48.58953" lon="-3.14249">
        <ele>286</ele>
        <time>2016-04-03T09:40:53.1Z</time>
      </trkpt>
      <trkpt lat="48.58954" lon="-3.14247">
        <ele>287</ele>
        <time>2016-04-03T09:40:55.1Z</time>
      </trkpt>
      <trkpt lat="48.58954" lon="-3.14245">
        <ele>287</ele>
        <time>2016-04-03T09:40:58.1Z</time>
      </trkpt>
      <trkpt lat="48.58954" lon="-3.14243">
        <ele>288</ele>
        <time>2016-04-03T09:41:00.1Z</time>
      </trkpt>
      <trkpt lat="48.58953" lon="-3.1424">
        <ele>288</ele>
        <time>2016-04-03T09:41:02.1Z</time>
      </trkpt>
      <trkpt lat="48.58952" lon="-3.14236">
        <ele>288</ele>
        <time>2016-04-03T09:41:05.1Z</time>
      </trkpt>
      <trkpt lat="48.58952" lon="-3.14234">
        <ele>288</ele>
        <time>2016-04-03T09:41:07.1Z</time>
      </trkpt>
      <trkpt lat="48.5895" lon="-3.1423">
        <ele>288</ele>
        <time>2016-04-03T09:41:09.1Z</time>
      </trkpt>
      <trkpt lat="48.58949" lon="-3.14228">
        <ele>288</ele>
        <time>2016-04-03T09:41:11.1Z</time>
      </trkpt>
      <trkpt lat="48.58945" lon="-3.14225">
        <ele>288</ele>
        <time>2016-04-03T09:41:14.1Z</time>
      </trkpt>
      <trkpt lat="48.58943" lon="-3.14223">
        <ele>288</ele>
        <time>2016-04-03T09:41:16.1Z</time>
      </trkpt>
      <trkpt lat="48.58941" lon="-3.14221">
        <ele>288</ele>
        <time>2016-04-03T09:41:18.1Z</time>
      </trkpt>
      <trkpt lat="48.58939" lon="-3.14218">
        <ele>289</ele>
        <time>2016-04-03T09:41:21.1Z</time>
      </trkpt>
      <trkpt lat="48.58937" lon="-3.14216">
        <ele>289</ele>
        <time>2016-04-03T09:41:23.1Z</time>
      </trkpt>
      <trkpt lat="48.58936" lon="-3.14213">
        <ele>289</ele>
        <time>2016-04-03T09:41:25.1Z</time>
      </trkpt>
      <trkpt lat="48.58934" lon="-3.14212">
        <ele>290</ele>
        <time>2016-04-03T09:41:27.1Z</time>
      </trkpt>
      <trkpt lat="48.58931" lon="-3.1421">
        <ele>290</ele>
        <time>2016-04-03T09:41:29.1Z</time>
      </trkpt>
      <trkpt lat="48.58929" lon="-3.14207">
        <ele>290</ele>
        <time>2016-04-03T09:41:32.1Z</time>
      </trkpt>
      <trkpt lat="48.58927" lon="-3.14205">
        <ele>290</ele>
        <time>2016-04-03T09:41:35.1Z</time>
      </trkpt>
      <trkpt lat="48.58925" lon="-3.14202">
        <ele>291</ele>
        <time>2016-04-03T09:41:38.1Z</time>
      </trkpt>
      <trkpt lat="48.58921" lon="-3.14202">
        <ele>292</ele>
        <time>2016-04-03T09:41:41.1Z</time>
      </trkpt>
      <trkpt lat="48.58918" lon="-3.142">
        <ele>292</ele>
        <time>2016-04-03T09:41:44.1Z</time>
      </trkpt>
      <trkpt lat="48.58915" lon="-3.14198">
        <ele>293</ele>
        <time>2016-04-03T09:41:47.1Z</time>
      </trkpt>
      <trkpt lat="48.58913" lon="-3.14197">
        <ele>293</ele>
        <time>2016-04-03T09:41:49.1Z</time>
      </trkpt>
      <trkpt lat="48.5891" lon="-3.14196">
        <ele>293</ele>
        <time>2016-04-03T09:41:52.1Z</time>
      </trkpt>
      <trkpt lat="48.58908" lon="-3.14195">
        <ele>293</ele>
        <time>2016-04-03T09:41:54.1Z</time>
      </trkpt>
      <trkpt lat="48.58907" lon="-3.14194">
        <ele>293</ele>
        <time>2016-04-03T09:41:56.1Z</time>
      </trkpt>
      <trkpt lat="48.58904" lon="-3.14192">
        <ele>294</ele>
        <time>2016-04-03T09:41:59.1Z</time>
      </trkpt>
      <trkpt lat="48.589" lon="-3.14192">
        <ele>294</ele>
        <time>2016-04-03T09:42:02.1Z</time>
      </trkpt>
      <trkpt lat="48.58899" lon="-3.14192">
        <ele>294</ele>
        <time>2016-04-03T09:42:04.1Z</time>
      </trkpt>
      <trkpt lat="48.58897" lon="-3.14191">
        <ele>294</ele>
        <time>2016-04-03T09:42:07.1Z</time>
      </trkpt>
      <trkpt lat="48.58895" lon="-3.14191">
        <ele>294</ele>
        <time>2016-04-03T09:42:09.1Z</time>
      </trkpt>
      <trkpt lat="48.58891" lon="-3.1419">
        <ele>295</ele>
        <time>2016-04-03T09:42:12.1Z</time>
      </trkpt>
      <trkpt lat="48.58889" lon="-3.14191">
        <ele>295</ele>
        <time>2016-04-03T09:42:14.1Z</time>
      </trkpt>
      <trkpt lat="48.58888" lon="-3.14192">
        <ele>295</ele>
        <time>2016-04-03T09:42:16.1Z</time>
      </trkpt>
      <trkpt lat="48.58887" lon="-3.14191">
        <ele>295</ele>
        <time>2016-04-03T09:42:18.1Z</time>
      </trkpt>
      <trkpt lat="48.58885" lon="-3.14192">
        <ele>295</ele>
        <time>2016-04-03T09:42:21.1Z</time>
      </trkpt>
      <trkpt lat="48.58884" lon="-3.14191">
        <ele>295</ele>
        <time>2016-04-03T09:42:23.1Z</time>
      </trkpt>
      <trkpt lat="48.58881" lon="-3.14192">
        <ele>296</ele>
        <time>2016-04-03T09:42:26.1Z</time>
      </trkpt>
      <trkpt lat="48.58879" lon="-3.14193">
        <ele>296</ele>
        <time>2016-04-03T09:42:29.1Z</time>
      </trkpt>
      <trkpt lat="48.58878" lon="-3.14192">
        <ele>296</ele>
        <time>2016-04-03T09:42:31.1Z</time>
      </trkpt>
      <trkpt lat="48.58875" lon="-3.14193">
        <ele>296</ele>
        <time>2016-04-03T09:42:34.1Z</time>
      </trkpt>
      <trkpt lat="48.58873" lon="-3.14194">
        <ele>296</ele>
        <time>2016-04-03T09:42:37.1Z</time>
      </trkpt>
      <trkpt lat="48.58871" lon="-3.14194">
        <ele>296</ele>
        <time>2016-04-03T09:42:39.1Z</time>
      </trkpt>
      <trkpt lat="48.58868" lon="-3.14194">
        <ele>296</ele>
        <time>2016-04-03T09:42:42.1Z</time>
      </trkpt>
      <trkpt lat="48.58866" lon="-3.14194">
        <ele>297</ele>
        <time>2016-04-03T09:42:44.1Z</time>
      </trkpt>
      <trkpt lat="48.58863" lon="-3.14194">
        <ele>297</ele>
        <time>2016-04-03T09:42:47.1Z</time>
      </trkpt>
      <trkpt lat="48.5886" lon="-3.14194">
        <ele>297</ele>
        <time>2016-04-03T09:42:49.1Z</time>
      </trkpt>
      <trkpt lat="48.58856" lon="-3.14194">
        <ele>297</ele>
        <time>2016-04-03T09:42:52.1Z</time>
      </trkpt>
      <trkpt lat="48.58853" lon="-3.14195">
        <ele>298</ele>
        <time>2016-04-03T09:42:55.1Z</time>
      </trkpt>
      <trkpt lat="48.5885" lon="-3.14195">
        <ele>298</ele>
        <time>2016-04-03T09:42:57.1Z</time>
      </trkpt>
      <trkpt lat="48.58848" lon="-3.14194">
        <ele>298</ele>
        <time>2016-04-03T09:43:00.1Z</time>
      </trkpt>
      <trkpt lat="48.58846" lon="-3.14194">
        <ele>298</ele>
        <time>2016-04-03T09:43:02.1Z</time>
      </trkpt>
      <trkpt lat="48.58844" lon="-3.14194">
        <ele>298</ele>
        <time>2016-04-03T09:43:04.1Z</time>
      </trkpt>
      <trkpt lat="48.58842" lon="-3.14195">
        <ele>298</ele>
        <time>2016-04-03T09:43:07.1Z</time>
      </trkpt>
      <trkpt lat="48.5884" lon="-3.14195">
        <ele>298</ele>
        <time>2016-04-03T09:43:10.1Z</time>
      </trkpt>
      <trkpt lat="48.58837" lon="-3.14195">
        <ele>298</ele>
        <time>2016-04-03T09:43:13.1Z</time>
      </trkpt>
      <trkpt lat="48.58835" lon="-3.14196">
        <ele>299</ele>
        <time>2016-04-03T09:43:15.1Z</time>
      </trkpt>
      <trkpt lat="48.58833" lon="-3.14195">
        <ele>298</ele>
        <time>2016-04-03T09:43:18.1Z</time>
      </trkpt>
      <trkpt lat="48.58831" lon="-3.14196">
        <ele>299</ele>
        <time>2016-04-03T09:43:20.1Z</time>
      </trkpt>
      <trkpt lat="48.58831" lon="-3.14197">
        <ele>299</ele>
        <time>2016-04-03T09:43:22.1Z</time>
      </trkpt>
      <trkpt lat="48.58829" lon="-3.14197">
        <ele>299</ele>
        <time>2016-04-03T09:43:24.1Z</time>
      </trkpt>
      <trkpt lat="48.58826" lon="-3.14198">
        <ele>299</ele>
        <time>2016-04-03T09:43:27.1Z</time>
      </trkpt>
      <trkpt lat="48.58825" lon="-3.14198">
        <ele>299</ele>
        <time>2016-04-03T09:43:29.1Z</time>
      </trkpt>
      <trkpt lat="48.58821" lon="-3.14198">
        <ele>299</ele>
        <time>2016-04-03T09:43:32.1Z</time>
      </trkpt>
      <trkpt lat="48.5882" lon="-3.14199">
        <ele>299</ele>
        <time>2016-04-03T09:43:34.1Z</time>
      </trkpt>
      <trkpt lat="48.58816" lon="-3.14199">
        <ele>299</ele>
        <time>2016-04-03T09:43:37.1Z</time>
      </trkpt>
      <trkpt lat="48.58814" lon="-3.14199">
        <ele>299</ele>
        <time>2016-04-03T09:43:40.1Z</time>
      </trkpt>
      <trkpt lat="48.58812" lon="-3.14198">
        <ele>299</ele>
        <time>2016-04-03T09:43:43.1Z</time>
      </trkpt>
      <trkpt lat="48.58811" lon="-3.14198">
        <ele>300</ele>
        <time>2016-04-03T09:43:45.1Z</time>
      </trkpt>
      <trkpt lat="48.58811" lon="-3.14198">
        <ele>300</ele>
        <time>2016-04-03T09:43:47.1Z</time>
      </trkpt>
      <trkpt lat="48.58809" lon="-3.14199">
        <ele>300</ele>
        <time>2016-04-03T09:43:50.1Z</time>
      </trkpt>
      <trkpt lat="48.58807" lon="-3.14199">
        <ele>300</ele>
        <time>2016-04-03T09:43:52.1Z</time>
      </trkpt>
      <trkpt lat="48.58806" lon="-3.14199">
        <ele>300</ele>
        <time>2016-04-03T09:43:54.1Z</time>
      </trkpt>
      <trkpt lat="48.58803" lon="-3.14199">
        <ele>300</ele>
        <time>2016-04-03T09:43:57.1Z</time>
      </trkpt>
      <trkpt lat="48.58802" lon="-3.14197">
        <ele>301</ele>
        <time>2016-04-03T09:44:00.1Z</time>
      </trkpt>
      <trkpt lat="48.58802" lon="-3.14195">
        <ele>301</ele>
        <time>2016-04-03T09:44:02.1Z</time>
      </trkpt>
      <trkpt lat="48.58801" lon="-3.14193">
        <ele>301</ele>
        <time>2016-04-03T09:44:05.1Z</time>
      </trkpt>
      <trkpt lat="48.588" lon="-3.1419">
        <ele>300</ele>
        <time>2016-04-03T09:44:08.1Z</time>
      </trkpt>
      <trkpt lat="48.588" lon="-3.14188">
        <ele>300</ele>
        <time>2016-04-03T09:44:10.1Z</time>
      </trkpt>
      <trkpt lat="48.58799" lon="-3.14186">
        <ele>300</ele>
        <time>2016-04-03T09:44:13.1Z</time>
      </trkpt>
      <trkpt lat="48.58799" lon="-3.14184">
        <ele>300</ele>
        <time>2016-04-03T09:44:16.1Z</time>
      </trkpt>
      <trkpt lat="48.58798" lon="-3.14183">
        <ele>301</ele>
        <time>2016-04-03T09:44:18.1Z</time>
      </trkpt>
      <trkpt lat="48.58797" lon="-3.14182">
        <ele>301</ele>
        <time>2016-04-03T09:44:21.1Z</time>
      </trkpt>
      <trkpt lat="48.58797" lon="-3.14179">
        <ele>301</ele>
        <time>2016-04-03T09:44:24.1Z</time>
      </trkpt>
      <trkpt lat="48.58796" lon="-3.14176">
        <ele>301</ele>
        <time>2016-04-03T09:44:27.1Z</time>
      </trkpt>
      <trkpt lat="48.58796" lon="-3.14175">
        <ele>301</ele>
        <time>2016-04-03T09:44:29.1Z</time>
      </trkpt>
      <trkpt lat="48.58798" lon="-3.14171">
        <ele>301</ele>
        <time>2016-04-03T09:44:32.1Z</time>
      </trkpt>
      <trkpt lat="48.58799" lon="-3.14168">
        <ele>301</ele>
        <time>2016-04-03T09:44:34.1Z</time>
      </trkpt>
      <trkpt lat="48.588" lon="-3.14166">
        <ele>300</ele>
        <time>2016-04-03T09:44:36.1Z</time>
      </trkpt>
      <trkpt lat="48.588" lon="-3.14166">
        <ele>300</ele>
        <time>2016-04-03T09:44:39.1Z</time>
      </trkpt>
      <trkpt lat="48.58799" lon="-3.14167">
        <ele>300</ele>
        <time>2016-04-03T09:44:41.1Z</time>
      </trkpt>
      <trkpt lat="48.58799" lon="-3.14169">
        <ele>300</ele>
        <time>2016-04-03T09:44:43.1Z</time>
      </trkpt>
      <trkpt lat="48.58799" lon="-3.14171">
        <ele>300</ele>
        <time>2016-04-03T09:44:46.1Z</time>
      </trkpt>
      <trkpt lat="48.588" lon="-3.14171">
        <ele>300</ele>
        <time>2016-04-03T09:44:48.1Z</time>
      </trkpt>
      <trkpt lat="48.588" lon="-3.14172">
        <ele>300</ele>
        <time>2016-04-03T09:44:50.1Z</time>
      </trkpt>
      <trkpt lat="48.588" lon="-3.14173">
        <ele>300</ele>
        <time>2016-04-03T09:44:53.1Z</time>
      </trkpt>
      <trkpt lat="48.588" lon="-3.14174">
        <ele>300</ele>
        <time>2016-04-03T09:44:55.1Z</time>
      </trkpt>
      <trkpt lat="48.58799" lon="-3.14175">
        <ele>300</ele>
        <time>2016-04-03T09:44:58.1Z</time>
      </trkpt>
      <trkpt lat="48.58798" lon="-3.14176">
        <ele>300</ele>
        <time>2016-04-03T09:45:01.1Z</time>
      </trkpt>
      <trkpt lat="48.58796" lon="-3.14178">
        <ele>300</ele>
        <time>2016-04-03T09:45:04.1Z</time>
      </trkpt>
      <trkpt lat="48.58795" lon="-3.14179">
        <ele>300</ele>
        <time>2016-04-03T09:45:07.1Z</time>
      </trkpt>
      <trkpt lat="48.58794" lon="-3.14179">
        <ele>300</ele>
        <time>2016-04-03T09:45:10.1Z</time>
      </trkpt>
      <trkpt lat="48.58794" lon="-3.1418">
        <ele>299</ele>
        <time>2016-04-03T09:45:13.1Z</time>
      </trkpt>
      <trkpt lat="48.58795" lon="-3.1418">
        <ele>300</ele>
        <time>2016-04-03T09:45:16.1Z</time>
      </trkpt>
      <trkpt lat="48.58795" lon="-3.14179">
        <ele>300</ele>
        <time>2016-04-03T09:45:18.1Z</time>
      </trkpt>
      <trkpt lat="48.58794" lon="-3.14176">
        <ele>300</ele>
        <time>2016-04-03T09:45:21.1Z</time>
      </trkpt>
      <trkpt lat="48.58793" lon="-3.14172">
        <ele>301</ele>
        <time>2016-04-03T09:45:23.1Z</time>
      </trkpt>
      <trkpt lat="48.58793" lon="-3.14169">
        <ele>300</ele>
        <time>2016-04-03T09:45:25.1Z</time>
      </trkpt>
      <trkpt lat="48.58794" lon="-3.14164">
        <ele>301</ele>
        <time>2016-04-03T09:45:28.1Z</time>
      </trkpt>
      <trkpt lat="48.58796" lon="-3.14158">
        <ele>301</ele>
        <time>2016-04-03T09:45:31.1Z</time>
      </trkpt>
      <trkpt lat="48.58796" lon="-3.14154">
        <ele>301</ele>
        <time>2016-04-03T09:45:33.1Z</time>
      </trkpt>
      <trkpt lat="48.58796" lon="-3.14149">
        <ele>301</ele>
        <time>2016-04-03T09:45:36.1Z</time>
      </trkpt>
      <trkpt lat="48.58795" lon="-3.14143">
        <ele>301</ele>
        <time>2016-04-03T09:45:39.1Z</time>
      </trkpt>
      <trkpt lat="48.58793" lon="-3.14141">
        <ele>301</ele>
        <time>2016-04-03T09:45:41.1Z</time>
      </trkpt>
      <trkpt lat="48.58789" lon="-3.14141">
        <ele>301</ele>
        <time>2016-04-03T09:45:44.1Z</time>
      </trkpt>
      <trkpt lat="48.58787" lon="-3.1414">
        <ele>301</ele>
        <time>2016-04-03T09:45:47.1Z</time>
      </trkpt>
      <trkpt lat="48.58785" lon="-3.1414">
        <ele>301</ele>
        <time>2016-04-03T09:45:49.1Z</time>
      </trkpt>
      <trkpt lat="48.58781" lon="-3.1414">
        <ele>301</ele>
        <time>2016-04-03T09:45:52.1Z</time>
      </trkpt>
      <trkpt lat="48.58778" lon="-3.1414">
        <ele>300</ele>
        <time>2016-04-03T09:45:54.1Z</time>
      </trkpt>
      <trkpt lat="48.58774" lon="-3.14141">
        <ele>300</ele>
        <time>2016-04-03T09:45:57.1Z</time>
      </trkpt>
      <trkpt lat="48.5877" lon="-3.14142">
        <ele>300</ele>
        <time>2016-04-03T09:46:00.1Z</time>
      </trkpt>
      <trkpt lat="48.58766" lon="-3.14142">
        <ele>300</ele>
        <time>2016-04-03T09:46:03.1Z</time>
      </trkpt>
      <trkpt lat="48.58763" lon="-3.14143">
        <ele>301</ele>
        <time>2016-04-03T09:46:06.1Z</time>
      </trkpt>
      <trkpt lat="48.5876" lon="-3.14144">
        <ele>301</ele>
        <time>2016-04-03T09:46:08.1Z</time>
      </trkpt>
      <trkpt lat="48.58759" lon="-3.14144">
        <ele>301</ele>
        <time>2016-04-03T09:46:10.1Z</time>
      </trkpt>
      <trkpt lat="48.58757" lon="-3.14143">
        <ele>300</ele>
        <time>2016-04-03T09:46:13.1Z</time>
      </trkpt>
      <trkpt lat="48.58754" lon="-3.14147">
        <ele>300</ele>
        <time>2016-04-03T09:46:16.1Z</time>
      </trkpt>
      <trkpt lat="48.58753" lon="-3.14147">
        <ele>300</ele>
        <time>2016-04-03T09:46:18.1Z</time>
      </trkpt>
      <trkpt lat="48.5875" lon="-3.1415">
        <ele>300</ele>
        <time>2016-04-03T09:46:21.1Z</time>
      </trkpt>
      <trkpt lat="48.58747" lon="-3.14152">
        <ele>300</ele>
        <time>2016-04-03T09:46:23.1Z</time>
      </trkpt>
      <trkpt lat="48.58744" lon="-3.14153">
        <ele>300</ele>
        <time>2016-04-03T09:46:26.1Z</time>
      </trkpt>
      <trkpt lat="48.58741" lon="-3.14153">
        <ele>301</ele>
        <time>2016-04-03T09:46:29.1Z</time>
      </trkpt>
      <trkpt lat="48.58739" lon="-3.14153">
        <ele>301</ele>
        <time>2016-04-03T09:46:31.1Z</time>
      </trkpt>
      <trkpt lat="48.58738" lon="-3.14153">
        <ele>301</ele>
        <time>2016-04-03T09:46:33.1Z</time>
      </trkpt>
      <trkpt lat="48.58736" lon="-3.14154">
        <ele>302</ele>
        <time>2016-04-03T09:46:36.1Z</time>
      </trkpt>
      <trkpt lat="48.58733" lon="-3.14157">
        <ele>302</ele>
        <time>2016-04-03T09:46:39.1Z</time>
      </trkpt>
      <trkpt lat="48.58732" lon="-3.14158">
        <ele>303</ele>
        <time>2016-04-03T09:46:41.1Z</time>
      </trkpt>
      <trkpt lat="48.58729" lon="-3.14161">
        <ele>304</ele>
        <time>2016-04-03T09:46:44.1Z</time>
      </trkpt>
      <trkpt lat="48.58727" lon="-3.14163">
        <ele>304</ele>
        <time>2016-04-03T09:46:47.1Z</time>
      </trkpt>
      <trkpt lat="48.58725" lon="-3.14165">
        <ele>305</ele>
        <time>2016-04-03T09:46:49.1Z</time>
      </trkpt>
      <trkpt lat="48.58724" lon="-3.14167">
        <ele>306</ele>
        <time>2016-04-03T09:46:51.1Z</time>
      </trkpt>
      <trkpt lat="48.58722" lon="-3.1417">
        <ele>306</ele>
        <time>2016-04-03T09:46:54.1Z</time>
      </trkpt>
      <trkpt lat="48.58721" lon="-3.14171">
        <ele>307</ele>
        <time>2016-04-03T09:46:56.1Z</time>
      </trkpt>
      <trkpt lat="48.5872" lon="-3.14174">
        <ele>307</ele>
        <time>2016-04-03T09:46:59.1Z</time>
      </trkpt>
      <trkpt lat="48.58717" lon="-3.14176">
        <ele>308</ele>
        <time>2016-04-03T09:47:02.1Z</time>
      </trkpt>
      <trkpt lat="48.58716" lon="-3.14178">
        <ele>308</ele>
        <time>2016-04-03T09:47:05.1Z</time>
      </trkpt>
      <trkpt lat="48.58712" lon="-3.14182">
        <ele>309</ele>
        <time>2016-04-03T09:47:08.1Z</time>
      </trkpt>
      <trkpt lat="48.5871" lon="-3.14184">
        <ele>309</ele>
        <time>2016-04-03T09:47:11.1Z</time>
      </trkpt>
      <trkpt lat="48.58709" lon="-3.14186">
        <ele>309</ele>
        <time>2016-04-03T09:47:13.1Z</time>
      </trkpt>
      <trkpt lat="48.58707" lon="-3.14188">
        <ele>309</ele>
        <time>2016-04-03T09:47:16.1Z</time>
      </trkpt>
      <trkpt lat="48.58707" lon="-3.1419">
        <ele>309</ele>
        <time>2016-04-03T09:47:18.1Z</time>
      </trkpt>
      <trkpt lat="48.58705" lon="-3.14191">
        <ele>310</ele>
        <time>2016-04-03T09:47:20.1Z</time>
      </trkpt>
      <trkpt lat="48.58702" lon="-3.14194">
        <ele>310</ele>
        <time>2016-04-03T09:47:23.1Z</time>
      </trkpt>
      <trkpt lat="48.587" lon="-3.14195">
        <ele>310</ele>
        <time>2016-04-03T09:47:26.1Z</time>
      </trkpt>
      <trkpt lat="48.58698" lon="-3.14194">
        <ele>311</ele>
        <time>2016-04-03T09:47:29.1Z</time>
      </trkpt>
      <trkpt lat="48.58697" lon="-3.14193">
        <ele>311</ele>
        <time>2016-04-03T09:47:31.1Z</time>
      </trkpt>
      <trkpt lat="48.58696" lon="-3.1419">
        <ele>311</ele>
        <time>2016-04-03T09:47:34.1Z</time>
      </trkpt>
      <trkpt lat="48.58696" lon="-3.14188">
        <ele>312</ele>
        <time>2016-04-03T09:47:37.1Z</time>
      </trkpt>
      <trkpt lat="48.58696" lon="-3.14186">
        <ele>312</ele>
        <time>2016-04-03T09:47:39.1Z</time>
      </trkpt>
      <trkpt lat="48.58696" lon="-3.14183">
        <ele>312</ele>
        <time>2016-04-03T09:47:41.1Z</time>
      </trkpt>
      <trkpt lat="48.58696" lon="-3.14181">
        <ele>312</ele>
        <time>2016-04-03T09:47:44.1Z</time>
      </trkpt>
      <trkpt lat="48.58695" lon="-3.14178">
        <ele>312</ele>
        <time>2016-04-03T09:47:46.1Z</time>
      </trkpt>
      <trkpt lat="48.58696" lon="-3.14176">
        <ele>312</ele>
        <time>2016-04-03T09:47:49.1Z</time>
      </trkpt>
      <trkpt lat="48.58696" lon="-3.14173">
        <ele>312</ele>
        <time>2016-04-03T09:47:52.1Z</time>
      </trkpt>
      <trkpt lat="48.58695" lon="-3.14168">
        <ele>312</ele>
        <time>2016-04-03T09:47:55.1Z</time>
      </trkpt>
      <trkpt lat="48.58695" lon="-3.14167">
        <ele>312</ele>
        <time>2016-04-03T09:47:57.1Z</time>
      </trkpt>
      <trkpt lat="48.58694" lon="-3.14165">
        <ele>312</ele>
        <time>2016-04-03T09:47:59.1Z</time>
      </trkpt>
      <trkpt lat="48.58695" lon="-3.14163">
        <ele>312</ele>
        <time>2016-04-03T09:48:01.1Z</time>
      </trkpt>
      <trkpt lat="48.58695" lon="-3.14161">
        <ele>312</ele>
        <time>2016-04-03T09:48:03.1Z</time>
      </trkpt>
      <trkpt lat="48.58696" lon="-3.14158">
        <ele>312</ele>
        <time>2016-04-03T09:48:06.1Z</time>
      </trkpt>
      <trkpt lat="48.58696" lon="-3.14155">
        <ele>312</ele>
        <time>2016-04-03T09:48:08.1Z</time>
      </trkpt>
      <trkpt lat="48.58697" lon="-3.14152">
        <ele>312</ele>
        <time>2016-04-03T09:48:10.1Z</time>
      </trkpt>
      <trkpt lat="48.58696" lon="-3.14147">
        <ele>312</ele>
        <time>2016-04-03T09:48:13.1Z</time>
      </trkpt>
      <trkpt lat="48.58696" lon="-3.14144">
        <ele>312</ele>
        <time>2016-04-03T09:48:15.1Z</time>
      </trkpt>
      <trkpt lat="48.58697" lon="-3.14141">
        <ele>311</ele>
        <time>2016-04-03T09:48:17.1Z</time>
      </trkpt>
      <trkpt lat="48.58697" lon="-3.14139">
        <ele>311</ele>
        <time>2016-04-03T09:48:19.1Z</time>
      </trkpt>
      <trkpt lat="48.58697" lon="-3.14135">
        <ele>311</ele>
        <time>2016-04-03T09:48:22.1Z</time>
      </trkpt>
      <trkpt lat="48.58696" lon="-3.14132">
        <ele>311</ele>
        <time>2016-04-03T09:48:24.1Z</time>
      </trkpt>
      <trkpt lat="48.58695" lon="-3.1413">
        <ele>312</ele>
        <time>2016-04-03T09:48:26.1Z</time>
      </trkpt>
      <trkpt lat="48.58694" lon="-3.14126">
        <ele>312</ele>
        <time>2016-04-03T09:48:29.1Z</time>
      </trkpt>
      <trkpt lat="48.58693" lon="-3.14123">
        <ele>312</ele>
        <time>2016-04-03T09:48:31.1Z</time>
      </trkpt>
      <trkpt lat="48.58693" lon="-3.1412">
        <ele>312</ele>
        <time>2016-04-03T09:48:33.1Z</time>
      </trkpt>
      <trkpt lat="48.58693" lon="-3.14118">
        <ele>312</ele>
        <time>2016-04-03T09:48:35.1Z</time>
      </trkpt>
      <trkpt lat="48.58692" lon="-3.14113">
        <ele>313</ele>
        <time>2016-04-03T09:48:38.1Z</time>
      </trkpt>
      <trkpt lat="48.58691" lon="-3.1411">
        <ele>313</ele>
        <time>2016-04-03T09:48:40.1Z</time>
      </trkpt>
      <trkpt lat="48.58689" lon="-3.14107">
        <ele>312</ele>
        <time>2016-04-03T09:48:42.1Z</time>
      </trkpt>
      <trkpt lat="48.58688" lon="-3.14103">
        <ele>312</ele>
        <time>2016-04-03T09:48:45.1Z</time>
      </trkpt>
      <trkpt lat="48.58686" lon="-3.14101">
        <ele>312</ele>
        <time>2016-04-03T09:48:47.1Z</time>
      </trkpt>
      <trkpt lat="48.58685" lon="-3.14098">
        <ele>312</ele>
        <time>2016-04-03T09:48:49.1Z</time>
      </trkpt>
      <trkpt lat="48.58684" lon="-3.14095">
        <ele>313</ele>
        <time>2016-04-03T09:48:52.1Z</time>
      </trkpt>
      <trkpt lat="48.58685" lon="-3.14091">
        <ele>313</ele>
        <time>2016-04-03T09:48:55.1Z</time>
      </trkpt>
      <trkpt lat="48.58686" lon="-3.14088">
        <ele>313</ele>
        <time>2016-04-03T09:48:57.1Z</time>
      </trkpt>
      <trkpt lat="48.58686" lon="-3.14086">
        <ele>313</ele>
        <time>2016-04-03T09:48:59.1Z</time>
      </trkpt>
      <trkpt lat="48.58685" lon="-3.14082">
        <ele>313</ele>
        <time>2016-04-03T09:49:02.1Z</time>
      </trkpt>
      <trkpt lat="48.58685" lon="-3.14079">
        <ele>313</ele>
        <time>2016-04-03T09:49:04.1Z</time>
      </trkpt>
      <trkpt lat="48.58685" lon="-3.14076">
        <ele>313</ele>
        <time>2016-04-03T09:49:06.1Z</time>
      </trkpt>
      <trkpt lat="48.58684" lon="-3.14073">
        <ele>313</ele>
        <time>2016-04-03T09:49:08.1Z</time>
      </trkpt>
      <trkpt lat="48.58683" lon="-3.14068">
        <ele>313</ele>
        <time>2016-04-03T09:49:11.1Z</time>
      </trkpt>
      <trkpt lat="48.58683" lon="-3.14065">
        <ele>313</ele>
        <time>2016-04-03T09:49:13.1Z</time>
      </trkpt>
      <trkpt lat="48.58683" lon="-3.14062">
        <ele>313</ele>
        <time>2016-04-03T09:49:15.1Z</time>
      </trkpt>
      <trkpt lat="48.58682" lon="-3.14057">
        <ele>313</ele>
        <time>2016-04-03T09:49:18.1Z</time>
      </trkpt>
      <trkpt lat="48.58681" lon="-3.14054">
        <ele>313</ele>
        <time>2016-04-03T09:49:20.1Z</time>
      </trkpt>
      <trkpt lat="48.58681" lon="-3.14051">
        <ele>314</ele>
        <time>2016-04-03T09:49:22.1Z</time>
      </trkpt>
      <trkpt lat="48.5868" lon="-3.14049">
        <ele>314</ele>
        <time>2016-04-03T09:49:24.1Z</time>
      </trkpt>
      <trkpt lat="48.58678" lon="-3.14044">
        <ele>313</ele>
        <time>2016-04-03T09:49:27.1Z</time>
      </trkpt>
      <trkpt lat="48.58675" lon="-3.14042">
        <ele>314</ele>
        <time>2016-04-03T09:49:30.1Z</time>
      </trkpt>
      <trkpt lat="48.58675" lon="-3.14041">
        <ele>315</ele>
        <time>2016-04-03T09:49:33.1Z</time>
      </trkpt>
      <trkpt lat="48.58675" lon="-3.1404">
        <ele>315</ele>
        <time>2016-04-03T09:49:35.1Z</time>
      </trkpt>
      <trkpt lat="48.58674" lon="-3.1404">
        <ele>315</ele>
        <time>2016-04-03T09:49:38.1Z</time>
      </trkpt>
      <trkpt lat="48.58673" lon="-3.14039">
        <ele>315</ele>
        <time>2016-04-03T09:49:40.1Z</time>
      </trkpt>
      <trkpt lat="48.58672" lon="-3.14037">
        <ele>315</ele>
        <time>2016-04-03T09:49:42.1Z</time>
      </trkpt>
      <trkpt lat="48.58672" lon="-3.14035">
        <ele>315</ele>
        <time>2016-04-03T09:49:45.1Z</time>
      </trkpt>
      <trkpt lat="48.58672" lon="-3.14036">
        <ele>315</ele>
        <time>2016-04-03T09:49:49.1Z</time>
      </trkpt>
      <trkpt lat="48.58671" lon="-3.14032">
        <ele>315</ele>
        <time>2016-04-03T09:49:52.1Z</time>
      </trkpt>
      <trkpt lat="48.5867" lon="-3.1403">
        <ele>315</ele>
        <time>2016-04-03T09:49:54.1Z</time>
      </trkpt>
      <trkpt lat="48.58669" lon="-3.14027">
        <ele>316</ele>
        <time>2016-04-03T09:49:56.1Z</time>
      </trkpt>
      <trkpt lat="48.58667" lon="-3.14025">
        <ele>316</ele>
        <time>2016-04-03T09:49:59.1Z</time>
      </trkpt>
      <trkpt lat="48.58665" lon="-3.14025">
        <ele>316</ele>
        <time>2016-04-03T09:50:02.1Z</time>
      </trkpt>
      <trkpt lat="48.58662" lon="-3.14025">
        <ele>316</ele>
        <time>2016-04-03T09:50:05.1Z</time>
      </trkpt>
      <trkpt lat="48.5866" lon="-3.14023">
        <ele>316</ele>
        <time>2016-04-03T09:50:08.1Z</time>
      </trkpt>
      <trkpt lat="48.58658" lon="-3.1402">
        <ele>316</ele>
        <time>2016-04-03T09:50:10.1Z</time>
      </trkpt>
      <trkpt lat="48.58657" lon="-3.14016">
        <ele>316</ele>
        <time>2016-04-03T09:50:13.1Z</time>
      </trkpt>
      <trkpt lat="48.58656" lon="-3.14011">
        <ele>317</ele>
        <time>2016-04-03T09:50:16.1Z</time>
      </trkpt>
      <trkpt lat="48.58656" lon="-3.14009">
        <ele>317</ele>
        <time>2016-04-03T09:50:18.1Z</time>
      </trkpt>
      <trkpt lat="48.58656" lon="-3.14007">
        <ele>317</ele>
        <time>2016-04-03T09:50:21.1Z</time>
      </trkpt>
      <trkpt lat="48.58657" lon="-3.14004">
        <ele>317</ele>
        <time>2016-04-03T09:50:23.1Z</time>
      </trkpt>
      <trkpt lat="48.58657" lon="-3.14">
        <ele>317</ele>
        <time>2016-04-03T09:50:26.1Z</time>
      </trkpt>
      <trkpt lat="48.58657" lon="-3.13996">
        <ele>316</ele>
        <time>2016-04-03T09:50:29.1Z</time>
      </trkpt>
      <trkpt lat="48.58657" lon="-3.13995">
        <ele>316</ele>
        <time>2016-04-03T09:50:31.1Z</time>
      </trkpt>
      <trkpt lat="48.58658" lon="-3.13992">
        <ele>316</ele>
        <time>2016-04-03T09:50:34.1Z</time>
      </trkpt>
      <trkpt lat="48.58658" lon="-3.13988">
        <ele>316</ele>
        <time>2016-04-03T09:50:37.1Z</time>
      </trkpt>
      <trkpt lat="48.58657" lon="-3.13984">
        <ele>316</ele>
        <time>2016-04-03T09:50:40.1Z</time>
      </trkpt>
      <trkpt lat="48.58657" lon="-3.1398">
        <ele>316</ele>
        <time>2016-04-03T09:50:43.1Z</time>
      </trkpt>
      <trkpt lat="48.58657" lon="-3.13977">
        <ele>316</ele>
        <time>2016-04-03T09:50:45.1Z</time>
      </trkpt>
      <trkpt lat="48.58657" lon="-3.13973">
        <ele>316</ele>
        <time>2016-04-03T09:50:48.1Z</time>
      </trkpt>
      <trkpt lat="48.58657" lon="-3.1397">
        <ele>316</ele>
        <time>2016-04-03T09:50:50.1Z</time>
      </trkpt>
      <trkpt lat="48.58657" lon="-3.13967">
        <ele>316</ele>
        <time>2016-04-03T09:50:52.1Z</time>
      </trkpt>
      <trkpt lat="48.58657" lon="-3.13963">
        <ele>316</ele>
        <time>2016-04-03T09:50:55.1Z</time>
      </trkpt>
      <trkpt lat="48.58657" lon="-3.1396">
        <ele>316</ele>
        <time>2016-04-03T09:50:57.1Z</time>
      </trkpt>
      <trkpt lat="48.58656" lon="-3.13956">
        <ele>316</ele>
        <time>2016-04-03T09:51:00.1Z</time>
      </trkpt>
      <trkpt lat="48.58656" lon="-3.13951">
        <ele>317</ele>
        <time>2016-04-03T09:51:03.1Z</time>
      </trkpt>
      <trkpt lat="48.58656" lon="-3.13947">
        <ele>317</ele>
        <time>2016-04-03T09:51:05.1Z</time>
      </trkpt>
      <trkpt lat="48.58656" lon="-3.13942">
        <ele>317</ele>
        <time>2016-04-03T09:51:08.1Z</time>
      </trkpt>
      <trkpt lat="48.58656" lon="-3.13937">
        <ele>316</ele>
        <time>2016-04-03T09:51:11.1Z</time>
      </trkpt>
      <trkpt lat="48.58656" lon="-3.13932">
        <ele>316</ele>
        <time>2016-04-03T09:51:14.1Z</time>
      </trkpt>
      <trkpt lat="48.58656" lon="-3.13929">
        <ele>316</ele>
        <time>2016-04-03T09:51:16.1Z</time>
      </trkpt>
      <trkpt lat="48.58656" lon="-3.13925">
        <ele>316</ele>
        <time>2016-04-03T09:51:19.1Z</time>
      </trkpt>
      <trkpt lat="48.58656" lon="-3.13921">
        <ele>315</ele>
        <time>2016-04-03T09:51:21.1Z</time>
      </trkpt>
      <trkpt lat="48.58656" lon="-3.13918">
        <ele>315</ele>
        <time>2016-04-03T09:51:23.1Z</time>
      </trkpt>
      <trkpt lat="48.58656" lon="-3.13913">
        <ele>315</ele>
        <time>2016-04-03T09:51:26.1Z</time>
      </trkpt>
      <trkpt lat="48.58657" lon="-3.13908">
        <ele>315</ele>
        <time>2016-04-03T09:51:29.1Z</time>
      </trkpt>
      <trkpt lat="48.58656" lon="-3.13902">
        <ele>315</ele>
        <time>2016-04-03T09:51:32.1Z</time>
      </trkpt>
      <trkpt lat="48.58656" lon="-3.13897">
        <ele>315</ele>
        <time>2016-04-03T09:51:35.1Z</time>
      </trkpt>
      <trkpt lat="48.58654" lon="-3.13892">
        <ele>316</ele>
        <time>2016-04-03T09:51:38.1Z</time>
      </trkpt>
      <trkpt lat="48.58654" lon="-3.13888">
        <ele>315</ele>
        <time>2016-04-03T09:51:40.1Z</time>
      </trkpt>
      <trkpt lat="48.58652" lon="-3.13884">
        <ele>315</ele>
        <time>2016-04-03T09:51:43.1Z</time>
      </trkpt>
      <trkpt lat="48.58651" lon="-3.13881">
        <ele>315</ele>
        <time>2016-04-03T09:51:45.1Z</time>
      </trkpt>
      <trkpt lat="48.58651" lon="-3.13878">
        <ele>315</ele>
        <time>2016-04-03T09:51:47.1Z</time>
      </trkpt>
      <trkpt lat="48.58651" lon="-3.13874">
        <ele>315</ele>
        <time>2016-04-03T09:51:50.1Z</time>
      </trkpt>
      <trkpt lat="48.58651" lon="-3.1387">
        <ele>314</ele>
        <time>2016-04-03T09:51:52.1Z</time>
      </trkpt>
      <trkpt lat="48.58651" lon="-3.13866">
        <ele>314</ele>
        <time>2016-04-03T09:51:54.1Z</time>
      </trkpt>
      <trkpt lat="48.58651" lon="-3.13862">
        <ele>315</ele>
        <time>2016-04-03T09:51:57.1Z</time>
      </trkpt>
      <trkpt lat="48.58651" lon="-3.13857">
        <ele>314</ele>
        <time>2016-04-03T09:52:00.1Z</time>
      </trkpt>
      <trkpt lat="48.58651" lon="-3.13854">
        <ele>315</ele>
        <time>2016-04-03T09:52:02.1Z</time>
      </trkpt>
      <trkpt lat="48.58651" lon="-3.13849">
        <ele>314</ele>
        <time>2016-04-03T09:52:05.1Z</time>
      </trkpt>
      <trkpt lat="48.58651" lon="-3.13844">
        <ele>314</ele>
        <time>2016-04-03T09:52:08.1Z</time>
      </trkpt>
      <trkpt lat="48.58651" lon="-3.13841">
        <ele>314</ele>
        <time>2016-04-03T09:52:10.1Z</time>
      </trkpt>
      <trkpt lat="48.58651" lon="-3.13836">
        <ele>314</ele>
        <time>2016-04-03T09:52:13.1Z</time>
      </trkpt>
      <trkpt lat="48.58651" lon="-3.1383">
        <ele>314</ele>
        <time>2016-04-03T09:52:16.1Z</time>
      </trkpt>
      <trkpt lat="48.58651" lon="-3.13826">
        <ele>314</ele>
        <time>2016-04-03T09:52:19.1Z</time>
      </trkpt>
      <trkpt lat="48.58651" lon="-3.13823">
        <ele>314</ele>
        <time>2016-04-03T09:52:22.1Z</time>
      </trkpt>
      <trkpt lat="48.58652" lon="-3.13822">
        <ele>314</ele>
        <time>2016-04-03T09:52:24.1Z</time>
      </trkpt>
      <trkpt lat="48.58652" lon="-3.13822">
        <ele>315</ele>
        <time>2016-04-03T09:52:26.1Z</time>
      </trkpt>
      <trkpt lat="48.58652" lon="-3.13818">
        <ele>315</ele>
        <time>2016-04-03T09:52:29.1Z</time>
      </trkpt>
      <trkpt lat="48.58651" lon="-3.13814">
        <ele>315</ele>
        <time>2016-04-03T09:52:31.1Z</time>
      </trkpt>
      <trkpt lat="48.58651" lon="-3.13809">
        <ele>314</ele>
        <time>2016-04-03T09:52:34.1Z</time>
      </trkpt>
      <trkpt lat="48.58651" lon="-3.13804">
        <ele>314</ele>
        <time>2016-04-03T09:52:37.1Z</time>
      </trkpt>
      <trkpt lat="48.58653" lon="-3.13798">
        <ele>314</ele>
        <time>2016-04-03T09:52:40.1Z</time>
      </trkpt>
      <trkpt lat="48.58653" lon="-3.13795">
        <ele>314</ele>
        <time>2016-04-03T09:52:42.1Z</time>
      </trkpt>
      <trkpt lat="48.58654" lon="-3.13792">
        <ele>314</ele>
        <time>2016-04-03T09:52:44.1Z</time>
      </trkpt>
      <trkpt lat="48.58654" lon="-3.13787">
        <ele>314</ele>
        <time>2016-04-03T09:52:47.1Z</time>
      </trkpt>
      <trkpt lat="48.58654" lon="-3.13784">
        <ele>314</ele>
        <time>2016-04-03T09:52:49.1Z</time>
      </trkpt>
      <trkpt lat="48.58655" lon="-3.13779">
        <ele>314</ele>
        <time>2016-04-03T09:52:52.1Z</time>
      </trkpt>
      <trkpt lat="48.58656" lon="-3.13774">
        <ele>314</ele>
        <time>2016-04-03T09:52:55.1Z</time>
      </trkpt>
      <trkpt lat="48.58656" lon="-3.1377">
        <ele>314</ele>
        <time>2016-04-03T09:52:58.1Z</time>
      </trkpt>
      <trkpt lat="48.58656" lon="-3.13765">
        <ele>314</ele>
        <time>2016-04-03T09:53:01.1Z</time>
      </trkpt>
      <trkpt lat="48.58656" lon="-3.13762">
        <ele>314</ele>
        <time>2016-04-03T09:53:03.1Z</time>
      </trkpt>
      <trkpt lat="48.58656" lon="-3.13758">
        <ele>314</ele>
        <time>2016-04-03T09:53:05.1Z</time>
      </trkpt>
      <trkpt lat="48.58656" lon="-3.13754">
        <ele>314</ele>
        <time>2016-04-03T09:53:08.1Z</time>
      </trkpt>
      <trkpt lat="48.58657" lon="-3.13749">
        <ele>314</ele>
        <time>2016-04-03T09:53:11.1Z</time>
      </trkpt>
      <trkpt lat="48.58657" lon="-3.13747">
        <ele>314</ele>
        <time>2016-04-03T09:53:13.1Z</time>
      </trkpt>
      <trkpt lat="48.58657" lon="-3.13747">
        <ele>314</ele>
        <time>2016-04-03T09:53:16.1Z</time>
      </trkpt>
      <trkpt lat="48.58656" lon="-3.13748">
        <ele>314</ele>
        <time>2016-04-03T09:53:18.1Z</time>
      </trkpt>
      <trkpt lat="48.58655" lon="-3.13749">
        <ele>314</ele>
        <time>2016-04-03T09:53:20.1Z</time>
      </trkpt>
      <trkpt lat="48.58654" lon="-3.13749">
        <ele>314</ele>
        <time>2016-04-03T09:53:23.1Z</time>
      </trkpt>
      <trkpt lat="48.58654" lon="-3.13749">
        <ele>314</ele>
        <time>2016-04-03T09:53:25.1Z</time>
      </trkpt>
      <trkpt lat="48.58653" lon="-3.1375">
        <ele>314</ele>
        <time>2016-04-03T09:53:28.1Z</time>
      </trkpt>
      <trkpt lat="48.58652" lon="-3.13751">
        <ele>314</ele>
        <time>2016-04-03T09:53:31.1Z</time>
      </trkpt>
      <trkpt lat="48.58652" lon="-3.13751">
        <ele>314</ele>
        <time>2016-04-03T09:53:34.1Z</time>
      </trkpt>
      <trkpt lat="48.58652" lon="-3.13752">
        <ele>314</ele>
        <time>2016-04-03T09:53:36.1Z</time>
      </trkpt>
      <trkpt lat="48.58651" lon="-3.13752">
        <ele>314</ele>
        <time>2016-04-03T09:53:39.1Z</time>
      </trkpt>
      <trkpt lat="48.5865" lon="-3.13753">
        <ele>314</ele>
        <time>2016-04-03T09:53:41.1Z</time>
      </trkpt>
      <trkpt lat="48.58649" lon="-3.13755">
        <ele>314</ele>
        <time>2016-04-03T09:53:43.1Z</time>
      </trkpt>
      <trkpt lat="48.58648" lon="-3.13757">
        <ele>314</ele>
        <time>2016-04-03T09:53:46.1Z</time>
      </trkpt>
      <trkpt lat="48.58647" lon="-3.13761">
        <ele>314</ele>
        <time>2016-04-03T09:53:48.1Z</time>
      </trkpt>
      <trkpt lat="48.58651" lon="-3.13762">
        <ele>314</ele>
        <time>2016-04-03T09:53:51.1Z</time>
      </trkpt>
      <trkpt lat="48.58654" lon="-3.13758">
        <ele>314</ele>
        <time>2016-04-03T09:53:53.1Z</time>
      </trkpt>
      <trkpt lat="48.58658" lon="-3.13753">
        <ele>314</ele>
        <time>2016-04-03T09:53:56.1Z</time>
      </trkpt>
      <trkpt lat="48.58659" lon="-3.13753">
        <ele>314</ele>
        <time>2016-04-03T09:53:58.1Z</time>
      </trkpt>
      <trkpt lat="48.58657" lon="-3.13755">
        <ele>314</ele>
        <time>2016-04-03T09:54:03.1Z</time>
      </trkpt>
      <trkpt lat="48.58658" lon="-3.13753">
        <ele>314</ele>
        <time>2016-04-03T09:54:06.1Z</time>
      </trkpt>
      <trkpt lat="48.58657" lon="-3.13752">
        <ele>314</ele>
        <time>2016-04-03T09:54:08.1Z</time>
      </trkpt>
      <trkpt lat="48.58654" lon="-3.13751">
        <ele>314</ele>
        <time>2016-04-03T09:54:11.1Z</time>
      </trkpt>
      <trkpt lat="48.58651" lon="-3.13749">
        <ele>314</ele>
        <time>2016-04-03T09:54:13.1Z</time>
      </trkpt>
      <trkpt lat="48.58643" lon="-3.13743">
        <ele>314</ele>
        <time>2016-04-03T09:54:16.1Z</time>
      </trkpt>
      <trkpt lat="48.58637" lon="-3.13743">
        <ele>313</ele>
        <time>2016-04-03T09:54:19.1Z</time>
      </trkpt>
      <trkpt lat="48.58638" lon="-3.13744">
        <ele>313</ele>
        <time>2016-04-03T09:54:22.1Z</time>
      </trkpt>
      <trkpt lat="48.58642" lon="-3.13742">
        <ele>313</ele>
        <time>2016-04-03T09:54:25.1Z</time>
      </trkpt>
      <trkpt lat="48.58643" lon="-3.1374">
        <ele>314</ele>
        <time>2016-04-03T09:54:27.1Z</time>
      </trkpt>
      <trkpt lat="48.58643" lon="-3.13742">
        <ele>314</ele>
        <time>2016-04-03T09:54:30.1Z</time>
      </trkpt>
      <trkpt lat="48.58643" lon="-3.13746">
        <ele>314</ele>
        <time>2016-04-03T09:54:32.1Z</time>
      </trkpt>
      <trkpt lat="48.58642" lon="-3.1375">
        <ele>314</ele>
        <time>2016-04-03T09:54:34.1Z</time>
      </trkpt>
      <trkpt lat="48.58641" lon="-3.13751">
        <ele>313</ele>
        <time>2016-04-03T09:54:36.1Z</time>
      </trkpt>
      <trkpt lat="48.58641" lon="-3.13752">
        <ele>313</ele>
        <time>2016-04-03T09:54:40.1Z</time>
      </trkpt>
      <trkpt lat="48.58641" lon="-3.13751">
        <ele>314</ele>
        <time>2016-04-03T09:54:42.1Z</time>
      </trkpt>
      <trkpt lat="48.58641" lon="-3.13753">
        <ele>314</ele>
        <time>2016-04-03T09:54:45.1Z</time>
      </trkpt>
      <trkpt lat="48.58643" lon="-3.13754">
        <ele>314</ele>
        <time>2016-04-03T09:54:48.1Z</time>
      </trkpt>
      <trkpt lat="48.58645" lon="-3.13753">
        <ele>314</ele>
        <time>2016-04-03T09:54:50.1Z</time>
      </trkpt>
      <trkpt lat="48.58648" lon="-3.13752">
        <ele>314</ele>
        <time>2016-04-03T09:54:52.1Z</time>
      </trkpt>
      <trkpt lat="48.58652" lon="-3.13748">
        <ele>314</ele>
        <time>2016-04-03T09:54:55.1Z</time>
      </trkpt>
      <trkpt lat="48.58669" lon="-3.13731">
        <ele>314</ele>
        <time>2016-04-03T09:55:07.1Z</time>
      </trkpt>
      <trkpt lat="48.58675" lon="-3.13724">
        <ele>314</ele>
        <time>2016-04-03T09:55:10.1Z</time>
      </trkpt>
      <trkpt lat="48.5868" lon="-3.13717">
        <ele>314</ele>
        <time>2016-04-03T09:55:13.1Z</time>
      </trkpt>
      <trkpt lat="48.58677" lon="-3.13716">
        <ele>313</ele>
        <time>2016-04-03T09:55:15.1Z</time>
      </trkpt>
      <trkpt lat="48.58668" lon="-3.13725">
        <ele>313</ele>
        <time>2016-04-03T09:55:18.1Z</time>
      </trkpt>
      <trkpt lat="48.58662" lon="-3.13732">
        <ele>313</ele>
        <time>2016-04-03T09:55:20.1Z</time>
      </trkpt>
      <trkpt lat="48.58657" lon="-3.13738">
        <ele>313</ele>
        <time>2016-04-03T09:55:23.1Z</time>
      </trkpt>
      <trkpt lat="48.58655" lon="-3.13744">
        <ele>313</ele>
        <time>2016-04-03T09:55:26.1Z</time>
      </trkpt>
      <trkpt lat="48.58652" lon="-3.1375">
        <ele>313</ele>
        <time>2016-04-03T09:55:28.1Z</time>
      </trkpt>
      <trkpt lat="48.58649" lon="-3.13761">
        <ele>313</ele>
        <time>2016-04-03T09:55:31.1Z</time>
      </trkpt>
      <trkpt lat="48.58646" lon="-3.13767">
        <ele>313</ele>
        <time>2016-04-03T09:55:33.1Z</time>
      </trkpt>
      <trkpt lat="48.58642" lon="-3.1377">
        <ele>313</ele>
        <time>2016-04-03T09:55:35.1Z</time>
      </trkpt>
      <trkpt lat="48.58637" lon="-3.1377">
        <ele>313</ele>
        <time>2016-04-03T09:55:38.1Z</time>
      </trkpt>
      <trkpt lat="48.58635" lon="-3.13769">
        <ele>313</ele>
        <time>2016-04-03T09:55:40.1Z</time>
      </trkpt>
      <trkpt lat="48.58635" lon="-3.13771">
        <ele>313</ele>
        <time>2016-04-03T09:55:43.1Z</time>
      </trkpt>
      <trkpt lat="48.58636" lon="-3.13769">
        <ele>313</ele>
        <time>2016-04-03T09:55:46.1Z</time>
      </trkpt>
      <trkpt lat="48.58634" lon="-3.13765">
        <ele>313</ele>
        <time>2016-04-03T09:55:49.1Z</time>
      </trkpt>
      <trkpt lat="48.58636" lon="-3.13759">
        <ele>313</ele>
        <time>2016-04-03T09:55:52.1Z</time>
      </trkpt>
      <trkpt lat="48.58637" lon="-3.13754">
        <ele>313</ele>
        <time>2016-04-03T09:55:54.1Z</time>
      </trkpt>
      <trkpt lat="48.58638" lon="-3.1375">
        <ele>313</ele>
        <time>2016-04-03T09:55:56.1Z</time>
      </trkpt>
      <trkpt lat="48.58636" lon="-3.13745">
        <ele>313</ele>
        <time>2016-04-03T09:55:59.1Z</time>
      </trkpt>
      <trkpt lat="48.58635" lon="-3.13744">
        <ele>313</ele>
        <time>2016-04-03T09:56:01.1Z</time>
      </trkpt>
      <trkpt lat="48.58639" lon="-3.13743">
        <ele>313</ele>
        <time>2016-04-03T09:56:04.1Z</time>
      </trkpt>
      <trkpt lat="48.58641" lon="-3.13743">
        <ele>313</ele>
        <time>2016-04-03T09:56:06.1Z</time>
      </trkpt>
      <trkpt lat="48.58641" lon="-3.13742">
        <ele>313</ele>
        <time>2016-04-03T09:56:08.1Z</time>
      </trkpt>
      <trkpt lat="48.58645" lon="-3.13741">
        <ele>313</ele>
        <time>2016-04-03T09:56:11.1Z</time>
      </trkpt>
      <trkpt lat="48.58648" lon="-3.13738">
        <ele>313</ele>
        <time>2016-04-03T09:56:13.1Z</time>
      </trkpt>
      <trkpt lat="48.5865" lon="-3.13735">
        <ele>313</ele>
        <time>2016-04-03T09:56:16.1Z</time>
      </trkpt>
      <trkpt lat="48.58652" lon="-3.13735">
        <ele>313</ele>
        <time>2016-04-03T09:56:18.1Z</time>
      </trkpt>
      <trkpt lat="48.58652" lon="-3.13735">
        <ele>313</ele>
        <time>2016-04-03T09:56:20.1Z</time>
      </trkpt>
      <trkpt lat="48.58649" lon="-3.13735">
        <ele>313</ele>
        <time>2016-04-03T09:56:23.1Z</time>
      </trkpt>
      <trkpt lat="48.58648" lon="-3.13732">
        <ele>313</ele>
        <time>2016-04-03T09:56:25.1Z</time>
      </trkpt>
      <trkpt lat="48.58647" lon="-3.13725">
        <ele>313</ele>
        <time>2016-04-03T09:56:28.1Z</time>
      </trkpt>
      <trkpt lat="48.58649" lon="-3.13719">
        <ele>314</ele>
        <time>2016-04-03T09:56:30.1Z</time>
      </trkpt>
      <trkpt lat="48.58655" lon="-3.13715">
        <ele>314</ele>
        <time>2016-04-03T09:56:33.1Z</time>
      </trkpt>
      <trkpt lat="48.58656" lon="-3.13715">
        <ele>314</ele>
        <time>2016-04-03T09:56:35.1Z</time>
      </trkpt>
      <trkpt lat="48.58653" lon="-3.13717">
        <ele>314</ele>
        <time>2016-04-03T09:56:38.1Z</time>
      </trkpt>
      <trkpt lat="48.58651" lon="-3.13715">
        <ele>314</ele>
        <time>2016-04-03T09:56:40.1Z</time>
      </trkpt>
      <trkpt lat="48.58648" lon="-3.13717">
        <ele>314</ele>
        <time>2016-04-03T09:56:43.1Z</time>
      </trkpt>
      <trkpt lat="48.58648" lon="-3.13719">
        <ele>314</ele>
        <time>2016-04-03T09:56:46.1Z</time>
      </trkpt>
      <trkpt lat="48.58651" lon="-3.13717">
        <ele>314</ele>
        <time>2016-04-03T09:56:48.1Z</time>
      </trkpt>
      <trkpt lat="48.58653" lon="-3.13716">
        <ele>314</ele>
        <time>2016-04-03T09:56:51.1Z</time>
      </trkpt>
      <trkpt lat="48.58655" lon="-3.13716">
        <ele>314</ele>
        <time>2016-04-03T09:56:53.1Z</time>
      </trkpt>
      <trkpt lat="48.58659" lon="-3.13712">
        <ele>314</ele>
        <time>2016-04-03T09:56:56.1Z</time>
      </trkpt>
      <trkpt lat="48.58661" lon="-3.13709">
        <ele>314</ele>
        <time>2016-04-03T09:56:58.1Z</time>
      </trkpt>
      <trkpt lat="48.58664" lon="-3.13706">
        <ele>314</ele>
        <time>2016-04-03T09:57:01.1Z</time>
      </trkpt>
      <trkpt lat="48.58664" lon="-3.13707">
        <ele>313</ele>
        <time>2016-04-03T09:57:03.1Z</time>
      </trkpt>
      <trkpt lat="48.58665" lon="-3.1371">
        <ele>313</ele>
        <time>2016-04-03T09:57:06.1Z</time>
      </trkpt>
      <trkpt lat="48.58665" lon="-3.13712">
        <ele>313</ele>
        <time>2016-04-03T09:57:09.1Z</time>
      </trkpt>
      <trkpt lat="48.58664" lon="-3.1373">
        <ele>313</ele>
        <time>2016-04-03T09:57:16.1Z</time>
      </trkpt>
      <trkpt lat="48.58631" lon="-3.13758">
        <ele>313</ele>
        <time>2016-04-03T09:57:39.1Z</time>
      </trkpt>
      <trkpt lat="48.58641" lon="-3.13719">
        <ele>313</ele>
        <time>2016-04-03T09:57:52.1Z</time>
      </trkpt>
      <trkpt lat="48.58644" lon="-3.13718">
        <ele>313</ele>
        <time>2016-04-03T09:57:55.1Z</time>
      </trkpt>
      <trkpt lat="48.58662" lon="-3.13783">
        <ele>314</ele>
        <time>2016-04-03T09:58:17.1Z</time>
      </trkpt>
      <trkpt lat="48.5866" lon="-3.13778">
        <ele>314</ele>
        <time>2016-04-03T09:58:19.1Z</time>
      </trkpt>
      <trkpt lat="48.58659" lon="-3.1377">
        <ele>313</ele>
        <time>2016-04-03T09:58:22.1Z</time>
      </trkpt>
      <trkpt lat="48.58657" lon="-3.1376">
        <ele>314</ele>
        <time>2016-04-03T09:58:25.1Z</time>
      </trkpt>
      <trkpt lat="48.58656" lon="-3.13754">
        <ele>314</ele>
        <time>2016-04-03T09:58:27.1Z</time>
      </trkpt>
      <trkpt lat="48.5866" lon="-3.13741">
        <ele>314</ele>
        <time>2016-04-03T09:58:35.1Z</time>
      </trkpt>
      <trkpt lat="48.58662" lon="-3.13734">
        <ele>314</ele>
        <time>2016-04-03T09:58:38.1Z</time>
      </trkpt>
      <trkpt lat="48.58666" lon="-3.13723">
        <ele>314</ele>
        <time>2016-04-03T09:58:41.1Z</time>
      </trkpt>
      <trkpt lat="48.58669" lon="-3.13716">
        <ele>314</ele>
        <time>2016-04-03T09:58:43.1Z</time>
      </trkpt>
      <trkpt lat="48.58663" lon="-3.13687">
        <ele>314</ele>
        <time>2016-04-03T09:59:00.1Z</time>
      </trkpt>
      <trkpt lat="48.58665" lon="-3.13691">
        <ele>314</ele>
        <time>2016-04-03T09:59:02.1Z</time>
      </trkpt>
      <trkpt lat="48.58669" lon="-3.13699">
        <ele>314</ele>
        <time>2016-04-03T09:59:05.1Z</time>
      </trkpt>
      <trkpt lat="48.58668" lon="-3.13705">
        <ele>314</ele>
        <time>2016-04-03T09:59:07.1Z</time>
      </trkpt>
      <trkpt lat="48.58667" lon="-3.13709">
        <ele>314</ele>
        <time>2016-04-03T09:59:09.1Z</time>
      </trkpt>
      <trkpt lat="48.58666" lon="-3.13713">
        <ele>314</ele>
        <time>2016-04-03T09:59:11.1Z</time>
      </trkpt>
      <trkpt lat="48.58663" lon="-3.13718">
        <ele>314</ele>
        <time>2016-04-03T09:59:14.1Z</time>
      </trkpt>
      <trkpt lat="48.5866" lon="-3.13722">
        <ele>314</ele>
        <time>2016-04-03T09:59:16.1Z</time>
      </trkpt>
      <trkpt lat="48.58657" lon="-3.13727">
        <ele>315</ele>
        <time>2016-04-03T09:59:19.1Z</time>
      </trkpt>
      <trkpt lat="48.58656" lon="-3.1373">
        <ele>315</ele>
        <time>2016-04-03T09:59:21.1Z</time>
      </trkpt>
      <trkpt lat="48.58655" lon="-3.13732">
        <ele>315</ele>
        <time>2016-04-03T09:59:23.1Z</time>
      </trkpt>
      <trkpt lat="48.58654" lon="-3.13735">
        <ele>315</ele>
        <time>2016-04-03T09:59:26.1Z</time>
      </trkpt>
      <trkpt lat="48.58653" lon="-3.13737">
        <ele>314</ele>
        <time>2016-04-03T09:59:28.1Z</time>
      </trkpt>
      <trkpt lat="48.58652" lon="-3.13736">
        <ele>314</ele>
        <time>2016-04-03T09:59:30.1Z</time>
      </trkpt>
      <trkpt lat="48.58651" lon="-3.13734">
        <ele>314</ele>
        <time>2016-04-03T09:59:33.1Z</time>
      </trkpt>
      <trkpt lat="48.5865" lon="-3.13732">
        <ele>315</ele>
        <time>2016-04-03T09:59:35.1Z</time>
      </trkpt>
      <trkpt lat="48.58648" lon="-3.13731">
        <ele>315</ele>
        <time>2016-04-03T09:59:37.1Z</time>
      </trkpt>
      <trkpt lat="48.58646" lon="-3.13731">
        <ele>315</ele>
        <time>2016-04-03T09:59:40.1Z</time>
      </trkpt>
      <trkpt lat="48.58644" lon="-3.13729">
        <ele>315</ele>
        <time>2016-04-03T09:59:42.1Z</time>
      </trkpt>
      <trkpt lat="48.58643" lon="-3.13727">
        <ele>314</ele>
        <time>2016-04-03T09:59:44.1Z</time>
      </trkpt>
      <trkpt lat="48.58642" lon="-3.13726">
        <ele>314</ele>
        <time>2016-04-03T09:59:46.1Z</time>
      </trkpt>
      <trkpt lat="48.58641" lon="-3.13723">
        <ele>314</ele>
        <time>2016-04-03T09:59:48.1Z</time>
      </trkpt>
      <trkpt lat="48.58639" lon="-3.13721">
        <ele>313</ele>
        <time>2016-04-03T09:59:50.1Z</time>
      </trkpt>
      <trkpt lat="48.58637" lon="-3.13717">
        <ele>314</ele>
        <time>2016-04-03T09:59:53.1Z</time>
      </trkpt>
      <trkpt lat="48.58636" lon="-3.13715">
        <ele>313</ele>
        <time>2016-04-03T09:59:55.1Z</time>
      </trkpt>
      <trkpt lat="48.58635" lon="-3.13713">
        <ele>313</ele>
        <time>2016-04-03T09:59:57.1Z</time>
      </trkpt>
      <trkpt lat="48.58633" lon="-3.13711">
        <ele>313</ele>
        <time>2016-04-03T09:59:59.1Z</time>
      </trkpt>
      <trkpt lat="48.58632" lon="-3.1371">
        <ele>313</ele>
        <time>2016-04-03T10:00:01.1Z</time>
      </trkpt>
      <trkpt lat="48.58631" lon="-3.13709">
        <ele>313</ele>
        <time>2016-04-03T10:00:05.1Z</time>
      </trkpt>
      <trkpt lat="48.58631" lon="-3.13709">
        <ele>313</ele>
        <time>2016-04-03T10:00:07.1Z</time>
      </trkpt>
      <trkpt lat="48.5863" lon="-3.13708">
        <ele>313</ele>
        <time>2016-04-03T10:00:09.1Z</time>
      </trkpt>
      <trkpt lat="48.5863" lon="-3.13708">
        <ele>313</ele>
        <time>2016-04-03T10:00:12.1Z</time>
      </trkpt>
      <trkpt lat="48.5863" lon="-3.13706">
        <ele>314</ele>
        <time>2016-04-03T10:00:15.1Z</time>
      </trkpt>
      <trkpt lat="48.5863" lon="-3.13705">
        <ele>313</ele>
        <time>2016-04-03T10:00:17.1Z</time>
      </trkpt>
      <trkpt lat="48.58629" lon="-3.13703">
        <ele>313</ele>
        <time>2016-04-03T10:00:20.1Z</time>
      </trkpt>
      <trkpt lat="48.58628" lon="-3.13701">
        <ele>314</ele>
        <time>2016-04-03T10:00:22.1Z</time>
      </trkpt>
      <trkpt lat="48.58627" lon="-3.137">
        <ele>314</ele>
        <time>2016-04-03T10:00:24.1Z</time>
      </trkpt>
      <trkpt lat="48.58625" lon="-3.13696">
        <ele>314</ele>
        <time>2016-04-03T10:00:27.1Z</time>
      </trkpt>
      <trkpt lat="48.58624" lon="-3.13694">
        <ele>313</ele>
        <time>2016-04-03T10:00:29.1Z</time>
      </trkpt>
      <trkpt lat="48.58624" lon="-3.13693">
        <ele>314</ele>
        <time>2016-04-03T10:00:31.1Z</time>
      </trkpt>
    </trkseg>
  </trk>
</gpx>